<?xml version="1.0" encoding="UTF-8" standalone="no" ?>
<gpx xmlns="http://www.topografix.com/GPX/1/1" xmlns:xsi="http://www.w3.org/2001/XMLSchema-instance" xsi:schemaLocation="http://www.topografix.com/GPX/1/1 http://www.topografix.com/GPX/1/1/gpx.xsd" version="1.1" creator="VisuGPX - https://www.visugpx.com">
  <metadata>
    <name>Riom-Châteaugay-Volvic</name>
    <desc><![CDATA[Riom-Châteaugay-Volvic]]></desc>
  </metadata>
  <trk>
    <name><![CDATA[Riom-Châteaugay-Volvic]]></name>
    <trkseg>
      <trkpt lat="45.88505" lon="3.10993">
        <ele>251</ele>
        <time>2014-08-24T09:23:52Z</time>
      </trkpt>
      <trkpt lat="45.88507" lon="3.10987">
        <ele>251</ele>
        <time>2014-08-24T09:23:54Z</time>
      </trkpt>
      <trkpt lat="45.88508" lon="3.10981">
        <ele>252</ele>
        <time>2014-08-24T09:23:56Z</time>
      </trkpt>
      <trkpt lat="45.88508" lon="3.10975">
        <ele>252</ele>
        <time>2014-08-24T09:23:58Z</time>
      </trkpt>
      <trkpt lat="45.88509" lon="3.10967">
        <ele>252</ele>
        <time>2014-08-24T09:24:00Z</time>
      </trkpt>
      <trkpt lat="45.8851" lon="3.10961">
        <ele>253</ele>
        <time>2014-08-24T09:24:02Z</time>
      </trkpt>
      <trkpt lat="45.88511" lon="3.10951">
        <ele>253</ele>
        <time>2014-08-24T09:24:05Z</time>
      </trkpt>
      <trkpt lat="45.88511" lon="3.10946">
        <ele>253</ele>
        <time>2014-08-24T09:24:07Z</time>
      </trkpt>
      <trkpt lat="45.88511" lon="3.10936">
        <ele>253</ele>
        <time>2014-08-24T09:24:10Z</time>
      </trkpt>
      <trkpt lat="45.88506" lon="3.10929">
        <ele>253</ele>
        <time>2014-08-24T09:24:12Z</time>
      </trkpt>
      <trkpt lat="45.88499" lon="3.10924">
        <ele>254</ele>
        <time>2014-08-24T09:24:14Z</time>
      </trkpt>
      <trkpt lat="45.88484" lon="3.10917">
        <ele>254</ele>
        <time>2014-08-24T09:24:17Z</time>
      </trkpt>
      <trkpt lat="45.88474" lon="3.10914">
        <ele>253</ele>
        <time>2014-08-24T09:24:19Z</time>
      </trkpt>
      <trkpt lat="45.88459" lon="3.10911">
        <ele>253</ele>
        <time>2014-08-24T09:24:22Z</time>
      </trkpt>
      <trkpt lat="45.88445" lon="3.10908">
        <ele>253</ele>
        <time>2014-08-24T09:24:25Z</time>
      </trkpt>
      <trkpt lat="45.88432" lon="3.10911">
        <ele>253</ele>
        <time>2014-08-24T09:24:28Z</time>
      </trkpt>
      <trkpt lat="45.88419" lon="3.10914">
        <ele>253</ele>
        <time>2014-08-24T09:24:31Z</time>
      </trkpt>
      <trkpt lat="45.88408" lon="3.10918">
        <ele>253</ele>
        <time>2014-08-24T09:24:34Z</time>
      </trkpt>
      <trkpt lat="45.88397" lon="3.10924">
        <ele>253</ele>
        <time>2014-08-24T09:24:37Z</time>
      </trkpt>
      <trkpt lat="45.88387" lon="3.10929">
        <ele>253</ele>
        <time>2014-08-24T09:24:40Z</time>
      </trkpt>
      <trkpt lat="45.88361" lon="3.1094">
        <ele>252</ele>
        <time>2014-08-24T09:24:43Z</time>
      </trkpt>
      <trkpt lat="45.88354" lon="3.10941">
        <ele>252</ele>
        <time>2014-08-24T09:24:45Z</time>
      </trkpt>
      <trkpt lat="45.88344" lon="3.10943">
        <ele>253</ele>
        <time>2014-08-24T09:24:48Z</time>
      </trkpt>
      <trkpt lat="45.88332" lon="3.10944">
        <ele>253</ele>
        <time>2014-08-24T09:24:51Z</time>
      </trkpt>
      <trkpt lat="45.88319" lon="3.10946">
        <ele>253</ele>
        <time>2014-08-24T09:24:54Z</time>
      </trkpt>
      <trkpt lat="45.88305" lon="3.10947">
        <ele>254</ele>
        <time>2014-08-24T09:24:57Z</time>
      </trkpt>
      <trkpt lat="45.88291" lon="3.10947">
        <ele>253</ele>
        <time>2014-08-24T09:25:00Z</time>
      </trkpt>
      <trkpt lat="45.88279" lon="3.10941">
        <ele>253</ele>
        <time>2014-08-24T09:25:03Z</time>
      </trkpt>
      <trkpt lat="45.88268" lon="3.10932">
        <ele>253</ele>
        <time>2014-08-24T09:25:06Z</time>
      </trkpt>
      <trkpt lat="45.88258" lon="3.10922">
        <ele>253</ele>
        <time>2014-08-24T09:25:09Z</time>
      </trkpt>
      <trkpt lat="45.88251" lon="3.10907">
        <ele>253</ele>
        <time>2014-08-24T09:25:12Z</time>
      </trkpt>
      <trkpt lat="45.88247" lon="3.10897">
        <ele>253</ele>
        <time>2014-08-24T09:25:14Z</time>
      </trkpt>
      <trkpt lat="45.88244" lon="3.10887">
        <ele>253</ele>
        <time>2014-08-24T09:25:16Z</time>
      </trkpt>
      <trkpt lat="45.88242" lon="3.10871">
        <ele>253</ele>
        <time>2014-08-24T09:25:19Z</time>
      </trkpt>
      <trkpt lat="45.8824" lon="3.10862">
        <ele>253</ele>
        <time>2014-08-24T09:25:21Z</time>
      </trkpt>
      <trkpt lat="45.88236" lon="3.10858">
        <ele>253</ele>
        <time>2014-08-24T09:25:23Z</time>
      </trkpt>
      <trkpt lat="45.88234" lon="3.10855">
        <ele>253</ele>
        <time>2014-08-24T09:25:26Z</time>
      </trkpt>
      <trkpt lat="45.88237" lon="3.10839">
        <ele>252</ele>
        <time>2014-08-24T09:25:29Z</time>
      </trkpt>
      <trkpt lat="45.88236" lon="3.10837">
        <ele>252</ele>
        <time>2014-08-24T09:25:32Z</time>
      </trkpt>
      <trkpt lat="45.88237" lon="3.10829">
        <ele>252</ele>
        <time>2014-08-24T09:25:35Z</time>
      </trkpt>
      <trkpt lat="45.88238" lon="3.1082">
        <ele>252</ele>
        <time>2014-08-24T09:25:38Z</time>
      </trkpt>
      <trkpt lat="45.88238" lon="3.1081">
        <ele>252</ele>
        <time>2014-08-24T09:25:41Z</time>
      </trkpt>
      <trkpt lat="45.88239" lon="3.10804">
        <ele>252</ele>
        <time>2014-08-24T09:25:43Z</time>
      </trkpt>
      <trkpt lat="45.88239" lon="3.10792">
        <ele>252</ele>
        <time>2014-08-24T09:25:45Z</time>
      </trkpt>
      <trkpt lat="45.88239" lon="3.10781">
        <ele>252</ele>
        <time>2014-08-24T09:25:48Z</time>
      </trkpt>
      <trkpt lat="45.88241" lon="3.10765">
        <ele>253</ele>
        <time>2014-08-24T09:25:51Z</time>
      </trkpt>
      <trkpt lat="45.88241" lon="3.10751">
        <ele>253</ele>
        <time>2014-08-24T09:25:54Z</time>
      </trkpt>
      <trkpt lat="45.8824" lon="3.10736">
        <ele>253</ele>
        <time>2014-08-24T09:25:57Z</time>
      </trkpt>
      <trkpt lat="45.88238" lon="3.10721">
        <ele>253</ele>
        <time>2014-08-24T09:26:00Z</time>
      </trkpt>
      <trkpt lat="45.88235" lon="3.10707">
        <ele>254</ele>
        <time>2014-08-24T09:26:02Z</time>
      </trkpt>
      <trkpt lat="45.88232" lon="3.10698">
        <ele>253</ele>
        <time>2014-08-24T09:26:04Z</time>
      </trkpt>
      <trkpt lat="45.88224" lon="3.10686">
        <ele>253</ele>
        <time>2014-08-24T09:26:08Z</time>
      </trkpt>
      <trkpt lat="45.88214" lon="3.10678">
        <ele>253</ele>
        <time>2014-08-24T09:26:11Z</time>
      </trkpt>
      <trkpt lat="45.88204" lon="3.10669">
        <ele>254</ele>
        <time>2014-08-24T09:26:13Z</time>
      </trkpt>
      <trkpt lat="45.88197" lon="3.10662">
        <ele>254</ele>
        <time>2014-08-24T09:26:16Z</time>
      </trkpt>
      <trkpt lat="45.88189" lon="3.10649">
        <ele>254</ele>
        <time>2014-08-24T09:26:18Z</time>
      </trkpt>
      <trkpt lat="45.88184" lon="3.1064">
        <ele>254</ele>
        <time>2014-08-24T09:26:21Z</time>
      </trkpt>
      <trkpt lat="45.88178" lon="3.10624">
        <ele>254</ele>
        <time>2014-08-24T09:26:24Z</time>
      </trkpt>
      <trkpt lat="45.88171" lon="3.10607">
        <ele>254</ele>
        <time>2014-08-24T09:26:26Z</time>
      </trkpt>
      <trkpt lat="45.88166" lon="3.10597">
        <ele>254</ele>
        <time>2014-08-24T09:26:29Z</time>
      </trkpt>
      <trkpt lat="45.88158" lon="3.10583">
        <ele>254</ele>
        <time>2014-08-24T09:26:32Z</time>
      </trkpt>
      <trkpt lat="45.88151" lon="3.1057">
        <ele>255</ele>
        <time>2014-08-24T09:26:34Z</time>
      </trkpt>
      <trkpt lat="45.88148" lon="3.10561">
        <ele>255</ele>
        <time>2014-08-24T09:26:37Z</time>
      </trkpt>
      <trkpt lat="45.88147" lon="3.10546">
        <ele>255</ele>
        <time>2014-08-24T09:26:39Z</time>
      </trkpt>
      <trkpt lat="45.8814" lon="3.10529">
        <ele>255</ele>
        <time>2014-08-24T09:26:43Z</time>
      </trkpt>
      <trkpt lat="45.88132" lon="3.10512">
        <ele>255</ele>
        <time>2014-08-24T09:26:45Z</time>
      </trkpt>
      <trkpt lat="45.88126" lon="3.105">
        <ele>255</ele>
        <time>2014-08-24T09:26:47Z</time>
      </trkpt>
      <trkpt lat="45.88119" lon="3.10484">
        <ele>256</ele>
        <time>2014-08-24T09:26:50Z</time>
      </trkpt>
      <trkpt lat="45.88113" lon="3.10472">
        <ele>256</ele>
        <time>2014-08-24T09:26:52Z</time>
      </trkpt>
      <trkpt lat="45.88107" lon="3.1046">
        <ele>257</ele>
        <time>2014-08-24T09:26:54Z</time>
      </trkpt>
      <trkpt lat="45.88097" lon="3.10443">
        <ele>257</ele>
        <time>2014-08-24T09:26:57Z</time>
      </trkpt>
      <trkpt lat="45.88089" lon="3.10427">
        <ele>256</ele>
        <time>2014-08-24T09:27:00Z</time>
      </trkpt>
      <trkpt lat="45.88083" lon="3.10416">
        <ele>256</ele>
        <time>2014-08-24T09:27:02Z</time>
      </trkpt>
      <trkpt lat="45.88077" lon="3.10405">
        <ele>256</ele>
        <time>2014-08-24T09:27:04Z</time>
      </trkpt>
      <trkpt lat="45.88072" lon="3.10394">
        <ele>256</ele>
        <time>2014-08-24T09:27:07Z</time>
      </trkpt>
      <trkpt lat="45.88065" lon="3.10375">
        <ele>256</ele>
        <time>2014-08-24T09:27:09Z</time>
      </trkpt>
      <trkpt lat="45.8806" lon="3.10363">
        <ele>256</ele>
        <time>2014-08-24T09:27:11Z</time>
      </trkpt>
      <trkpt lat="45.88057" lon="3.1035">
        <ele>256</ele>
        <time>2014-08-24T09:27:13Z</time>
      </trkpt>
      <trkpt lat="45.88046" lon="3.10338">
        <ele>256</ele>
        <time>2014-08-24T09:27:16Z</time>
      </trkpt>
      <trkpt lat="45.88037" lon="3.10332">
        <ele>257</ele>
        <time>2014-08-24T09:27:18Z</time>
      </trkpt>
      <trkpt lat="45.88028" lon="3.1033">
        <ele>257</ele>
        <time>2014-08-24T09:27:20Z</time>
      </trkpt>
      <trkpt lat="45.88018" lon="3.10331">
        <ele>258</ele>
        <time>2014-08-24T09:27:22Z</time>
      </trkpt>
      <trkpt lat="45.88008" lon="3.10332">
        <ele>258</ele>
        <time>2014-08-24T09:27:24Z</time>
      </trkpt>
      <trkpt lat="45.87993" lon="3.10337">
        <ele>257</ele>
        <time>2014-08-24T09:27:27Z</time>
      </trkpt>
      <trkpt lat="45.87979" lon="3.10346">
        <ele>256</ele>
        <time>2014-08-24T09:27:30Z</time>
      </trkpt>
      <trkpt lat="45.87971" lon="3.10354">
        <ele>256</ele>
        <time>2014-08-24T09:27:32Z</time>
      </trkpt>
      <trkpt lat="45.87962" lon="3.10363">
        <ele>256</ele>
        <time>2014-08-24T09:27:35Z</time>
      </trkpt>
      <trkpt lat="45.8795" lon="3.10379">
        <ele>256</ele>
        <time>2014-08-24T09:27:37Z</time>
      </trkpt>
      <trkpt lat="45.87942" lon="3.10388">
        <ele>256</ele>
        <time>2014-08-24T09:27:39Z</time>
      </trkpt>
      <trkpt lat="45.87929" lon="3.10404">
        <ele>256</ele>
        <time>2014-08-24T09:27:42Z</time>
      </trkpt>
      <trkpt lat="45.87915" lon="3.1042">
        <ele>257</ele>
        <time>2014-08-24T09:27:45Z</time>
      </trkpt>
      <trkpt lat="45.87907" lon="3.1043">
        <ele>257</ele>
        <time>2014-08-24T09:27:47Z</time>
      </trkpt>
      <trkpt lat="45.87894" lon="3.10447">
        <ele>257</ele>
        <time>2014-08-24T09:27:50Z</time>
      </trkpt>
      <trkpt lat="45.87883" lon="3.10462">
        <ele>256</ele>
        <time>2014-08-24T09:27:53Z</time>
      </trkpt>
      <trkpt lat="45.87871" lon="3.10473">
        <ele>256</ele>
        <time>2014-08-24T09:27:56Z</time>
      </trkpt>
      <trkpt lat="45.87862" lon="3.10475">
        <ele>256</ele>
        <time>2014-08-24T09:27:58Z</time>
      </trkpt>
      <trkpt lat="45.87849" lon="3.10484">
        <ele>255</ele>
        <time>2014-08-24T09:28:01Z</time>
      </trkpt>
      <trkpt lat="45.87841" lon="3.10492">
        <ele>255</ele>
        <time>2014-08-24T09:28:03Z</time>
      </trkpt>
      <trkpt lat="45.87828" lon="3.10505">
        <ele>255</ele>
        <time>2014-08-24T09:28:06Z</time>
      </trkpt>
      <trkpt lat="45.87815" lon="3.10518">
        <ele>254</ele>
        <time>2014-08-24T09:28:09Z</time>
      </trkpt>
      <trkpt lat="45.87806" lon="3.10526">
        <ele>254</ele>
        <time>2014-08-24T09:28:11Z</time>
      </trkpt>
      <trkpt lat="45.87798" lon="3.10535">
        <ele>254</ele>
        <time>2014-08-24T09:28:13Z</time>
      </trkpt>
      <trkpt lat="45.87789" lon="3.10543">
        <ele>254</ele>
        <time>2014-08-24T09:28:16Z</time>
      </trkpt>
      <trkpt lat="45.8778" lon="3.10551">
        <ele>255</ele>
        <time>2014-08-24T09:28:18Z</time>
      </trkpt>
      <trkpt lat="45.87768" lon="3.10563">
        <ele>254</ele>
        <time>2014-08-24T09:28:20Z</time>
      </trkpt>
      <trkpt lat="45.87756" lon="3.10573">
        <ele>255</ele>
        <time>2014-08-24T09:28:23Z</time>
      </trkpt>
      <trkpt lat="45.87747" lon="3.10581">
        <ele>255</ele>
        <time>2014-08-24T09:28:25Z</time>
      </trkpt>
      <trkpt lat="45.87733" lon="3.10594">
        <ele>255</ele>
        <time>2014-08-24T09:28:28Z</time>
      </trkpt>
      <trkpt lat="45.87719" lon="3.10608">
        <ele>255</ele>
        <time>2014-08-24T09:28:31Z</time>
      </trkpt>
      <trkpt lat="45.87706" lon="3.10624">
        <ele>255</ele>
        <time>2014-08-24T09:28:34Z</time>
      </trkpt>
      <trkpt lat="45.87693" lon="3.1064">
        <ele>255</ele>
        <time>2014-08-24T09:28:37Z</time>
      </trkpt>
      <trkpt lat="45.87686" lon="3.10651">
        <ele>254</ele>
        <time>2014-08-24T09:28:39Z</time>
      </trkpt>
      <trkpt lat="45.87675" lon="3.10668">
        <ele>255</ele>
        <time>2014-08-24T09:28:42Z</time>
      </trkpt>
      <trkpt lat="45.87664" lon="3.10686">
        <ele>256</ele>
        <time>2014-08-24T09:28:45Z</time>
      </trkpt>
      <trkpt lat="45.87651" lon="3.10702">
        <ele>256</ele>
        <time>2014-08-24T09:28:48Z</time>
      </trkpt>
      <trkpt lat="45.87642" lon="3.10711">
        <ele>256</ele>
        <time>2014-08-24T09:28:50Z</time>
      </trkpt>
      <trkpt lat="45.87626" lon="3.10722">
        <ele>255</ele>
        <time>2014-08-24T09:28:53Z</time>
      </trkpt>
      <trkpt lat="45.87611" lon="3.10733">
        <ele>255</ele>
        <time>2014-08-24T09:28:56Z</time>
      </trkpt>
      <trkpt lat="45.87597" lon="3.10745">
        <ele>255</ele>
        <time>2014-08-24T09:28:59Z</time>
      </trkpt>
      <trkpt lat="45.87587" lon="3.10754">
        <ele>255</ele>
        <time>2014-08-24T09:29:01Z</time>
      </trkpt>
      <trkpt lat="45.87578" lon="3.10763">
        <ele>255</ele>
        <time>2014-08-24T09:29:04Z</time>
      </trkpt>
      <trkpt lat="45.87569" lon="3.10773">
        <ele>255</ele>
        <time>2014-08-24T09:29:06Z</time>
      </trkpt>
      <trkpt lat="45.87554" lon="3.10784">
        <ele>255</ele>
        <time>2014-08-24T09:29:08Z</time>
      </trkpt>
      <trkpt lat="45.87537" lon="3.10791">
        <ele>255</ele>
        <time>2014-08-24T09:29:11Z</time>
      </trkpt>
      <trkpt lat="45.87519" lon="3.10795">
        <ele>255</ele>
        <time>2014-08-24T09:29:14Z</time>
      </trkpt>
      <trkpt lat="45.87502" lon="3.10798">
        <ele>254</ele>
        <time>2014-08-24T09:29:17Z</time>
      </trkpt>
      <trkpt lat="45.87486" lon="3.108">
        <ele>254</ele>
        <time>2014-08-24T09:29:20Z</time>
      </trkpt>
      <trkpt lat="45.87469" lon="3.10801">
        <ele>253</ele>
        <time>2014-08-24T09:29:23Z</time>
      </trkpt>
      <trkpt lat="45.87453" lon="3.10803">
        <ele>252</ele>
        <time>2014-08-24T09:29:26Z</time>
      </trkpt>
      <trkpt lat="45.87437" lon="3.10804">
        <ele>252</ele>
        <time>2014-08-24T09:29:29Z</time>
      </trkpt>
      <trkpt lat="45.87427" lon="3.10804">
        <ele>252</ele>
        <time>2014-08-24T09:29:31Z</time>
      </trkpt>
      <trkpt lat="45.87414" lon="3.10805">
        <ele>252</ele>
        <time>2014-08-24T09:29:34Z</time>
      </trkpt>
      <trkpt lat="45.87403" lon="3.10806">
        <ele>253</ele>
        <time>2014-08-24T09:29:37Z</time>
      </trkpt>
      <trkpt lat="45.87392" lon="3.10805">
        <ele>254</ele>
        <time>2014-08-24T09:29:40Z</time>
      </trkpt>
      <trkpt lat="45.87382" lon="3.10805">
        <ele>255</ele>
        <time>2014-08-24T09:29:43Z</time>
      </trkpt>
      <trkpt lat="45.87376" lon="3.10806">
        <ele>255</ele>
        <time>2014-08-24T09:29:46Z</time>
      </trkpt>
      <trkpt lat="45.87369" lon="3.10807">
        <ele>255</ele>
        <time>2014-08-24T09:29:48Z</time>
      </trkpt>
      <trkpt lat="45.8736" lon="3.10812">
        <ele>255</ele>
        <time>2014-08-24T09:29:50Z</time>
      </trkpt>
      <trkpt lat="45.87354" lon="3.10819">
        <ele>255</ele>
        <time>2014-08-24T09:29:53Z</time>
      </trkpt>
      <trkpt lat="45.87352" lon="3.10838">
        <ele>255</ele>
        <time>2014-08-24T09:29:56Z</time>
      </trkpt>
      <trkpt lat="45.87351" lon="3.10851">
        <ele>256</ele>
        <time>2014-08-24T09:29:58Z</time>
      </trkpt>
      <trkpt lat="45.87348" lon="3.10871">
        <ele>256</ele>
        <time>2014-08-24T09:30:01Z</time>
      </trkpt>
      <trkpt lat="45.87347" lon="3.10883">
        <ele>257</ele>
        <time>2014-08-24T09:30:03Z</time>
      </trkpt>
      <trkpt lat="45.87344" lon="3.10903">
        <ele>256</ele>
        <time>2014-08-24T09:30:06Z</time>
      </trkpt>
      <trkpt lat="45.87341" lon="3.10924">
        <ele>256</ele>
        <time>2014-08-24T09:30:09Z</time>
      </trkpt>
      <trkpt lat="45.87338" lon="3.10943">
        <ele>256</ele>
        <time>2014-08-24T09:30:12Z</time>
      </trkpt>
      <trkpt lat="45.87335" lon="3.10962">
        <ele>256</ele>
        <time>2014-08-24T09:30:15Z</time>
      </trkpt>
      <trkpt lat="45.87333" lon="3.10973">
        <ele>256</ele>
        <time>2014-08-24T09:30:17Z</time>
      </trkpt>
      <trkpt lat="45.8733" lon="3.10987">
        <ele>256</ele>
        <time>2014-08-24T09:30:20Z</time>
      </trkpt>
      <trkpt lat="45.87327" lon="3.10997">
        <ele>256</ele>
        <time>2014-08-24T09:30:22Z</time>
      </trkpt>
      <trkpt lat="45.87324" lon="3.11008">
        <ele>256</ele>
        <time>2014-08-24T09:30:25Z</time>
      </trkpt>
      <trkpt lat="45.8732" lon="3.11028">
        <ele>256</ele>
        <time>2014-08-24T09:30:27Z</time>
      </trkpt>
      <trkpt lat="45.87318" lon="3.11041">
        <ele>256</ele>
        <time>2014-08-24T09:30:29Z</time>
      </trkpt>
      <trkpt lat="45.87313" lon="3.11058">
        <ele>256</ele>
        <time>2014-08-24T09:30:32Z</time>
      </trkpt>
      <trkpt lat="45.87309" lon="3.11074">
        <ele>256</ele>
        <time>2014-08-24T09:30:35Z</time>
      </trkpt>
      <trkpt lat="45.87307" lon="3.11084">
        <ele>256</ele>
        <time>2014-08-24T09:30:37Z</time>
      </trkpt>
      <trkpt lat="45.87303" lon="3.11101">
        <ele>256</ele>
        <time>2014-08-24T09:30:40Z</time>
      </trkpt>
      <trkpt lat="45.873" lon="3.11112">
        <ele>256</ele>
        <time>2014-08-24T09:30:42Z</time>
      </trkpt>
      <trkpt lat="45.87296" lon="3.11128">
        <ele>257</ele>
        <time>2014-08-24T09:30:45Z</time>
      </trkpt>
      <trkpt lat="45.8729" lon="3.11141">
        <ele>256</ele>
        <time>2014-08-24T09:30:48Z</time>
      </trkpt>
      <trkpt lat="45.87285" lon="3.11148">
        <ele>256</ele>
        <time>2014-08-24T09:30:50Z</time>
      </trkpt>
      <trkpt lat="45.87279" lon="3.1116">
        <ele>256</ele>
        <time>2014-08-24T09:30:53Z</time>
      </trkpt>
      <trkpt lat="45.87274" lon="3.11167">
        <ele>256</ele>
        <time>2014-08-24T09:30:55Z</time>
      </trkpt>
      <trkpt lat="45.87268" lon="3.11174">
        <ele>256</ele>
        <time>2014-08-24T09:30:58Z</time>
      </trkpt>
      <trkpt lat="45.87262" lon="3.11185">
        <ele>256</ele>
        <time>2014-08-24T09:31:00Z</time>
      </trkpt>
      <trkpt lat="45.8726" lon="3.11193">
        <ele>256</ele>
        <time>2014-08-24T09:31:02Z</time>
      </trkpt>
      <trkpt lat="45.87257" lon="3.112">
        <ele>256</ele>
        <time>2014-08-24T09:31:04Z</time>
      </trkpt>
      <trkpt lat="45.87253" lon="3.11207">
        <ele>256</ele>
        <time>2014-08-24T09:31:06Z</time>
      </trkpt>
      <trkpt lat="45.87248" lon="3.11213">
        <ele>256</ele>
        <time>2014-08-24T09:31:08Z</time>
      </trkpt>
      <trkpt lat="45.87248" lon="3.1122">
        <ele>255</ele>
        <time>2014-08-24T09:31:11Z</time>
      </trkpt>
      <trkpt lat="45.87251" lon="3.11212">
        <ele>255</ele>
        <time>2014-08-24T09:31:14Z</time>
      </trkpt>
      <trkpt lat="45.87257" lon="3.11206">
        <ele>255</ele>
        <time>2014-08-24T09:31:17Z</time>
      </trkpt>
      <trkpt lat="45.8726" lon="3.11195">
        <ele>256</ele>
        <time>2014-08-24T09:31:19Z</time>
      </trkpt>
      <trkpt lat="45.87263" lon="3.11185">
        <ele>256</ele>
        <time>2014-08-24T09:31:21Z</time>
      </trkpt>
      <trkpt lat="45.87268" lon="3.11175">
        <ele>256</ele>
        <time>2014-08-24T09:31:24Z</time>
      </trkpt>
      <trkpt lat="45.87276" lon="3.11164">
        <ele>256</ele>
        <time>2014-08-24T09:31:26Z</time>
      </trkpt>
      <trkpt lat="45.87283" lon="3.11153">
        <ele>256</ele>
        <time>2014-08-24T09:31:29Z</time>
      </trkpt>
      <trkpt lat="45.87287" lon="3.11145">
        <ele>255</ele>
        <time>2014-08-24T09:31:31Z</time>
      </trkpt>
      <trkpt lat="45.87292" lon="3.11136">
        <ele>256</ele>
        <time>2014-08-24T09:31:34Z</time>
      </trkpt>
      <trkpt lat="45.87296" lon="3.11126">
        <ele>256</ele>
        <time>2014-08-24T09:31:37Z</time>
      </trkpt>
      <trkpt lat="45.87297" lon="3.11121">
        <ele>256</ele>
        <time>2014-08-24T09:31:40Z</time>
      </trkpt>
      <trkpt lat="45.87296" lon="3.11121">
        <ele>256</ele>
        <time>2014-08-24T09:31:42Z</time>
      </trkpt>
      <trkpt lat="45.87294" lon="3.11121">
        <ele>256</ele>
        <time>2014-08-24T09:31:45Z</time>
      </trkpt>
      <trkpt lat="45.87294" lon="3.1112">
        <ele>257</ele>
        <time>2014-08-24T09:31:48Z</time>
      </trkpt>
      <trkpt lat="45.87292" lon="3.1112">
        <ele>257</ele>
        <time>2014-08-24T09:31:51Z</time>
      </trkpt>
      <trkpt lat="45.87291" lon="3.1112">
        <ele>258</ele>
        <time>2014-08-24T09:31:53Z</time>
      </trkpt>
      <trkpt lat="45.87289" lon="3.1112">
        <ele>258</ele>
        <time>2014-08-24T09:31:56Z</time>
      </trkpt>
      <trkpt lat="45.87286" lon="3.1112">
        <ele>258</ele>
        <time>2014-08-24T09:31:58Z</time>
      </trkpt>
      <trkpt lat="45.87279" lon="3.11122">
        <ele>259</ele>
        <time>2014-08-24T09:32:02Z</time>
      </trkpt>
      <trkpt lat="45.87275" lon="3.11122">
        <ele>258</ele>
        <time>2014-08-24T09:32:05Z</time>
      </trkpt>
      <trkpt lat="45.8727" lon="3.11122">
        <ele>259</ele>
        <time>2014-08-24T09:32:07Z</time>
      </trkpt>
      <trkpt lat="45.87263" lon="3.11122">
        <ele>259</ele>
        <time>2014-08-24T09:32:10Z</time>
      </trkpt>
      <trkpt lat="45.87255" lon="3.11121">
        <ele>260</ele>
        <time>2014-08-24T09:32:13Z</time>
      </trkpt>
      <trkpt lat="45.87252" lon="3.11121">
        <ele>261</ele>
        <time>2014-08-24T09:32:15Z</time>
      </trkpt>
      <trkpt lat="45.87245" lon="3.11119">
        <ele>262</ele>
        <time>2014-08-24T09:32:18Z</time>
      </trkpt>
      <trkpt lat="45.8724" lon="3.11119">
        <ele>263</ele>
        <time>2014-08-24T09:32:21Z</time>
      </trkpt>
      <trkpt lat="45.87235" lon="3.11118">
        <ele>264</ele>
        <time>2014-08-24T09:32:24Z</time>
      </trkpt>
      <trkpt lat="45.87232" lon="3.11118">
        <ele>264</ele>
        <time>2014-08-24T09:32:26Z</time>
      </trkpt>
      <trkpt lat="45.87229" lon="3.11116">
        <ele>264</ele>
        <time>2014-08-24T09:32:28Z</time>
      </trkpt>
      <trkpt lat="45.87226" lon="3.11116">
        <ele>265</ele>
        <time>2014-08-24T09:32:30Z</time>
      </trkpt>
      <trkpt lat="45.87225" lon="3.11115">
        <ele>266</ele>
        <time>2014-08-24T09:32:32Z</time>
      </trkpt>
      <trkpt lat="45.87221" lon="3.11113">
        <ele>267</ele>
        <time>2014-08-24T09:32:35Z</time>
      </trkpt>
      <trkpt lat="45.87216" lon="3.11111">
        <ele>268</ele>
        <time>2014-08-24T09:32:38Z</time>
      </trkpt>
      <trkpt lat="45.87212" lon="3.1111">
        <ele>270</ele>
        <time>2014-08-24T09:32:41Z</time>
      </trkpt>
      <trkpt lat="45.87208" lon="3.11109">
        <ele>271</ele>
        <time>2014-08-24T09:32:43Z</time>
      </trkpt>
      <trkpt lat="45.87206" lon="3.11108">
        <ele>272</ele>
        <time>2014-08-24T09:32:45Z</time>
      </trkpt>
      <trkpt lat="45.87201" lon="3.11106">
        <ele>274</ele>
        <time>2014-08-24T09:32:48Z</time>
      </trkpt>
      <trkpt lat="45.87196" lon="3.11107">
        <ele>275</ele>
        <time>2014-08-24T09:32:51Z</time>
      </trkpt>
      <trkpt lat="45.87192" lon="3.11111">
        <ele>276</ele>
        <time>2014-08-24T09:32:54Z</time>
      </trkpt>
      <trkpt lat="45.87188" lon="3.11115">
        <ele>277</ele>
        <time>2014-08-24T09:32:57Z</time>
      </trkpt>
      <trkpt lat="45.87185" lon="3.11118">
        <ele>278</ele>
        <time>2014-08-24T09:33:00Z</time>
      </trkpt>
      <trkpt lat="45.87182" lon="3.11121">
        <ele>278</ele>
        <time>2014-08-24T09:33:02Z</time>
      </trkpt>
      <trkpt lat="45.87181" lon="3.11124">
        <ele>278</ele>
        <time>2014-08-24T09:33:04Z</time>
      </trkpt>
      <trkpt lat="45.87178" lon="3.11129">
        <ele>279</ele>
        <time>2014-08-24T09:33:07Z</time>
      </trkpt>
      <trkpt lat="45.87175" lon="3.11133">
        <ele>279</ele>
        <time>2014-08-24T09:33:09Z</time>
      </trkpt>
      <trkpt lat="45.8717" lon="3.11136">
        <ele>281</ele>
        <time>2014-08-24T09:33:12Z</time>
      </trkpt>
      <trkpt lat="45.87166" lon="3.11139">
        <ele>282</ele>
        <time>2014-08-24T09:33:15Z</time>
      </trkpt>
      <trkpt lat="45.87161" lon="3.11141">
        <ele>283</ele>
        <time>2014-08-24T09:33:18Z</time>
      </trkpt>
      <trkpt lat="45.87157" lon="3.11138">
        <ele>284</ele>
        <time>2014-08-24T09:33:21Z</time>
      </trkpt>
      <trkpt lat="45.87155" lon="3.11135">
        <ele>285</ele>
        <time>2014-08-24T09:33:24Z</time>
      </trkpt>
      <trkpt lat="45.87154" lon="3.11132">
        <ele>285</ele>
        <time>2014-08-24T09:33:26Z</time>
      </trkpt>
      <trkpt lat="45.87154" lon="3.11126">
        <ele>286</ele>
        <time>2014-08-24T09:33:29Z</time>
      </trkpt>
      <trkpt lat="45.87153" lon="3.11122">
        <ele>286</ele>
        <time>2014-08-24T09:33:31Z</time>
      </trkpt>
      <trkpt lat="45.87151" lon="3.11117">
        <ele>287</ele>
        <time>2014-08-24T09:33:33Z</time>
      </trkpt>
      <trkpt lat="45.87151" lon="3.1111">
        <ele>287</ele>
        <time>2014-08-24T09:33:36Z</time>
      </trkpt>
      <trkpt lat="45.87151" lon="3.11106">
        <ele>288</ele>
        <time>2014-08-24T09:33:38Z</time>
      </trkpt>
      <trkpt lat="45.87151" lon="3.11101">
        <ele>288</ele>
        <time>2014-08-24T09:33:40Z</time>
      </trkpt>
      <trkpt lat="45.87151" lon="3.11094">
        <ele>288</ele>
        <time>2014-08-24T09:33:43Z</time>
      </trkpt>
      <trkpt lat="45.87152" lon="3.11089">
        <ele>288</ele>
        <time>2014-08-24T09:33:45Z</time>
      </trkpt>
      <trkpt lat="45.87152" lon="3.11083">
        <ele>289</ele>
        <time>2014-08-24T09:33:47Z</time>
      </trkpt>
      <trkpt lat="45.87152" lon="3.11077">
        <ele>289</ele>
        <time>2014-08-24T09:33:49Z</time>
      </trkpt>
      <trkpt lat="45.87152" lon="3.11067">
        <ele>290</ele>
        <time>2014-08-24T09:33:52Z</time>
      </trkpt>
      <trkpt lat="45.87152" lon="3.11062">
        <ele>291</ele>
        <time>2014-08-24T09:33:54Z</time>
      </trkpt>
      <trkpt lat="45.87152" lon="3.11057">
        <ele>291</ele>
        <time>2014-08-24T09:33:56Z</time>
      </trkpt>
      <trkpt lat="45.87149" lon="3.11051">
        <ele>291</ele>
        <time>2014-08-24T09:33:59Z</time>
      </trkpt>
      <trkpt lat="45.87144" lon="3.11048">
        <ele>292</ele>
        <time>2014-08-24T09:34:02Z</time>
      </trkpt>
      <trkpt lat="45.87142" lon="3.11046">
        <ele>293</ele>
        <time>2014-08-24T09:34:04Z</time>
      </trkpt>
      <trkpt lat="45.8714" lon="3.11045">
        <ele>293</ele>
        <time>2014-08-24T09:34:06Z</time>
      </trkpt>
      <trkpt lat="45.87138" lon="3.11047">
        <ele>294</ele>
        <time>2014-08-24T09:34:08Z</time>
      </trkpt>
      <trkpt lat="45.87138" lon="3.11049">
        <ele>294</ele>
        <time>2014-08-24T09:34:10Z</time>
      </trkpt>
      <trkpt lat="45.8714" lon="3.1105">
        <ele>294</ele>
        <time>2014-08-24T09:34:12Z</time>
      </trkpt>
      <trkpt lat="45.8714" lon="3.11053">
        <ele>294</ele>
        <time>2014-08-24T09:34:14Z</time>
      </trkpt>
      <trkpt lat="45.87139" lon="3.11058">
        <ele>294</ele>
        <time>2014-08-24T09:34:16Z</time>
      </trkpt>
      <trkpt lat="45.87136" lon="3.11064">
        <ele>295</ele>
        <time>2014-08-24T09:34:18Z</time>
      </trkpt>
      <trkpt lat="45.87133" lon="3.11074">
        <ele>295</ele>
        <time>2014-08-24T09:34:21Z</time>
      </trkpt>
      <trkpt lat="45.87129" lon="3.11087">
        <ele>295</ele>
        <time>2014-08-24T09:34:24Z</time>
      </trkpt>
      <trkpt lat="45.87127" lon="3.11096">
        <ele>295</ele>
        <time>2014-08-24T09:34:26Z</time>
      </trkpt>
      <trkpt lat="45.87122" lon="3.11112">
        <ele>294</ele>
        <time>2014-08-24T09:34:29Z</time>
      </trkpt>
      <trkpt lat="45.87118" lon="3.11121">
        <ele>294</ele>
        <time>2014-08-24T09:34:31Z</time>
      </trkpt>
      <trkpt lat="45.87115" lon="3.11129">
        <ele>294</ele>
        <time>2014-08-24T09:34:34Z</time>
      </trkpt>
      <trkpt lat="45.87109" lon="3.11142">
        <ele>293</ele>
        <time>2014-08-24T09:34:36Z</time>
      </trkpt>
      <trkpt lat="45.87104" lon="3.11152">
        <ele>293</ele>
        <time>2014-08-24T09:34:38Z</time>
      </trkpt>
      <trkpt lat="45.87095" lon="3.11166">
        <ele>293</ele>
        <time>2014-08-24T09:34:41Z</time>
      </trkpt>
      <trkpt lat="45.8709" lon="3.11175">
        <ele>293</ele>
        <time>2014-08-24T09:34:43Z</time>
      </trkpt>
      <trkpt lat="45.87085" lon="3.11182">
        <ele>292</ele>
        <time>2014-08-24T09:34:45Z</time>
      </trkpt>
      <trkpt lat="45.8708" lon="3.11191">
        <ele>292</ele>
        <time>2014-08-24T09:34:47Z</time>
      </trkpt>
      <trkpt lat="45.87075" lon="3.11199">
        <ele>291</ele>
        <time>2014-08-24T09:34:49Z</time>
      </trkpt>
      <trkpt lat="45.87069" lon="3.11209">
        <ele>291</ele>
        <time>2014-08-24T09:34:51Z</time>
      </trkpt>
      <trkpt lat="45.87062" lon="3.11217">
        <ele>290</ele>
        <time>2014-08-24T09:34:53Z</time>
      </trkpt>
      <trkpt lat="45.87054" lon="3.1123">
        <ele>289</ele>
        <time>2014-08-24T09:34:55Z</time>
      </trkpt>
      <trkpt lat="45.87046" lon="3.11243">
        <ele>287</ele>
        <time>2014-08-24T09:34:57Z</time>
      </trkpt>
      <trkpt lat="45.87038" lon="3.11258">
        <ele>286</ele>
        <time>2014-08-24T09:34:59Z</time>
      </trkpt>
      <trkpt lat="45.87029" lon="3.11271">
        <ele>285</ele>
        <time>2014-08-24T09:35:02Z</time>
      </trkpt>
      <trkpt lat="45.87014" lon="3.1129">
        <ele>284</ele>
        <time>2014-08-24T09:35:04Z</time>
      </trkpt>
      <trkpt lat="45.87007" lon="3.11304">
        <ele>283</ele>
        <time>2014-08-24T09:35:06Z</time>
      </trkpt>
      <trkpt lat="45.87004" lon="3.11319">
        <ele>282</ele>
        <time>2014-08-24T09:35:08Z</time>
      </trkpt>
      <trkpt lat="45.87002" lon="3.11333">
        <ele>281</ele>
        <time>2014-08-24T09:35:10Z</time>
      </trkpt>
      <trkpt lat="45.86999" lon="3.11354">
        <ele>280</ele>
        <time>2014-08-24T09:35:13Z</time>
      </trkpt>
      <trkpt lat="45.86995" lon="3.11368">
        <ele>279</ele>
        <time>2014-08-24T09:35:15Z</time>
      </trkpt>
      <trkpt lat="45.86988" lon="3.1138">
        <ele>279</ele>
        <time>2014-08-24T09:35:17Z</time>
      </trkpt>
      <trkpt lat="45.86982" lon="3.11392">
        <ele>279</ele>
        <time>2014-08-24T09:35:19Z</time>
      </trkpt>
      <trkpt lat="45.86976" lon="3.11402">
        <ele>279</ele>
        <time>2014-08-24T09:35:21Z</time>
      </trkpt>
      <trkpt lat="45.86968" lon="3.11415">
        <ele>280</ele>
        <time>2014-08-24T09:35:24Z</time>
      </trkpt>
      <trkpt lat="45.86963" lon="3.11421">
        <ele>280</ele>
        <time>2014-08-24T09:35:27Z</time>
      </trkpt>
      <trkpt lat="45.86958" lon="3.11427">
        <ele>281</ele>
        <time>2014-08-24T09:35:29Z</time>
      </trkpt>
      <trkpt lat="45.8695" lon="3.11436">
        <ele>281</ele>
        <time>2014-08-24T09:35:31Z</time>
      </trkpt>
      <trkpt lat="45.86944" lon="3.11441">
        <ele>282</ele>
        <time>2014-08-24T09:35:33Z</time>
      </trkpt>
      <trkpt lat="45.86938" lon="3.11446">
        <ele>282</ele>
        <time>2014-08-24T09:35:35Z</time>
      </trkpt>
      <trkpt lat="45.86934" lon="3.11451">
        <ele>283</ele>
        <time>2014-08-24T09:35:37Z</time>
      </trkpt>
      <trkpt lat="45.86926" lon="3.11459">
        <ele>283</ele>
        <time>2014-08-24T09:35:40Z</time>
      </trkpt>
      <trkpt lat="45.86922" lon="3.11463">
        <ele>284</ele>
        <time>2014-08-24T09:35:42Z</time>
      </trkpt>
      <trkpt lat="45.86918" lon="3.11468">
        <ele>285</ele>
        <time>2014-08-24T09:35:44Z</time>
      </trkpt>
      <trkpt lat="45.86912" lon="3.11474">
        <ele>285</ele>
        <time>2014-08-24T09:35:47Z</time>
      </trkpt>
      <trkpt lat="45.86908" lon="3.11479">
        <ele>286</ele>
        <time>2014-08-24T09:35:49Z</time>
      </trkpt>
      <trkpt lat="45.86903" lon="3.11484">
        <ele>286</ele>
        <time>2014-08-24T09:35:51Z</time>
      </trkpt>
      <trkpt lat="45.86898" lon="3.11489">
        <ele>287</ele>
        <time>2014-08-24T09:35:54Z</time>
      </trkpt>
      <trkpt lat="45.86891" lon="3.11494">
        <ele>287</ele>
        <time>2014-08-24T09:35:56Z</time>
      </trkpt>
      <trkpt lat="45.86885" lon="3.11497">
        <ele>287</ele>
        <time>2014-08-24T09:35:58Z</time>
      </trkpt>
      <trkpt lat="45.86881" lon="3.115">
        <ele>288</ele>
        <time>2014-08-24T09:36:00Z</time>
      </trkpt>
      <trkpt lat="45.86876" lon="3.11502">
        <ele>288</ele>
        <time>2014-08-24T09:36:02Z</time>
      </trkpt>
      <trkpt lat="45.86871" lon="3.11504">
        <ele>289</ele>
        <time>2014-08-24T09:36:04Z</time>
      </trkpt>
      <trkpt lat="45.86867" lon="3.11506">
        <ele>289</ele>
        <time>2014-08-24T09:36:06Z</time>
      </trkpt>
      <trkpt lat="45.8686" lon="3.11509">
        <ele>290</ele>
        <time>2014-08-24T09:36:09Z</time>
      </trkpt>
      <trkpt lat="45.86852" lon="3.11512">
        <ele>291</ele>
        <time>2014-08-24T09:36:12Z</time>
      </trkpt>
      <trkpt lat="45.86845" lon="3.11515">
        <ele>292</ele>
        <time>2014-08-24T09:36:15Z</time>
      </trkpt>
      <trkpt lat="45.8684" lon="3.11516">
        <ele>293</ele>
        <time>2014-08-24T09:36:17Z</time>
      </trkpt>
      <trkpt lat="45.86834" lon="3.11518">
        <ele>293</ele>
        <time>2014-08-24T09:36:20Z</time>
      </trkpt>
      <trkpt lat="45.86825" lon="3.1152">
        <ele>294</ele>
        <time>2014-08-24T09:36:22Z</time>
      </trkpt>
      <trkpt lat="45.86819" lon="3.11521">
        <ele>294</ele>
        <time>2014-08-24T09:36:24Z</time>
      </trkpt>
      <trkpt lat="45.86811" lon="3.11521">
        <ele>295</ele>
        <time>2014-08-24T09:36:27Z</time>
      </trkpt>
      <trkpt lat="45.86803" lon="3.11517">
        <ele>295</ele>
        <time>2014-08-24T09:36:30Z</time>
      </trkpt>
      <trkpt lat="45.86798" lon="3.11512">
        <ele>295</ele>
        <time>2014-08-24T09:36:32Z</time>
      </trkpt>
      <trkpt lat="45.86794" lon="3.11503">
        <ele>296</ele>
        <time>2014-08-24T09:36:35Z</time>
      </trkpt>
      <trkpt lat="45.86792" lon="3.11497">
        <ele>296</ele>
        <time>2014-08-24T09:36:37Z</time>
      </trkpt>
      <trkpt lat="45.86791" lon="3.11488">
        <ele>297</ele>
        <time>2014-08-24T09:36:40Z</time>
      </trkpt>
      <trkpt lat="45.86792" lon="3.11482">
        <ele>297</ele>
        <time>2014-08-24T09:36:42Z</time>
      </trkpt>
      <trkpt lat="45.86797" lon="3.11473">
        <ele>298</ele>
        <time>2014-08-24T09:36:45Z</time>
      </trkpt>
      <trkpt lat="45.868" lon="3.11469">
        <ele>299</ele>
        <time>2014-08-24T09:36:47Z</time>
      </trkpt>
      <trkpt lat="45.86805" lon="3.11465">
        <ele>300</ele>
        <time>2014-08-24T09:36:50Z</time>
      </trkpt>
      <trkpt lat="45.86812" lon="3.11461">
        <ele>300</ele>
        <time>2014-08-24T09:36:52Z</time>
      </trkpt>
      <trkpt lat="45.86816" lon="3.11458">
        <ele>300</ele>
        <time>2014-08-24T09:36:54Z</time>
      </trkpt>
      <trkpt lat="45.86823" lon="3.11454">
        <ele>300</ele>
        <time>2014-08-24T09:36:57Z</time>
      </trkpt>
      <trkpt lat="45.86831" lon="3.11449">
        <ele>301</ele>
        <time>2014-08-24T09:37:00Z</time>
      </trkpt>
      <trkpt lat="45.86835" lon="3.11445">
        <ele>301</ele>
        <time>2014-08-24T09:37:02Z</time>
      </trkpt>
      <trkpt lat="45.8684" lon="3.11442">
        <ele>301</ele>
        <time>2014-08-24T09:37:04Z</time>
      </trkpt>
      <trkpt lat="45.86844" lon="3.11439">
        <ele>302</ele>
        <time>2014-08-24T09:37:06Z</time>
      </trkpt>
      <trkpt lat="45.86849" lon="3.11435">
        <ele>302</ele>
        <time>2014-08-24T09:37:08Z</time>
      </trkpt>
      <trkpt lat="45.86853" lon="3.11431">
        <ele>302</ele>
        <time>2014-08-24T09:37:10Z</time>
      </trkpt>
      <trkpt lat="45.86857" lon="3.11426">
        <ele>303</ele>
        <time>2014-08-24T09:37:12Z</time>
      </trkpt>
      <trkpt lat="45.86861" lon="3.1142">
        <ele>303</ele>
        <time>2014-08-24T09:37:14Z</time>
      </trkpt>
      <trkpt lat="45.86864" lon="3.11414">
        <ele>303</ele>
        <time>2014-08-24T09:37:17Z</time>
      </trkpt>
      <trkpt lat="45.86869" lon="3.11405">
        <ele>304</ele>
        <time>2014-08-24T09:37:19Z</time>
      </trkpt>
      <trkpt lat="45.86872" lon="3.11399">
        <ele>304</ele>
        <time>2014-08-24T09:37:21Z</time>
      </trkpt>
      <trkpt lat="45.86875" lon="3.11392">
        <ele>305</ele>
        <time>2014-08-24T09:37:23Z</time>
      </trkpt>
      <trkpt lat="45.86877" lon="3.11385">
        <ele>305</ele>
        <time>2014-08-24T09:37:25Z</time>
      </trkpt>
      <trkpt lat="45.8688" lon="3.11378">
        <ele>305</ele>
        <time>2014-08-24T09:37:27Z</time>
      </trkpt>
      <trkpt lat="45.86882" lon="3.11371">
        <ele>306</ele>
        <time>2014-08-24T09:37:29Z</time>
      </trkpt>
      <trkpt lat="45.86885" lon="3.11364">
        <ele>306</ele>
        <time>2014-08-24T09:37:31Z</time>
      </trkpt>
      <trkpt lat="45.86888" lon="3.11357">
        <ele>306</ele>
        <time>2014-08-24T09:37:33Z</time>
      </trkpt>
      <trkpt lat="45.8689" lon="3.1135">
        <ele>307</ele>
        <time>2014-08-24T09:37:35Z</time>
      </trkpt>
      <trkpt lat="45.86892" lon="3.11342">
        <ele>307</ele>
        <time>2014-08-24T09:37:37Z</time>
      </trkpt>
      <trkpt lat="45.86895" lon="3.11335">
        <ele>307</ele>
        <time>2014-08-24T09:37:39Z</time>
      </trkpt>
      <trkpt lat="45.86899" lon="3.11324">
        <ele>308</ele>
        <time>2014-08-24T09:37:42Z</time>
      </trkpt>
      <trkpt lat="45.86902" lon="3.11316">
        <ele>309</ele>
        <time>2014-08-24T09:37:44Z</time>
      </trkpt>
      <trkpt lat="45.86905" lon="3.11309">
        <ele>309</ele>
        <time>2014-08-24T09:37:47Z</time>
      </trkpt>
      <trkpt lat="45.86908" lon="3.11297">
        <ele>309</ele>
        <time>2014-08-24T09:37:49Z</time>
      </trkpt>
      <trkpt lat="45.86912" lon="3.1129">
        <ele>309</ele>
        <time>2014-08-24T09:37:51Z</time>
      </trkpt>
      <trkpt lat="45.86915" lon="3.11282">
        <ele>310</ele>
        <time>2014-08-24T09:37:53Z</time>
      </trkpt>
      <trkpt lat="45.86919" lon="3.11271">
        <ele>310</ele>
        <time>2014-08-24T09:37:56Z</time>
      </trkpt>
      <trkpt lat="45.86922" lon="3.11264">
        <ele>311</ele>
        <time>2014-08-24T09:37:58Z</time>
      </trkpt>
      <trkpt lat="45.86924" lon="3.11257">
        <ele>311</ele>
        <time>2014-08-24T09:38:00Z</time>
      </trkpt>
      <trkpt lat="45.86927" lon="3.11249">
        <ele>311</ele>
        <time>2014-08-24T09:38:02Z</time>
      </trkpt>
      <trkpt lat="45.8693" lon="3.11238">
        <ele>311</ele>
        <time>2014-08-24T09:38:05Z</time>
      </trkpt>
      <trkpt lat="45.86932" lon="3.11229">
        <ele>312</ele>
        <time>2014-08-24T09:38:07Z</time>
      </trkpt>
      <trkpt lat="45.86934" lon="3.11221">
        <ele>312</ele>
        <time>2014-08-24T09:38:10Z</time>
      </trkpt>
      <trkpt lat="45.86937" lon="3.11214">
        <ele>313</ele>
        <time>2014-08-24T09:38:12Z</time>
      </trkpt>
      <trkpt lat="45.86941" lon="3.11203">
        <ele>313</ele>
        <time>2014-08-24T09:38:14Z</time>
      </trkpt>
      <trkpt lat="45.86945" lon="3.11193">
        <ele>314</ele>
        <time>2014-08-24T09:38:17Z</time>
      </trkpt>
      <trkpt lat="45.86948" lon="3.11187">
        <ele>314</ele>
        <time>2014-08-24T09:38:19Z</time>
      </trkpt>
      <trkpt lat="45.86952" lon="3.11182">
        <ele>315</ele>
        <time>2014-08-24T09:38:21Z</time>
      </trkpt>
      <trkpt lat="45.86958" lon="3.11173">
        <ele>315</ele>
        <time>2014-08-24T09:38:24Z</time>
      </trkpt>
      <trkpt lat="45.86961" lon="3.11168">
        <ele>316</ele>
        <time>2014-08-24T09:38:26Z</time>
      </trkpt>
      <trkpt lat="45.86965" lon="3.11162">
        <ele>316</ele>
        <time>2014-08-24T09:38:28Z</time>
      </trkpt>
      <trkpt lat="45.86969" lon="3.11156">
        <ele>316</ele>
        <time>2014-08-24T09:38:30Z</time>
      </trkpt>
      <trkpt lat="45.86972" lon="3.1115">
        <ele>317</ele>
        <time>2014-08-24T09:38:32Z</time>
      </trkpt>
      <trkpt lat="45.86976" lon="3.11144">
        <ele>317</ele>
        <time>2014-08-24T09:38:34Z</time>
      </trkpt>
      <trkpt lat="45.8698" lon="3.11138">
        <ele>318</ele>
        <time>2014-08-24T09:38:37Z</time>
      </trkpt>
      <trkpt lat="45.86986" lon="3.11128">
        <ele>318</ele>
        <time>2014-08-24T09:38:39Z</time>
      </trkpt>
      <trkpt lat="45.8699" lon="3.11122">
        <ele>318</ele>
        <time>2014-08-24T09:38:41Z</time>
      </trkpt>
      <trkpt lat="45.86994" lon="3.11116">
        <ele>318</ele>
        <time>2014-08-24T09:38:43Z</time>
      </trkpt>
      <trkpt lat="45.87001" lon="3.11108">
        <ele>319</ele>
        <time>2014-08-24T09:38:46Z</time>
      </trkpt>
      <trkpt lat="45.87006" lon="3.11104">
        <ele>320</ele>
        <time>2014-08-24T09:38:48Z</time>
      </trkpt>
      <trkpt lat="45.87012" lon="3.11095">
        <ele>320</ele>
        <time>2014-08-24T09:38:51Z</time>
      </trkpt>
      <trkpt lat="45.87016" lon="3.1109">
        <ele>320</ele>
        <time>2014-08-24T09:38:53Z</time>
      </trkpt>
      <trkpt lat="45.87021" lon="3.11086">
        <ele>320</ele>
        <time>2014-08-24T09:38:55Z</time>
      </trkpt>
      <trkpt lat="45.87027" lon="3.11081">
        <ele>321</ele>
        <time>2014-08-24T09:38:58Z</time>
      </trkpt>
      <trkpt lat="45.8703" lon="3.11076">
        <ele>321</ele>
        <time>2014-08-24T09:39:00Z</time>
      </trkpt>
      <trkpt lat="45.87035" lon="3.11071">
        <ele>321</ele>
        <time>2014-08-24T09:39:03Z</time>
      </trkpt>
      <trkpt lat="45.87039" lon="3.11067">
        <ele>321</ele>
        <time>2014-08-24T09:39:06Z</time>
      </trkpt>
      <trkpt lat="45.87044" lon="3.1106">
        <ele>322</ele>
        <time>2014-08-24T09:39:08Z</time>
      </trkpt>
      <trkpt lat="45.87048" lon="3.11055">
        <ele>322</ele>
        <time>2014-08-24T09:39:10Z</time>
      </trkpt>
      <trkpt lat="45.87053" lon="3.11047">
        <ele>323</ele>
        <time>2014-08-24T09:39:13Z</time>
      </trkpt>
      <trkpt lat="45.87056" lon="3.1104">
        <ele>323</ele>
        <time>2014-08-24T09:39:15Z</time>
      </trkpt>
      <trkpt lat="45.87059" lon="3.11034">
        <ele>323</ele>
        <time>2014-08-24T09:39:17Z</time>
      </trkpt>
      <trkpt lat="45.87062" lon="3.11026">
        <ele>323</ele>
        <time>2014-08-24T09:39:19Z</time>
      </trkpt>
      <trkpt lat="45.87065" lon="3.11019">
        <ele>324</ele>
        <time>2014-08-24T09:39:21Z</time>
      </trkpt>
      <trkpt lat="45.87067" lon="3.11011">
        <ele>324</ele>
        <time>2014-08-24T09:39:23Z</time>
      </trkpt>
      <trkpt lat="45.87069" lon="3.11003">
        <ele>324</ele>
        <time>2014-08-24T09:39:25Z</time>
      </trkpt>
      <trkpt lat="45.87071" lon="3.10995">
        <ele>324</ele>
        <time>2014-08-24T09:39:27Z</time>
      </trkpt>
      <trkpt lat="45.87073" lon="3.10983">
        <ele>325</ele>
        <time>2014-08-24T09:39:30Z</time>
      </trkpt>
      <trkpt lat="45.87074" lon="3.10975">
        <ele>325</ele>
        <time>2014-08-24T09:39:33Z</time>
      </trkpt>
      <trkpt lat="45.87074" lon="3.10963">
        <ele>325</ele>
        <time>2014-08-24T09:39:35Z</time>
      </trkpt>
      <trkpt lat="45.87074" lon="3.10954">
        <ele>326</ele>
        <time>2014-08-24T09:39:37Z</time>
      </trkpt>
      <trkpt lat="45.87073" lon="3.10942">
        <ele>326</ele>
        <time>2014-08-24T09:39:40Z</time>
      </trkpt>
      <trkpt lat="45.87072" lon="3.10934">
        <ele>326</ele>
        <time>2014-08-24T09:39:42Z</time>
      </trkpt>
      <trkpt lat="45.8707" lon="3.10927">
        <ele>327</ele>
        <time>2014-08-24T09:39:44Z</time>
      </trkpt>
      <trkpt lat="45.87068" lon="3.1092">
        <ele>327</ele>
        <time>2014-08-24T09:39:46Z</time>
      </trkpt>
      <trkpt lat="45.87065" lon="3.10913">
        <ele>328</ele>
        <time>2014-08-24T09:39:48Z</time>
      </trkpt>
      <trkpt lat="45.87062" lon="3.10906">
        <ele>328</ele>
        <time>2014-08-24T09:39:50Z</time>
      </trkpt>
      <trkpt lat="45.87056" lon="3.10896">
        <ele>328</ele>
        <time>2014-08-24T09:39:53Z</time>
      </trkpt>
      <trkpt lat="45.87052" lon="3.10891">
        <ele>329</ele>
        <time>2014-08-24T09:39:55Z</time>
      </trkpt>
      <trkpt lat="45.87048" lon="3.10886">
        <ele>329</ele>
        <time>2014-08-24T09:39:57Z</time>
      </trkpt>
      <trkpt lat="45.87044" lon="3.1088">
        <ele>329</ele>
        <time>2014-08-24T09:40:00Z</time>
      </trkpt>
      <trkpt lat="45.87038" lon="3.10871">
        <ele>329</ele>
        <time>2014-08-24T09:40:02Z</time>
      </trkpt>
      <trkpt lat="45.87034" lon="3.10865">
        <ele>329</ele>
        <time>2014-08-24T09:40:04Z</time>
      </trkpt>
      <trkpt lat="45.87029" lon="3.10857">
        <ele>330</ele>
        <time>2014-08-24T09:40:07Z</time>
      </trkpt>
      <trkpt lat="45.87027" lon="3.10851">
        <ele>330</ele>
        <time>2014-08-24T09:40:09Z</time>
      </trkpt>
      <trkpt lat="45.87025" lon="3.10845">
        <ele>330</ele>
        <time>2014-08-24T09:40:11Z</time>
      </trkpt>
      <trkpt lat="45.87022" lon="3.10838">
        <ele>331</ele>
        <time>2014-08-24T09:40:13Z</time>
      </trkpt>
      <trkpt lat="45.87019" lon="3.10829">
        <ele>332</ele>
        <time>2014-08-24T09:40:16Z</time>
      </trkpt>
      <trkpt lat="45.87017" lon="3.10823">
        <ele>332</ele>
        <time>2014-08-24T09:40:18Z</time>
      </trkpt>
      <trkpt lat="45.87015" lon="3.10816">
        <ele>332</ele>
        <time>2014-08-24T09:40:20Z</time>
      </trkpt>
      <trkpt lat="45.87013" lon="3.10809">
        <ele>333</ele>
        <time>2014-08-24T09:40:22Z</time>
      </trkpt>
      <trkpt lat="45.87012" lon="3.10802">
        <ele>333</ele>
        <time>2014-08-24T09:40:24Z</time>
      </trkpt>
      <trkpt lat="45.87011" lon="3.10795">
        <ele>334</ele>
        <time>2014-08-24T09:40:27Z</time>
      </trkpt>
      <trkpt lat="45.87011" lon="3.10785">
        <ele>334</ele>
        <time>2014-08-24T09:40:29Z</time>
      </trkpt>
      <trkpt lat="45.8701" lon="3.10779">
        <ele>335</ele>
        <time>2014-08-24T09:40:31Z</time>
      </trkpt>
      <trkpt lat="45.87008" lon="3.10774">
        <ele>336</ele>
        <time>2014-08-24T09:40:33Z</time>
      </trkpt>
      <trkpt lat="45.87006" lon="3.10769">
        <ele>336</ele>
        <time>2014-08-24T09:40:35Z</time>
      </trkpt>
      <trkpt lat="45.87004" lon="3.10766">
        <ele>337</ele>
        <time>2014-08-24T09:40:37Z</time>
      </trkpt>
      <trkpt lat="45.87001" lon="3.10764">
        <ele>338</ele>
        <time>2014-08-24T09:40:39Z</time>
      </trkpt>
      <trkpt lat="45.86996" lon="3.10764">
        <ele>339</ele>
        <time>2014-08-24T09:40:42Z</time>
      </trkpt>
      <trkpt lat="45.86993" lon="3.10766">
        <ele>340</ele>
        <time>2014-08-24T09:40:44Z</time>
      </trkpt>
      <trkpt lat="45.8699" lon="3.10769">
        <ele>340</ele>
        <time>2014-08-24T09:40:46Z</time>
      </trkpt>
      <trkpt lat="45.86987" lon="3.10773">
        <ele>340</ele>
        <time>2014-08-24T09:40:48Z</time>
      </trkpt>
      <trkpt lat="45.86985" lon="3.10782">
        <ele>341</ele>
        <time>2014-08-24T09:40:51Z</time>
      </trkpt>
      <trkpt lat="45.86982" lon="3.10792">
        <ele>342</ele>
        <time>2014-08-24T09:40:54Z</time>
      </trkpt>
      <trkpt lat="45.8698" lon="3.10799">
        <ele>343</ele>
        <time>2014-08-24T09:40:56Z</time>
      </trkpt>
      <trkpt lat="45.86979" lon="3.10806">
        <ele>343</ele>
        <time>2014-08-24T09:40:58Z</time>
      </trkpt>
      <trkpt lat="45.86978" lon="3.10813">
        <ele>344</ele>
        <time>2014-08-24T09:41:00Z</time>
      </trkpt>
      <trkpt lat="45.86977" lon="3.1082">
        <ele>344</ele>
        <time>2014-08-24T09:41:02Z</time>
      </trkpt>
      <trkpt lat="45.86976" lon="3.10827">
        <ele>344</ele>
        <time>2014-08-24T09:41:04Z</time>
      </trkpt>
      <trkpt lat="45.86976" lon="3.10834">
        <ele>345</ele>
        <time>2014-08-24T09:41:06Z</time>
      </trkpt>
      <trkpt lat="45.86974" lon="3.10843">
        <ele>345</ele>
        <time>2014-08-24T09:41:09Z</time>
      </trkpt>
      <trkpt lat="45.86972" lon="3.10853">
        <ele>345</ele>
        <time>2014-08-24T09:41:12Z</time>
      </trkpt>
      <trkpt lat="45.86971" lon="3.10859">
        <ele>346</ele>
        <time>2014-08-24T09:41:14Z</time>
      </trkpt>
      <trkpt lat="45.86971" lon="3.10865">
        <ele>346</ele>
        <time>2014-08-24T09:41:16Z</time>
      </trkpt>
      <trkpt lat="45.8697" lon="3.10871">
        <ele>346</ele>
        <time>2014-08-24T09:41:19Z</time>
      </trkpt>
      <trkpt lat="45.86969" lon="3.10881">
        <ele>347</ele>
        <time>2014-08-24T09:41:21Z</time>
      </trkpt>
      <trkpt lat="45.86968" lon="3.10888">
        <ele>347</ele>
        <time>2014-08-24T09:41:23Z</time>
      </trkpt>
      <trkpt lat="45.86967" lon="3.10896">
        <ele>348</ele>
        <time>2014-08-24T09:41:25Z</time>
      </trkpt>
      <trkpt lat="45.86966" lon="3.10903">
        <ele>348</ele>
        <time>2014-08-24T09:41:27Z</time>
      </trkpt>
      <trkpt lat="45.86966" lon="3.10914">
        <ele>349</ele>
        <time>2014-08-24T09:41:30Z</time>
      </trkpt>
      <trkpt lat="45.86966" lon="3.10921">
        <ele>349</ele>
        <time>2014-08-24T09:41:32Z</time>
      </trkpt>
      <trkpt lat="45.86965" lon="3.10932">
        <ele>350</ele>
        <time>2014-08-24T09:41:35Z</time>
      </trkpt>
      <trkpt lat="45.86964" lon="3.10939">
        <ele>351</ele>
        <time>2014-08-24T09:41:37Z</time>
      </trkpt>
      <trkpt lat="45.86963" lon="3.10946">
        <ele>351</ele>
        <time>2014-08-24T09:41:39Z</time>
      </trkpt>
      <trkpt lat="45.86961" lon="3.10952">
        <ele>352</ele>
        <time>2014-08-24T09:41:41Z</time>
      </trkpt>
      <trkpt lat="45.86958" lon="3.10957">
        <ele>353</ele>
        <time>2014-08-24T09:41:43Z</time>
      </trkpt>
      <trkpt lat="45.86953" lon="3.10961">
        <ele>353</ele>
        <time>2014-08-24T09:41:45Z</time>
      </trkpt>
      <trkpt lat="45.86946" lon="3.10963">
        <ele>354</ele>
        <time>2014-08-24T09:41:48Z</time>
      </trkpt>
      <trkpt lat="45.86941" lon="3.10964">
        <ele>355</ele>
        <time>2014-08-24T09:41:50Z</time>
      </trkpt>
      <trkpt lat="45.86936" lon="3.10965">
        <ele>355</ele>
        <time>2014-08-24T09:41:52Z</time>
      </trkpt>
      <trkpt lat="45.86932" lon="3.10965">
        <ele>355</ele>
        <time>2014-08-24T09:41:54Z</time>
      </trkpt>
      <trkpt lat="45.86926" lon="3.10965">
        <ele>356</ele>
        <time>2014-08-24T09:41:57Z</time>
      </trkpt>
      <trkpt lat="45.86923" lon="3.10966">
        <ele>357</ele>
        <time>2014-08-24T09:41:59Z</time>
      </trkpt>
      <trkpt lat="45.86918" lon="3.10967">
        <ele>357</ele>
        <time>2014-08-24T09:42:02Z</time>
      </trkpt>
      <trkpt lat="45.86913" lon="3.10972">
        <ele>357</ele>
        <time>2014-08-24T09:42:04Z</time>
      </trkpt>
      <trkpt lat="45.86908" lon="3.10977">
        <ele>358</ele>
        <time>2014-08-24T09:42:06Z</time>
      </trkpt>
      <trkpt lat="45.86903" lon="3.10981">
        <ele>358</ele>
        <time>2014-08-24T09:42:08Z</time>
      </trkpt>
      <trkpt lat="45.86898" lon="3.10986">
        <ele>359</ele>
        <time>2014-08-24T09:42:10Z</time>
      </trkpt>
      <trkpt lat="45.86893" lon="3.10991">
        <ele>359</ele>
        <time>2014-08-24T09:42:12Z</time>
      </trkpt>
      <trkpt lat="45.86887" lon="3.10997">
        <ele>359</ele>
        <time>2014-08-24T09:42:14Z</time>
      </trkpt>
      <trkpt lat="45.86882" lon="3.11001">
        <ele>360</ele>
        <time>2014-08-24T09:42:16Z</time>
      </trkpt>
      <trkpt lat="45.86878" lon="3.11005">
        <ele>360</ele>
        <time>2014-08-24T09:42:18Z</time>
      </trkpt>
      <trkpt lat="45.86875" lon="3.11009">
        <ele>360</ele>
        <time>2014-08-24T09:42:20Z</time>
      </trkpt>
      <trkpt lat="45.8687" lon="3.11013">
        <ele>361</ele>
        <time>2014-08-24T09:42:22Z</time>
      </trkpt>
      <trkpt lat="45.86866" lon="3.11018">
        <ele>362</ele>
        <time>2014-08-24T09:42:24Z</time>
      </trkpt>
      <trkpt lat="45.86862" lon="3.11022">
        <ele>362</ele>
        <time>2014-08-24T09:42:27Z</time>
      </trkpt>
      <trkpt lat="45.86856" lon="3.11029">
        <ele>363</ele>
        <time>2014-08-24T09:42:29Z</time>
      </trkpt>
      <trkpt lat="45.86852" lon="3.11033">
        <ele>363</ele>
        <time>2014-08-24T09:42:31Z</time>
      </trkpt>
      <trkpt lat="45.86847" lon="3.11037">
        <ele>363</ele>
        <time>2014-08-24T09:42:33Z</time>
      </trkpt>
      <trkpt lat="45.86843" lon="3.11041">
        <ele>364</ele>
        <time>2014-08-24T09:42:35Z</time>
      </trkpt>
      <trkpt lat="45.86838" lon="3.11045">
        <ele>364</ele>
        <time>2014-08-24T09:42:37Z</time>
      </trkpt>
      <trkpt lat="45.86832" lon="3.11051">
        <ele>365</ele>
        <time>2014-08-24T09:42:40Z</time>
      </trkpt>
      <trkpt lat="45.86828" lon="3.11056">
        <ele>365</ele>
        <time>2014-08-24T09:42:42Z</time>
      </trkpt>
      <trkpt lat="45.86824" lon="3.11061">
        <ele>366</ele>
        <time>2014-08-24T09:42:44Z</time>
      </trkpt>
      <trkpt lat="45.86818" lon="3.11068">
        <ele>367</ele>
        <time>2014-08-24T09:42:47Z</time>
      </trkpt>
      <trkpt lat="45.86815" lon="3.11073">
        <ele>368</ele>
        <time>2014-08-24T09:42:49Z</time>
      </trkpt>
      <trkpt lat="45.86812" lon="3.11078">
        <ele>368</ele>
        <time>2014-08-24T09:42:52Z</time>
      </trkpt>
      <trkpt lat="45.86808" lon="3.11086">
        <ele>368</ele>
        <time>2014-08-24T09:42:54Z</time>
      </trkpt>
      <trkpt lat="45.86805" lon="3.11092">
        <ele>368</ele>
        <time>2014-08-24T09:42:56Z</time>
      </trkpt>
      <trkpt lat="45.86802" lon="3.11098">
        <ele>368</ele>
        <time>2014-08-24T09:42:58Z</time>
      </trkpt>
      <trkpt lat="45.86797" lon="3.11104">
        <ele>368</ele>
        <time>2014-08-24T09:43:00Z</time>
      </trkpt>
      <trkpt lat="45.86793" lon="3.11109">
        <ele>369</ele>
        <time>2014-08-24T09:43:02Z</time>
      </trkpt>
      <trkpt lat="45.86786" lon="3.11114">
        <ele>369</ele>
        <time>2014-08-24T09:43:05Z</time>
      </trkpt>
      <trkpt lat="45.8678" lon="3.11117">
        <ele>369</ele>
        <time>2014-08-24T09:43:07Z</time>
      </trkpt>
      <trkpt lat="45.86774" lon="3.11118">
        <ele>369</ele>
        <time>2014-08-24T09:43:09Z</time>
      </trkpt>
      <trkpt lat="45.86768" lon="3.11121">
        <ele>369</ele>
        <time>2014-08-24T09:43:11Z</time>
      </trkpt>
      <trkpt lat="45.86762" lon="3.11123">
        <ele>370</ele>
        <time>2014-08-24T09:43:13Z</time>
      </trkpt>
      <trkpt lat="45.86757" lon="3.11124">
        <ele>370</ele>
        <time>2014-08-24T09:43:15Z</time>
      </trkpt>
      <trkpt lat="45.86748" lon="3.11128">
        <ele>370</ele>
        <time>2014-08-24T09:43:18Z</time>
      </trkpt>
      <trkpt lat="45.86741" lon="3.11131">
        <ele>370</ele>
        <time>2014-08-24T09:43:20Z</time>
      </trkpt>
      <trkpt lat="45.86731" lon="3.11135">
        <ele>370</ele>
        <time>2014-08-24T09:43:23Z</time>
      </trkpt>
      <trkpt lat="45.86726" lon="3.11139">
        <ele>370</ele>
        <time>2014-08-24T09:43:25Z</time>
      </trkpt>
      <trkpt lat="45.8672" lon="3.11142">
        <ele>370</ele>
        <time>2014-08-24T09:43:27Z</time>
      </trkpt>
      <trkpt lat="45.86711" lon="3.11145">
        <ele>370</ele>
        <time>2014-08-24T09:43:30Z</time>
      </trkpt>
      <trkpt lat="45.86706" lon="3.11147">
        <ele>370</ele>
        <time>2014-08-24T09:43:32Z</time>
      </trkpt>
      <trkpt lat="45.86701" lon="3.1115">
        <ele>371</ele>
        <time>2014-08-24T09:43:34Z</time>
      </trkpt>
      <trkpt lat="45.86695" lon="3.11152">
        <ele>371</ele>
        <time>2014-08-24T09:43:36Z</time>
      </trkpt>
      <trkpt lat="45.8669" lon="3.11155">
        <ele>371</ele>
        <time>2014-08-24T09:43:38Z</time>
      </trkpt>
      <trkpt lat="45.86685" lon="3.11157">
        <ele>371</ele>
        <time>2014-08-24T09:43:40Z</time>
      </trkpt>
      <trkpt lat="45.86679" lon="3.11159">
        <ele>372</ele>
        <time>2014-08-24T09:43:42Z</time>
      </trkpt>
      <trkpt lat="45.86672" lon="3.11162">
        <ele>372</ele>
        <time>2014-08-24T09:43:45Z</time>
      </trkpt>
      <trkpt lat="45.86663" lon="3.11167">
        <ele>372</ele>
        <time>2014-08-24T09:43:47Z</time>
      </trkpt>
      <trkpt lat="45.86656" lon="3.1117">
        <ele>372</ele>
        <time>2014-08-24T09:43:49Z</time>
      </trkpt>
      <trkpt lat="45.86649" lon="3.11173">
        <ele>372</ele>
        <time>2014-08-24T09:43:51Z</time>
      </trkpt>
      <trkpt lat="45.86642" lon="3.11174">
        <ele>372</ele>
        <time>2014-08-24T09:43:53Z</time>
      </trkpt>
      <trkpt lat="45.86636" lon="3.11172">
        <ele>372</ele>
        <time>2014-08-24T09:43:55Z</time>
      </trkpt>
      <trkpt lat="45.86628" lon="3.1117">
        <ele>373</ele>
        <time>2014-08-24T09:43:57Z</time>
      </trkpt>
      <trkpt lat="45.86622" lon="3.11165">
        <ele>373</ele>
        <time>2014-08-24T09:43:59Z</time>
      </trkpt>
      <trkpt lat="45.86616" lon="3.1116">
        <ele>374</ele>
        <time>2014-08-24T09:44:01Z</time>
      </trkpt>
      <trkpt lat="45.8661" lon="3.11155">
        <ele>375</ele>
        <time>2014-08-24T09:44:03Z</time>
      </trkpt>
      <trkpt lat="45.86604" lon="3.11149">
        <ele>375</ele>
        <time>2014-08-24T09:44:05Z</time>
      </trkpt>
      <trkpt lat="45.86598" lon="3.11143">
        <ele>375</ele>
        <time>2014-08-24T09:44:07Z</time>
      </trkpt>
      <trkpt lat="45.86592" lon="3.11139">
        <ele>376</ele>
        <time>2014-08-24T09:44:10Z</time>
      </trkpt>
      <trkpt lat="45.86583" lon="3.11132">
        <ele>377</ele>
        <time>2014-08-24T09:44:12Z</time>
      </trkpt>
      <trkpt lat="45.86576" lon="3.11131">
        <ele>378</ele>
        <time>2014-08-24T09:44:15Z</time>
      </trkpt>
      <trkpt lat="45.86573" lon="3.11132">
        <ele>378</ele>
        <time>2014-08-24T09:44:17Z</time>
      </trkpt>
      <trkpt lat="45.86568" lon="3.11135">
        <ele>378</ele>
        <time>2014-08-24T09:44:20Z</time>
      </trkpt>
      <trkpt lat="45.86564" lon="3.11139">
        <ele>378</ele>
        <time>2014-08-24T09:44:22Z</time>
      </trkpt>
      <trkpt lat="45.8656" lon="3.11144">
        <ele>378</ele>
        <time>2014-08-24T09:44:24Z</time>
      </trkpt>
      <trkpt lat="45.86556" lon="3.11149">
        <ele>378</ele>
        <time>2014-08-24T09:44:26Z</time>
      </trkpt>
      <trkpt lat="45.86552" lon="3.11154">
        <ele>378</ele>
        <time>2014-08-24T09:44:28Z</time>
      </trkpt>
      <trkpt lat="45.86547" lon="3.11158">
        <ele>378</ele>
        <time>2014-08-24T09:44:30Z</time>
      </trkpt>
      <trkpt lat="45.86543" lon="3.11163">
        <ele>379</ele>
        <time>2014-08-24T09:44:32Z</time>
      </trkpt>
      <trkpt lat="45.86539" lon="3.11168">
        <ele>379</ele>
        <time>2014-08-24T09:44:34Z</time>
      </trkpt>
      <trkpt lat="45.86534" lon="3.11172">
        <ele>379</ele>
        <time>2014-08-24T09:44:36Z</time>
      </trkpt>
      <trkpt lat="45.86526" lon="3.11175">
        <ele>379</ele>
        <time>2014-08-24T09:44:39Z</time>
      </trkpt>
      <trkpt lat="45.86522" lon="3.11178">
        <ele>379</ele>
        <time>2014-08-24T09:44:42Z</time>
      </trkpt>
      <trkpt lat="45.86512" lon="3.11183">
        <ele>379</ele>
        <time>2014-08-24T09:44:45Z</time>
      </trkpt>
      <trkpt lat="45.86507" lon="3.11185">
        <ele>379</ele>
        <time>2014-08-24T09:44:47Z</time>
      </trkpt>
      <trkpt lat="45.86501" lon="3.11185">
        <ele>379</ele>
        <time>2014-08-24T09:44:49Z</time>
      </trkpt>
      <trkpt lat="45.86495" lon="3.11187">
        <ele>380</ele>
        <time>2014-08-24T09:44:51Z</time>
      </trkpt>
      <trkpt lat="45.86488" lon="3.11187">
        <ele>380</ele>
        <time>2014-08-24T09:44:53Z</time>
      </trkpt>
      <trkpt lat="45.86482" lon="3.11186">
        <ele>381</ele>
        <time>2014-08-24T09:44:55Z</time>
      </trkpt>
      <trkpt lat="45.86473" lon="3.11185">
        <ele>382</ele>
        <time>2014-08-24T09:44:58Z</time>
      </trkpt>
      <trkpt lat="45.86469" lon="3.11185">
        <ele>383</ele>
        <time>2014-08-24T09:45:00Z</time>
      </trkpt>
      <trkpt lat="45.86464" lon="3.11185">
        <ele>384</ele>
        <time>2014-08-24T09:45:02Z</time>
      </trkpt>
      <trkpt lat="45.86456" lon="3.11185">
        <ele>384</ele>
        <time>2014-08-24T09:45:05Z</time>
      </trkpt>
      <trkpt lat="45.8645" lon="3.11185">
        <ele>385</ele>
        <time>2014-08-24T09:45:07Z</time>
      </trkpt>
      <trkpt lat="45.86445" lon="3.11185">
        <ele>385</ele>
        <time>2014-08-24T09:45:09Z</time>
      </trkpt>
      <trkpt lat="45.86438" lon="3.11186">
        <ele>385</ele>
        <time>2014-08-24T09:45:12Z</time>
      </trkpt>
      <trkpt lat="45.86434" lon="3.11186">
        <ele>386</ele>
        <time>2014-08-24T09:45:14Z</time>
      </trkpt>
      <trkpt lat="45.86431" lon="3.11186">
        <ele>386</ele>
        <time>2014-08-24T09:45:16Z</time>
      </trkpt>
      <trkpt lat="45.86427" lon="3.11186">
        <ele>386</ele>
        <time>2014-08-24T09:45:18Z</time>
      </trkpt>
      <trkpt lat="45.86422" lon="3.11185">
        <ele>386</ele>
        <time>2014-08-24T09:45:20Z</time>
      </trkpt>
      <trkpt lat="45.86412" lon="3.11183">
        <ele>386</ele>
        <time>2014-08-24T09:45:23Z</time>
      </trkpt>
      <trkpt lat="45.86406" lon="3.11182">
        <ele>386</ele>
        <time>2014-08-24T09:45:25Z</time>
      </trkpt>
      <trkpt lat="45.86399" lon="3.1118">
        <ele>385</ele>
        <time>2014-08-24T09:45:27Z</time>
      </trkpt>
      <trkpt lat="45.86388" lon="3.1118">
        <ele>386</ele>
        <time>2014-08-24T09:45:30Z</time>
      </trkpt>
      <trkpt lat="45.86381" lon="3.1118">
        <ele>386</ele>
        <time>2014-08-24T09:45:32Z</time>
      </trkpt>
      <trkpt lat="45.86374" lon="3.1118">
        <ele>386</ele>
        <time>2014-08-24T09:45:34Z</time>
      </trkpt>
      <trkpt lat="45.86366" lon="3.11179">
        <ele>386</ele>
        <time>2014-08-24T09:45:36Z</time>
      </trkpt>
      <trkpt lat="45.86359" lon="3.1118">
        <ele>387</ele>
        <time>2014-08-24T09:45:38Z</time>
      </trkpt>
      <trkpt lat="45.86353" lon="3.11179">
        <ele>386</ele>
        <time>2014-08-24T09:45:40Z</time>
      </trkpt>
      <trkpt lat="45.86346" lon="3.11179">
        <ele>387</ele>
        <time>2014-08-24T09:45:42Z</time>
      </trkpt>
      <trkpt lat="45.8634" lon="3.11178">
        <ele>387</ele>
        <time>2014-08-24T09:45:44Z</time>
      </trkpt>
      <trkpt lat="45.86332" lon="3.11177">
        <ele>387</ele>
        <time>2014-08-24T09:45:46Z</time>
      </trkpt>
      <trkpt lat="45.86321" lon="3.11176">
        <ele>387</ele>
        <time>2014-08-24T09:45:49Z</time>
      </trkpt>
      <trkpt lat="45.86314" lon="3.11176">
        <ele>387</ele>
        <time>2014-08-24T09:45:51Z</time>
      </trkpt>
      <trkpt lat="45.86308" lon="3.11177">
        <ele>387</ele>
        <time>2014-08-24T09:45:53Z</time>
      </trkpt>
      <trkpt lat="45.863" lon="3.11176">
        <ele>387</ele>
        <time>2014-08-24T09:45:56Z</time>
      </trkpt>
      <trkpt lat="45.86293" lon="3.11175">
        <ele>387</ele>
        <time>2014-08-24T09:45:58Z</time>
      </trkpt>
      <trkpt lat="45.86286" lon="3.11173">
        <ele>387</ele>
        <time>2014-08-24T09:46:00Z</time>
      </trkpt>
      <trkpt lat="45.86278" lon="3.1117">
        <ele>386</ele>
        <time>2014-08-24T09:46:02Z</time>
      </trkpt>
      <trkpt lat="45.86267" lon="3.11168">
        <ele>385</ele>
        <time>2014-08-24T09:46:05Z</time>
      </trkpt>
      <trkpt lat="45.86258" lon="3.11166">
        <ele>385</ele>
        <time>2014-08-24T09:46:08Z</time>
      </trkpt>
      <trkpt lat="45.8625" lon="3.11164">
        <ele>385</ele>
        <time>2014-08-24T09:46:10Z</time>
      </trkpt>
      <trkpt lat="45.86243" lon="3.11162">
        <ele>386</ele>
        <time>2014-08-24T09:46:12Z</time>
      </trkpt>
      <trkpt lat="45.86233" lon="3.11161">
        <ele>386</ele>
        <time>2014-08-24T09:46:15Z</time>
      </trkpt>
      <trkpt lat="45.86226" lon="3.11161">
        <ele>386</ele>
        <time>2014-08-24T09:46:17Z</time>
      </trkpt>
      <trkpt lat="45.8622" lon="3.1116">
        <ele>386</ele>
        <time>2014-08-24T09:46:19Z</time>
      </trkpt>
      <trkpt lat="45.86214" lon="3.1116">
        <ele>386</ele>
        <time>2014-08-24T09:46:21Z</time>
      </trkpt>
      <trkpt lat="45.86207" lon="3.11161">
        <ele>385</ele>
        <time>2014-08-24T09:46:23Z</time>
      </trkpt>
      <trkpt lat="45.862" lon="3.11162">
        <ele>385</ele>
        <time>2014-08-24T09:46:25Z</time>
      </trkpt>
      <trkpt lat="45.86194" lon="3.11162">
        <ele>384</ele>
        <time>2014-08-24T09:46:27Z</time>
      </trkpt>
      <trkpt lat="45.86185" lon="3.11162">
        <ele>384</ele>
        <time>2014-08-24T09:46:29Z</time>
      </trkpt>
      <trkpt lat="45.86177" lon="3.11162">
        <ele>383</ele>
        <time>2014-08-24T09:46:31Z</time>
      </trkpt>
      <trkpt lat="45.86171" lon="3.11162">
        <ele>383</ele>
        <time>2014-08-24T09:46:33Z</time>
      </trkpt>
      <trkpt lat="45.86166" lon="3.11159">
        <ele>382</ele>
        <time>2014-08-24T09:46:35Z</time>
      </trkpt>
      <trkpt lat="45.86161" lon="3.11157">
        <ele>382</ele>
        <time>2014-08-24T09:46:37Z</time>
      </trkpt>
      <trkpt lat="45.86153" lon="3.11153">
        <ele>383</ele>
        <time>2014-08-24T09:46:40Z</time>
      </trkpt>
      <trkpt lat="45.86148" lon="3.11152">
        <ele>384</ele>
        <time>2014-08-24T09:46:42Z</time>
      </trkpt>
      <trkpt lat="45.86142" lon="3.11152">
        <ele>384</ele>
        <time>2014-08-24T09:46:44Z</time>
      </trkpt>
      <trkpt lat="45.86136" lon="3.11152">
        <ele>385</ele>
        <time>2014-08-24T09:46:46Z</time>
      </trkpt>
      <trkpt lat="45.86127" lon="3.11152">
        <ele>385</ele>
        <time>2014-08-24T09:46:49Z</time>
      </trkpt>
      <trkpt lat="45.86118" lon="3.11153">
        <ele>386</ele>
        <time>2014-08-24T09:46:52Z</time>
      </trkpt>
      <trkpt lat="45.86113" lon="3.11153">
        <ele>385</ele>
        <time>2014-08-24T09:46:54Z</time>
      </trkpt>
      <trkpt lat="45.86107" lon="3.11152">
        <ele>385</ele>
        <time>2014-08-24T09:46:56Z</time>
      </trkpt>
      <trkpt lat="45.86102" lon="3.11151">
        <ele>386</ele>
        <time>2014-08-24T09:46:58Z</time>
      </trkpt>
      <trkpt lat="45.86096" lon="3.11149">
        <ele>386</ele>
        <time>2014-08-24T09:47:00Z</time>
      </trkpt>
      <trkpt lat="45.86087" lon="3.11147">
        <ele>385</ele>
        <time>2014-08-24T09:47:03Z</time>
      </trkpt>
      <trkpt lat="45.8608" lon="3.11145">
        <ele>385</ele>
        <time>2014-08-24T09:47:05Z</time>
      </trkpt>
      <trkpt lat="45.86074" lon="3.11144">
        <ele>385</ele>
        <time>2014-08-24T09:47:07Z</time>
      </trkpt>
      <trkpt lat="45.86066" lon="3.11141">
        <ele>385</ele>
        <time>2014-08-24T09:47:10Z</time>
      </trkpt>
      <trkpt lat="45.8606" lon="3.11138">
        <ele>386</ele>
        <time>2014-08-24T09:47:12Z</time>
      </trkpt>
      <trkpt lat="45.86054" lon="3.11136">
        <ele>385</ele>
        <time>2014-08-24T09:47:14Z</time>
      </trkpt>
      <trkpt lat="45.86047" lon="3.11131">
        <ele>385</ele>
        <time>2014-08-24T09:47:16Z</time>
      </trkpt>
      <trkpt lat="45.86039" lon="3.11126">
        <ele>385</ele>
        <time>2014-08-24T09:47:18Z</time>
      </trkpt>
      <trkpt lat="45.86031" lon="3.11119">
        <ele>385</ele>
        <time>2014-08-24T09:47:20Z</time>
      </trkpt>
      <trkpt lat="45.86024" lon="3.11111">
        <ele>385</ele>
        <time>2014-08-24T09:47:22Z</time>
      </trkpt>
      <trkpt lat="45.86016" lon="3.11103">
        <ele>384</ele>
        <time>2014-08-24T09:47:24Z</time>
      </trkpt>
      <trkpt lat="45.86009" lon="3.11095">
        <ele>384</ele>
        <time>2014-08-24T09:47:26Z</time>
      </trkpt>
      <trkpt lat="45.86005" lon="3.11089">
        <ele>385</ele>
        <time>2014-08-24T09:47:28Z</time>
      </trkpt>
      <trkpt lat="45.85999" lon="3.11083">
        <ele>385</ele>
        <time>2014-08-24T09:47:30Z</time>
      </trkpt>
      <trkpt lat="45.85993" lon="3.11077">
        <ele>385</ele>
        <time>2014-08-24T09:47:32Z</time>
      </trkpt>
      <trkpt lat="45.85982" lon="3.11066">
        <ele>385</ele>
        <time>2014-08-24T09:47:35Z</time>
      </trkpt>
      <trkpt lat="45.85971" lon="3.11054">
        <ele>385</ele>
        <time>2014-08-24T09:47:38Z</time>
      </trkpt>
      <trkpt lat="45.85963" lon="3.11046">
        <ele>384</ele>
        <time>2014-08-24T09:47:40Z</time>
      </trkpt>
      <trkpt lat="45.85955" lon="3.11037">
        <ele>384</ele>
        <time>2014-08-24T09:47:42Z</time>
      </trkpt>
      <trkpt lat="45.85947" lon="3.11031">
        <ele>383</ele>
        <time>2014-08-24T09:47:44Z</time>
      </trkpt>
      <trkpt lat="45.85941" lon="3.11024">
        <ele>383</ele>
        <time>2014-08-24T09:47:46Z</time>
      </trkpt>
      <trkpt lat="45.85936" lon="3.11017">
        <ele>383</ele>
        <time>2014-08-24T09:47:48Z</time>
      </trkpt>
      <trkpt lat="45.85934" lon="3.11008">
        <ele>383</ele>
        <time>2014-08-24T09:47:50Z</time>
      </trkpt>
      <trkpt lat="45.85931" lon="3.10999">
        <ele>383</ele>
        <time>2014-08-24T09:47:52Z</time>
      </trkpt>
      <trkpt lat="45.85927" lon="3.10989">
        <ele>383</ele>
        <time>2014-08-24T09:47:54Z</time>
      </trkpt>
      <trkpt lat="45.85923" lon="3.10981">
        <ele>383</ele>
        <time>2014-08-24T09:47:56Z</time>
      </trkpt>
      <trkpt lat="45.85919" lon="3.10971">
        <ele>384</ele>
        <time>2014-08-24T09:47:58Z</time>
      </trkpt>
      <trkpt lat="45.85911" lon="3.10954">
        <ele>384</ele>
        <time>2014-08-24T09:48:01Z</time>
      </trkpt>
      <trkpt lat="45.85904" lon="3.10939">
        <ele>385</ele>
        <time>2014-08-24T09:48:04Z</time>
      </trkpt>
      <trkpt lat="45.85897" lon="3.10925">
        <ele>385</ele>
        <time>2014-08-24T09:48:07Z</time>
      </trkpt>
      <trkpt lat="45.85892" lon="3.10916">
        <ele>386</ele>
        <time>2014-08-24T09:48:09Z</time>
      </trkpt>
      <trkpt lat="45.85889" lon="3.10907">
        <ele>386</ele>
        <time>2014-08-24T09:48:11Z</time>
      </trkpt>
      <trkpt lat="45.85883" lon="3.10893">
        <ele>386</ele>
        <time>2014-08-24T09:48:14Z</time>
      </trkpt>
      <trkpt lat="45.85879" lon="3.10885">
        <ele>386</ele>
        <time>2014-08-24T09:48:16Z</time>
      </trkpt>
      <trkpt lat="45.85873" lon="3.10871">
        <ele>387</ele>
        <time>2014-08-24T09:48:19Z</time>
      </trkpt>
      <trkpt lat="45.85868" lon="3.10861">
        <ele>387</ele>
        <time>2014-08-24T09:48:21Z</time>
      </trkpt>
      <trkpt lat="45.85864" lon="3.1085">
        <ele>387</ele>
        <time>2014-08-24T09:48:23Z</time>
      </trkpt>
      <trkpt lat="45.8586" lon="3.1084">
        <ele>387</ele>
        <time>2014-08-24T09:48:25Z</time>
      </trkpt>
      <trkpt lat="45.85857" lon="3.10827">
        <ele>387</ele>
        <time>2014-08-24T09:48:28Z</time>
      </trkpt>
      <trkpt lat="45.85857" lon="3.10821">
        <ele>388</ele>
        <time>2014-08-24T09:48:30Z</time>
      </trkpt>
      <trkpt lat="45.85855" lon="3.1081">
        <ele>388</ele>
        <time>2014-08-24T09:48:33Z</time>
      </trkpt>
      <trkpt lat="45.85851" lon="3.10802">
        <ele>388</ele>
        <time>2014-08-24T09:48:35Z</time>
      </trkpt>
      <trkpt lat="45.85845" lon="3.10794">
        <ele>388</ele>
        <time>2014-08-24T09:48:37Z</time>
      </trkpt>
      <trkpt lat="45.85837" lon="3.10787">
        <ele>388</ele>
        <time>2014-08-24T09:48:39Z</time>
      </trkpt>
      <trkpt lat="45.85828" lon="3.10779">
        <ele>388</ele>
        <time>2014-08-24T09:48:41Z</time>
      </trkpt>
      <trkpt lat="45.85815" lon="3.10767">
        <ele>387</ele>
        <time>2014-08-24T09:48:44Z</time>
      </trkpt>
      <trkpt lat="45.85806" lon="3.10758">
        <ele>387</ele>
        <time>2014-08-24T09:48:46Z</time>
      </trkpt>
      <trkpt lat="45.85798" lon="3.1075">
        <ele>386</ele>
        <time>2014-08-24T09:48:48Z</time>
      </trkpt>
      <trkpt lat="45.8579" lon="3.10733">
        <ele>386</ele>
        <time>2014-08-24T09:48:51Z</time>
      </trkpt>
      <trkpt lat="45.85786" lon="3.10718">
        <ele>386</ele>
        <time>2014-08-24T09:48:54Z</time>
      </trkpt>
      <trkpt lat="45.85784" lon="3.10708">
        <ele>386</ele>
        <time>2014-08-24T09:48:56Z</time>
      </trkpt>
      <trkpt lat="45.85782" lon="3.10698">
        <ele>386</ele>
        <time>2014-08-24T09:48:58Z</time>
      </trkpt>
      <trkpt lat="45.8578" lon="3.10687">
        <ele>386</ele>
        <time>2014-08-24T09:49:00Z</time>
      </trkpt>
      <trkpt lat="45.85778" lon="3.10676">
        <ele>387</ele>
        <time>2014-08-24T09:49:02Z</time>
      </trkpt>
      <trkpt lat="45.85777" lon="3.10665">
        <ele>387</ele>
        <time>2014-08-24T09:49:04Z</time>
      </trkpt>
      <trkpt lat="45.85777" lon="3.10655">
        <ele>387</ele>
        <time>2014-08-24T09:49:06Z</time>
      </trkpt>
      <trkpt lat="45.85776" lon="3.10643">
        <ele>387</ele>
        <time>2014-08-24T09:49:08Z</time>
      </trkpt>
      <trkpt lat="45.85775" lon="3.10631">
        <ele>388</ele>
        <time>2014-08-24T09:49:10Z</time>
      </trkpt>
      <trkpt lat="45.85774" lon="3.1062">
        <ele>388</ele>
        <time>2014-08-24T09:49:12Z</time>
      </trkpt>
      <trkpt lat="45.85773" lon="3.10609">
        <ele>389</ele>
        <time>2014-08-24T09:49:14Z</time>
      </trkpt>
      <trkpt lat="45.8577" lon="3.10593">
        <ele>390</ele>
        <time>2014-08-24T09:49:17Z</time>
      </trkpt>
      <trkpt lat="45.85768" lon="3.10582">
        <ele>391</ele>
        <time>2014-08-24T09:49:19Z</time>
      </trkpt>
      <trkpt lat="45.85767" lon="3.1057">
        <ele>392</ele>
        <time>2014-08-24T09:49:22Z</time>
      </trkpt>
      <trkpt lat="45.85767" lon="3.10563">
        <ele>392</ele>
        <time>2014-08-24T09:49:24Z</time>
      </trkpt>
      <trkpt lat="45.85767" lon="3.10557">
        <ele>393</ele>
        <time>2014-08-24T09:49:26Z</time>
      </trkpt>
      <trkpt lat="45.85767" lon="3.10545">
        <ele>393</ele>
        <time>2014-08-24T09:49:29Z</time>
      </trkpt>
      <trkpt lat="45.85768" lon="3.10538">
        <ele>393</ele>
        <time>2014-08-24T09:49:31Z</time>
      </trkpt>
      <trkpt lat="45.85769" lon="3.10526">
        <ele>394</ele>
        <time>2014-08-24T09:49:34Z</time>
      </trkpt>
      <trkpt lat="45.8577" lon="3.10517">
        <ele>394</ele>
        <time>2014-08-24T09:49:36Z</time>
      </trkpt>
      <trkpt lat="45.85771" lon="3.10508">
        <ele>394</ele>
        <time>2014-08-24T09:49:38Z</time>
      </trkpt>
      <trkpt lat="45.85773" lon="3.10493">
        <ele>395</ele>
        <time>2014-08-24T09:49:41Z</time>
      </trkpt>
      <trkpt lat="45.85775" lon="3.10484">
        <ele>395</ele>
        <time>2014-08-24T09:49:43Z</time>
      </trkpt>
      <trkpt lat="45.85778" lon="3.10475">
        <ele>395</ele>
        <time>2014-08-24T09:49:45Z</time>
      </trkpt>
      <trkpt lat="45.8578" lon="3.10465">
        <ele>395</ele>
        <time>2014-08-24T09:49:47Z</time>
      </trkpt>
      <trkpt lat="45.85782" lon="3.10452">
        <ele>396</ele>
        <time>2014-08-24T09:49:50Z</time>
      </trkpt>
      <trkpt lat="45.85784" lon="3.10442">
        <ele>396</ele>
        <time>2014-08-24T09:49:52Z</time>
      </trkpt>
      <trkpt lat="45.85786" lon="3.10433">
        <ele>396</ele>
        <time>2014-08-24T09:49:54Z</time>
      </trkpt>
      <trkpt lat="45.85788" lon="3.10425">
        <ele>397</ele>
        <time>2014-08-24T09:49:56Z</time>
      </trkpt>
      <trkpt lat="45.85792" lon="3.10413">
        <ele>397</ele>
        <time>2014-08-24T09:49:59Z</time>
      </trkpt>
      <trkpt lat="45.85796" lon="3.10405">
        <ele>397</ele>
        <time>2014-08-24T09:50:01Z</time>
      </trkpt>
      <trkpt lat="45.85801" lon="3.10392">
        <ele>399</ele>
        <time>2014-08-24T09:50:04Z</time>
      </trkpt>
      <trkpt lat="45.85804" lon="3.10384">
        <ele>399</ele>
        <time>2014-08-24T09:50:06Z</time>
      </trkpt>
      <trkpt lat="45.85807" lon="3.10378">
        <ele>399</ele>
        <time>2014-08-24T09:50:08Z</time>
      </trkpt>
      <trkpt lat="45.85811" lon="3.10368">
        <ele>400</ele>
        <time>2014-08-24T09:50:11Z</time>
      </trkpt>
      <trkpt lat="45.85815" lon="3.1036">
        <ele>400</ele>
        <time>2014-08-24T09:50:13Z</time>
      </trkpt>
      <trkpt lat="45.85822" lon="3.10348">
        <ele>401</ele>
        <time>2014-08-24T09:50:16Z</time>
      </trkpt>
      <trkpt lat="45.85825" lon="3.1034">
        <ele>401</ele>
        <time>2014-08-24T09:50:18Z</time>
      </trkpt>
      <trkpt lat="45.85827" lon="3.10332">
        <ele>402</ele>
        <time>2014-08-24T09:50:20Z</time>
      </trkpt>
      <trkpt lat="45.8583" lon="3.10323">
        <ele>402</ele>
        <time>2014-08-24T09:50:22Z</time>
      </trkpt>
      <trkpt lat="45.85833" lon="3.10315">
        <ele>403</ele>
        <time>2014-08-24T09:50:24Z</time>
      </trkpt>
      <trkpt lat="45.85836" lon="3.10307">
        <ele>403</ele>
        <time>2014-08-24T09:50:26Z</time>
      </trkpt>
      <trkpt lat="45.8584" lon="3.10299">
        <ele>403</ele>
        <time>2014-08-24T09:50:28Z</time>
      </trkpt>
      <trkpt lat="45.85844" lon="3.10292">
        <ele>403</ele>
        <time>2014-08-24T09:50:30Z</time>
      </trkpt>
      <trkpt lat="45.85849" lon="3.10284">
        <ele>404</ele>
        <time>2014-08-24T09:50:32Z</time>
      </trkpt>
      <trkpt lat="45.85854" lon="3.10277">
        <ele>405</ele>
        <time>2014-08-24T09:50:34Z</time>
      </trkpt>
      <trkpt lat="45.8586" lon="3.10272">
        <ele>406</ele>
        <time>2014-08-24T09:50:36Z</time>
      </trkpt>
      <trkpt lat="45.85869" lon="3.10265">
        <ele>407</ele>
        <time>2014-08-24T09:50:39Z</time>
      </trkpt>
      <trkpt lat="45.85878" lon="3.10257">
        <ele>409</ele>
        <time>2014-08-24T09:50:42Z</time>
      </trkpt>
      <trkpt lat="45.85886" lon="3.10248">
        <ele>410</ele>
        <time>2014-08-24T09:50:45Z</time>
      </trkpt>
      <trkpt lat="45.8589" lon="3.10244">
        <ele>411</ele>
        <time>2014-08-24T09:50:47Z</time>
      </trkpt>
      <trkpt lat="45.85897" lon="3.10237">
        <ele>412</ele>
        <time>2014-08-24T09:50:50Z</time>
      </trkpt>
      <trkpt lat="45.85905" lon="3.10232">
        <ele>413</ele>
        <time>2014-08-24T09:50:53Z</time>
      </trkpt>
      <trkpt lat="45.85911" lon="3.10228">
        <ele>414</ele>
        <time>2014-08-24T09:50:55Z</time>
      </trkpt>
      <trkpt lat="45.85916" lon="3.10224">
        <ele>415</ele>
        <time>2014-08-24T09:50:57Z</time>
      </trkpt>
      <trkpt lat="45.85919" lon="3.10221">
        <ele>415</ele>
        <time>2014-08-24T09:50:59Z</time>
      </trkpt>
      <trkpt lat="45.85922" lon="3.10217">
        <ele>416</ele>
        <time>2014-08-24T09:51:01Z</time>
      </trkpt>
      <trkpt lat="45.85926" lon="3.10209">
        <ele>416</ele>
        <time>2014-08-24T09:51:04Z</time>
      </trkpt>
      <trkpt lat="45.8593" lon="3.10198">
        <ele>417</ele>
        <time>2014-08-24T09:51:07Z</time>
      </trkpt>
      <trkpt lat="45.85933" lon="3.1019">
        <ele>418</ele>
        <time>2014-08-24T09:51:09Z</time>
      </trkpt>
      <trkpt lat="45.85934" lon="3.10184">
        <ele>418</ele>
        <time>2014-08-24T09:51:11Z</time>
      </trkpt>
      <trkpt lat="45.85937" lon="3.10177">
        <ele>419</ele>
        <time>2014-08-24T09:51:14Z</time>
      </trkpt>
      <trkpt lat="45.85938" lon="3.10172">
        <ele>419</ele>
        <time>2014-08-24T09:51:16Z</time>
      </trkpt>
      <trkpt lat="45.85938" lon="3.10167">
        <ele>419</ele>
        <time>2014-08-24T09:51:18Z</time>
      </trkpt>
      <trkpt lat="45.85938" lon="3.10163">
        <ele>419</ele>
        <time>2014-08-24T09:51:20Z</time>
      </trkpt>
      <trkpt lat="45.85938" lon="3.10156">
        <ele>419</ele>
        <time>2014-08-24T09:51:23Z</time>
      </trkpt>
      <trkpt lat="45.85939" lon="3.10154">
        <ele>419</ele>
        <time>2014-08-24T09:51:25Z</time>
      </trkpt>
      <trkpt lat="45.85938" lon="3.10142">
        <ele>419</ele>
        <time>2014-08-24T09:51:28Z</time>
      </trkpt>
      <trkpt lat="45.85934" lon="3.10135">
        <ele>419</ele>
        <time>2014-08-24T09:51:31Z</time>
      </trkpt>
      <trkpt lat="45.85931" lon="3.10126">
        <ele>419</ele>
        <time>2014-08-24T09:51:34Z</time>
      </trkpt>
      <trkpt lat="45.85927" lon="3.1012">
        <ele>419</ele>
        <time>2014-08-24T09:51:36Z</time>
      </trkpt>
      <trkpt lat="45.85925" lon="3.10113">
        <ele>419</ele>
        <time>2014-08-24T09:51:38Z</time>
      </trkpt>
      <trkpt lat="45.85923" lon="3.10105">
        <ele>419</ele>
        <time>2014-08-24T09:51:40Z</time>
      </trkpt>
      <trkpt lat="45.85921" lon="3.10096">
        <ele>418</ele>
        <time>2014-08-24T09:51:42Z</time>
      </trkpt>
      <trkpt lat="45.85919" lon="3.10086">
        <ele>418</ele>
        <time>2014-08-24T09:51:44Z</time>
      </trkpt>
      <trkpt lat="45.85916" lon="3.10077">
        <ele>418</ele>
        <time>2014-08-24T09:51:46Z</time>
      </trkpt>
      <trkpt lat="45.85913" lon="3.10067">
        <ele>418</ele>
        <time>2014-08-24T09:51:48Z</time>
      </trkpt>
      <trkpt lat="45.85911" lon="3.10056">
        <ele>418</ele>
        <time>2014-08-24T09:51:50Z</time>
      </trkpt>
      <trkpt lat="45.85909" lon="3.10045">
        <ele>418</ele>
        <time>2014-08-24T09:51:52Z</time>
      </trkpt>
      <trkpt lat="45.85906" lon="3.10033">
        <ele>418</ele>
        <time>2014-08-24T09:51:54Z</time>
      </trkpt>
      <trkpt lat="45.85904" lon="3.10021">
        <ele>417</ele>
        <time>2014-08-24T09:51:56Z</time>
      </trkpt>
      <trkpt lat="45.85903" lon="3.10007">
        <ele>417</ele>
        <time>2014-08-24T09:51:58Z</time>
      </trkpt>
      <trkpt lat="45.85901" lon="3.09986">
        <ele>417</ele>
        <time>2014-08-24T09:52:01Z</time>
      </trkpt>
      <trkpt lat="45.859" lon="3.09971">
        <ele>416</ele>
        <time>2014-08-24T09:52:03Z</time>
      </trkpt>
      <trkpt lat="45.85897" lon="3.09948">
        <ele>415</ele>
        <time>2014-08-24T09:52:06Z</time>
      </trkpt>
      <trkpt lat="45.85896" lon="3.09924">
        <ele>415</ele>
        <time>2014-08-24T09:52:09Z</time>
      </trkpt>
      <trkpt lat="45.85895" lon="3.09907">
        <ele>414</ele>
        <time>2014-08-24T09:52:11Z</time>
      </trkpt>
      <trkpt lat="45.85894" lon="3.09891">
        <ele>413</ele>
        <time>2014-08-24T09:52:13Z</time>
      </trkpt>
      <trkpt lat="45.85894" lon="3.09869">
        <ele>412</ele>
        <time>2014-08-24T09:52:16Z</time>
      </trkpt>
      <trkpt lat="45.85894" lon="3.09854">
        <ele>411</ele>
        <time>2014-08-24T09:52:18Z</time>
      </trkpt>
      <trkpt lat="45.85894" lon="3.09831">
        <ele>410</ele>
        <time>2014-08-24T09:52:21Z</time>
      </trkpt>
      <trkpt lat="45.85894" lon="3.09815">
        <ele>410</ele>
        <time>2014-08-24T09:52:23Z</time>
      </trkpt>
      <trkpt lat="45.85891" lon="3.09801">
        <ele>410</ele>
        <time>2014-08-24T09:52:25Z</time>
      </trkpt>
      <trkpt lat="45.85883" lon="3.09781">
        <ele>410</ele>
        <time>2014-08-24T09:52:28Z</time>
      </trkpt>
      <trkpt lat="45.85881" lon="3.09767">
        <ele>410</ele>
        <time>2014-08-24T09:52:30Z</time>
      </trkpt>
      <trkpt lat="45.85881" lon="3.09753">
        <ele>408</ele>
        <time>2014-08-24T09:52:32Z</time>
      </trkpt>
      <trkpt lat="45.85881" lon="3.0974">
        <ele>408</ele>
        <time>2014-08-24T09:52:34Z</time>
      </trkpt>
      <trkpt lat="45.85882" lon="3.09731">
        <ele>407</ele>
        <time>2014-08-24T09:52:36Z</time>
      </trkpt>
      <trkpt lat="45.85882" lon="3.09727">
        <ele>406</ele>
        <time>2014-08-24T09:52:38Z</time>
      </trkpt>
      <trkpt lat="45.85882" lon="3.09724">
        <ele>406</ele>
        <time>2014-08-24T09:52:40Z</time>
      </trkpt>
      <trkpt lat="45.85883" lon="3.09721">
        <ele>406</ele>
        <time>2014-08-24T09:52:42Z</time>
      </trkpt>
      <trkpt lat="45.85883" lon="3.09718">
        <ele>406</ele>
        <time>2014-08-24T09:52:44Z</time>
      </trkpt>
      <trkpt lat="45.85883" lon="3.09715">
        <ele>406</ele>
        <time>2014-08-24T09:52:46Z</time>
      </trkpt>
      <trkpt lat="45.85882" lon="3.09711">
        <ele>406</ele>
        <time>2014-08-24T09:52:48Z</time>
      </trkpt>
      <trkpt lat="45.85879" lon="3.09706">
        <ele>406</ele>
        <time>2014-08-24T09:52:50Z</time>
      </trkpt>
      <trkpt lat="45.85873" lon="3.09699">
        <ele>406</ele>
        <time>2014-08-24T09:52:53Z</time>
      </trkpt>
      <trkpt lat="45.8587" lon="3.09693">
        <ele>405</ele>
        <time>2014-08-24T09:52:55Z</time>
      </trkpt>
      <trkpt lat="45.85867" lon="3.09679">
        <ele>405</ele>
        <time>2014-08-24T09:52:58Z</time>
      </trkpt>
      <trkpt lat="45.85868" lon="3.09668">
        <ele>404</ele>
        <time>2014-08-24T09:53:00Z</time>
      </trkpt>
      <trkpt lat="45.85868" lon="3.09656">
        <ele>404</ele>
        <time>2014-08-24T09:53:02Z</time>
      </trkpt>
      <trkpt lat="45.85865" lon="3.09645">
        <ele>403</ele>
        <time>2014-08-24T09:53:04Z</time>
      </trkpt>
      <trkpt lat="45.85858" lon="3.09628">
        <ele>403</ele>
        <time>2014-08-24T09:53:07Z</time>
      </trkpt>
      <trkpt lat="45.85851" lon="3.09617">
        <ele>402</ele>
        <time>2014-08-24T09:53:09Z</time>
      </trkpt>
      <trkpt lat="45.85842" lon="3.09605">
        <ele>402</ele>
        <time>2014-08-24T09:53:11Z</time>
      </trkpt>
      <trkpt lat="45.85826" lon="3.09582">
        <ele>401</ele>
        <time>2014-08-24T09:53:14Z</time>
      </trkpt>
      <trkpt lat="45.85816" lon="3.09564">
        <ele>400</ele>
        <time>2014-08-24T09:53:16Z</time>
      </trkpt>
      <trkpt lat="45.85802" lon="3.09536">
        <ele>400</ele>
        <time>2014-08-24T09:53:19Z</time>
      </trkpt>
      <trkpt lat="45.85791" lon="3.09512">
        <ele>397</ele>
        <time>2014-08-24T09:53:22Z</time>
      </trkpt>
      <trkpt lat="45.8578" lon="3.09489">
        <ele>395</ele>
        <time>2014-08-24T09:53:25Z</time>
      </trkpt>
      <trkpt lat="45.8577" lon="3.09472">
        <ele>393</ele>
        <time>2014-08-24T09:53:27Z</time>
      </trkpt>
      <trkpt lat="45.85756" lon="3.09444">
        <ele>393</ele>
        <time>2014-08-24T09:53:30Z</time>
      </trkpt>
      <trkpt lat="45.85745" lon="3.09426">
        <ele>392</ele>
        <time>2014-08-24T09:53:32Z</time>
      </trkpt>
      <trkpt lat="45.85738" lon="3.09408">
        <ele>391</ele>
        <time>2014-08-24T09:53:34Z</time>
      </trkpt>
      <trkpt lat="45.85733" lon="3.0939">
        <ele>390</ele>
        <time>2014-08-24T09:53:36Z</time>
      </trkpt>
      <trkpt lat="45.85728" lon="3.09373">
        <ele>389</ele>
        <time>2014-08-24T09:53:38Z</time>
      </trkpt>
      <trkpt lat="45.85722" lon="3.09347">
        <ele>388</ele>
        <time>2014-08-24T09:53:41Z</time>
      </trkpt>
      <trkpt lat="45.85718" lon="3.09331">
        <ele>387</ele>
        <time>2014-08-24T09:53:43Z</time>
      </trkpt>
      <trkpt lat="45.85713" lon="3.09308">
        <ele>386</ele>
        <time>2014-08-24T09:53:46Z</time>
      </trkpt>
      <trkpt lat="45.8571" lon="3.09293">
        <ele>386</ele>
        <time>2014-08-24T09:53:48Z</time>
      </trkpt>
      <trkpt lat="45.85706" lon="3.09277">
        <ele>385</ele>
        <time>2014-08-24T09:53:50Z</time>
      </trkpt>
      <trkpt lat="45.85703" lon="3.0926">
        <ele>385</ele>
        <time>2014-08-24T09:53:52Z</time>
      </trkpt>
      <trkpt lat="45.85699" lon="3.09243">
        <ele>385</ele>
        <time>2014-08-24T09:53:54Z</time>
      </trkpt>
      <trkpt lat="45.85694" lon="3.09217">
        <ele>385</ele>
        <time>2014-08-24T09:53:57Z</time>
      </trkpt>
      <trkpt lat="45.85691" lon="3.09202">
        <ele>386</ele>
        <time>2014-08-24T09:53:59Z</time>
      </trkpt>
      <trkpt lat="45.85687" lon="3.09189">
        <ele>386</ele>
        <time>2014-08-24T09:54:01Z</time>
      </trkpt>
      <trkpt lat="45.85678" lon="3.09175">
        <ele>387</ele>
        <time>2014-08-24T09:54:04Z</time>
      </trkpt>
      <trkpt lat="45.85668" lon="3.09166">
        <ele>386</ele>
        <time>2014-08-24T09:54:07Z</time>
      </trkpt>
      <trkpt lat="45.85658" lon="3.09157">
        <ele>387</ele>
        <time>2014-08-24T09:54:10Z</time>
      </trkpt>
      <trkpt lat="45.85651" lon="3.09152">
        <ele>387</ele>
        <time>2014-08-24T09:54:12Z</time>
      </trkpt>
      <trkpt lat="45.85644" lon="3.09147">
        <ele>388</ele>
        <time>2014-08-24T09:54:14Z</time>
      </trkpt>
      <trkpt lat="45.85637" lon="3.09141">
        <ele>388</ele>
        <time>2014-08-24T09:54:16Z</time>
      </trkpt>
      <trkpt lat="45.8563" lon="3.09138">
        <ele>388</ele>
        <time>2014-08-24T09:54:18Z</time>
      </trkpt>
      <trkpt lat="45.8562" lon="3.09134">
        <ele>388</ele>
        <time>2014-08-24T09:54:21Z</time>
      </trkpt>
      <trkpt lat="45.85612" lon="3.0913">
        <ele>389</ele>
        <time>2014-08-24T09:54:23Z</time>
      </trkpt>
      <trkpt lat="45.85598" lon="3.09123">
        <ele>390</ele>
        <time>2014-08-24T09:54:26Z</time>
      </trkpt>
      <trkpt lat="45.85588" lon="3.09119">
        <ele>391</ele>
        <time>2014-08-24T09:54:28Z</time>
      </trkpt>
      <trkpt lat="45.85578" lon="3.09115">
        <ele>392</ele>
        <time>2014-08-24T09:54:30Z</time>
      </trkpt>
      <trkpt lat="45.85568" lon="3.0911">
        <ele>393</ele>
        <time>2014-08-24T09:54:32Z</time>
      </trkpt>
      <trkpt lat="45.85554" lon="3.09105">
        <ele>394</ele>
        <time>2014-08-24T09:54:35Z</time>
      </trkpt>
      <trkpt lat="45.85545" lon="3.09101">
        <ele>395</ele>
        <time>2014-08-24T09:54:37Z</time>
      </trkpt>
      <trkpt lat="45.85531" lon="3.09101">
        <ele>396</ele>
        <time>2014-08-24T09:54:40Z</time>
      </trkpt>
      <trkpt lat="45.85523" lon="3.09103">
        <ele>397</ele>
        <time>2014-08-24T09:54:42Z</time>
      </trkpt>
      <trkpt lat="45.85514" lon="3.09107">
        <ele>399</ele>
        <time>2014-08-24T09:54:45Z</time>
      </trkpt>
      <trkpt lat="45.85506" lon="3.09111">
        <ele>400</ele>
        <time>2014-08-24T09:54:48Z</time>
      </trkpt>
      <trkpt lat="45.855" lon="3.09113">
        <ele>400</ele>
        <time>2014-08-24T09:54:50Z</time>
      </trkpt>
      <trkpt lat="45.85494" lon="3.09114">
        <ele>401</ele>
        <time>2014-08-24T09:54:52Z</time>
      </trkpt>
      <trkpt lat="45.85489" lon="3.09114">
        <ele>401</ele>
        <time>2014-08-24T09:54:54Z</time>
      </trkpt>
      <trkpt lat="45.85484" lon="3.09114">
        <ele>402</ele>
        <time>2014-08-24T09:54:56Z</time>
      </trkpt>
      <trkpt lat="45.85477" lon="3.09109">
        <ele>403</ele>
        <time>2014-08-24T09:54:59Z</time>
      </trkpt>
      <trkpt lat="45.85474" lon="3.09106">
        <ele>403</ele>
        <time>2014-08-24T09:55:01Z</time>
      </trkpt>
      <trkpt lat="45.8547" lon="3.09103">
        <ele>404</ele>
        <time>2014-08-24T09:55:03Z</time>
      </trkpt>
      <trkpt lat="45.85465" lon="3.09099">
        <ele>404</ele>
        <time>2014-08-24T09:55:06Z</time>
      </trkpt>
      <trkpt lat="45.85462" lon="3.09095">
        <ele>404</ele>
        <time>2014-08-24T09:55:08Z</time>
      </trkpt>
      <trkpt lat="45.85457" lon="3.09089">
        <ele>404</ele>
        <time>2014-08-24T09:55:11Z</time>
      </trkpt>
      <trkpt lat="45.8545" lon="3.09083">
        <ele>404</ele>
        <time>2014-08-24T09:55:14Z</time>
      </trkpt>
      <trkpt lat="45.85445" lon="3.09078">
        <ele>403</ele>
        <time>2014-08-24T09:55:16Z</time>
      </trkpt>
      <trkpt lat="45.85438" lon="3.09069">
        <ele>403</ele>
        <time>2014-08-24T09:55:19Z</time>
      </trkpt>
      <trkpt lat="45.85429" lon="3.09061">
        <ele>403</ele>
        <time>2014-08-24T09:55:22Z</time>
      </trkpt>
      <trkpt lat="45.85423" lon="3.09054">
        <ele>403</ele>
        <time>2014-08-24T09:55:24Z</time>
      </trkpt>
      <trkpt lat="45.85417" lon="3.09049">
        <ele>403</ele>
        <time>2014-08-24T09:55:26Z</time>
      </trkpt>
      <trkpt lat="45.85412" lon="3.09046">
        <ele>403</ele>
        <time>2014-08-24T09:55:28Z</time>
      </trkpt>
      <trkpt lat="45.85408" lon="3.09039">
        <ele>402</ele>
        <time>2014-08-24T09:55:31Z</time>
      </trkpt>
      <trkpt lat="45.85404" lon="3.09032">
        <ele>402</ele>
        <time>2014-08-24T09:55:34Z</time>
      </trkpt>
      <trkpt lat="45.85402" lon="3.09028">
        <ele>402</ele>
        <time>2014-08-24T09:55:36Z</time>
      </trkpt>
      <trkpt lat="45.85398" lon="3.09022">
        <ele>402</ele>
        <time>2014-08-24T09:55:39Z</time>
      </trkpt>
      <trkpt lat="45.85393" lon="3.09015">
        <ele>403</ele>
        <time>2014-08-24T09:55:42Z</time>
      </trkpt>
      <trkpt lat="45.8539" lon="3.09012">
        <ele>403</ele>
        <time>2014-08-24T09:55:44Z</time>
      </trkpt>
      <trkpt lat="45.85389" lon="3.09008">
        <ele>404</ele>
        <time>2014-08-24T09:55:46Z</time>
      </trkpt>
      <trkpt lat="45.85386" lon="3.09">
        <ele>404</ele>
        <time>2014-08-24T09:55:49Z</time>
      </trkpt>
      <trkpt lat="45.85385" lon="3.08994">
        <ele>405</ele>
        <time>2014-08-24T09:55:51Z</time>
      </trkpt>
      <trkpt lat="45.85384" lon="3.08984">
        <ele>405</ele>
        <time>2014-08-24T09:55:54Z</time>
      </trkpt>
      <trkpt lat="45.85384" lon="3.08974">
        <ele>406</ele>
        <time>2014-08-24T09:55:57Z</time>
      </trkpt>
      <trkpt lat="45.85385" lon="3.08964">
        <ele>406</ele>
        <time>2014-08-24T09:56:00Z</time>
      </trkpt>
      <trkpt lat="45.85387" lon="3.08958">
        <ele>407</ele>
        <time>2014-08-24T09:56:02Z</time>
      </trkpt>
      <trkpt lat="45.85387" lon="3.08948">
        <ele>408</ele>
        <time>2014-08-24T09:56:05Z</time>
      </trkpt>
      <trkpt lat="45.85387" lon="3.08941">
        <ele>408</ele>
        <time>2014-08-24T09:56:07Z</time>
      </trkpt>
      <trkpt lat="45.85387" lon="3.08934">
        <ele>409</ele>
        <time>2014-08-24T09:56:09Z</time>
      </trkpt>
      <trkpt lat="45.85386" lon="3.08922">
        <ele>409</ele>
        <time>2014-08-24T09:56:12Z</time>
      </trkpt>
      <trkpt lat="45.85386" lon="3.08914">
        <ele>410</ele>
        <time>2014-08-24T09:56:14Z</time>
      </trkpt>
      <trkpt lat="45.85387" lon="3.08905">
        <ele>410</ele>
        <time>2014-08-24T09:56:17Z</time>
      </trkpt>
      <trkpt lat="45.85389" lon="3.08896">
        <ele>411</ele>
        <time>2014-08-24T09:56:20Z</time>
      </trkpt>
      <trkpt lat="45.85393" lon="3.08889">
        <ele>412</ele>
        <time>2014-08-24T09:56:23Z</time>
      </trkpt>
      <trkpt lat="45.85396" lon="3.08884">
        <ele>412</ele>
        <time>2014-08-24T09:56:25Z</time>
      </trkpt>
      <trkpt lat="45.85399" lon="3.08878">
        <ele>413</ele>
        <time>2014-08-24T09:56:27Z</time>
      </trkpt>
      <trkpt lat="45.854" lon="3.08871">
        <ele>413</ele>
        <time>2014-08-24T09:56:29Z</time>
      </trkpt>
      <trkpt lat="45.85402" lon="3.08859">
        <ele>413</ele>
        <time>2014-08-24T09:56:32Z</time>
      </trkpt>
      <trkpt lat="45.85402" lon="3.08851">
        <ele>414</ele>
        <time>2014-08-24T09:56:34Z</time>
      </trkpt>
      <trkpt lat="45.85402" lon="3.08843">
        <ele>414</ele>
        <time>2014-08-24T09:56:36Z</time>
      </trkpt>
      <trkpt lat="45.85402" lon="3.08835">
        <ele>414</ele>
        <time>2014-08-24T09:56:38Z</time>
      </trkpt>
      <trkpt lat="45.85401" lon="3.08824">
        <ele>414</ele>
        <time>2014-08-24T09:56:41Z</time>
      </trkpt>
      <trkpt lat="45.854" lon="3.08819">
        <ele>413</ele>
        <time>2014-08-24T09:56:43Z</time>
      </trkpt>
      <trkpt lat="45.85399" lon="3.08813">
        <ele>413</ele>
        <time>2014-08-24T09:56:45Z</time>
      </trkpt>
      <trkpt lat="45.85401" lon="3.08804">
        <ele>413</ele>
        <time>2014-08-24T09:56:48Z</time>
      </trkpt>
      <trkpt lat="45.85402" lon="3.08795">
        <ele>413</ele>
        <time>2014-08-24T09:56:51Z</time>
      </trkpt>
      <trkpt lat="45.85403" lon="3.08787">
        <ele>413</ele>
        <time>2014-08-24T09:56:53Z</time>
      </trkpt>
      <trkpt lat="45.85405" lon="3.08779">
        <ele>413</ele>
        <time>2014-08-24T09:56:55Z</time>
      </trkpt>
      <trkpt lat="45.85405" lon="3.08771">
        <ele>413</ele>
        <time>2014-08-24T09:56:57Z</time>
      </trkpt>
      <trkpt lat="45.85408" lon="3.08768">
        <ele>413</ele>
        <time>2014-08-24T09:56:59Z</time>
      </trkpt>
      <trkpt lat="45.85406" lon="3.08775">
        <ele>413</ele>
        <time>2014-08-24T09:57:02Z</time>
      </trkpt>
      <trkpt lat="45.85404" lon="3.08784">
        <ele>413</ele>
        <time>2014-08-24T09:57:05Z</time>
      </trkpt>
      <trkpt lat="45.85401" lon="3.08796">
        <ele>414</ele>
        <time>2014-08-24T09:57:08Z</time>
      </trkpt>
      <trkpt lat="45.85401" lon="3.08804">
        <ele>414</ele>
        <time>2014-08-24T09:57:10Z</time>
      </trkpt>
      <trkpt lat="45.85403" lon="3.08813">
        <ele>414</ele>
        <time>2014-08-24T09:57:12Z</time>
      </trkpt>
      <trkpt lat="45.85406" lon="3.08826">
        <ele>414</ele>
        <time>2014-08-24T09:57:15Z</time>
      </trkpt>
      <trkpt lat="45.85405" lon="3.08836">
        <ele>414</ele>
        <time>2014-08-24T09:57:17Z</time>
      </trkpt>
      <trkpt lat="45.85403" lon="3.08846">
        <ele>414</ele>
        <time>2014-08-24T09:57:19Z</time>
      </trkpt>
      <trkpt lat="45.854" lon="3.08861">
        <ele>414</ele>
        <time>2014-08-24T09:57:22Z</time>
      </trkpt>
      <trkpt lat="45.85398" lon="3.08872">
        <ele>415</ele>
        <time>2014-08-24T09:57:24Z</time>
      </trkpt>
      <trkpt lat="45.85395" lon="3.08887">
        <ele>414</ele>
        <time>2014-08-24T09:57:27Z</time>
      </trkpt>
      <trkpt lat="45.85399" lon="3.08897">
        <ele>414</ele>
        <time>2014-08-24T09:57:30Z</time>
      </trkpt>
      <trkpt lat="45.85403" lon="3.08901">
        <ele>414</ele>
        <time>2014-08-24T09:57:32Z</time>
      </trkpt>
      <trkpt lat="45.85408" lon="3.08903">
        <ele>414</ele>
        <time>2014-08-24T09:57:34Z</time>
      </trkpt>
      <trkpt lat="45.85414" lon="3.08909">
        <ele>415</ele>
        <time>2014-08-24T09:57:37Z</time>
      </trkpt>
      <trkpt lat="45.85421" lon="3.08917">
        <ele>416</ele>
        <time>2014-08-24T09:57:40Z</time>
      </trkpt>
      <trkpt lat="45.85426" lon="3.08923">
        <ele>417</ele>
        <time>2014-08-24T09:57:42Z</time>
      </trkpt>
      <trkpt lat="45.85433" lon="3.08931">
        <ele>418</ele>
        <time>2014-08-24T09:57:45Z</time>
      </trkpt>
      <trkpt lat="45.85439" lon="3.08938">
        <ele>419</ele>
        <time>2014-08-24T09:57:48Z</time>
      </trkpt>
      <trkpt lat="45.85443" lon="3.08944">
        <ele>419</ele>
        <time>2014-08-24T09:57:51Z</time>
      </trkpt>
      <trkpt lat="45.85444" lon="3.08948">
        <ele>419</ele>
        <time>2014-08-24T09:57:53Z</time>
      </trkpt>
      <trkpt lat="45.85445" lon="3.0895">
        <ele>419</ele>
        <time>2014-08-24T09:57:55Z</time>
      </trkpt>
      <trkpt lat="45.85444" lon="3.08952">
        <ele>419</ele>
        <time>2014-08-24T09:57:57Z</time>
      </trkpt>
      <trkpt lat="45.85445" lon="3.08954">
        <ele>419</ele>
        <time>2014-08-24T09:57:59Z</time>
      </trkpt>
      <trkpt lat="45.85445" lon="3.08955">
        <ele>419</ele>
        <time>2014-08-24T09:58:01Z</time>
      </trkpt>
      <trkpt lat="45.85447" lon="3.08955">
        <ele>419</ele>
        <time>2014-08-24T09:58:03Z</time>
      </trkpt>
      <trkpt lat="45.85447" lon="3.08956">
        <ele>419</ele>
        <time>2014-08-24T09:58:05Z</time>
      </trkpt>
      <trkpt lat="45.85448" lon="3.08959">
        <ele>419</ele>
        <time>2014-08-24T09:58:07Z</time>
      </trkpt>
      <trkpt lat="45.85452" lon="3.08969">
        <ele>419</ele>
        <time>2014-08-24T09:58:10Z</time>
      </trkpt>
      <trkpt lat="45.85456" lon="3.08976">
        <ele>420</ele>
        <time>2014-08-24T09:58:12Z</time>
      </trkpt>
      <trkpt lat="45.85461" lon="3.08981">
        <ele>420</ele>
        <time>2014-08-24T09:58:14Z</time>
      </trkpt>
      <trkpt lat="45.85466" lon="3.08985">
        <ele>420</ele>
        <time>2014-08-24T09:58:16Z</time>
      </trkpt>
      <trkpt lat="45.85469" lon="3.08989">
        <ele>420</ele>
        <time>2014-08-24T09:58:18Z</time>
      </trkpt>
      <trkpt lat="45.85472" lon="3.08994">
        <ele>420</ele>
        <time>2014-08-24T09:58:21Z</time>
      </trkpt>
      <trkpt lat="45.85472" lon="3.08995">
        <ele>420</ele>
        <time>2014-08-24T09:58:23Z</time>
      </trkpt>
      <trkpt lat="45.85473" lon="3.08995">
        <ele>420</ele>
        <time>2014-08-24T09:58:25Z</time>
      </trkpt>
      <trkpt lat="45.85476" lon="3.08995">
        <ele>420</ele>
        <time>2014-08-24T09:58:27Z</time>
      </trkpt>
      <trkpt lat="45.85482" lon="3.08995">
        <ele>420</ele>
        <time>2014-08-24T09:58:30Z</time>
      </trkpt>
      <trkpt lat="45.85487" lon="3.08996">
        <ele>420</ele>
        <time>2014-08-24T09:58:32Z</time>
      </trkpt>
      <trkpt lat="45.85494" lon="3.08995">
        <ele>419</ele>
        <time>2014-08-24T09:58:35Z</time>
      </trkpt>
      <trkpt lat="45.855" lon="3.08994">
        <ele>419</ele>
        <time>2014-08-24T09:58:37Z</time>
      </trkpt>
      <trkpt lat="45.85506" lon="3.08997">
        <ele>419</ele>
        <time>2014-08-24T09:58:39Z</time>
      </trkpt>
      <trkpt lat="45.85511" lon="3.09002">
        <ele>419</ele>
        <time>2014-08-24T09:58:42Z</time>
      </trkpt>
      <trkpt lat="45.8552" lon="3.09009">
        <ele>419</ele>
        <time>2014-08-24T09:58:44Z</time>
      </trkpt>
      <trkpt lat="45.85529" lon="3.09011">
        <ele>419</ele>
        <time>2014-08-24T09:58:46Z</time>
      </trkpt>
      <trkpt lat="45.85543" lon="3.09007">
        <ele>418</ele>
        <time>2014-08-24T09:58:49Z</time>
      </trkpt>
      <trkpt lat="45.85559" lon="3.09002">
        <ele>417</ele>
        <time>2014-08-24T09:58:52Z</time>
      </trkpt>
      <trkpt lat="45.85568" lon="3.08999">
        <ele>417</ele>
        <time>2014-08-24T09:58:54Z</time>
      </trkpt>
      <trkpt lat="45.8558" lon="3.08996">
        <ele>416</ele>
        <time>2014-08-24T09:58:57Z</time>
      </trkpt>
      <trkpt lat="45.85592" lon="3.08994">
        <ele>417</ele>
        <time>2014-08-24T09:59:00Z</time>
      </trkpt>
      <trkpt lat="45.85603" lon="3.08993">
        <ele>417</ele>
        <time>2014-08-24T09:59:03Z</time>
      </trkpt>
      <trkpt lat="45.85614" lon="3.08994">
        <ele>417</ele>
        <time>2014-08-24T09:59:06Z</time>
      </trkpt>
      <trkpt lat="45.85625" lon="3.08995">
        <ele>418</ele>
        <time>2014-08-24T09:59:09Z</time>
      </trkpt>
      <trkpt lat="45.85633" lon="3.08997">
        <ele>418</ele>
        <time>2014-08-24T09:59:11Z</time>
      </trkpt>
      <trkpt lat="45.85645" lon="3.09">
        <ele>418</ele>
        <time>2014-08-24T09:59:14Z</time>
      </trkpt>
      <trkpt lat="45.85657" lon="3.09001">
        <ele>418</ele>
        <time>2014-08-24T09:59:17Z</time>
      </trkpt>
      <trkpt lat="45.85665" lon="3.09002">
        <ele>418</ele>
        <time>2014-08-24T09:59:19Z</time>
      </trkpt>
      <trkpt lat="45.85678" lon="3.09003">
        <ele>419</ele>
        <time>2014-08-24T09:59:22Z</time>
      </trkpt>
      <trkpt lat="45.85691" lon="3.09004">
        <ele>419</ele>
        <time>2014-08-24T09:59:25Z</time>
      </trkpt>
      <trkpt lat="45.85702" lon="3.09005">
        <ele>420</ele>
        <time>2014-08-24T09:59:28Z</time>
      </trkpt>
      <trkpt lat="45.8571" lon="3.09006">
        <ele>420</ele>
        <time>2014-08-24T09:59:30Z</time>
      </trkpt>
      <trkpt lat="45.85717" lon="3.09009">
        <ele>420</ele>
        <time>2014-08-24T09:59:32Z</time>
      </trkpt>
      <trkpt lat="45.85726" lon="3.09015">
        <ele>421</ele>
        <time>2014-08-24T09:59:35Z</time>
      </trkpt>
      <trkpt lat="45.85736" lon="3.0902">
        <ele>421</ele>
        <time>2014-08-24T09:59:38Z</time>
      </trkpt>
      <trkpt lat="45.85745" lon="3.09023">
        <ele>421</ele>
        <time>2014-08-24T09:59:40Z</time>
      </trkpt>
      <trkpt lat="45.85754" lon="3.09025">
        <ele>421</ele>
        <time>2014-08-24T09:59:42Z</time>
      </trkpt>
      <trkpt lat="45.85763" lon="3.09025">
        <ele>421</ele>
        <time>2014-08-24T09:59:45Z</time>
      </trkpt>
      <trkpt lat="45.85775" lon="3.09022">
        <ele>421</ele>
        <time>2014-08-24T09:59:47Z</time>
      </trkpt>
      <trkpt lat="45.85786" lon="3.09018">
        <ele>421</ele>
        <time>2014-08-24T09:59:50Z</time>
      </trkpt>
      <trkpt lat="45.85798" lon="3.09012">
        <ele>421</ele>
        <time>2014-08-24T09:59:53Z</time>
      </trkpt>
      <trkpt lat="45.85806" lon="3.0901">
        <ele>421</ele>
        <time>2014-08-24T09:59:55Z</time>
      </trkpt>
      <trkpt lat="45.85816" lon="3.09007">
        <ele>422</ele>
        <time>2014-08-24T09:59:58Z</time>
      </trkpt>
      <trkpt lat="45.85825" lon="3.09004">
        <ele>422</ele>
        <time>2014-08-24T10:00:01Z</time>
      </trkpt>
      <trkpt lat="45.85835" lon="3.09002">
        <ele>423</ele>
        <time>2014-08-24T10:00:04Z</time>
      </trkpt>
      <trkpt lat="45.85842" lon="3.09">
        <ele>423</ele>
        <time>2014-08-24T10:00:06Z</time>
      </trkpt>
      <trkpt lat="45.85849" lon="3.08999">
        <ele>424</ele>
        <time>2014-08-24T10:00:08Z</time>
      </trkpt>
      <trkpt lat="45.8586" lon="3.08996">
        <ele>424</ele>
        <time>2014-08-24T10:00:11Z</time>
      </trkpt>
      <trkpt lat="45.85871" lon="3.08992">
        <ele>425</ele>
        <time>2014-08-24T10:00:14Z</time>
      </trkpt>
      <trkpt lat="45.8588" lon="3.08987">
        <ele>424</ele>
        <time>2014-08-24T10:00:16Z</time>
      </trkpt>
      <trkpt lat="45.85889" lon="3.08984">
        <ele>425</ele>
        <time>2014-08-24T10:00:18Z</time>
      </trkpt>
      <trkpt lat="45.85899" lon="3.08981">
        <ele>425</ele>
        <time>2014-08-24T10:00:20Z</time>
      </trkpt>
      <trkpt lat="45.85913" lon="3.0898">
        <ele>424</ele>
        <time>2014-08-24T10:00:23Z</time>
      </trkpt>
      <trkpt lat="45.85928" lon="3.0898">
        <ele>424</ele>
        <time>2014-08-24T10:00:26Z</time>
      </trkpt>
      <trkpt lat="45.85938" lon="3.0898">
        <ele>424</ele>
        <time>2014-08-24T10:00:28Z</time>
      </trkpt>
      <trkpt lat="45.85948" lon="3.0898">
        <ele>424</ele>
        <time>2014-08-24T10:00:30Z</time>
      </trkpt>
      <trkpt lat="45.85962" lon="3.08982">
        <ele>424</ele>
        <time>2014-08-24T10:00:33Z</time>
      </trkpt>
      <trkpt lat="45.85974" lon="3.08987">
        <ele>424</ele>
        <time>2014-08-24T10:00:36Z</time>
      </trkpt>
      <trkpt lat="45.85981" lon="3.08991">
        <ele>424</ele>
        <time>2014-08-24T10:00:38Z</time>
      </trkpt>
      <trkpt lat="45.85989" lon="3.08993">
        <ele>424</ele>
        <time>2014-08-24T10:00:40Z</time>
      </trkpt>
      <trkpt lat="45.86003" lon="3.08999">
        <ele>424</ele>
        <time>2014-08-24T10:00:43Z</time>
      </trkpt>
      <trkpt lat="45.86017" lon="3.09006">
        <ele>424</ele>
        <time>2014-08-24T10:00:46Z</time>
      </trkpt>
      <trkpt lat="45.86032" lon="3.09012">
        <ele>425</ele>
        <time>2014-08-24T10:00:49Z</time>
      </trkpt>
      <trkpt lat="45.86042" lon="3.09014">
        <ele>424</ele>
        <time>2014-08-24T10:00:51Z</time>
      </trkpt>
      <trkpt lat="45.86053" lon="3.09014">
        <ele>424</ele>
        <time>2014-08-24T10:00:53Z</time>
      </trkpt>
      <trkpt lat="45.86069" lon="3.0901">
        <ele>424</ele>
        <time>2014-08-24T10:00:56Z</time>
      </trkpt>
      <trkpt lat="45.86084" lon="3.09003">
        <ele>424</ele>
        <time>2014-08-24T10:00:59Z</time>
      </trkpt>
      <trkpt lat="45.86095" lon="3.08999">
        <ele>423</ele>
        <time>2014-08-24T10:01:01Z</time>
      </trkpt>
      <trkpt lat="45.86109" lon="3.08993">
        <ele>423</ele>
        <time>2014-08-24T10:01:04Z</time>
      </trkpt>
      <trkpt lat="45.86122" lon="3.08981">
        <ele>423</ele>
        <time>2014-08-24T10:01:07Z</time>
      </trkpt>
      <trkpt lat="45.86129" lon="3.08971">
        <ele>424</ele>
        <time>2014-08-24T10:01:09Z</time>
      </trkpt>
      <trkpt lat="45.86137" lon="3.08961">
        <ele>424</ele>
        <time>2014-08-24T10:01:11Z</time>
      </trkpt>
      <trkpt lat="45.86144" lon="3.08951">
        <ele>424</ele>
        <time>2014-08-24T10:01:13Z</time>
      </trkpt>
      <trkpt lat="45.86152" lon="3.08943">
        <ele>423</ele>
        <time>2014-08-24T10:01:15Z</time>
      </trkpt>
      <trkpt lat="45.86161" lon="3.08936">
        <ele>423</ele>
        <time>2014-08-24T10:01:17Z</time>
      </trkpt>
      <trkpt lat="45.86174" lon="3.08927">
        <ele>424</ele>
        <time>2014-08-24T10:01:20Z</time>
      </trkpt>
      <trkpt lat="45.86187" lon="3.08918">
        <ele>424</ele>
        <time>2014-08-24T10:01:23Z</time>
      </trkpt>
      <trkpt lat="45.86197" lon="3.08912">
        <ele>424</ele>
        <time>2014-08-24T10:01:25Z</time>
      </trkpt>
      <trkpt lat="45.86206" lon="3.08907">
        <ele>424</ele>
        <time>2014-08-24T10:01:27Z</time>
      </trkpt>
      <trkpt lat="45.86216" lon="3.08902">
        <ele>424</ele>
        <time>2014-08-24T10:01:29Z</time>
      </trkpt>
      <trkpt lat="45.86229" lon="3.08895">
        <ele>424</ele>
        <time>2014-08-24T10:01:32Z</time>
      </trkpt>
      <trkpt lat="45.86238" lon="3.08891">
        <ele>423</ele>
        <time>2014-08-24T10:01:34Z</time>
      </trkpt>
      <trkpt lat="45.86246" lon="3.08889">
        <ele>423</ele>
        <time>2014-08-24T10:01:36Z</time>
      </trkpt>
      <trkpt lat="45.86254" lon="3.08886">
        <ele>422</ele>
        <time>2014-08-24T10:01:38Z</time>
      </trkpt>
      <trkpt lat="45.86266" lon="3.08882">
        <ele>423</ele>
        <time>2014-08-24T10:01:41Z</time>
      </trkpt>
      <trkpt lat="45.86278" lon="3.08878">
        <ele>423</ele>
        <time>2014-08-24T10:01:44Z</time>
      </trkpt>
      <trkpt lat="45.86287" lon="3.08875">
        <ele>423</ele>
        <time>2014-08-24T10:01:46Z</time>
      </trkpt>
      <trkpt lat="45.86295" lon="3.08871">
        <ele>423</ele>
        <time>2014-08-24T10:01:48Z</time>
      </trkpt>
      <trkpt lat="45.86308" lon="3.08864">
        <ele>423</ele>
        <time>2014-08-24T10:01:51Z</time>
      </trkpt>
      <trkpt lat="45.8632" lon="3.08857">
        <ele>423</ele>
        <time>2014-08-24T10:01:54Z</time>
      </trkpt>
      <trkpt lat="45.86332" lon="3.08848">
        <ele>422</ele>
        <time>2014-08-24T10:01:57Z</time>
      </trkpt>
      <trkpt lat="45.86341" lon="3.08843">
        <ele>422</ele>
        <time>2014-08-24T10:01:59Z</time>
      </trkpt>
      <trkpt lat="45.86349" lon="3.08838">
        <ele>421</ele>
        <time>2014-08-24T10:02:01Z</time>
      </trkpt>
      <trkpt lat="45.86362" lon="3.08832">
        <ele>421</ele>
        <time>2014-08-24T10:02:04Z</time>
      </trkpt>
      <trkpt lat="45.86375" lon="3.08828">
        <ele>421</ele>
        <time>2014-08-24T10:02:07Z</time>
      </trkpt>
      <trkpt lat="45.86387" lon="3.08826">
        <ele>421</ele>
        <time>2014-08-24T10:02:10Z</time>
      </trkpt>
      <trkpt lat="45.86398" lon="3.08825">
        <ele>420</ele>
        <time>2014-08-24T10:02:13Z</time>
      </trkpt>
      <trkpt lat="45.8641" lon="3.08824">
        <ele>420</ele>
        <time>2014-08-24T10:02:16Z</time>
      </trkpt>
      <trkpt lat="45.86418" lon="3.08824">
        <ele>420</ele>
        <time>2014-08-24T10:02:18Z</time>
      </trkpt>
      <trkpt lat="45.8643" lon="3.08822">
        <ele>420</ele>
        <time>2014-08-24T10:02:21Z</time>
      </trkpt>
      <trkpt lat="45.86444" lon="3.0882">
        <ele>420</ele>
        <time>2014-08-24T10:02:24Z</time>
      </trkpt>
      <trkpt lat="45.86453" lon="3.08817">
        <ele>420</ele>
        <time>2014-08-24T10:02:26Z</time>
      </trkpt>
      <trkpt lat="45.86462" lon="3.08814">
        <ele>420</ele>
        <time>2014-08-24T10:02:28Z</time>
      </trkpt>
      <trkpt lat="45.86472" lon="3.08811">
        <ele>420</ele>
        <time>2014-08-24T10:02:30Z</time>
      </trkpt>
      <trkpt lat="45.86481" lon="3.08808">
        <ele>421</ele>
        <time>2014-08-24T10:02:32Z</time>
      </trkpt>
      <trkpt lat="45.86492" lon="3.08804">
        <ele>421</ele>
        <time>2014-08-24T10:02:34Z</time>
      </trkpt>
      <trkpt lat="45.86506" lon="3.08798">
        <ele>421</ele>
        <time>2014-08-24T10:02:37Z</time>
      </trkpt>
      <trkpt lat="45.86516" lon="3.08794">
        <ele>421</ele>
        <time>2014-08-24T10:02:39Z</time>
      </trkpt>
      <trkpt lat="45.86531" lon="3.08787">
        <ele>421</ele>
        <time>2014-08-24T10:02:42Z</time>
      </trkpt>
      <trkpt lat="45.86546" lon="3.08781">
        <ele>420</ele>
        <time>2014-08-24T10:02:45Z</time>
      </trkpt>
      <trkpt lat="45.8656" lon="3.08774">
        <ele>420</ele>
        <time>2014-08-24T10:02:48Z</time>
      </trkpt>
      <trkpt lat="45.86567" lon="3.08772">
        <ele>419</ele>
        <time>2014-08-24T10:02:50Z</time>
      </trkpt>
      <trkpt lat="45.86574" lon="3.08769">
        <ele>419</ele>
        <time>2014-08-24T10:02:52Z</time>
      </trkpt>
      <trkpt lat="45.86581" lon="3.08758">
        <ele>419</ele>
        <time>2014-08-24T10:02:55Z</time>
      </trkpt>
      <trkpt lat="45.86579" lon="3.08744">
        <ele>418</ele>
        <time>2014-08-24T10:02:58Z</time>
      </trkpt>
      <trkpt lat="45.86574" lon="3.08736">
        <ele>418</ele>
        <time>2014-08-24T10:03:00Z</time>
      </trkpt>
      <trkpt lat="45.8657" lon="3.08727">
        <ele>418</ele>
        <time>2014-08-24T10:03:02Z</time>
      </trkpt>
      <trkpt lat="45.86565" lon="3.08718">
        <ele>418</ele>
        <time>2014-08-24T10:03:05Z</time>
      </trkpt>
      <trkpt lat="45.86557" lon="3.08704">
        <ele>419</ele>
        <time>2014-08-24T10:03:07Z</time>
      </trkpt>
      <trkpt lat="45.8655" lon="3.08689">
        <ele>419</ele>
        <time>2014-08-24T10:03:10Z</time>
      </trkpt>
      <trkpt lat="45.86543" lon="3.08678">
        <ele>419</ele>
        <time>2014-08-24T10:03:13Z</time>
      </trkpt>
      <trkpt lat="45.86539" lon="3.08673">
        <ele>419</ele>
        <time>2014-08-24T10:03:15Z</time>
      </trkpt>
      <trkpt lat="45.86533" lon="3.08665">
        <ele>419</ele>
        <time>2014-08-24T10:03:18Z</time>
      </trkpt>
      <trkpt lat="45.8653" lon="3.0866">
        <ele>419</ele>
        <time>2014-08-24T10:03:20Z</time>
      </trkpt>
      <trkpt lat="45.86523" lon="3.08647">
        <ele>419</ele>
        <time>2014-08-24T10:03:23Z</time>
      </trkpt>
      <trkpt lat="45.86519" lon="3.08637">
        <ele>419</ele>
        <time>2014-08-24T10:03:25Z</time>
      </trkpt>
      <trkpt lat="45.86512" lon="3.08613">
        <ele>419</ele>
        <time>2014-08-24T10:03:28Z</time>
      </trkpt>
      <trkpt lat="45.86508" lon="3.08594">
        <ele>420</ele>
        <time>2014-08-24T10:03:30Z</time>
      </trkpt>
      <trkpt lat="45.86498" lon="3.0856">
        <ele>420</ele>
        <time>2014-08-24T10:03:33Z</time>
      </trkpt>
      <trkpt lat="45.8649" lon="3.08528">
        <ele>420</ele>
        <time>2014-08-24T10:03:36Z</time>
      </trkpt>
      <trkpt lat="45.86486" lon="3.08509">
        <ele>420</ele>
        <time>2014-08-24T10:03:38Z</time>
      </trkpt>
      <trkpt lat="45.86483" lon="3.08492">
        <ele>419</ele>
        <time>2014-08-24T10:03:40Z</time>
      </trkpt>
      <trkpt lat="45.86481" lon="3.08477">
        <ele>419</ele>
        <time>2014-08-24T10:03:42Z</time>
      </trkpt>
      <trkpt lat="45.8648" lon="3.08463">
        <ele>419</ele>
        <time>2014-08-24T10:03:44Z</time>
      </trkpt>
      <trkpt lat="45.86479" lon="3.08452">
        <ele>418</ele>
        <time>2014-08-24T10:03:46Z</time>
      </trkpt>
      <trkpt lat="45.86473" lon="3.08434">
        <ele>416</ele>
        <time>2014-08-24T10:03:49Z</time>
      </trkpt>
      <trkpt lat="45.86462" lon="3.08422">
        <ele>415</ele>
        <time>2014-08-24T10:03:52Z</time>
      </trkpt>
      <trkpt lat="45.86452" lon="3.08414">
        <ele>413</ele>
        <time>2014-08-24T10:03:55Z</time>
      </trkpt>
      <trkpt lat="45.86449" lon="3.08407">
        <ele>412</ele>
        <time>2014-08-24T10:03:58Z</time>
      </trkpt>
      <trkpt lat="45.86447" lon="3.08406">
        <ele>413</ele>
        <time>2014-08-24T10:04:00Z</time>
      </trkpt>
      <trkpt lat="45.86444" lon="3.08407">
        <ele>413</ele>
        <time>2014-08-24T10:04:03Z</time>
      </trkpt>
      <trkpt lat="45.86443" lon="3.08408">
        <ele>413</ele>
        <time>2014-08-24T10:04:05Z</time>
      </trkpt>
      <trkpt lat="45.86443" lon="3.08403">
        <ele>413</ele>
        <time>2014-08-24T10:04:08Z</time>
      </trkpt>
      <trkpt lat="45.86443" lon="3.08399">
        <ele>413</ele>
        <time>2014-08-24T10:04:10Z</time>
      </trkpt>
      <trkpt lat="45.86443" lon="3.08399">
        <ele>412</ele>
        <time>2014-08-24T10:04:12Z</time>
      </trkpt>
      <trkpt lat="45.86435" lon="3.08393">
        <ele>413</ele>
        <time>2014-08-24T10:04:15Z</time>
      </trkpt>
      <trkpt lat="45.86436" lon="3.08391">
        <ele>413</ele>
        <time>2014-08-24T10:04:17Z</time>
      </trkpt>
      <trkpt lat="45.86438" lon="3.08388">
        <ele>413</ele>
        <time>2014-08-24T10:04:19Z</time>
      </trkpt>
      <trkpt lat="45.86445" lon="3.08375">
        <ele>413</ele>
        <time>2014-08-24T10:04:22Z</time>
      </trkpt>
      <trkpt lat="45.86455" lon="3.08363">
        <ele>413</ele>
        <time>2014-08-24T10:04:25Z</time>
      </trkpt>
      <trkpt lat="45.86461" lon="3.08357">
        <ele>413</ele>
        <time>2014-08-24T10:04:27Z</time>
      </trkpt>
      <trkpt lat="45.86469" lon="3.08351">
        <ele>413</ele>
        <time>2014-08-24T10:04:29Z</time>
      </trkpt>
      <trkpt lat="45.86476" lon="3.08347">
        <ele>413</ele>
        <time>2014-08-24T10:04:31Z</time>
      </trkpt>
      <trkpt lat="45.86486" lon="3.08343">
        <ele>413</ele>
        <time>2014-08-24T10:04:34Z</time>
      </trkpt>
      <trkpt lat="45.86492" lon="3.08341">
        <ele>413</ele>
        <time>2014-08-24T10:04:36Z</time>
      </trkpt>
      <trkpt lat="45.86498" lon="3.0834">
        <ele>413</ele>
        <time>2014-08-24T10:04:38Z</time>
      </trkpt>
      <trkpt lat="45.86508" lon="3.08338">
        <ele>412</ele>
        <time>2014-08-24T10:04:41Z</time>
      </trkpt>
      <trkpt lat="45.86514" lon="3.08336">
        <ele>413</ele>
        <time>2014-08-24T10:04:43Z</time>
      </trkpt>
      <trkpt lat="45.8652" lon="3.08332">
        <ele>413</ele>
        <time>2014-08-24T10:04:45Z</time>
      </trkpt>
      <trkpt lat="45.86527" lon="3.08325">
        <ele>413</ele>
        <time>2014-08-24T10:04:47Z</time>
      </trkpt>
      <trkpt lat="45.86535" lon="3.08313">
        <ele>413</ele>
        <time>2014-08-24T10:04:50Z</time>
      </trkpt>
      <trkpt lat="45.86539" lon="3.08305">
        <ele>413</ele>
        <time>2014-08-24T10:04:52Z</time>
      </trkpt>
      <trkpt lat="45.86544" lon="3.08292">
        <ele>412</ele>
        <time>2014-08-24T10:04:55Z</time>
      </trkpt>
      <trkpt lat="45.86549" lon="3.08283">
        <ele>412</ele>
        <time>2014-08-24T10:04:57Z</time>
      </trkpt>
      <trkpt lat="45.86554" lon="3.08276">
        <ele>412</ele>
        <time>2014-08-24T10:04:59Z</time>
      </trkpt>
      <trkpt lat="45.86562" lon="3.08265">
        <ele>412</ele>
        <time>2014-08-24T10:05:02Z</time>
      </trkpt>
      <trkpt lat="45.86568" lon="3.08258">
        <ele>413</ele>
        <time>2014-08-24T10:05:04Z</time>
      </trkpt>
      <trkpt lat="45.86573" lon="3.08251">
        <ele>413</ele>
        <time>2014-08-24T10:05:06Z</time>
      </trkpt>
      <trkpt lat="45.86578" lon="3.08239">
        <ele>414</ele>
        <time>2014-08-24T10:05:09Z</time>
      </trkpt>
      <trkpt lat="45.86583" lon="3.08231">
        <ele>414</ele>
        <time>2014-08-24T10:05:11Z</time>
      </trkpt>
      <trkpt lat="45.8659" lon="3.08217">
        <ele>414</ele>
        <time>2014-08-24T10:05:14Z</time>
      </trkpt>
      <trkpt lat="45.86592" lon="3.082">
        <ele>414</ele>
        <time>2014-08-24T10:05:17Z</time>
      </trkpt>
      <trkpt lat="45.86592" lon="3.08187">
        <ele>414</ele>
        <time>2014-08-24T10:05:19Z</time>
      </trkpt>
      <trkpt lat="45.86592" lon="3.08172">
        <ele>414</ele>
        <time>2014-08-24T10:05:21Z</time>
      </trkpt>
      <trkpt lat="45.86589" lon="3.08155">
        <ele>414</ele>
        <time>2014-08-24T10:05:23Z</time>
      </trkpt>
      <trkpt lat="45.86585" lon="3.08124">
        <ele>415</ele>
        <time>2014-08-24T10:05:26Z</time>
      </trkpt>
      <trkpt lat="45.8658" lon="3.08092">
        <ele>415</ele>
        <time>2014-08-24T10:05:29Z</time>
      </trkpt>
      <trkpt lat="45.86574" lon="3.0806">
        <ele>415</ele>
        <time>2014-08-24T10:05:32Z</time>
      </trkpt>
      <trkpt lat="45.8657" lon="3.08041">
        <ele>415</ele>
        <time>2014-08-24T10:05:34Z</time>
      </trkpt>
      <trkpt lat="45.86566" lon="3.08023">
        <ele>416</ele>
        <time>2014-08-24T10:05:36Z</time>
      </trkpt>
      <trkpt lat="45.86566" lon="3.08">
        <ele>418</ele>
        <time>2014-08-24T10:05:39Z</time>
      </trkpt>
      <trkpt lat="45.86572" lon="3.07987">
        <ele>419</ele>
        <time>2014-08-24T10:05:42Z</time>
      </trkpt>
      <trkpt lat="45.8658" lon="3.07981">
        <ele>420</ele>
        <time>2014-08-24T10:05:45Z</time>
      </trkpt>
      <trkpt lat="45.86584" lon="3.07971">
        <ele>422</ele>
        <time>2014-08-24T10:05:48Z</time>
      </trkpt>
      <trkpt lat="45.86587" lon="3.07963">
        <ele>423</ele>
        <time>2014-08-24T10:05:50Z</time>
      </trkpt>
      <trkpt lat="45.86589" lon="3.0795">
        <ele>424</ele>
        <time>2014-08-24T10:05:53Z</time>
      </trkpt>
      <trkpt lat="45.86589" lon="3.07939">
        <ele>424</ele>
        <time>2014-08-24T10:05:56Z</time>
      </trkpt>
      <trkpt lat="45.86588" lon="3.07932">
        <ele>424</ele>
        <time>2014-08-24T10:05:58Z</time>
      </trkpt>
      <trkpt lat="45.86588" lon="3.07925">
        <ele>424</ele>
        <time>2014-08-24T10:06:00Z</time>
      </trkpt>
      <trkpt lat="45.86586" lon="3.07919">
        <ele>424</ele>
        <time>2014-08-24T10:06:02Z</time>
      </trkpt>
      <trkpt lat="45.86582" lon="3.07909">
        <ele>424</ele>
        <time>2014-08-24T10:06:05Z</time>
      </trkpt>
      <trkpt lat="45.86579" lon="3.07903">
        <ele>425</ele>
        <time>2014-08-24T10:06:07Z</time>
      </trkpt>
      <trkpt lat="45.86575" lon="3.07891">
        <ele>425</ele>
        <time>2014-08-24T10:06:10Z</time>
      </trkpt>
      <trkpt lat="45.86569" lon="3.07887">
        <ele>425</ele>
        <time>2014-08-24T10:06:12Z</time>
      </trkpt>
      <trkpt lat="45.86559" lon="3.07884">
        <ele>426</ele>
        <time>2014-08-24T10:06:15Z</time>
      </trkpt>
      <trkpt lat="45.86554" lon="3.07883">
        <ele>425</ele>
        <time>2014-08-24T10:06:17Z</time>
      </trkpt>
      <trkpt lat="45.8655" lon="3.07891">
        <ele>425</ele>
        <time>2014-08-24T10:06:20Z</time>
      </trkpt>
      <trkpt lat="45.86548" lon="3.07898">
        <ele>425</ele>
        <time>2014-08-24T10:06:22Z</time>
      </trkpt>
      <trkpt lat="45.86544" lon="3.07911">
        <ele>426</ele>
        <time>2014-08-24T10:06:25Z</time>
      </trkpt>
      <trkpt lat="45.86541" lon="3.07917">
        <ele>426</ele>
        <time>2014-08-24T10:06:27Z</time>
      </trkpt>
      <trkpt lat="45.86536" lon="3.07922">
        <ele>426</ele>
        <time>2014-08-24T10:06:29Z</time>
      </trkpt>
      <trkpt lat="45.86531" lon="3.07929">
        <ele>426</ele>
        <time>2014-08-24T10:06:31Z</time>
      </trkpt>
      <trkpt lat="45.86531" lon="3.07944">
        <ele>426</ele>
        <time>2014-08-24T10:06:34Z</time>
      </trkpt>
      <trkpt lat="45.86524" lon="3.07948">
        <ele>426</ele>
        <time>2014-08-24T10:06:37Z</time>
      </trkpt>
      <trkpt lat="45.8652" lon="3.07948">
        <ele>425</ele>
        <time>2014-08-24T10:06:39Z</time>
      </trkpt>
      <trkpt lat="45.86515" lon="3.07949">
        <ele>425</ele>
        <time>2014-08-24T10:06:41Z</time>
      </trkpt>
      <trkpt lat="45.86511" lon="3.07951">
        <ele>425</ele>
        <time>2014-08-24T10:06:43Z</time>
      </trkpt>
      <trkpt lat="45.86507" lon="3.07951">
        <ele>425</ele>
        <time>2014-08-24T10:06:45Z</time>
      </trkpt>
      <trkpt lat="45.86501" lon="3.0795">
        <ele>425</ele>
        <time>2014-08-24T10:06:48Z</time>
      </trkpt>
      <trkpt lat="45.86497" lon="3.07946">
        <ele>426</ele>
        <time>2014-08-24T10:06:51Z</time>
      </trkpt>
      <trkpt lat="45.86493" lon="3.07945">
        <ele>426</ele>
        <time>2014-08-24T10:06:53Z</time>
      </trkpt>
      <trkpt lat="45.86487" lon="3.07951">
        <ele>426</ele>
        <time>2014-08-24T10:06:55Z</time>
      </trkpt>
      <trkpt lat="45.86481" lon="3.07956">
        <ele>426</ele>
        <time>2014-08-24T10:06:57Z</time>
      </trkpt>
      <trkpt lat="45.86473" lon="3.07959">
        <ele>426</ele>
        <time>2014-08-24T10:07:00Z</time>
      </trkpt>
      <trkpt lat="45.86466" lon="3.0796">
        <ele>426</ele>
        <time>2014-08-24T10:07:03Z</time>
      </trkpt>
      <trkpt lat="45.86464" lon="3.07965">
        <ele>426</ele>
        <time>2014-08-24T10:07:05Z</time>
      </trkpt>
      <trkpt lat="45.86464" lon="3.07971">
        <ele>426</ele>
        <time>2014-08-24T10:07:07Z</time>
      </trkpt>
      <trkpt lat="45.86461" lon="3.07977">
        <ele>426</ele>
        <time>2014-08-24T10:07:09Z</time>
      </trkpt>
      <trkpt lat="45.86455" lon="3.07982">
        <ele>426</ele>
        <time>2014-08-24T10:07:12Z</time>
      </trkpt>
      <trkpt lat="45.86451" lon="3.07985">
        <ele>426</ele>
        <time>2014-08-24T10:07:14Z</time>
      </trkpt>
      <trkpt lat="45.86447" lon="3.07987">
        <ele>426</ele>
        <time>2014-08-24T10:07:16Z</time>
      </trkpt>
      <trkpt lat="45.86444" lon="3.07989">
        <ele>426</ele>
        <time>2014-08-24T10:07:18Z</time>
      </trkpt>
      <trkpt lat="45.86439" lon="3.0799">
        <ele>426</ele>
        <time>2014-08-24T10:07:20Z</time>
      </trkpt>
      <trkpt lat="45.86437" lon="3.07991">
        <ele>426</ele>
        <time>2014-08-24T10:07:22Z</time>
      </trkpt>
      <trkpt lat="45.86433" lon="3.07992">
        <ele>426</ele>
        <time>2014-08-24T10:07:24Z</time>
      </trkpt>
      <trkpt lat="45.86427" lon="3.07994">
        <ele>427</ele>
        <time>2014-08-24T10:07:26Z</time>
      </trkpt>
      <trkpt lat="45.8642" lon="3.07996">
        <ele>427</ele>
        <time>2014-08-24T10:07:28Z</time>
      </trkpt>
      <trkpt lat="45.86409" lon="3.07999">
        <ele>428</ele>
        <time>2014-08-24T10:07:31Z</time>
      </trkpt>
      <trkpt lat="45.86397" lon="3.08004">
        <ele>428</ele>
        <time>2014-08-24T10:07:34Z</time>
      </trkpt>
      <trkpt lat="45.8639" lon="3.08007">
        <ele>428</ele>
        <time>2014-08-24T10:07:36Z</time>
      </trkpt>
      <trkpt lat="45.86378" lon="3.08012">
        <ele>427</ele>
        <time>2014-08-24T10:07:39Z</time>
      </trkpt>
      <trkpt lat="45.86366" lon="3.08017">
        <ele>427</ele>
        <time>2014-08-24T10:07:42Z</time>
      </trkpt>
      <trkpt lat="45.86353" lon="3.08022">
        <ele>428</ele>
        <time>2014-08-24T10:07:45Z</time>
      </trkpt>
      <trkpt lat="45.86345" lon="3.08026">
        <ele>429</ele>
        <time>2014-08-24T10:07:47Z</time>
      </trkpt>
      <trkpt lat="45.86338" lon="3.08032">
        <ele>429</ele>
        <time>2014-08-24T10:07:49Z</time>
      </trkpt>
      <trkpt lat="45.86329" lon="3.08044">
        <ele>429</ele>
        <time>2014-08-24T10:07:52Z</time>
      </trkpt>
      <trkpt lat="45.86321" lon="3.08052">
        <ele>429</ele>
        <time>2014-08-24T10:07:54Z</time>
      </trkpt>
      <trkpt lat="45.86308" lon="3.08059">
        <ele>429</ele>
        <time>2014-08-24T10:07:57Z</time>
      </trkpt>
      <trkpt lat="45.86295" lon="3.08064">
        <ele>429</ele>
        <time>2014-08-24T10:08:00Z</time>
      </trkpt>
      <trkpt lat="45.86288" lon="3.08066">
        <ele>430</ele>
        <time>2014-08-24T10:08:02Z</time>
      </trkpt>
      <trkpt lat="45.86278" lon="3.0807">
        <ele>429</ele>
        <time>2014-08-24T10:08:05Z</time>
      </trkpt>
      <trkpt lat="45.86271" lon="3.08073">
        <ele>429</ele>
        <time>2014-08-24T10:08:07Z</time>
      </trkpt>
      <trkpt lat="45.86264" lon="3.08075">
        <ele>430</ele>
        <time>2014-08-24T10:08:09Z</time>
      </trkpt>
      <trkpt lat="45.86256" lon="3.08078">
        <ele>430</ele>
        <time>2014-08-24T10:08:11Z</time>
      </trkpt>
      <trkpt lat="45.86249" lon="3.0808">
        <ele>430</ele>
        <time>2014-08-24T10:08:13Z</time>
      </trkpt>
      <trkpt lat="45.86238" lon="3.08084">
        <ele>430</ele>
        <time>2014-08-24T10:08:16Z</time>
      </trkpt>
      <trkpt lat="45.86232" lon="3.08085">
        <ele>430</ele>
        <time>2014-08-24T10:08:18Z</time>
      </trkpt>
      <trkpt lat="45.86224" lon="3.08087">
        <ele>430</ele>
        <time>2014-08-24T10:08:20Z</time>
      </trkpt>
      <trkpt lat="45.86213" lon="3.0809">
        <ele>431</ele>
        <time>2014-08-24T10:08:23Z</time>
      </trkpt>
      <trkpt lat="45.86199" lon="3.08094">
        <ele>432</ele>
        <time>2014-08-24T10:08:26Z</time>
      </trkpt>
      <trkpt lat="45.86186" lon="3.08095">
        <ele>432</ele>
        <time>2014-08-24T10:08:29Z</time>
      </trkpt>
      <trkpt lat="45.86176" lon="3.08096">
        <ele>433</ele>
        <time>2014-08-24T10:08:31Z</time>
      </trkpt>
      <trkpt lat="45.86167" lon="3.08098">
        <ele>433</ele>
        <time>2014-08-24T10:08:33Z</time>
      </trkpt>
      <trkpt lat="45.86152" lon="3.081">
        <ele>433</ele>
        <time>2014-08-24T10:08:36Z</time>
      </trkpt>
      <trkpt lat="45.86142" lon="3.08101">
        <ele>433</ele>
        <time>2014-08-24T10:08:38Z</time>
      </trkpt>
      <trkpt lat="45.86127" lon="3.08102">
        <ele>433</ele>
        <time>2014-08-24T10:08:41Z</time>
      </trkpt>
      <trkpt lat="45.86117" lon="3.08103">
        <ele>433</ele>
        <time>2014-08-24T10:08:43Z</time>
      </trkpt>
      <trkpt lat="45.86108" lon="3.08105">
        <ele>433</ele>
        <time>2014-08-24T10:08:45Z</time>
      </trkpt>
      <trkpt lat="45.86098" lon="3.08108">
        <ele>433</ele>
        <time>2014-08-24T10:08:47Z</time>
      </trkpt>
      <trkpt lat="45.86083" lon="3.08112">
        <ele>433</ele>
        <time>2014-08-24T10:08:50Z</time>
      </trkpt>
      <trkpt lat="45.8607" lon="3.08118">
        <ele>434</ele>
        <time>2014-08-24T10:08:53Z</time>
      </trkpt>
      <trkpt lat="45.86058" lon="3.08123">
        <ele>433</ele>
        <time>2014-08-24T10:08:56Z</time>
      </trkpt>
      <trkpt lat="45.8605" lon="3.08125">
        <ele>433</ele>
        <time>2014-08-24T10:08:58Z</time>
      </trkpt>
      <trkpt lat="45.86042" lon="3.08128">
        <ele>433</ele>
        <time>2014-08-24T10:09:00Z</time>
      </trkpt>
      <trkpt lat="45.86033" lon="3.08131">
        <ele>433</ele>
        <time>2014-08-24T10:09:02Z</time>
      </trkpt>
      <trkpt lat="45.86026" lon="3.08136">
        <ele>434</ele>
        <time>2014-08-24T10:09:04Z</time>
      </trkpt>
      <trkpt lat="45.86011" lon="3.08142">
        <ele>434</ele>
        <time>2014-08-24T10:09:07Z</time>
      </trkpt>
      <trkpt lat="45.85998" lon="3.08144">
        <ele>434</ele>
        <time>2014-08-24T10:09:09Z</time>
      </trkpt>
      <trkpt lat="45.85986" lon="3.08147">
        <ele>434</ele>
        <time>2014-08-24T10:09:11Z</time>
      </trkpt>
      <trkpt lat="45.85973" lon="3.0815">
        <ele>434</ele>
        <time>2014-08-24T10:09:13Z</time>
      </trkpt>
      <trkpt lat="45.85955" lon="3.08154">
        <ele>435</ele>
        <time>2014-08-24T10:09:16Z</time>
      </trkpt>
      <trkpt lat="45.85944" lon="3.08158">
        <ele>435</ele>
        <time>2014-08-24T10:09:18Z</time>
      </trkpt>
      <trkpt lat="45.85934" lon="3.0816">
        <ele>436</ele>
        <time>2014-08-24T10:09:20Z</time>
      </trkpt>
      <trkpt lat="45.85918" lon="3.0816">
        <ele>436</ele>
        <time>2014-08-24T10:09:23Z</time>
      </trkpt>
      <trkpt lat="45.85909" lon="3.08159">
        <ele>436</ele>
        <time>2014-08-24T10:09:25Z</time>
      </trkpt>
      <trkpt lat="45.85899" lon="3.08157">
        <ele>436</ele>
        <time>2014-08-24T10:09:27Z</time>
      </trkpt>
      <trkpt lat="45.85889" lon="3.08155">
        <ele>436</ele>
        <time>2014-08-24T10:09:29Z</time>
      </trkpt>
      <trkpt lat="45.85873" lon="3.08152">
        <ele>436</ele>
        <time>2014-08-24T10:09:32Z</time>
      </trkpt>
      <trkpt lat="45.85857" lon="3.08152">
        <ele>436</ele>
        <time>2014-08-24T10:09:35Z</time>
      </trkpt>
      <trkpt lat="45.85843" lon="3.08155">
        <ele>436</ele>
        <time>2014-08-24T10:09:38Z</time>
      </trkpt>
      <trkpt lat="45.85831" lon="3.08156">
        <ele>436</ele>
        <time>2014-08-24T10:09:41Z</time>
      </trkpt>
      <trkpt lat="45.85823" lon="3.08155">
        <ele>436</ele>
        <time>2014-08-24T10:09:43Z</time>
      </trkpt>
      <trkpt lat="45.85808" lon="3.08153">
        <ele>436</ele>
        <time>2014-08-24T10:09:46Z</time>
      </trkpt>
      <trkpt lat="45.85793" lon="3.08149">
        <ele>436</ele>
        <time>2014-08-24T10:09:49Z</time>
      </trkpt>
      <trkpt lat="45.85783" lon="3.08148">
        <ele>436</ele>
        <time>2014-08-24T10:09:51Z</time>
      </trkpt>
      <trkpt lat="45.85769" lon="3.08145">
        <ele>436</ele>
        <time>2014-08-24T10:09:54Z</time>
      </trkpt>
      <trkpt lat="45.85753" lon="3.08144">
        <ele>436</ele>
        <time>2014-08-24T10:09:57Z</time>
      </trkpt>
      <trkpt lat="45.85742" lon="3.08142">
        <ele>436</ele>
        <time>2014-08-24T10:09:59Z</time>
      </trkpt>
      <trkpt lat="45.85731" lon="3.08139">
        <ele>436</ele>
        <time>2014-08-24T10:10:01Z</time>
      </trkpt>
      <trkpt lat="45.85717" lon="3.08132">
        <ele>436</ele>
        <time>2014-08-24T10:10:04Z</time>
      </trkpt>
      <trkpt lat="45.85707" lon="3.08127">
        <ele>435</ele>
        <time>2014-08-24T10:10:06Z</time>
      </trkpt>
      <trkpt lat="45.85698" lon="3.08124">
        <ele>435</ele>
        <time>2014-08-24T10:10:08Z</time>
      </trkpt>
      <trkpt lat="45.85684" lon="3.0812">
        <ele>435</ele>
        <time>2014-08-24T10:10:11Z</time>
      </trkpt>
      <trkpt lat="45.85676" lon="3.08117">
        <ele>434</ele>
        <time>2014-08-24T10:10:13Z</time>
      </trkpt>
      <trkpt lat="45.85671" lon="3.08113">
        <ele>433</ele>
        <time>2014-08-24T10:10:16Z</time>
      </trkpt>
      <trkpt lat="45.85672" lon="3.08108">
        <ele>433</ele>
        <time>2014-08-24T10:10:18Z</time>
      </trkpt>
      <trkpt lat="45.85677" lon="3.08103">
        <ele>433</ele>
        <time>2014-08-24T10:10:21Z</time>
      </trkpt>
      <trkpt lat="45.85684" lon="3.08099">
        <ele>434</ele>
        <time>2014-08-24T10:10:24Z</time>
      </trkpt>
      <trkpt lat="45.85691" lon="3.08092">
        <ele>435</ele>
        <time>2014-08-24T10:10:27Z</time>
      </trkpt>
      <trkpt lat="45.85693" lon="3.08087">
        <ele>436</ele>
        <time>2014-08-24T10:10:29Z</time>
      </trkpt>
      <trkpt lat="45.85696" lon="3.08082">
        <ele>436</ele>
        <time>2014-08-24T10:10:32Z</time>
      </trkpt>
      <trkpt lat="45.85697" lon="3.08077">
        <ele>436</ele>
        <time>2014-08-24T10:10:34Z</time>
      </trkpt>
      <trkpt lat="45.85698" lon="3.08071">
        <ele>437</ele>
        <time>2014-08-24T10:10:36Z</time>
      </trkpt>
      <trkpt lat="45.85699" lon="3.08064">
        <ele>437</ele>
        <time>2014-08-24T10:10:38Z</time>
      </trkpt>
      <trkpt lat="45.85702" lon="3.08056">
        <ele>438</ele>
        <time>2014-08-24T10:10:41Z</time>
      </trkpt>
      <trkpt lat="45.85704" lon="3.0805">
        <ele>439</ele>
        <time>2014-08-24T10:10:44Z</time>
      </trkpt>
      <trkpt lat="45.85706" lon="3.08045">
        <ele>439</ele>
        <time>2014-08-24T10:10:46Z</time>
      </trkpt>
      <trkpt lat="45.85709" lon="3.08037">
        <ele>440</ele>
        <time>2014-08-24T10:10:49Z</time>
      </trkpt>
      <trkpt lat="45.85711" lon="3.08032">
        <ele>440</ele>
        <time>2014-08-24T10:10:51Z</time>
      </trkpt>
      <trkpt lat="45.85714" lon="3.08029">
        <ele>440</ele>
        <time>2014-08-24T10:10:53Z</time>
      </trkpt>
      <trkpt lat="45.85717" lon="3.08024">
        <ele>440</ele>
        <time>2014-08-24T10:10:56Z</time>
      </trkpt>
      <trkpt lat="45.85719" lon="3.08022">
        <ele>440</ele>
        <time>2014-08-24T10:10:58Z</time>
      </trkpt>
      <trkpt lat="45.85721" lon="3.08023">
        <ele>441</ele>
        <time>2014-08-24T10:11:00Z</time>
      </trkpt>
      <trkpt lat="45.85725" lon="3.08024">
        <ele>441</ele>
        <time>2014-08-24T10:11:03Z</time>
      </trkpt>
      <trkpt lat="45.8573" lon="3.08025">
        <ele>441</ele>
        <time>2014-08-24T10:11:06Z</time>
      </trkpt>
      <trkpt lat="45.85734" lon="3.08025">
        <ele>441</ele>
        <time>2014-08-24T10:11:09Z</time>
      </trkpt>
      <trkpt lat="45.85736" lon="3.08023">
        <ele>441</ele>
        <time>2014-08-24T10:11:11Z</time>
      </trkpt>
      <trkpt lat="45.85735" lon="3.08022">
        <ele>441</ele>
        <time>2014-08-24T10:11:13Z</time>
      </trkpt>
      <trkpt lat="45.85735" lon="3.08022">
        <ele>440</ele>
        <time>2014-08-24T10:11:17Z</time>
      </trkpt>
      <trkpt lat="45.85736" lon="3.08022">
        <ele>440</ele>
        <time>2014-08-24T10:11:19Z</time>
      </trkpt>
      <trkpt lat="45.85736" lon="3.08022">
        <ele>440</ele>
        <time>2014-08-24T10:11:23Z</time>
      </trkpt>
      <trkpt lat="45.85736" lon="3.08021">
        <ele>440</ele>
        <time>2014-08-24T10:11:26Z</time>
      </trkpt>
      <trkpt lat="45.85736" lon="3.08021">
        <ele>440</ele>
        <time>2014-08-24T10:11:29Z</time>
      </trkpt>
      <trkpt lat="45.85736" lon="3.08022">
        <ele>440</ele>
        <time>2014-08-24T10:11:32Z</time>
      </trkpt>
      <trkpt lat="45.85741" lon="3.08022">
        <ele>440</ele>
        <time>2014-08-24T10:11:35Z</time>
      </trkpt>
      <trkpt lat="45.85745" lon="3.0802">
        <ele>440</ele>
        <time>2014-08-24T10:11:37Z</time>
      </trkpt>
      <trkpt lat="45.8575" lon="3.08016">
        <ele>440</ele>
        <time>2014-08-24T10:11:39Z</time>
      </trkpt>
      <trkpt lat="45.85756" lon="3.08011">
        <ele>441</ele>
        <time>2014-08-24T10:11:41Z</time>
      </trkpt>
      <trkpt lat="45.85766" lon="3.07999">
        <ele>441</ele>
        <time>2014-08-24T10:11:44Z</time>
      </trkpt>
      <trkpt lat="45.85774" lon="3.07993">
        <ele>441</ele>
        <time>2014-08-24T10:11:46Z</time>
      </trkpt>
      <trkpt lat="45.85783" lon="3.0799">
        <ele>442</ele>
        <time>2014-08-24T10:11:48Z</time>
      </trkpt>
      <trkpt lat="45.85796" lon="3.0798">
        <ele>442</ele>
        <time>2014-08-24T10:11:51Z</time>
      </trkpt>
      <trkpt lat="45.85805" lon="3.07971">
        <ele>442</ele>
        <time>2014-08-24T10:11:53Z</time>
      </trkpt>
      <trkpt lat="45.85817" lon="3.07955">
        <ele>442</ele>
        <time>2014-08-24T10:11:56Z</time>
      </trkpt>
      <trkpt lat="45.85824" lon="3.07937">
        <ele>443</ele>
        <time>2014-08-24T10:11:59Z</time>
      </trkpt>
      <trkpt lat="45.85829" lon="3.07925">
        <ele>443</ele>
        <time>2014-08-24T10:12:01Z</time>
      </trkpt>
      <trkpt lat="45.85838" lon="3.0791">
        <ele>444</ele>
        <time>2014-08-24T10:12:04Z</time>
      </trkpt>
      <trkpt lat="45.8585" lon="3.07898">
        <ele>443</ele>
        <time>2014-08-24T10:12:07Z</time>
      </trkpt>
      <trkpt lat="45.85858" lon="3.07889">
        <ele>443</ele>
        <time>2014-08-24T10:12:09Z</time>
      </trkpt>
      <trkpt lat="45.85865" lon="3.0788">
        <ele>443</ele>
        <time>2014-08-24T10:12:11Z</time>
      </trkpt>
      <trkpt lat="45.85873" lon="3.07871">
        <ele>443</ele>
        <time>2014-08-24T10:12:13Z</time>
      </trkpt>
      <trkpt lat="45.85885" lon="3.07859">
        <ele>442</ele>
        <time>2014-08-24T10:12:16Z</time>
      </trkpt>
      <trkpt lat="45.85896" lon="3.0785">
        <ele>442</ele>
        <time>2014-08-24T10:12:19Z</time>
      </trkpt>
      <trkpt lat="45.85903" lon="3.07843">
        <ele>441</ele>
        <time>2014-08-24T10:12:21Z</time>
      </trkpt>
      <trkpt lat="45.85911" lon="3.07841">
        <ele>441</ele>
        <time>2014-08-24T10:12:23Z</time>
      </trkpt>
      <trkpt lat="45.85919" lon="3.07841">
        <ele>440</ele>
        <time>2014-08-24T10:12:26Z</time>
      </trkpt>
      <trkpt lat="45.85922" lon="3.0784">
        <ele>440</ele>
        <time>2014-08-24T10:12:28Z</time>
      </trkpt>
      <trkpt lat="45.85927" lon="3.07842">
        <ele>439</ele>
        <time>2014-08-24T10:12:31Z</time>
      </trkpt>
      <trkpt lat="45.85929" lon="3.07845">
        <ele>439</ele>
        <time>2014-08-24T10:12:34Z</time>
      </trkpt>
      <trkpt lat="45.85931" lon="3.07843">
        <ele>439</ele>
        <time>2014-08-24T10:12:36Z</time>
      </trkpt>
      <trkpt lat="45.85928" lon="3.07841">
        <ele>439</ele>
        <time>2014-08-24T10:12:39Z</time>
      </trkpt>
      <trkpt lat="45.85924" lon="3.0784">
        <ele>439</ele>
        <time>2014-08-24T10:12:41Z</time>
      </trkpt>
      <trkpt lat="45.85917" lon="3.07841">
        <ele>439</ele>
        <time>2014-08-24T10:12:43Z</time>
      </trkpt>
      <trkpt lat="45.85905" lon="3.07845">
        <ele>439</ele>
        <time>2014-08-24T10:12:46Z</time>
      </trkpt>
      <trkpt lat="45.85891" lon="3.07855">
        <ele>440</ele>
        <time>2014-08-24T10:12:49Z</time>
      </trkpt>
      <trkpt lat="45.8588" lon="3.07868">
        <ele>441</ele>
        <time>2014-08-24T10:12:52Z</time>
      </trkpt>
      <trkpt lat="45.85869" lon="3.0788">
        <ele>443</ele>
        <time>2014-08-24T10:12:55Z</time>
      </trkpt>
      <trkpt lat="45.85862" lon="3.07889">
        <ele>443</ele>
        <time>2014-08-24T10:12:57Z</time>
      </trkpt>
      <trkpt lat="45.85855" lon="3.07895">
        <ele>443</ele>
        <time>2014-08-24T10:12:59Z</time>
      </trkpt>
      <trkpt lat="45.85851" lon="3.07898">
        <ele>443</ele>
        <time>2014-08-24T10:13:01Z</time>
      </trkpt>
      <trkpt lat="45.85844" lon="3.07904">
        <ele>443</ele>
        <time>2014-08-24T10:13:04Z</time>
      </trkpt>
      <trkpt lat="45.85837" lon="3.07915">
        <ele>443</ele>
        <time>2014-08-24T10:13:07Z</time>
      </trkpt>
      <trkpt lat="45.85829" lon="3.0793">
        <ele>443</ele>
        <time>2014-08-24T10:13:10Z</time>
      </trkpt>
      <trkpt lat="45.85825" lon="3.07942">
        <ele>443</ele>
        <time>2014-08-24T10:13:12Z</time>
      </trkpt>
      <trkpt lat="45.85815" lon="3.07958">
        <ele>443</ele>
        <time>2014-08-24T10:13:15Z</time>
      </trkpt>
      <trkpt lat="45.85809" lon="3.07968">
        <ele>443</ele>
        <time>2014-08-24T10:13:17Z</time>
      </trkpt>
      <trkpt lat="45.85802" lon="3.07977">
        <ele>443</ele>
        <time>2014-08-24T10:13:19Z</time>
      </trkpt>
      <trkpt lat="45.85794" lon="3.07983">
        <ele>443</ele>
        <time>2014-08-24T10:13:21Z</time>
      </trkpt>
      <trkpt lat="45.85786" lon="3.07988">
        <ele>442</ele>
        <time>2014-08-24T10:13:23Z</time>
      </trkpt>
      <trkpt lat="45.85771" lon="3.07995">
        <ele>442</ele>
        <time>2014-08-24T10:13:26Z</time>
      </trkpt>
      <trkpt lat="45.85762" lon="3.08004">
        <ele>442</ele>
        <time>2014-08-24T10:13:28Z</time>
      </trkpt>
      <trkpt lat="45.85751" lon="3.0802">
        <ele>442</ele>
        <time>2014-08-24T10:13:31Z</time>
      </trkpt>
      <trkpt lat="45.85737" lon="3.08026">
        <ele>442</ele>
        <time>2014-08-24T10:13:34Z</time>
      </trkpt>
      <trkpt lat="45.85724" lon="3.08025">
        <ele>442</ele>
        <time>2014-08-24T10:13:37Z</time>
      </trkpt>
      <trkpt lat="45.85719" lon="3.08026">
        <ele>441</ele>
        <time>2014-08-24T10:13:39Z</time>
      </trkpt>
      <trkpt lat="45.85717" lon="3.08028">
        <ele>441</ele>
        <time>2014-08-24T10:13:41Z</time>
      </trkpt>
      <trkpt lat="45.85718" lon="3.0803">
        <ele>440</ele>
        <time>2014-08-24T10:13:43Z</time>
      </trkpt>
      <trkpt lat="45.85721" lon="3.08026">
        <ele>440</ele>
        <time>2014-08-24T10:13:46Z</time>
      </trkpt>
      <trkpt lat="45.85722" lon="3.08021">
        <ele>440</ele>
        <time>2014-08-24T10:13:48Z</time>
      </trkpt>
      <trkpt lat="45.85722" lon="3.08013">
        <ele>440</ele>
        <time>2014-08-24T10:13:50Z</time>
      </trkpt>
      <trkpt lat="45.85723" lon="3.07998">
        <ele>441</ele>
        <time>2014-08-24T10:13:53Z</time>
      </trkpt>
      <trkpt lat="45.85725" lon="3.07989">
        <ele>441</ele>
        <time>2014-08-24T10:13:55Z</time>
      </trkpt>
      <trkpt lat="45.85726" lon="3.0798">
        <ele>442</ele>
        <time>2014-08-24T10:13:57Z</time>
      </trkpt>
      <trkpt lat="45.85725" lon="3.07972">
        <ele>442</ele>
        <time>2014-08-24T10:13:59Z</time>
      </trkpt>
      <trkpt lat="45.85725" lon="3.07966">
        <ele>443</ele>
        <time>2014-08-24T10:14:01Z</time>
      </trkpt>
      <trkpt lat="45.85726" lon="3.07956">
        <ele>442</ele>
        <time>2014-08-24T10:14:04Z</time>
      </trkpt>
      <trkpt lat="45.85727" lon="3.07948">
        <ele>442</ele>
        <time>2014-08-24T10:14:06Z</time>
      </trkpt>
      <trkpt lat="45.85724" lon="3.07935">
        <ele>442</ele>
        <time>2014-08-24T10:14:09Z</time>
      </trkpt>
      <trkpt lat="45.85719" lon="3.07928">
        <ele>442</ele>
        <time>2014-08-24T10:14:12Z</time>
      </trkpt>
      <trkpt lat="45.85714" lon="3.07922">
        <ele>442</ele>
        <time>2014-08-24T10:14:15Z</time>
      </trkpt>
      <trkpt lat="45.85711" lon="3.07916">
        <ele>442</ele>
        <time>2014-08-24T10:14:18Z</time>
      </trkpt>
      <trkpt lat="45.85708" lon="3.07911">
        <ele>442</ele>
        <time>2014-08-24T10:14:21Z</time>
      </trkpt>
      <trkpt lat="45.85705" lon="3.07907">
        <ele>442</ele>
        <time>2014-08-24T10:14:24Z</time>
      </trkpt>
      <trkpt lat="45.85703" lon="3.07905">
        <ele>442</ele>
        <time>2014-08-24T10:14:26Z</time>
      </trkpt>
      <trkpt lat="45.85703" lon="3.07905">
        <ele>442</ele>
        <time>2014-08-24T10:14:29Z</time>
      </trkpt>
      <trkpt lat="45.85698" lon="3.07904">
        <ele>442</ele>
        <time>2014-08-24T10:14:32Z</time>
      </trkpt>
      <trkpt lat="45.85697" lon="3.07902">
        <ele>442</ele>
        <time>2014-08-24T10:14:35Z</time>
      </trkpt>
      <trkpt lat="45.85693" lon="3.07899">
        <ele>442</ele>
        <time>2014-08-24T10:14:37Z</time>
      </trkpt>
      <trkpt lat="45.85687" lon="3.07901">
        <ele>442</ele>
        <time>2014-08-24T10:14:39Z</time>
      </trkpt>
      <trkpt lat="45.85682" lon="3.079">
        <ele>442</ele>
        <time>2014-08-24T10:14:41Z</time>
      </trkpt>
      <trkpt lat="45.85677" lon="3.07896">
        <ele>442</ele>
        <time>2014-08-24T10:14:43Z</time>
      </trkpt>
      <trkpt lat="45.85674" lon="3.07889">
        <ele>442</ele>
        <time>2014-08-24T10:14:45Z</time>
      </trkpt>
      <trkpt lat="45.85677" lon="3.07876">
        <ele>442</ele>
        <time>2014-08-24T10:14:48Z</time>
      </trkpt>
      <trkpt lat="45.85679" lon="3.07864">
        <ele>443</ele>
        <time>2014-08-24T10:14:50Z</time>
      </trkpt>
      <trkpt lat="45.8568" lon="3.07853">
        <ele>443</ele>
        <time>2014-08-24T10:14:52Z</time>
      </trkpt>
      <trkpt lat="45.85679" lon="3.07841">
        <ele>443</ele>
        <time>2014-08-24T10:14:54Z</time>
      </trkpt>
      <trkpt lat="45.8568" lon="3.07823">
        <ele>444</ele>
        <time>2014-08-24T10:14:57Z</time>
      </trkpt>
      <trkpt lat="45.85681" lon="3.07811">
        <ele>444</ele>
        <time>2014-08-24T10:14:59Z</time>
      </trkpt>
      <trkpt lat="45.85683" lon="3.07792">
        <ele>445</ele>
        <time>2014-08-24T10:15:02Z</time>
      </trkpt>
      <trkpt lat="45.85684" lon="3.0778">
        <ele>445</ele>
        <time>2014-08-24T10:15:04Z</time>
      </trkpt>
      <trkpt lat="45.85685" lon="3.07768">
        <ele>445</ele>
        <time>2014-08-24T10:15:06Z</time>
      </trkpt>
      <trkpt lat="45.85686" lon="3.07757">
        <ele>444</ele>
        <time>2014-08-24T10:15:08Z</time>
      </trkpt>
      <trkpt lat="45.85684" lon="3.07743">
        <ele>444</ele>
        <time>2014-08-24T10:15:11Z</time>
      </trkpt>
      <trkpt lat="45.85682" lon="3.07734">
        <ele>444</ele>
        <time>2014-08-24T10:15:13Z</time>
      </trkpt>
      <trkpt lat="45.85677" lon="3.07726">
        <ele>444</ele>
        <time>2014-08-24T10:15:15Z</time>
      </trkpt>
      <trkpt lat="45.8567" lon="3.07722">
        <ele>444</ele>
        <time>2014-08-24T10:15:17Z</time>
      </trkpt>
      <trkpt lat="45.85657" lon="3.07717">
        <ele>444</ele>
        <time>2014-08-24T10:15:20Z</time>
      </trkpt>
      <trkpt lat="45.85643" lon="3.07714">
        <ele>444</ele>
        <time>2014-08-24T10:15:23Z</time>
      </trkpt>
      <trkpt lat="45.85634" lon="3.07714">
        <ele>444</ele>
        <time>2014-08-24T10:15:25Z</time>
      </trkpt>
      <trkpt lat="45.85626" lon="3.07716">
        <ele>444</ele>
        <time>2014-08-24T10:15:27Z</time>
      </trkpt>
      <trkpt lat="45.85614" lon="3.07718">
        <ele>444</ele>
        <time>2014-08-24T10:15:30Z</time>
      </trkpt>
      <trkpt lat="45.856" lon="3.07718">
        <ele>444</ele>
        <time>2014-08-24T10:15:33Z</time>
      </trkpt>
      <trkpt lat="45.85591" lon="3.07719">
        <ele>443</ele>
        <time>2014-08-24T10:15:35Z</time>
      </trkpt>
      <trkpt lat="45.85583" lon="3.07716">
        <ele>443</ele>
        <time>2014-08-24T10:15:37Z</time>
      </trkpt>
      <trkpt lat="45.85572" lon="3.07706">
        <ele>442</ele>
        <time>2014-08-24T10:15:40Z</time>
      </trkpt>
      <trkpt lat="45.85559" lon="3.07699">
        <ele>442</ele>
        <time>2014-08-24T10:15:43Z</time>
      </trkpt>
      <trkpt lat="45.85544" lon="3.07698">
        <ele>442</ele>
        <time>2014-08-24T10:15:46Z</time>
      </trkpt>
      <trkpt lat="45.85535" lon="3.07696">
        <ele>443</ele>
        <time>2014-08-24T10:15:48Z</time>
      </trkpt>
      <trkpt lat="45.85526" lon="3.07695">
        <ele>443</ele>
        <time>2014-08-24T10:15:50Z</time>
      </trkpt>
      <trkpt lat="45.85513" lon="3.07692">
        <ele>442</ele>
        <time>2014-08-24T10:15:53Z</time>
      </trkpt>
      <trkpt lat="45.85505" lon="3.07688">
        <ele>442</ele>
        <time>2014-08-24T10:15:55Z</time>
      </trkpt>
      <trkpt lat="45.85491" lon="3.07683">
        <ele>441</ele>
        <time>2014-08-24T10:15:58Z</time>
      </trkpt>
      <trkpt lat="45.85483" lon="3.07678">
        <ele>441</ele>
        <time>2014-08-24T10:16:00Z</time>
      </trkpt>
      <trkpt lat="45.8548" lon="3.07667">
        <ele>440</ele>
        <time>2014-08-24T10:16:02Z</time>
      </trkpt>
      <trkpt lat="45.85478" lon="3.07651">
        <ele>441</ele>
        <time>2014-08-24T10:16:05Z</time>
      </trkpt>
      <trkpt lat="45.85477" lon="3.07633">
        <ele>442</ele>
        <time>2014-08-24T10:16:08Z</time>
      </trkpt>
      <trkpt lat="45.85476" lon="3.07621">
        <ele>442</ele>
        <time>2014-08-24T10:16:10Z</time>
      </trkpt>
      <trkpt lat="45.85476" lon="3.07609">
        <ele>442</ele>
        <time>2014-08-24T10:16:12Z</time>
      </trkpt>
      <trkpt lat="45.85475" lon="3.07596">
        <ele>442</ele>
        <time>2014-08-24T10:16:14Z</time>
      </trkpt>
      <trkpt lat="45.85475" lon="3.07576">
        <ele>442</ele>
        <time>2014-08-24T10:16:17Z</time>
      </trkpt>
      <trkpt lat="45.85474" lon="3.07564">
        <ele>442</ele>
        <time>2014-08-24T10:16:19Z</time>
      </trkpt>
      <trkpt lat="45.85464" lon="3.07557">
        <ele>442</ele>
        <time>2014-08-24T10:16:22Z</time>
      </trkpt>
      <trkpt lat="45.85451" lon="3.07556">
        <ele>442</ele>
        <time>2014-08-24T10:16:25Z</time>
      </trkpt>
      <trkpt lat="45.85437" lon="3.07554">
        <ele>442</ele>
        <time>2014-08-24T10:16:28Z</time>
      </trkpt>
      <trkpt lat="45.85427" lon="3.07554">
        <ele>441</ele>
        <time>2014-08-24T10:16:30Z</time>
      </trkpt>
      <trkpt lat="45.85418" lon="3.07555">
        <ele>441</ele>
        <time>2014-08-24T10:16:32Z</time>
      </trkpt>
      <trkpt lat="45.85408" lon="3.07554">
        <ele>441</ele>
        <time>2014-08-24T10:16:34Z</time>
      </trkpt>
      <trkpt lat="45.854" lon="3.07553">
        <ele>441</ele>
        <time>2014-08-24T10:16:36Z</time>
      </trkpt>
      <trkpt lat="45.85393" lon="3.07546">
        <ele>441</ele>
        <time>2014-08-24T10:16:39Z</time>
      </trkpt>
      <trkpt lat="45.85394" lon="3.0754">
        <ele>441</ele>
        <time>2014-08-24T10:16:41Z</time>
      </trkpt>
      <trkpt lat="45.85398" lon="3.07527">
        <ele>441</ele>
        <time>2014-08-24T10:16:44Z</time>
      </trkpt>
      <trkpt lat="45.85401" lon="3.07517">
        <ele>441</ele>
        <time>2014-08-24T10:16:46Z</time>
      </trkpt>
      <trkpt lat="45.85403" lon="3.07502">
        <ele>441</ele>
        <time>2014-08-24T10:16:49Z</time>
      </trkpt>
      <trkpt lat="45.85404" lon="3.07485">
        <ele>441</ele>
        <time>2014-08-24T10:16:52Z</time>
      </trkpt>
      <trkpt lat="45.85404" lon="3.07472">
        <ele>441</ele>
        <time>2014-08-24T10:16:54Z</time>
      </trkpt>
      <trkpt lat="45.85404" lon="3.07459">
        <ele>442</ele>
        <time>2014-08-24T10:16:56Z</time>
      </trkpt>
      <trkpt lat="45.85404" lon="3.07437">
        <ele>441</ele>
        <time>2014-08-24T10:16:59Z</time>
      </trkpt>
      <trkpt lat="45.85405" lon="3.07423">
        <ele>441</ele>
        <time>2014-08-24T10:17:01Z</time>
      </trkpt>
      <trkpt lat="45.85409" lon="3.07402">
        <ele>442</ele>
        <time>2014-08-24T10:17:04Z</time>
      </trkpt>
      <trkpt lat="45.85413" lon="3.0738">
        <ele>442</ele>
        <time>2014-08-24T10:17:07Z</time>
      </trkpt>
      <trkpt lat="45.85416" lon="3.07359">
        <ele>442</ele>
        <time>2014-08-24T10:17:10Z</time>
      </trkpt>
      <trkpt lat="45.85419" lon="3.07345">
        <ele>441</ele>
        <time>2014-08-24T10:17:12Z</time>
      </trkpt>
      <trkpt lat="45.8542" lon="3.07334">
        <ele>441</ele>
        <time>2014-08-24T10:17:14Z</time>
      </trkpt>
      <trkpt lat="45.85421" lon="3.07328">
        <ele>440</ele>
        <time>2014-08-24T10:17:16Z</time>
      </trkpt>
      <trkpt lat="45.85421" lon="3.07325">
        <ele>440</ele>
        <time>2014-08-24T10:17:18Z</time>
      </trkpt>
      <trkpt lat="45.85421" lon="3.07324">
        <ele>439</ele>
        <time>2014-08-24T10:17:21Z</time>
      </trkpt>
      <trkpt lat="45.85421" lon="3.07324">
        <ele>439</ele>
        <time>2014-08-24T10:17:23Z</time>
      </trkpt>
      <trkpt lat="45.85421" lon="3.07324">
        <ele>439</ele>
        <time>2014-08-24T10:17:25Z</time>
      </trkpt>
      <trkpt lat="45.85422" lon="3.07326">
        <ele>439</ele>
        <time>2014-08-24T10:17:28Z</time>
      </trkpt>
      <trkpt lat="45.85421" lon="3.07333">
        <ele>439</ele>
        <time>2014-08-24T10:17:31Z</time>
      </trkpt>
      <trkpt lat="45.85419" lon="3.07341">
        <ele>440</ele>
        <time>2014-08-24T10:17:33Z</time>
      </trkpt>
      <trkpt lat="45.85418" lon="3.07352">
        <ele>440</ele>
        <time>2014-08-24T10:17:35Z</time>
      </trkpt>
      <trkpt lat="45.85416" lon="3.07363">
        <ele>440</ele>
        <time>2014-08-24T10:17:37Z</time>
      </trkpt>
      <trkpt lat="45.85414" lon="3.07381">
        <ele>440</ele>
        <time>2014-08-24T10:17:40Z</time>
      </trkpt>
      <trkpt lat="45.85411" lon="3.07394">
        <ele>440</ele>
        <time>2014-08-24T10:17:42Z</time>
      </trkpt>
      <trkpt lat="45.85408" lon="3.07407">
        <ele>440</ele>
        <time>2014-08-24T10:17:44Z</time>
      </trkpt>
      <trkpt lat="45.85404" lon="3.07425">
        <ele>440</ele>
        <time>2014-08-24T10:17:47Z</time>
      </trkpt>
      <trkpt lat="45.85405" lon="3.07444">
        <ele>441</ele>
        <time>2014-08-24T10:17:50Z</time>
      </trkpt>
      <trkpt lat="45.85405" lon="3.07465">
        <ele>441</ele>
        <time>2014-08-24T10:17:53Z</time>
      </trkpt>
      <trkpt lat="45.85404" lon="3.07488">
        <ele>441</ele>
        <time>2014-08-24T10:17:56Z</time>
      </trkpt>
      <trkpt lat="45.85401" lon="3.07508">
        <ele>441</ele>
        <time>2014-08-24T10:17:59Z</time>
      </trkpt>
      <trkpt lat="45.85396" lon="3.07529">
        <ele>441</ele>
        <time>2014-08-24T10:18:02Z</time>
      </trkpt>
      <trkpt lat="45.85391" lon="3.0754">
        <ele>441</ele>
        <time>2014-08-24T10:18:04Z</time>
      </trkpt>
      <trkpt lat="45.85379" lon="3.07554">
        <ele>441</ele>
        <time>2014-08-24T10:18:07Z</time>
      </trkpt>
      <trkpt lat="45.85366" lon="3.07567">
        <ele>441</ele>
        <time>2014-08-24T10:18:10Z</time>
      </trkpt>
      <trkpt lat="45.85353" lon="3.0758">
        <ele>441</ele>
        <time>2014-08-24T10:18:13Z</time>
      </trkpt>
      <trkpt lat="45.85345" lon="3.07588">
        <ele>441</ele>
        <time>2014-08-24T10:18:15Z</time>
      </trkpt>
      <trkpt lat="45.85337" lon="3.07599">
        <ele>440</ele>
        <time>2014-08-24T10:18:17Z</time>
      </trkpt>
      <trkpt lat="45.85329" lon="3.07611">
        <ele>440</ele>
        <time>2014-08-24T10:18:19Z</time>
      </trkpt>
      <trkpt lat="45.85321" lon="3.07624">
        <ele>440</ele>
        <time>2014-08-24T10:18:21Z</time>
      </trkpt>
      <trkpt lat="45.85313" lon="3.07636">
        <ele>440</ele>
        <time>2014-08-24T10:18:23Z</time>
      </trkpt>
      <trkpt lat="45.85305" lon="3.07647">
        <ele>440</ele>
        <time>2014-08-24T10:18:25Z</time>
      </trkpt>
      <trkpt lat="45.85297" lon="3.07659">
        <ele>440</ele>
        <time>2014-08-24T10:18:27Z</time>
      </trkpt>
      <trkpt lat="45.85286" lon="3.07674">
        <ele>439</ele>
        <time>2014-08-24T10:18:30Z</time>
      </trkpt>
      <trkpt lat="45.85278" lon="3.07683">
        <ele>440</ele>
        <time>2014-08-24T10:18:32Z</time>
      </trkpt>
      <trkpt lat="45.8527" lon="3.07688">
        <ele>439</ele>
        <time>2014-08-24T10:18:35Z</time>
      </trkpt>
      <trkpt lat="45.85269" lon="3.07689">
        <ele>439</ele>
        <time>2014-08-24T10:18:37Z</time>
      </trkpt>
      <trkpt lat="45.85268" lon="3.07689">
        <ele>438</ele>
        <time>2014-08-24T10:18:40Z</time>
      </trkpt>
      <trkpt lat="45.85268" lon="3.0769">
        <ele>438</ele>
        <time>2014-08-24T10:18:42Z</time>
      </trkpt>
      <trkpt lat="45.85267" lon="3.07692">
        <ele>438</ele>
        <time>2014-08-24T10:18:44Z</time>
      </trkpt>
      <trkpt lat="45.85263" lon="3.07696">
        <ele>438</ele>
        <time>2014-08-24T10:18:46Z</time>
      </trkpt>
      <trkpt lat="45.85256" lon="3.07702">
        <ele>438</ele>
        <time>2014-08-24T10:18:48Z</time>
      </trkpt>
      <trkpt lat="45.85249" lon="3.07708">
        <ele>438</ele>
        <time>2014-08-24T10:18:50Z</time>
      </trkpt>
      <trkpt lat="45.85238" lon="3.07717">
        <ele>438</ele>
        <time>2014-08-24T10:18:53Z</time>
      </trkpt>
      <trkpt lat="45.8523" lon="3.07722">
        <ele>438</ele>
        <time>2014-08-24T10:18:55Z</time>
      </trkpt>
      <trkpt lat="45.85218" lon="3.07731">
        <ele>437</ele>
        <time>2014-08-24T10:18:58Z</time>
      </trkpt>
      <trkpt lat="45.85207" lon="3.07736">
        <ele>437</ele>
        <time>2014-08-24T10:19:01Z</time>
      </trkpt>
      <trkpt lat="45.85196" lon="3.07733">
        <ele>437</ele>
        <time>2014-08-24T10:19:04Z</time>
      </trkpt>
      <trkpt lat="45.85191" lon="3.07725">
        <ele>437</ele>
        <time>2014-08-24T10:19:06Z</time>
      </trkpt>
      <trkpt lat="45.85186" lon="3.07714">
        <ele>436</ele>
        <time>2014-08-24T10:19:08Z</time>
      </trkpt>
      <trkpt lat="45.85181" lon="3.07702">
        <ele>436</ele>
        <time>2014-08-24T10:19:10Z</time>
      </trkpt>
      <trkpt lat="45.85176" lon="3.07685">
        <ele>436</ele>
        <time>2014-08-24T10:19:13Z</time>
      </trkpt>
      <trkpt lat="45.85175" lon="3.07674">
        <ele>436</ele>
        <time>2014-08-24T10:19:15Z</time>
      </trkpt>
      <trkpt lat="45.85172" lon="3.07655">
        <ele>436</ele>
        <time>2014-08-24T10:19:18Z</time>
      </trkpt>
      <trkpt lat="45.85168" lon="3.07635">
        <ele>437</ele>
        <time>2014-08-24T10:19:21Z</time>
      </trkpt>
      <trkpt lat="45.85166" lon="3.07616">
        <ele>437</ele>
        <time>2014-08-24T10:19:24Z</time>
      </trkpt>
      <trkpt lat="45.85163" lon="3.07597">
        <ele>437</ele>
        <time>2014-08-24T10:19:27Z</time>
      </trkpt>
      <trkpt lat="45.8516" lon="3.07585">
        <ele>437</ele>
        <time>2014-08-24T10:19:29Z</time>
      </trkpt>
      <trkpt lat="45.85156" lon="3.07566">
        <ele>437</ele>
        <time>2014-08-24T10:19:32Z</time>
      </trkpt>
      <trkpt lat="45.85154" lon="3.07553">
        <ele>437</ele>
        <time>2014-08-24T10:19:34Z</time>
      </trkpt>
      <trkpt lat="45.85149" lon="3.07535">
        <ele>437</ele>
        <time>2014-08-24T10:19:37Z</time>
      </trkpt>
      <trkpt lat="45.85146" lon="3.07524">
        <ele>437</ele>
        <time>2014-08-24T10:19:39Z</time>
      </trkpt>
      <trkpt lat="45.85143" lon="3.07519">
        <ele>437</ele>
        <time>2014-08-24T10:19:41Z</time>
      </trkpt>
      <trkpt lat="45.85142" lon="3.07513">
        <ele>437</ele>
        <time>2014-08-24T10:19:43Z</time>
      </trkpt>
      <trkpt lat="45.85139" lon="3.07503">
        <ele>437</ele>
        <time>2014-08-24T10:19:46Z</time>
      </trkpt>
      <trkpt lat="45.85137" lon="3.07496">
        <ele>437</ele>
        <time>2014-08-24T10:19:48Z</time>
      </trkpt>
      <trkpt lat="45.85135" lon="3.07488">
        <ele>436</ele>
        <time>2014-08-24T10:19:50Z</time>
      </trkpt>
      <trkpt lat="45.85135" lon="3.07483">
        <ele>436</ele>
        <time>2014-08-24T10:19:52Z</time>
      </trkpt>
      <trkpt lat="45.85135" lon="3.07482">
        <ele>436</ele>
        <time>2014-08-24T10:19:54Z</time>
      </trkpt>
      <trkpt lat="45.85135" lon="3.07482">
        <ele>436</ele>
        <time>2014-08-24T10:19:57Z</time>
      </trkpt>
      <trkpt lat="45.85135" lon="3.07482">
        <ele>436</ele>
        <time>2014-08-24T10:19:59Z</time>
      </trkpt>
      <trkpt lat="45.85135" lon="3.07481">
        <ele>436</ele>
        <time>2014-08-24T10:20:01Z</time>
      </trkpt>
      <trkpt lat="45.85135" lon="3.07481">
        <ele>436</ele>
        <time>2014-08-24T10:20:04Z</time>
      </trkpt>
      <trkpt lat="45.85134" lon="3.07481">
        <ele>436</ele>
        <time>2014-08-24T10:20:06Z</time>
      </trkpt>
      <trkpt lat="45.85134" lon="3.07478">
        <ele>436</ele>
        <time>2014-08-24T10:20:08Z</time>
      </trkpt>
      <trkpt lat="45.85134" lon="3.07478">
        <ele>436</ele>
        <time>2014-08-24T10:20:10Z</time>
      </trkpt>
      <trkpt lat="45.85134" lon="3.07478">
        <ele>436</ele>
        <time>2014-08-24T10:20:13Z</time>
      </trkpt>
      <trkpt lat="45.85134" lon="3.07478">
        <ele>436</ele>
        <time>2014-08-24T10:20:17Z</time>
      </trkpt>
      <trkpt lat="45.85134" lon="3.07478">
        <ele>436</ele>
        <time>2014-08-24T10:20:21Z</time>
      </trkpt>
      <trkpt lat="45.85134" lon="3.07478">
        <ele>437</ele>
        <time>2014-08-24T10:20:27Z</time>
      </trkpt>
      <trkpt lat="45.85134" lon="3.07477">
        <ele>436</ele>
        <time>2014-08-24T10:20:30Z</time>
      </trkpt>
      <trkpt lat="45.85133" lon="3.07475">
        <ele>436</ele>
        <time>2014-08-24T10:20:32Z</time>
      </trkpt>
      <trkpt lat="45.85133" lon="3.07474">
        <ele>436</ele>
        <time>2014-08-24T10:20:34Z</time>
      </trkpt>
      <trkpt lat="45.85134" lon="3.07474">
        <ele>436</ele>
        <time>2014-08-24T10:20:37Z</time>
      </trkpt>
      <trkpt lat="45.85134" lon="3.07473">
        <ele>436</ele>
        <time>2014-08-24T10:20:44Z</time>
      </trkpt>
      <trkpt lat="45.85133" lon="3.07473">
        <ele>436</ele>
        <time>2014-08-24T10:20:48Z</time>
      </trkpt>
      <trkpt lat="45.85134" lon="3.07473">
        <ele>436</ele>
        <time>2014-08-24T10:20:55Z</time>
      </trkpt>
      <trkpt lat="45.85134" lon="3.07473">
        <ele>436</ele>
        <time>2014-08-24T10:20:58Z</time>
      </trkpt>
      <trkpt lat="45.85134" lon="3.07473">
        <ele>436</ele>
        <time>2014-08-24T10:21:02Z</time>
      </trkpt>
      <trkpt lat="45.85134" lon="3.07473">
        <ele>436</ele>
        <time>2014-08-24T10:21:05Z</time>
      </trkpt>
      <trkpt lat="45.85134" lon="3.07473">
        <ele>436</ele>
        <time>2014-08-24T10:21:10Z</time>
      </trkpt>
      <trkpt lat="45.85134" lon="3.07473">
        <ele>436</ele>
        <time>2014-08-24T10:21:13Z</time>
      </trkpt>
      <trkpt lat="45.85133" lon="3.07471">
        <ele>436</ele>
        <time>2014-08-24T10:21:15Z</time>
      </trkpt>
      <trkpt lat="45.85132" lon="3.07466">
        <ele>436</ele>
        <time>2014-08-24T10:21:17Z</time>
      </trkpt>
      <trkpt lat="45.85131" lon="3.07459">
        <ele>436</ele>
        <time>2014-08-24T10:21:19Z</time>
      </trkpt>
      <trkpt lat="45.85129" lon="3.07451">
        <ele>436</ele>
        <time>2014-08-24T10:21:21Z</time>
      </trkpt>
      <trkpt lat="45.85128" lon="3.07443">
        <ele>436</ele>
        <time>2014-08-24T10:21:23Z</time>
      </trkpt>
      <trkpt lat="45.85126" lon="3.07434">
        <ele>436</ele>
        <time>2014-08-24T10:21:25Z</time>
      </trkpt>
      <trkpt lat="45.85123" lon="3.0742">
        <ele>436</ele>
        <time>2014-08-24T10:21:28Z</time>
      </trkpt>
      <trkpt lat="45.85118" lon="3.07413">
        <ele>436</ele>
        <time>2014-08-24T10:21:30Z</time>
      </trkpt>
      <trkpt lat="45.85113" lon="3.07404">
        <ele>436</ele>
        <time>2014-08-24T10:21:32Z</time>
      </trkpt>
      <trkpt lat="45.85102" lon="3.0739">
        <ele>436</ele>
        <time>2014-08-24T10:21:35Z</time>
      </trkpt>
      <trkpt lat="45.85091" lon="3.07377">
        <ele>436</ele>
        <time>2014-08-24T10:21:38Z</time>
      </trkpt>
      <trkpt lat="45.85078" lon="3.07365">
        <ele>436</ele>
        <time>2014-08-24T10:21:41Z</time>
      </trkpt>
      <trkpt lat="45.8507" lon="3.07355">
        <ele>436</ele>
        <time>2014-08-24T10:21:43Z</time>
      </trkpt>
      <trkpt lat="45.85062" lon="3.07346">
        <ele>436</ele>
        <time>2014-08-24T10:21:45Z</time>
      </trkpt>
      <trkpt lat="45.85054" lon="3.07335">
        <ele>436</ele>
        <time>2014-08-24T10:21:47Z</time>
      </trkpt>
      <trkpt lat="45.85043" lon="3.07317">
        <ele>436</ele>
        <time>2014-08-24T10:21:50Z</time>
      </trkpt>
      <trkpt lat="45.85036" lon="3.07305">
        <ele>436</ele>
        <time>2014-08-24T10:21:52Z</time>
      </trkpt>
      <trkpt lat="45.85028" lon="3.07287">
        <ele>435</ele>
        <time>2014-08-24T10:21:55Z</time>
      </trkpt>
      <trkpt lat="45.85024" lon="3.07277">
        <ele>435</ele>
        <time>2014-08-24T10:21:57Z</time>
      </trkpt>
      <trkpt lat="45.85021" lon="3.07268">
        <ele>435</ele>
        <time>2014-08-24T10:21:59Z</time>
      </trkpt>
      <trkpt lat="45.85021" lon="3.07255">
        <ele>435</ele>
        <time>2014-08-24T10:22:02Z</time>
      </trkpt>
      <trkpt lat="45.85022" lon="3.0724">
        <ele>435</ele>
        <time>2014-08-24T10:22:05Z</time>
      </trkpt>
      <trkpt lat="45.85023" lon="3.07223">
        <ele>435</ele>
        <time>2014-08-24T10:22:08Z</time>
      </trkpt>
      <trkpt lat="45.85024" lon="3.07211">
        <ele>435</ele>
        <time>2014-08-24T10:22:10Z</time>
      </trkpt>
      <trkpt lat="45.85025" lon="3.07198">
        <ele>435</ele>
        <time>2014-08-24T10:22:12Z</time>
      </trkpt>
      <trkpt lat="45.85025" lon="3.07178">
        <ele>434</ele>
        <time>2014-08-24T10:22:15Z</time>
      </trkpt>
      <trkpt lat="45.85025" lon="3.07158">
        <ele>434</ele>
        <time>2014-08-24T10:22:18Z</time>
      </trkpt>
      <trkpt lat="45.85026" lon="3.07136">
        <ele>435</ele>
        <time>2014-08-24T10:22:21Z</time>
      </trkpt>
      <trkpt lat="45.85027" lon="3.07112">
        <ele>435</ele>
        <time>2014-08-24T10:22:24Z</time>
      </trkpt>
      <trkpt lat="45.85027" lon="3.07096">
        <ele>435</ele>
        <time>2014-08-24T10:22:26Z</time>
      </trkpt>
      <trkpt lat="45.85028" lon="3.07081">
        <ele>435</ele>
        <time>2014-08-24T10:22:28Z</time>
      </trkpt>
      <trkpt lat="45.8503" lon="3.07065">
        <ele>435</ele>
        <time>2014-08-24T10:22:30Z</time>
      </trkpt>
      <trkpt lat="45.85031" lon="3.0705">
        <ele>435</ele>
        <time>2014-08-24T10:22:32Z</time>
      </trkpt>
      <trkpt lat="45.85033" lon="3.07034">
        <ele>435</ele>
        <time>2014-08-24T10:22:34Z</time>
      </trkpt>
      <trkpt lat="45.85036" lon="3.07011">
        <ele>434</ele>
        <time>2014-08-24T10:22:37Z</time>
      </trkpt>
      <trkpt lat="45.85037" lon="3.06996">
        <ele>434</ele>
        <time>2014-08-24T10:22:39Z</time>
      </trkpt>
      <trkpt lat="45.85038" lon="3.06976">
        <ele>434</ele>
        <time>2014-08-24T10:22:42Z</time>
      </trkpt>
      <trkpt lat="45.85036" lon="3.06963">
        <ele>433</ele>
        <time>2014-08-24T10:22:44Z</time>
      </trkpt>
      <trkpt lat="45.85034" lon="3.0694">
        <ele>433</ele>
        <time>2014-08-24T10:22:47Z</time>
      </trkpt>
      <trkpt lat="45.85031" lon="3.06916">
        <ele>432</ele>
        <time>2014-08-24T10:22:50Z</time>
      </trkpt>
      <trkpt lat="45.85029" lon="3.0689">
        <ele>433</ele>
        <time>2014-08-24T10:22:53Z</time>
      </trkpt>
      <trkpt lat="45.85027" lon="3.06872">
        <ele>433</ele>
        <time>2014-08-24T10:22:55Z</time>
      </trkpt>
      <trkpt lat="45.85025" lon="3.06844">
        <ele>433</ele>
        <time>2014-08-24T10:22:58Z</time>
      </trkpt>
      <trkpt lat="45.85022" lon="3.0682">
        <ele>432</ele>
        <time>2014-08-24T10:23:00Z</time>
      </trkpt>
      <trkpt lat="45.85016" lon="3.06778">
        <ele>433</ele>
        <time>2014-08-24T10:23:03Z</time>
      </trkpt>
      <trkpt lat="45.8501" lon="3.0675">
        <ele>433</ele>
        <time>2014-08-24T10:23:05Z</time>
      </trkpt>
      <trkpt lat="45.85006" lon="3.06724">
        <ele>433</ele>
        <time>2014-08-24T10:23:07Z</time>
      </trkpt>
      <trkpt lat="45.85004" lon="3.06702">
        <ele>432</ele>
        <time>2014-08-24T10:23:09Z</time>
      </trkpt>
      <trkpt lat="45.85001" lon="3.0668">
        <ele>431</ele>
        <time>2014-08-24T10:23:11Z</time>
      </trkpt>
      <trkpt lat="45.84999" lon="3.06659">
        <ele>429</ele>
        <time>2014-08-24T10:23:13Z</time>
      </trkpt>
      <trkpt lat="45.84997" lon="3.06639">
        <ele>428</ele>
        <time>2014-08-24T10:23:15Z</time>
      </trkpt>
      <trkpt lat="45.84996" lon="3.06621">
        <ele>428</ele>
        <time>2014-08-24T10:23:17Z</time>
      </trkpt>
      <trkpt lat="45.84994" lon="3.06593">
        <ele>427</ele>
        <time>2014-08-24T10:23:20Z</time>
      </trkpt>
      <trkpt lat="45.84992" lon="3.06575">
        <ele>427</ele>
        <time>2014-08-24T10:23:22Z</time>
      </trkpt>
      <trkpt lat="45.84991" lon="3.06548">
        <ele>427</ele>
        <time>2014-08-24T10:23:25Z</time>
      </trkpt>
      <trkpt lat="45.84992" lon="3.0653">
        <ele>427</ele>
        <time>2014-08-24T10:23:27Z</time>
      </trkpt>
      <trkpt lat="45.84992" lon="3.06512">
        <ele>426</ele>
        <time>2014-08-24T10:23:29Z</time>
      </trkpt>
      <trkpt lat="45.84993" lon="3.06485">
        <ele>425</ele>
        <time>2014-08-24T10:23:32Z</time>
      </trkpt>
      <trkpt lat="45.84993" lon="3.06456">
        <ele>425</ele>
        <time>2014-08-24T10:23:35Z</time>
      </trkpt>
      <trkpt lat="45.84994" lon="3.06438">
        <ele>425</ele>
        <time>2014-08-24T10:23:37Z</time>
      </trkpt>
      <trkpt lat="45.84995" lon="3.06414">
        <ele>424</ele>
        <time>2014-08-24T10:23:40Z</time>
      </trkpt>
      <trkpt lat="45.84996" lon="3.06398">
        <ele>424</ele>
        <time>2014-08-24T10:23:42Z</time>
      </trkpt>
      <trkpt lat="45.84995" lon="3.06383">
        <ele>424</ele>
        <time>2014-08-24T10:23:44Z</time>
      </trkpt>
      <trkpt lat="45.84995" lon="3.06368">
        <ele>424</ele>
        <time>2014-08-24T10:23:46Z</time>
      </trkpt>
      <trkpt lat="45.84995" lon="3.06354">
        <ele>424</ele>
        <time>2014-08-24T10:23:48Z</time>
      </trkpt>
      <trkpt lat="45.84996" lon="3.06342">
        <ele>424</ele>
        <time>2014-08-24T10:23:50Z</time>
      </trkpt>
      <trkpt lat="45.84998" lon="3.06324">
        <ele>423</ele>
        <time>2014-08-24T10:23:53Z</time>
      </trkpt>
      <trkpt lat="45.84999" lon="3.06313">
        <ele>423</ele>
        <time>2014-08-24T10:23:55Z</time>
      </trkpt>
      <trkpt lat="45.85001" lon="3.06302">
        <ele>423</ele>
        <time>2014-08-24T10:23:57Z</time>
      </trkpt>
      <trkpt lat="45.85004" lon="3.06291">
        <ele>422</ele>
        <time>2014-08-24T10:24:00Z</time>
      </trkpt>
      <trkpt lat="45.85012" lon="3.06244">
        <ele>421</ele>
        <time>2014-08-24T10:24:03Z</time>
      </trkpt>
      <trkpt lat="45.85013" lon="3.06232">
        <ele>421</ele>
        <time>2014-08-24T10:24:05Z</time>
      </trkpt>
      <trkpt lat="45.85014" lon="3.06221">
        <ele>420</ele>
        <time>2014-08-24T10:24:07Z</time>
      </trkpt>
      <trkpt lat="45.85017" lon="3.0621">
        <ele>421</ele>
        <time>2014-08-24T10:24:09Z</time>
      </trkpt>
      <trkpt lat="45.85019" lon="3.06198">
        <ele>421</ele>
        <time>2014-08-24T10:24:11Z</time>
      </trkpt>
      <trkpt lat="45.8502" lon="3.06187">
        <ele>421</ele>
        <time>2014-08-24T10:24:13Z</time>
      </trkpt>
      <trkpt lat="45.85021" lon="3.06173">
        <ele>421</ele>
        <time>2014-08-24T10:24:15Z</time>
      </trkpt>
      <trkpt lat="45.85022" lon="3.06158">
        <ele>420</ele>
        <time>2014-08-24T10:24:17Z</time>
      </trkpt>
      <trkpt lat="45.85023" lon="3.06142">
        <ele>420</ele>
        <time>2014-08-24T10:24:19Z</time>
      </trkpt>
      <trkpt lat="45.85023" lon="3.06126">
        <ele>420</ele>
        <time>2014-08-24T10:24:21Z</time>
      </trkpt>
      <trkpt lat="45.85023" lon="3.06109">
        <ele>420</ele>
        <time>2014-08-24T10:24:23Z</time>
      </trkpt>
      <trkpt lat="45.85023" lon="3.06081">
        <ele>419</ele>
        <time>2014-08-24T10:24:26Z</time>
      </trkpt>
      <trkpt lat="45.85023" lon="3.06063">
        <ele>418</ele>
        <time>2014-08-24T10:24:28Z</time>
      </trkpt>
      <trkpt lat="45.85022" lon="3.06045">
        <ele>418</ele>
        <time>2014-08-24T10:24:30Z</time>
      </trkpt>
      <trkpt lat="45.85021" lon="3.06019">
        <ele>417</ele>
        <time>2014-08-24T10:24:33Z</time>
      </trkpt>
      <trkpt lat="45.8502" lon="3.05995">
        <ele>416</ele>
        <time>2014-08-24T10:24:36Z</time>
      </trkpt>
      <trkpt lat="45.85019" lon="3.05972">
        <ele>415</ele>
        <time>2014-08-24T10:24:39Z</time>
      </trkpt>
      <trkpt lat="45.85017" lon="3.05957">
        <ele>414</ele>
        <time>2014-08-24T10:24:41Z</time>
      </trkpt>
      <trkpt lat="45.85014" lon="3.05943">
        <ele>413</ele>
        <time>2014-08-24T10:24:43Z</time>
      </trkpt>
      <trkpt lat="45.85012" lon="3.05921">
        <ele>413</ele>
        <time>2014-08-24T10:24:46Z</time>
      </trkpt>
      <trkpt lat="45.85012" lon="3.05907">
        <ele>413</ele>
        <time>2014-08-24T10:24:48Z</time>
      </trkpt>
      <trkpt lat="45.85011" lon="3.05894">
        <ele>412</ele>
        <time>2014-08-24T10:24:50Z</time>
      </trkpt>
      <trkpt lat="45.8501" lon="3.05872">
        <ele>412</ele>
        <time>2014-08-24T10:24:53Z</time>
      </trkpt>
      <trkpt lat="45.85009" lon="3.0585">
        <ele>412</ele>
        <time>2014-08-24T10:24:56Z</time>
      </trkpt>
      <trkpt lat="45.85009" lon="3.05836">
        <ele>412</ele>
        <time>2014-08-24T10:24:58Z</time>
      </trkpt>
      <trkpt lat="45.85006" lon="3.05817">
        <ele>412</ele>
        <time>2014-08-24T10:25:01Z</time>
      </trkpt>
      <trkpt lat="45.85003" lon="3.05804">
        <ele>412</ele>
        <time>2014-08-24T10:25:03Z</time>
      </trkpt>
      <trkpt lat="45.85" lon="3.0579">
        <ele>412</ele>
        <time>2014-08-24T10:25:05Z</time>
      </trkpt>
      <trkpt lat="45.84997" lon="3.05767">
        <ele>411</ele>
        <time>2014-08-24T10:25:08Z</time>
      </trkpt>
      <trkpt lat="45.84994" lon="3.05746">
        <ele>411</ele>
        <time>2014-08-24T10:25:11Z</time>
      </trkpt>
      <trkpt lat="45.84991" lon="3.05733">
        <ele>410</ele>
        <time>2014-08-24T10:25:13Z</time>
      </trkpt>
      <trkpt lat="45.84986" lon="3.05721">
        <ele>411</ele>
        <time>2014-08-24T10:25:15Z</time>
      </trkpt>
      <trkpt lat="45.84974" lon="3.05705">
        <ele>410</ele>
        <time>2014-08-24T10:25:18Z</time>
      </trkpt>
      <trkpt lat="45.8496" lon="3.05692">
        <ele>411</ele>
        <time>2014-08-24T10:25:21Z</time>
      </trkpt>
      <trkpt lat="45.84951" lon="3.05683">
        <ele>411</ele>
        <time>2014-08-24T10:25:23Z</time>
      </trkpt>
      <trkpt lat="45.84935" lon="3.05667">
        <ele>411</ele>
        <time>2014-08-24T10:25:26Z</time>
      </trkpt>
      <trkpt lat="45.8492" lon="3.05648">
        <ele>411</ele>
        <time>2014-08-24T10:25:29Z</time>
      </trkpt>
      <trkpt lat="45.84912" lon="3.05636">
        <ele>412</ele>
        <time>2014-08-24T10:25:31Z</time>
      </trkpt>
      <trkpt lat="45.84905" lon="3.05624">
        <ele>412</ele>
        <time>2014-08-24T10:25:33Z</time>
      </trkpt>
      <trkpt lat="45.84897" lon="3.05608">
        <ele>413</ele>
        <time>2014-08-24T10:25:36Z</time>
      </trkpt>
      <trkpt lat="45.84892" lon="3.056">
        <ele>413</ele>
        <time>2014-08-24T10:25:38Z</time>
      </trkpt>
      <trkpt lat="45.84882" lon="3.0559">
        <ele>414</ele>
        <time>2014-08-24T10:25:41Z</time>
      </trkpt>
      <trkpt lat="45.84875" lon="3.05586">
        <ele>414</ele>
        <time>2014-08-24T10:25:43Z</time>
      </trkpt>
      <trkpt lat="45.84867" lon="3.05581">
        <ele>415</ele>
        <time>2014-08-24T10:25:45Z</time>
      </trkpt>
      <trkpt lat="45.84855" lon="3.05575">
        <ele>416</ele>
        <time>2014-08-24T10:25:48Z</time>
      </trkpt>
      <trkpt lat="45.84848" lon="3.05571">
        <ele>417</ele>
        <time>2014-08-24T10:25:50Z</time>
      </trkpt>
      <trkpt lat="45.84841" lon="3.05567">
        <ele>418</ele>
        <time>2014-08-24T10:25:52Z</time>
      </trkpt>
      <trkpt lat="45.84831" lon="3.05561">
        <ele>418</ele>
        <time>2014-08-24T10:25:55Z</time>
      </trkpt>
      <trkpt lat="45.8482" lon="3.05557">
        <ele>419</ele>
        <time>2014-08-24T10:25:58Z</time>
      </trkpt>
      <trkpt lat="45.8481" lon="3.05556">
        <ele>420</ele>
        <time>2014-08-24T10:26:01Z</time>
      </trkpt>
      <trkpt lat="45.84805" lon="3.05555">
        <ele>420</ele>
        <time>2014-08-24T10:26:03Z</time>
      </trkpt>
      <trkpt lat="45.84799" lon="3.05555">
        <ele>421</ele>
        <time>2014-08-24T10:26:05Z</time>
      </trkpt>
      <trkpt lat="45.8479" lon="3.05556">
        <ele>421</ele>
        <time>2014-08-24T10:26:08Z</time>
      </trkpt>
      <trkpt lat="45.8478" lon="3.05558">
        <ele>422</ele>
        <time>2014-08-24T10:26:11Z</time>
      </trkpt>
      <trkpt lat="45.84773" lon="3.05559">
        <ele>422</ele>
        <time>2014-08-24T10:26:13Z</time>
      </trkpt>
      <trkpt lat="45.84766" lon="3.05562">
        <ele>422</ele>
        <time>2014-08-24T10:26:15Z</time>
      </trkpt>
      <trkpt lat="45.84755" lon="3.05566">
        <ele>422</ele>
        <time>2014-08-24T10:26:18Z</time>
      </trkpt>
      <trkpt lat="45.84745" lon="3.05568">
        <ele>423</ele>
        <time>2014-08-24T10:26:21Z</time>
      </trkpt>
      <trkpt lat="45.8474" lon="3.05571">
        <ele>423</ele>
        <time>2014-08-24T10:26:23Z</time>
      </trkpt>
      <trkpt lat="45.84746" lon="3.05573">
        <ele>423</ele>
        <time>2014-08-24T10:26:26Z</time>
      </trkpt>
      <trkpt lat="45.84751" lon="3.05571">
        <ele>423</ele>
        <time>2014-08-24T10:26:28Z</time>
      </trkpt>
      <trkpt lat="45.84762" lon="3.05566">
        <ele>423</ele>
        <time>2014-08-24T10:26:31Z</time>
      </trkpt>
      <trkpt lat="45.84769" lon="3.05562">
        <ele>423</ele>
        <time>2014-08-24T10:26:33Z</time>
      </trkpt>
      <trkpt lat="45.84777" lon="3.0556">
        <ele>423</ele>
        <time>2014-08-24T10:26:35Z</time>
      </trkpt>
      <trkpt lat="45.84786" lon="3.05558">
        <ele>423</ele>
        <time>2014-08-24T10:26:37Z</time>
      </trkpt>
      <trkpt lat="45.84795" lon="3.05557">
        <ele>422</ele>
        <time>2014-08-24T10:26:39Z</time>
      </trkpt>
      <trkpt lat="45.84806" lon="3.05559">
        <ele>421</ele>
        <time>2014-08-24T10:26:41Z</time>
      </trkpt>
      <trkpt lat="45.84819" lon="3.05563">
        <ele>421</ele>
        <time>2014-08-24T10:26:43Z</time>
      </trkpt>
      <trkpt lat="45.84839" lon="3.05574">
        <ele>420</ele>
        <time>2014-08-24T10:26:46Z</time>
      </trkpt>
      <trkpt lat="45.8485" lon="3.0558">
        <ele>419</ele>
        <time>2014-08-24T10:26:48Z</time>
      </trkpt>
      <trkpt lat="45.84862" lon="3.05587">
        <ele>418</ele>
        <time>2014-08-24T10:26:50Z</time>
      </trkpt>
      <trkpt lat="45.84878" lon="3.05605">
        <ele>416</ele>
        <time>2014-08-24T10:26:53Z</time>
      </trkpt>
      <trkpt lat="45.84887" lon="3.05621">
        <ele>415</ele>
        <time>2014-08-24T10:26:55Z</time>
      </trkpt>
      <trkpt lat="45.84898" lon="3.05647">
        <ele>413</ele>
        <time>2014-08-24T10:26:58Z</time>
      </trkpt>
      <trkpt lat="45.84908" lon="3.05664">
        <ele>413</ele>
        <time>2014-08-24T10:27:00Z</time>
      </trkpt>
      <trkpt lat="45.84924" lon="3.05685">
        <ele>412</ele>
        <time>2014-08-24T10:27:03Z</time>
      </trkpt>
      <trkpt lat="45.84935" lon="3.05697">
        <ele>411</ele>
        <time>2014-08-24T10:27:05Z</time>
      </trkpt>
      <trkpt lat="45.84951" lon="3.05715">
        <ele>411</ele>
        <time>2014-08-24T10:27:08Z</time>
      </trkpt>
      <trkpt lat="45.84963" lon="3.05737">
        <ele>411</ele>
        <time>2014-08-24T10:27:11Z</time>
      </trkpt>
      <trkpt lat="45.84972" lon="3.0575">
        <ele>411</ele>
        <time>2014-08-24T10:27:13Z</time>
      </trkpt>
      <trkpt lat="45.84991" lon="3.05765">
        <ele>410</ele>
        <time>2014-08-24T10:27:16Z</time>
      </trkpt>
      <trkpt lat="45.85005" lon="3.0577">
        <ele>411</ele>
        <time>2014-08-24T10:27:18Z</time>
      </trkpt>
      <trkpt lat="45.85017" lon="3.05775">
        <ele>411</ele>
        <time>2014-08-24T10:27:20Z</time>
      </trkpt>
      <trkpt lat="45.85028" lon="3.05782">
        <ele>412</ele>
        <time>2014-08-24T10:27:22Z</time>
      </trkpt>
      <trkpt lat="45.85039" lon="3.05789">
        <ele>412</ele>
        <time>2014-08-24T10:27:24Z</time>
      </trkpt>
      <trkpt lat="45.85049" lon="3.05797">
        <ele>412</ele>
        <time>2014-08-24T10:27:26Z</time>
      </trkpt>
      <trkpt lat="45.85058" lon="3.05805">
        <ele>412</ele>
        <time>2014-08-24T10:27:28Z</time>
      </trkpt>
      <trkpt lat="45.85074" lon="3.05818">
        <ele>412</ele>
        <time>2014-08-24T10:27:31Z</time>
      </trkpt>
      <trkpt lat="45.85091" lon="3.05831">
        <ele>413</ele>
        <time>2014-08-24T10:27:34Z</time>
      </trkpt>
      <trkpt lat="45.85103" lon="3.05839">
        <ele>413</ele>
        <time>2014-08-24T10:27:36Z</time>
      </trkpt>
      <trkpt lat="45.85114" lon="3.05847">
        <ele>413</ele>
        <time>2014-08-24T10:27:38Z</time>
      </trkpt>
      <trkpt lat="45.85129" lon="3.0586">
        <ele>413</ele>
        <time>2014-08-24T10:27:41Z</time>
      </trkpt>
      <trkpt lat="45.85141" lon="3.05869">
        <ele>413</ele>
        <time>2014-08-24T10:27:43Z</time>
      </trkpt>
      <trkpt lat="45.85151" lon="3.0588">
        <ele>413</ele>
        <time>2014-08-24T10:27:45Z</time>
      </trkpt>
      <trkpt lat="45.8516" lon="3.05893">
        <ele>413</ele>
        <time>2014-08-24T10:27:47Z</time>
      </trkpt>
      <trkpt lat="45.85167" lon="3.05907">
        <ele>413</ele>
        <time>2014-08-24T10:27:49Z</time>
      </trkpt>
      <trkpt lat="45.85177" lon="3.05928">
        <ele>414</ele>
        <time>2014-08-24T10:27:52Z</time>
      </trkpt>
      <trkpt lat="45.85186" lon="3.05941">
        <ele>413</ele>
        <time>2014-08-24T10:27:54Z</time>
      </trkpt>
      <trkpt lat="45.852" lon="3.05956">
        <ele>414</ele>
        <time>2014-08-24T10:27:57Z</time>
      </trkpt>
      <trkpt lat="45.85213" lon="3.0596">
        <ele>414</ele>
        <time>2014-08-24T10:28:00Z</time>
      </trkpt>
      <trkpt lat="45.8522" lon="3.05945">
        <ele>414</ele>
        <time>2014-08-24T10:28:03Z</time>
      </trkpt>
      <trkpt lat="45.85226" lon="3.05923">
        <ele>414</ele>
        <time>2014-08-24T10:28:06Z</time>
      </trkpt>
      <trkpt lat="45.85231" lon="3.05908">
        <ele>414</ele>
        <time>2014-08-24T10:28:08Z</time>
      </trkpt>
      <trkpt lat="45.85238" lon="3.05887">
        <ele>414</ele>
        <time>2014-08-24T10:28:11Z</time>
      </trkpt>
      <trkpt lat="45.85244" lon="3.05866">
        <ele>415</ele>
        <time>2014-08-24T10:28:14Z</time>
      </trkpt>
      <trkpt lat="45.85248" lon="3.05853">
        <ele>415</ele>
        <time>2014-08-24T10:28:16Z</time>
      </trkpt>
      <trkpt lat="45.85252" lon="3.05839">
        <ele>415</ele>
        <time>2014-08-24T10:28:18Z</time>
      </trkpt>
      <trkpt lat="45.85257" lon="3.05824">
        <ele>415</ele>
        <time>2014-08-24T10:28:20Z</time>
      </trkpt>
      <trkpt lat="45.85261" lon="3.0581">
        <ele>415</ele>
        <time>2014-08-24T10:28:22Z</time>
      </trkpt>
      <trkpt lat="45.85269" lon="3.0579">
        <ele>415</ele>
        <time>2014-08-24T10:28:25Z</time>
      </trkpt>
      <trkpt lat="45.85275" lon="3.0578">
        <ele>415</ele>
        <time>2014-08-24T10:28:27Z</time>
      </trkpt>
      <trkpt lat="45.85281" lon="3.05774">
        <ele>415</ele>
        <time>2014-08-24T10:28:29Z</time>
      </trkpt>
      <trkpt lat="45.85284" lon="3.05773">
        <ele>416</ele>
        <time>2014-08-24T10:28:31Z</time>
      </trkpt>
      <trkpt lat="45.85288" lon="3.05772">
        <ele>416</ele>
        <time>2014-08-24T10:28:34Z</time>
      </trkpt>
      <trkpt lat="45.85288" lon="3.05775">
        <ele>416</ele>
        <time>2014-08-24T10:28:37Z</time>
      </trkpt>
      <trkpt lat="45.85285" lon="3.05772">
        <ele>416</ele>
        <time>2014-08-24T10:28:40Z</time>
      </trkpt>
      <trkpt lat="45.85284" lon="3.05767">
        <ele>416</ele>
        <time>2014-08-24T10:28:43Z</time>
      </trkpt>
      <trkpt lat="45.85291" lon="3.05761">
        <ele>415</ele>
        <time>2014-08-24T10:28:46Z</time>
      </trkpt>
      <trkpt lat="45.85297" lon="3.05756">
        <ele>414</ele>
        <time>2014-08-24T10:28:48Z</time>
      </trkpt>
      <trkpt lat="45.85305" lon="3.05752">
        <ele>413</ele>
        <time>2014-08-24T10:28:50Z</time>
      </trkpt>
      <trkpt lat="45.85315" lon="3.05748">
        <ele>413</ele>
        <time>2014-08-24T10:28:53Z</time>
      </trkpt>
      <trkpt lat="45.8533" lon="3.05733">
        <ele>411</ele>
        <time>2014-08-24T10:28:56Z</time>
      </trkpt>
      <trkpt lat="45.85341" lon="3.05721">
        <ele>410</ele>
        <time>2014-08-24T10:28:58Z</time>
      </trkpt>
      <trkpt lat="45.85356" lon="3.05702">
        <ele>408</ele>
        <time>2014-08-24T10:29:01Z</time>
      </trkpt>
      <trkpt lat="45.85371" lon="3.05684">
        <ele>405</ele>
        <time>2014-08-24T10:29:04Z</time>
      </trkpt>
      <trkpt lat="45.85379" lon="3.05672">
        <ele>403</ele>
        <time>2014-08-24T10:29:06Z</time>
      </trkpt>
      <trkpt lat="45.85386" lon="3.05657">
        <ele>402</ele>
        <time>2014-08-24T10:29:08Z</time>
      </trkpt>
      <trkpt lat="45.85395" lon="3.05642">
        <ele>400</ele>
        <time>2014-08-24T10:29:10Z</time>
      </trkpt>
      <trkpt lat="45.85407" lon="3.05616">
        <ele>399</ele>
        <time>2014-08-24T10:29:13Z</time>
      </trkpt>
      <trkpt lat="45.85416" lon="3.05589">
        <ele>397</ele>
        <time>2014-08-24T10:29:16Z</time>
      </trkpt>
      <trkpt lat="45.85424" lon="3.05564">
        <ele>395</ele>
        <time>2014-08-24T10:29:19Z</time>
      </trkpt>
      <trkpt lat="45.85429" lon="3.05545">
        <ele>393</ele>
        <time>2014-08-24T10:29:22Z</time>
      </trkpt>
      <trkpt lat="45.85436" lon="3.05525">
        <ele>392</ele>
        <time>2014-08-24T10:29:25Z</time>
      </trkpt>
      <trkpt lat="45.85438" lon="3.05517">
        <ele>391</ele>
        <time>2014-08-24T10:29:28Z</time>
      </trkpt>
      <trkpt lat="45.85438" lon="3.05516">
        <ele>390</ele>
        <time>2014-08-24T10:29:30Z</time>
      </trkpt>
      <trkpt lat="45.8544" lon="3.05511">
        <ele>389</ele>
        <time>2014-08-24T10:29:32Z</time>
      </trkpt>
      <trkpt lat="45.85441" lon="3.05509">
        <ele>389</ele>
        <time>2014-08-24T10:29:34Z</time>
      </trkpt>
      <trkpt lat="45.85443" lon="3.05499">
        <ele>389</ele>
        <time>2014-08-24T10:29:37Z</time>
      </trkpt>
      <trkpt lat="45.85445" lon="3.05485">
        <ele>388</ele>
        <time>2014-08-24T10:29:40Z</time>
      </trkpt>
      <trkpt lat="45.85449" lon="3.05472">
        <ele>388</ele>
        <time>2014-08-24T10:29:43Z</time>
      </trkpt>
      <trkpt lat="45.8545" lon="3.05463">
        <ele>387</ele>
        <time>2014-08-24T10:29:45Z</time>
      </trkpt>
      <trkpt lat="45.85452" lon="3.05453">
        <ele>387</ele>
        <time>2014-08-24T10:29:47Z</time>
      </trkpt>
      <trkpt lat="45.85454" lon="3.05436">
        <ele>387</ele>
        <time>2014-08-24T10:29:50Z</time>
      </trkpt>
      <trkpt lat="45.85458" lon="3.05416">
        <ele>386</ele>
        <time>2014-08-24T10:29:53Z</time>
      </trkpt>
      <trkpt lat="45.8546" lon="3.05397">
        <ele>385</ele>
        <time>2014-08-24T10:29:56Z</time>
      </trkpt>
      <trkpt lat="45.85465" lon="3.0538">
        <ele>384</ele>
        <time>2014-08-24T10:29:59Z</time>
      </trkpt>
      <trkpt lat="45.85471" lon="3.05364">
        <ele>384</ele>
        <time>2014-08-24T10:30:02Z</time>
      </trkpt>
      <trkpt lat="45.85476" lon="3.05354">
        <ele>383</ele>
        <time>2014-08-24T10:30:04Z</time>
      </trkpt>
      <trkpt lat="45.8548" lon="3.05346">
        <ele>382</ele>
        <time>2014-08-24T10:30:06Z</time>
      </trkpt>
      <trkpt lat="45.85483" lon="3.05334">
        <ele>381</ele>
        <time>2014-08-24T10:30:08Z</time>
      </trkpt>
      <trkpt lat="45.85487" lon="3.05319">
        <ele>380</ele>
        <time>2014-08-24T10:30:11Z</time>
      </trkpt>
      <trkpt lat="45.8549" lon="3.05307">
        <ele>380</ele>
        <time>2014-08-24T10:30:13Z</time>
      </trkpt>
      <trkpt lat="45.85493" lon="3.05288">
        <ele>379</ele>
        <time>2014-08-24T10:30:16Z</time>
      </trkpt>
      <trkpt lat="45.85493" lon="3.05268">
        <ele>379</ele>
        <time>2014-08-24T10:30:19Z</time>
      </trkpt>
      <trkpt lat="45.85493" lon="3.05248">
        <ele>378</ele>
        <time>2014-08-24T10:30:22Z</time>
      </trkpt>
      <trkpt lat="45.85493" lon="3.05227">
        <ele>378</ele>
        <time>2014-08-24T10:30:25Z</time>
      </trkpt>
      <trkpt lat="45.85493" lon="3.05212">
        <ele>378</ele>
        <time>2014-08-24T10:30:27Z</time>
      </trkpt>
      <trkpt lat="45.85495" lon="3.05187">
        <ele>378</ele>
        <time>2014-08-24T10:30:30Z</time>
      </trkpt>
      <trkpt lat="45.85496" lon="3.05169">
        <ele>378</ele>
        <time>2014-08-24T10:30:32Z</time>
      </trkpt>
      <trkpt lat="45.855" lon="3.05145">
        <ele>378</ele>
        <time>2014-08-24T10:30:35Z</time>
      </trkpt>
      <trkpt lat="45.85503" lon="3.05131">
        <ele>378</ele>
        <time>2014-08-24T10:30:37Z</time>
      </trkpt>
      <trkpt lat="45.85507" lon="3.05113">
        <ele>379</ele>
        <time>2014-08-24T10:30:40Z</time>
      </trkpt>
      <trkpt lat="45.8551" lon="3.05098">
        <ele>379</ele>
        <time>2014-08-24T10:30:43Z</time>
      </trkpt>
      <trkpt lat="45.85511" lon="3.05086">
        <ele>379</ele>
        <time>2014-08-24T10:30:45Z</time>
      </trkpt>
      <trkpt lat="45.8551" lon="3.05073">
        <ele>379</ele>
        <time>2014-08-24T10:30:47Z</time>
      </trkpt>
      <trkpt lat="45.85506" lon="3.05056">
        <ele>379</ele>
        <time>2014-08-24T10:30:50Z</time>
      </trkpt>
      <trkpt lat="45.85504" lon="3.05047">
        <ele>379</ele>
        <time>2014-08-24T10:30:52Z</time>
      </trkpt>
      <trkpt lat="45.85503" lon="3.05039">
        <ele>379</ele>
        <time>2014-08-24T10:30:54Z</time>
      </trkpt>
      <trkpt lat="45.85504" lon="3.05032">
        <ele>379</ele>
        <time>2014-08-24T10:30:56Z</time>
      </trkpt>
      <trkpt lat="45.85505" lon="3.05028">
        <ele>379</ele>
        <time>2014-08-24T10:30:58Z</time>
      </trkpt>
      <trkpt lat="45.85508" lon="3.05025">
        <ele>380</ele>
        <time>2014-08-24T10:31:01Z</time>
      </trkpt>
      <trkpt lat="45.85514" lon="3.05021">
        <ele>380</ele>
        <time>2014-08-24T10:31:04Z</time>
      </trkpt>
      <trkpt lat="45.8552" lon="3.05018">
        <ele>380</ele>
        <time>2014-08-24T10:31:06Z</time>
      </trkpt>
      <trkpt lat="45.85526" lon="3.05014">
        <ele>379</ele>
        <time>2014-08-24T10:31:08Z</time>
      </trkpt>
      <trkpt lat="45.85537" lon="3.05009">
        <ele>379</ele>
        <time>2014-08-24T10:31:11Z</time>
      </trkpt>
      <trkpt lat="45.85549" lon="3.05002">
        <ele>379</ele>
        <time>2014-08-24T10:31:14Z</time>
      </trkpt>
      <trkpt lat="45.85558" lon="3.04998">
        <ele>378</ele>
        <time>2014-08-24T10:31:16Z</time>
      </trkpt>
      <trkpt lat="45.85566" lon="3.04994">
        <ele>378</ele>
        <time>2014-08-24T10:31:18Z</time>
      </trkpt>
      <trkpt lat="45.85575" lon="3.0499">
        <ele>378</ele>
        <time>2014-08-24T10:31:20Z</time>
      </trkpt>
      <trkpt lat="45.85584" lon="3.04984">
        <ele>378</ele>
        <time>2014-08-24T10:31:22Z</time>
      </trkpt>
      <trkpt lat="45.85593" lon="3.04978">
        <ele>377</ele>
        <time>2014-08-24T10:31:24Z</time>
      </trkpt>
      <trkpt lat="45.85606" lon="3.04971">
        <ele>377</ele>
        <time>2014-08-24T10:31:27Z</time>
      </trkpt>
      <trkpt lat="45.85615" lon="3.04966">
        <ele>377</ele>
        <time>2014-08-24T10:31:29Z</time>
      </trkpt>
      <trkpt lat="45.85624" lon="3.04961">
        <ele>376</ele>
        <time>2014-08-24T10:31:31Z</time>
      </trkpt>
      <trkpt lat="45.85634" lon="3.04955">
        <ele>376</ele>
        <time>2014-08-24T10:31:33Z</time>
      </trkpt>
      <trkpt lat="45.85651" lon="3.04944">
        <ele>376</ele>
        <time>2014-08-24T10:31:36Z</time>
      </trkpt>
      <trkpt lat="45.85663" lon="3.04935">
        <ele>376</ele>
        <time>2014-08-24T10:31:38Z</time>
      </trkpt>
      <trkpt lat="45.85679" lon="3.04919">
        <ele>375</ele>
        <time>2014-08-24T10:31:41Z</time>
      </trkpt>
      <trkpt lat="45.85694" lon="3.04903">
        <ele>374</ele>
        <time>2014-08-24T10:31:44Z</time>
      </trkpt>
      <trkpt lat="45.85709" lon="3.04886">
        <ele>373</ele>
        <time>2014-08-24T10:31:47Z</time>
      </trkpt>
      <trkpt lat="45.85725" lon="3.04869">
        <ele>373</ele>
        <time>2014-08-24T10:31:50Z</time>
      </trkpt>
      <trkpt lat="45.85742" lon="3.04852">
        <ele>373</ele>
        <time>2014-08-24T10:31:53Z</time>
      </trkpt>
      <trkpt lat="45.85753" lon="3.04842">
        <ele>373</ele>
        <time>2014-08-24T10:31:55Z</time>
      </trkpt>
      <trkpt lat="45.85771" lon="3.04833">
        <ele>373</ele>
        <time>2014-08-24T10:31:58Z</time>
      </trkpt>
      <trkpt lat="45.85789" lon="3.04827">
        <ele>373</ele>
        <time>2014-08-24T10:32:01Z</time>
      </trkpt>
      <trkpt lat="45.85808" lon="3.04821">
        <ele>372</ele>
        <time>2014-08-24T10:32:04Z</time>
      </trkpt>
      <trkpt lat="45.85821" lon="3.04816">
        <ele>372</ele>
        <time>2014-08-24T10:32:06Z</time>
      </trkpt>
      <trkpt lat="45.85834" lon="3.04811">
        <ele>372</ele>
        <time>2014-08-24T10:32:08Z</time>
      </trkpt>
      <trkpt lat="45.85853" lon="3.04804">
        <ele>372</ele>
        <time>2014-08-24T10:32:11Z</time>
      </trkpt>
      <trkpt lat="45.85865" lon="3.04799">
        <ele>371</ele>
        <time>2014-08-24T10:32:13Z</time>
      </trkpt>
      <trkpt lat="45.85883" lon="3.04794">
        <ele>371</ele>
        <time>2014-08-24T10:32:16Z</time>
      </trkpt>
      <trkpt lat="45.85901" lon="3.04787">
        <ele>371</ele>
        <time>2014-08-24T10:32:19Z</time>
      </trkpt>
      <trkpt lat="45.85918" lon="3.0478">
        <ele>371</ele>
        <time>2014-08-24T10:32:22Z</time>
      </trkpt>
      <trkpt lat="45.85933" lon="3.04771">
        <ele>371</ele>
        <time>2014-08-24T10:32:25Z</time>
      </trkpt>
      <trkpt lat="45.85944" lon="3.04763">
        <ele>371</ele>
        <time>2014-08-24T10:32:27Z</time>
      </trkpt>
      <trkpt lat="45.8596" lon="3.04749">
        <ele>371</ele>
        <time>2014-08-24T10:32:30Z</time>
      </trkpt>
      <trkpt lat="45.8597" lon="3.04739">
        <ele>371</ele>
        <time>2014-08-24T10:32:32Z</time>
      </trkpt>
      <trkpt lat="45.85977" lon="3.04728">
        <ele>370</ele>
        <time>2014-08-24T10:32:34Z</time>
      </trkpt>
      <trkpt lat="45.85987" lon="3.04709">
        <ele>369</ele>
        <time>2014-08-24T10:32:37Z</time>
      </trkpt>
      <trkpt lat="45.85993" lon="3.04689">
        <ele>369</ele>
        <time>2014-08-24T10:32:40Z</time>
      </trkpt>
      <trkpt lat="45.85997" lon="3.04676">
        <ele>369</ele>
        <time>2014-08-24T10:32:42Z</time>
      </trkpt>
      <trkpt lat="45.86002" lon="3.04658">
        <ele>369</ele>
        <time>2014-08-24T10:32:45Z</time>
      </trkpt>
      <trkpt lat="45.86008" lon="3.0464">
        <ele>370</ele>
        <time>2014-08-24T10:32:48Z</time>
      </trkpt>
      <trkpt lat="45.86011" lon="3.04628">
        <ele>370</ele>
        <time>2014-08-24T10:32:50Z</time>
      </trkpt>
      <trkpt lat="45.86015" lon="3.04615">
        <ele>370</ele>
        <time>2014-08-24T10:32:52Z</time>
      </trkpt>
      <trkpt lat="45.86019" lon="3.04604">
        <ele>370</ele>
        <time>2014-08-24T10:32:54Z</time>
      </trkpt>
      <trkpt lat="45.86024" lon="3.04592">
        <ele>370</ele>
        <time>2014-08-24T10:32:56Z</time>
      </trkpt>
      <trkpt lat="45.86032" lon="3.04575">
        <ele>370</ele>
        <time>2014-08-24T10:32:59Z</time>
      </trkpt>
      <trkpt lat="45.86038" lon="3.04562">
        <ele>370</ele>
        <time>2014-08-24T10:33:01Z</time>
      </trkpt>
      <trkpt lat="45.86044" lon="3.04548">
        <ele>370</ele>
        <time>2014-08-24T10:33:03Z</time>
      </trkpt>
      <trkpt lat="45.8605" lon="3.04536">
        <ele>371</ele>
        <time>2014-08-24T10:33:05Z</time>
      </trkpt>
      <trkpt lat="45.86055" lon="3.04522">
        <ele>371</ele>
        <time>2014-08-24T10:33:07Z</time>
      </trkpt>
      <trkpt lat="45.86062" lon="3.04503">
        <ele>371</ele>
        <time>2014-08-24T10:33:10Z</time>
      </trkpt>
      <trkpt lat="45.86067" lon="3.0449">
        <ele>371</ele>
        <time>2014-08-24T10:33:12Z</time>
      </trkpt>
      <trkpt lat="45.86075" lon="3.04473">
        <ele>371</ele>
        <time>2014-08-24T10:33:15Z</time>
      </trkpt>
      <trkpt lat="45.86079" lon="3.04461">
        <ele>371</ele>
        <time>2014-08-24T10:33:17Z</time>
      </trkpt>
      <trkpt lat="45.86087" lon="3.04445">
        <ele>372</ele>
        <time>2014-08-24T10:33:20Z</time>
      </trkpt>
      <trkpt lat="45.86097" lon="3.0443">
        <ele>372</ele>
        <time>2014-08-24T10:33:23Z</time>
      </trkpt>
      <trkpt lat="45.86109" lon="3.04417">
        <ele>373</ele>
        <time>2014-08-24T10:33:26Z</time>
      </trkpt>
      <trkpt lat="45.86121" lon="3.04407">
        <ele>373</ele>
        <time>2014-08-24T10:33:29Z</time>
      </trkpt>
      <trkpt lat="45.86133" lon="3.04397">
        <ele>373</ele>
        <time>2014-08-24T10:33:32Z</time>
      </trkpt>
      <trkpt lat="45.86145" lon="3.04387">
        <ele>374</ele>
        <time>2014-08-24T10:33:35Z</time>
      </trkpt>
      <trkpt lat="45.86153" lon="3.04383">
        <ele>374</ele>
        <time>2014-08-24T10:33:37Z</time>
      </trkpt>
      <trkpt lat="45.86167" lon="3.04378">
        <ele>375</ele>
        <time>2014-08-24T10:33:40Z</time>
      </trkpt>
      <trkpt lat="45.86176" lon="3.04375">
        <ele>375</ele>
        <time>2014-08-24T10:33:42Z</time>
      </trkpt>
      <trkpt lat="45.86185" lon="3.04372">
        <ele>376</ele>
        <time>2014-08-24T10:33:44Z</time>
      </trkpt>
      <trkpt lat="45.86198" lon="3.04364">
        <ele>377</ele>
        <time>2014-08-24T10:33:47Z</time>
      </trkpt>
      <trkpt lat="45.86211" lon="3.04354">
        <ele>378</ele>
        <time>2014-08-24T10:33:50Z</time>
      </trkpt>
      <trkpt lat="45.86224" lon="3.04343">
        <ele>378</ele>
        <time>2014-08-24T10:33:53Z</time>
      </trkpt>
      <trkpt lat="45.86232" lon="3.04336">
        <ele>378</ele>
        <time>2014-08-24T10:33:55Z</time>
      </trkpt>
      <trkpt lat="45.86244" lon="3.04326">
        <ele>379</ele>
        <time>2014-08-24T10:33:58Z</time>
      </trkpt>
      <trkpt lat="45.86257" lon="3.04315">
        <ele>379</ele>
        <time>2014-08-24T10:34:01Z</time>
      </trkpt>
      <trkpt lat="45.86269" lon="3.04304">
        <ele>380</ele>
        <time>2014-08-24T10:34:04Z</time>
      </trkpt>
      <trkpt lat="45.86277" lon="3.04297">
        <ele>380</ele>
        <time>2014-08-24T10:34:06Z</time>
      </trkpt>
      <trkpt lat="45.86284" lon="3.0429">
        <ele>380</ele>
        <time>2014-08-24T10:34:08Z</time>
      </trkpt>
      <trkpt lat="45.86295" lon="3.04281">
        <ele>381</ele>
        <time>2014-08-24T10:34:11Z</time>
      </trkpt>
      <trkpt lat="45.86302" lon="3.04276">
        <ele>381</ele>
        <time>2014-08-24T10:34:13Z</time>
      </trkpt>
      <trkpt lat="45.86309" lon="3.04271">
        <ele>382</ele>
        <time>2014-08-24T10:34:15Z</time>
      </trkpt>
      <trkpt lat="45.86315" lon="3.04265">
        <ele>382</ele>
        <time>2014-08-24T10:34:17Z</time>
      </trkpt>
      <trkpt lat="45.86323" lon="3.04255">
        <ele>383</ele>
        <time>2014-08-24T10:34:20Z</time>
      </trkpt>
      <trkpt lat="45.86328" lon="3.04248">
        <ele>383</ele>
        <time>2014-08-24T10:34:22Z</time>
      </trkpt>
      <trkpt lat="45.86335" lon="3.04237">
        <ele>383</ele>
        <time>2014-08-24T10:34:25Z</time>
      </trkpt>
      <trkpt lat="45.86336" lon="3.0423">
        <ele>383</ele>
        <time>2014-08-24T10:34:28Z</time>
      </trkpt>
      <trkpt lat="45.86351" lon="3.04217">
        <ele>383</ele>
        <time>2014-08-24T10:34:30Z</time>
      </trkpt>
      <trkpt lat="45.86357" lon="3.04204">
        <ele>384</ele>
        <time>2014-08-24T10:34:33Z</time>
      </trkpt>
      <trkpt lat="45.86364" lon="3.0419">
        <ele>384</ele>
        <time>2014-08-24T10:34:36Z</time>
      </trkpt>
      <trkpt lat="45.86367" lon="3.04179">
        <ele>385</ele>
        <time>2014-08-24T10:34:39Z</time>
      </trkpt>
      <trkpt lat="45.86367" lon="3.04171">
        <ele>386</ele>
        <time>2014-08-24T10:34:41Z</time>
      </trkpt>
      <trkpt lat="45.86364" lon="3.0416">
        <ele>387</ele>
        <time>2014-08-24T10:34:44Z</time>
      </trkpt>
      <trkpt lat="45.86361" lon="3.04152">
        <ele>387</ele>
        <time>2014-08-24T10:34:46Z</time>
      </trkpt>
      <trkpt lat="45.86359" lon="3.04144">
        <ele>388</ele>
        <time>2014-08-24T10:34:48Z</time>
      </trkpt>
      <trkpt lat="45.86359" lon="3.04134">
        <ele>388</ele>
        <time>2014-08-24T10:34:51Z</time>
      </trkpt>
      <trkpt lat="45.8636" lon="3.04128">
        <ele>389</ele>
        <time>2014-08-24T10:34:54Z</time>
      </trkpt>
      <trkpt lat="45.86362" lon="3.04124">
        <ele>389</ele>
        <time>2014-08-24T10:34:57Z</time>
      </trkpt>
      <trkpt lat="45.86353" lon="3.04128">
        <ele>389</ele>
        <time>2014-08-24T10:35:01Z</time>
      </trkpt>
      <trkpt lat="45.86354" lon="3.04125">
        <ele>389</ele>
        <time>2014-08-24T10:35:03Z</time>
      </trkpt>
      <trkpt lat="45.86358" lon="3.0412">
        <ele>389</ele>
        <time>2014-08-24T10:35:06Z</time>
      </trkpt>
      <trkpt lat="45.86366" lon="3.04113">
        <ele>389</ele>
        <time>2014-08-24T10:35:09Z</time>
      </trkpt>
      <trkpt lat="45.86372" lon="3.04101">
        <ele>390</ele>
        <time>2014-08-24T10:35:12Z</time>
      </trkpt>
      <trkpt lat="45.86373" lon="3.04092">
        <ele>390</ele>
        <time>2014-08-24T10:35:14Z</time>
      </trkpt>
      <trkpt lat="45.86377" lon="3.04077">
        <ele>391</ele>
        <time>2014-08-24T10:35:17Z</time>
      </trkpt>
      <trkpt lat="45.86382" lon="3.04068">
        <ele>391</ele>
        <time>2014-08-24T10:35:19Z</time>
      </trkpt>
      <trkpt lat="45.8639" lon="3.04057">
        <ele>391</ele>
        <time>2014-08-24T10:35:22Z</time>
      </trkpt>
      <trkpt lat="45.86398" lon="3.04047">
        <ele>392</ele>
        <time>2014-08-24T10:35:25Z</time>
      </trkpt>
      <trkpt lat="45.86405" lon="3.04042">
        <ele>392</ele>
        <time>2014-08-24T10:35:27Z</time>
      </trkpt>
      <trkpt lat="45.86414" lon="3.04037">
        <ele>392</ele>
        <time>2014-08-24T10:35:30Z</time>
      </trkpt>
      <trkpt lat="45.86423" lon="3.04034">
        <ele>392</ele>
        <time>2014-08-24T10:35:33Z</time>
      </trkpt>
      <trkpt lat="45.8643" lon="3.04032">
        <ele>392</ele>
        <time>2014-08-24T10:35:35Z</time>
      </trkpt>
      <trkpt lat="45.8644" lon="3.04029">
        <ele>392</ele>
        <time>2014-08-24T10:35:38Z</time>
      </trkpt>
      <trkpt lat="45.86452" lon="3.04024">
        <ele>393</ele>
        <time>2014-08-24T10:35:41Z</time>
      </trkpt>
      <trkpt lat="45.86464" lon="3.0402">
        <ele>393</ele>
        <time>2014-08-24T10:35:44Z</time>
      </trkpt>
      <trkpt lat="45.86474" lon="3.04017">
        <ele>394</ele>
        <time>2014-08-24T10:35:47Z</time>
      </trkpt>
      <trkpt lat="45.86485" lon="3.04019">
        <ele>395</ele>
        <time>2014-08-24T10:35:50Z</time>
      </trkpt>
      <trkpt lat="45.86492" lon="3.04019">
        <ele>395</ele>
        <time>2014-08-24T10:35:52Z</time>
      </trkpt>
      <trkpt lat="45.86499" lon="3.04017">
        <ele>396</ele>
        <time>2014-08-24T10:35:54Z</time>
      </trkpt>
      <trkpt lat="45.86511" lon="3.04011">
        <ele>396</ele>
        <time>2014-08-24T10:35:57Z</time>
      </trkpt>
      <trkpt lat="45.86519" lon="3.04007">
        <ele>396</ele>
        <time>2014-08-24T10:35:59Z</time>
      </trkpt>
      <trkpt lat="45.86531" lon="3.04002">
        <ele>396</ele>
        <time>2014-08-24T10:36:02Z</time>
      </trkpt>
      <trkpt lat="45.86544" lon="3.03996">
        <ele>397</ele>
        <time>2014-08-24T10:36:05Z</time>
      </trkpt>
      <trkpt lat="45.86553" lon="3.03994">
        <ele>397</ele>
        <time>2014-08-24T10:36:07Z</time>
      </trkpt>
      <trkpt lat="45.86563" lon="3.0399">
        <ele>398</ele>
        <time>2014-08-24T10:36:09Z</time>
      </trkpt>
      <trkpt lat="45.86577" lon="3.03984">
        <ele>398</ele>
        <time>2014-08-24T10:36:12Z</time>
      </trkpt>
      <trkpt lat="45.86587" lon="3.0398">
        <ele>398</ele>
        <time>2014-08-24T10:36:14Z</time>
      </trkpt>
      <trkpt lat="45.86601" lon="3.03973">
        <ele>398</ele>
        <time>2014-08-24T10:36:17Z</time>
      </trkpt>
      <trkpt lat="45.86609" lon="3.03969">
        <ele>398</ele>
        <time>2014-08-24T10:36:19Z</time>
      </trkpt>
      <trkpt lat="45.86622" lon="3.03962">
        <ele>399</ele>
        <time>2014-08-24T10:36:22Z</time>
      </trkpt>
      <trkpt lat="45.86631" lon="3.03957">
        <ele>399</ele>
        <time>2014-08-24T10:36:24Z</time>
      </trkpt>
      <trkpt lat="45.8664" lon="3.03953">
        <ele>399</ele>
        <time>2014-08-24T10:36:26Z</time>
      </trkpt>
      <trkpt lat="45.86653" lon="3.03945">
        <ele>400</ele>
        <time>2014-08-24T10:36:28Z</time>
      </trkpt>
      <trkpt lat="45.86663" lon="3.03941">
        <ele>400</ele>
        <time>2014-08-24T10:36:31Z</time>
      </trkpt>
      <trkpt lat="45.86676" lon="3.03933">
        <ele>400</ele>
        <time>2014-08-24T10:36:34Z</time>
      </trkpt>
      <trkpt lat="45.86685" lon="3.03927">
        <ele>401</ele>
        <time>2014-08-24T10:36:36Z</time>
      </trkpt>
      <trkpt lat="45.86695" lon="3.03922">
        <ele>401</ele>
        <time>2014-08-24T10:36:38Z</time>
      </trkpt>
      <trkpt lat="45.86704" lon="3.03917">
        <ele>401</ele>
        <time>2014-08-24T10:36:40Z</time>
      </trkpt>
      <trkpt lat="45.86718" lon="3.03909">
        <ele>402</ele>
        <time>2014-08-24T10:36:43Z</time>
      </trkpt>
      <trkpt lat="45.86732" lon="3.03901">
        <ele>402</ele>
        <time>2014-08-24T10:36:46Z</time>
      </trkpt>
      <trkpt lat="45.86745" lon="3.03892">
        <ele>402</ele>
        <time>2014-08-24T10:36:49Z</time>
      </trkpt>
      <trkpt lat="45.86754" lon="3.03887">
        <ele>403</ele>
        <time>2014-08-24T10:36:51Z</time>
      </trkpt>
      <trkpt lat="45.86768" lon="3.03879">
        <ele>403</ele>
        <time>2014-08-24T10:36:53Z</time>
      </trkpt>
      <trkpt lat="45.86777" lon="3.03873">
        <ele>404</ele>
        <time>2014-08-24T10:36:55Z</time>
      </trkpt>
      <trkpt lat="45.86786" lon="3.03867">
        <ele>403</ele>
        <time>2014-08-24T10:36:58Z</time>
      </trkpt>
      <trkpt lat="45.86795" lon="3.03861">
        <ele>403</ele>
        <time>2014-08-24T10:37:00Z</time>
      </trkpt>
      <trkpt lat="45.86803" lon="3.03856">
        <ele>404</ele>
        <time>2014-08-24T10:37:02Z</time>
      </trkpt>
      <trkpt lat="45.86815" lon="3.03847">
        <ele>404</ele>
        <time>2014-08-24T10:37:05Z</time>
      </trkpt>
      <trkpt lat="45.86823" lon="3.03841">
        <ele>405</ele>
        <time>2014-08-24T10:37:07Z</time>
      </trkpt>
      <trkpt lat="45.86833" lon="3.03831">
        <ele>406</ele>
        <time>2014-08-24T10:37:09Z</time>
      </trkpt>
      <trkpt lat="45.86839" lon="3.03823">
        <ele>407</ele>
        <time>2014-08-24T10:37:12Z</time>
      </trkpt>
      <trkpt lat="45.86848" lon="3.03812">
        <ele>409</ele>
        <time>2014-08-24T10:37:14Z</time>
      </trkpt>
      <trkpt lat="45.86855" lon="3.03804">
        <ele>410</ele>
        <time>2014-08-24T10:37:16Z</time>
      </trkpt>
      <trkpt lat="45.86861" lon="3.03797">
        <ele>410</ele>
        <time>2014-08-24T10:37:19Z</time>
      </trkpt>
      <trkpt lat="45.86871" lon="3.03787">
        <ele>410</ele>
        <time>2014-08-24T10:37:21Z</time>
      </trkpt>
      <trkpt lat="45.86877" lon="3.03781">
        <ele>410</ele>
        <time>2014-08-24T10:37:24Z</time>
      </trkpt>
      <trkpt lat="45.86887" lon="3.03772">
        <ele>411</ele>
        <time>2014-08-24T10:37:26Z</time>
      </trkpt>
      <trkpt lat="45.86893" lon="3.03766">
        <ele>412</ele>
        <time>2014-08-24T10:37:28Z</time>
      </trkpt>
      <trkpt lat="45.86901" lon="3.03762">
        <ele>412</ele>
        <time>2014-08-24T10:37:30Z</time>
      </trkpt>
      <trkpt lat="45.86908" lon="3.03759">
        <ele>412</ele>
        <time>2014-08-24T10:37:33Z</time>
      </trkpt>
      <trkpt lat="45.86916" lon="3.03759">
        <ele>412</ele>
        <time>2014-08-24T10:37:35Z</time>
      </trkpt>
      <trkpt lat="45.86924" lon="3.0376">
        <ele>412</ele>
        <time>2014-08-24T10:37:37Z</time>
      </trkpt>
      <trkpt lat="45.86929" lon="3.03762">
        <ele>413</ele>
        <time>2014-08-24T10:37:39Z</time>
      </trkpt>
      <trkpt lat="45.86935" lon="3.03765">
        <ele>414</ele>
        <time>2014-08-24T10:37:41Z</time>
      </trkpt>
      <trkpt lat="45.8694" lon="3.03768">
        <ele>414</ele>
        <time>2014-08-24T10:37:44Z</time>
      </trkpt>
      <trkpt lat="45.86949" lon="3.03773">
        <ele>415</ele>
        <time>2014-08-24T10:37:46Z</time>
      </trkpt>
      <trkpt lat="45.86955" lon="3.03777">
        <ele>416</ele>
        <time>2014-08-24T10:37:49Z</time>
      </trkpt>
      <trkpt lat="45.86965" lon="3.03781">
        <ele>417</ele>
        <time>2014-08-24T10:37:51Z</time>
      </trkpt>
      <trkpt lat="45.86971" lon="3.0378">
        <ele>418</ele>
        <time>2014-08-24T10:37:53Z</time>
      </trkpt>
      <trkpt lat="45.86976" lon="3.03776">
        <ele>420</ele>
        <time>2014-08-24T10:37:55Z</time>
      </trkpt>
      <trkpt lat="45.86979" lon="3.0377">
        <ele>421</ele>
        <time>2014-08-24T10:37:57Z</time>
      </trkpt>
      <trkpt lat="45.86982" lon="3.03763">
        <ele>422</ele>
        <time>2014-08-24T10:37:59Z</time>
      </trkpt>
      <trkpt lat="45.86986" lon="3.03755">
        <ele>423</ele>
        <time>2014-08-24T10:38:01Z</time>
      </trkpt>
      <trkpt lat="45.86989" lon="3.03748">
        <ele>424</ele>
        <time>2014-08-24T10:38:04Z</time>
      </trkpt>
      <trkpt lat="45.86994" lon="3.03736">
        <ele>424</ele>
        <time>2014-08-24T10:38:06Z</time>
      </trkpt>
      <trkpt lat="45.86997" lon="3.03729">
        <ele>425</ele>
        <time>2014-08-24T10:38:08Z</time>
      </trkpt>
      <trkpt lat="45.86999" lon="3.03723">
        <ele>425</ele>
        <time>2014-08-24T10:38:10Z</time>
      </trkpt>
      <trkpt lat="45.87001" lon="3.03717">
        <ele>425</ele>
        <time>2014-08-24T10:38:12Z</time>
      </trkpt>
      <trkpt lat="45.87003" lon="3.03713">
        <ele>426</ele>
        <time>2014-08-24T10:38:14Z</time>
      </trkpt>
      <trkpt lat="45.87005" lon="3.03709">
        <ele>426</ele>
        <time>2014-08-24T10:38:17Z</time>
      </trkpt>
      <trkpt lat="45.87007" lon="3.03704">
        <ele>426</ele>
        <time>2014-08-24T10:38:19Z</time>
      </trkpt>
      <trkpt lat="45.87011" lon="3.03697">
        <ele>426</ele>
        <time>2014-08-24T10:38:21Z</time>
      </trkpt>
      <trkpt lat="45.87014" lon="3.03694">
        <ele>425</ele>
        <time>2014-08-24T10:38:23Z</time>
      </trkpt>
      <trkpt lat="45.87016" lon="3.03693">
        <ele>425</ele>
        <time>2014-08-24T10:38:25Z</time>
      </trkpt>
      <trkpt lat="45.87021" lon="3.03686">
        <ele>425</ele>
        <time>2014-08-24T10:38:28Z</time>
      </trkpt>
      <trkpt lat="45.87025" lon="3.0368">
        <ele>425</ele>
        <time>2014-08-24T10:38:31Z</time>
      </trkpt>
      <trkpt lat="45.87031" lon="3.0368">
        <ele>424</ele>
        <time>2014-08-24T10:38:33Z</time>
      </trkpt>
      <trkpt lat="45.87042" lon="3.0368">
        <ele>424</ele>
        <time>2014-08-24T10:38:36Z</time>
      </trkpt>
      <trkpt lat="45.87051" lon="3.03681">
        <ele>424</ele>
        <time>2014-08-24T10:38:38Z</time>
      </trkpt>
      <trkpt lat="45.87059" lon="3.03683">
        <ele>424</ele>
        <time>2014-08-24T10:38:40Z</time>
      </trkpt>
      <trkpt lat="45.87071" lon="3.03684">
        <ele>424</ele>
        <time>2014-08-24T10:38:43Z</time>
      </trkpt>
      <trkpt lat="45.87079" lon="3.03684">
        <ele>424</ele>
        <time>2014-08-24T10:38:45Z</time>
      </trkpt>
      <trkpt lat="45.87091" lon="3.03685">
        <ele>424</ele>
        <time>2014-08-24T10:38:48Z</time>
      </trkpt>
      <trkpt lat="45.87104" lon="3.03685">
        <ele>424</ele>
        <time>2014-08-24T10:38:51Z</time>
      </trkpt>
      <trkpt lat="45.87111" lon="3.03685">
        <ele>425</ele>
        <time>2014-08-24T10:38:53Z</time>
      </trkpt>
      <trkpt lat="45.87119" lon="3.03685">
        <ele>425</ele>
        <time>2014-08-24T10:38:55Z</time>
      </trkpt>
      <trkpt lat="45.87129" lon="3.03684">
        <ele>425</ele>
        <time>2014-08-24T10:38:58Z</time>
      </trkpt>
      <trkpt lat="45.87135" lon="3.03684">
        <ele>425</ele>
        <time>2014-08-24T10:39:00Z</time>
      </trkpt>
      <trkpt lat="45.87143" lon="3.03684">
        <ele>425</ele>
        <time>2014-08-24T10:39:02Z</time>
      </trkpt>
      <trkpt lat="45.8715" lon="3.03685">
        <ele>425</ele>
        <time>2014-08-24T10:39:04Z</time>
      </trkpt>
      <trkpt lat="45.87163" lon="3.03691">
        <ele>425</ele>
        <time>2014-08-24T10:39:07Z</time>
      </trkpt>
      <trkpt lat="45.8717" lon="3.03695">
        <ele>425</ele>
        <time>2014-08-24T10:39:09Z</time>
      </trkpt>
      <trkpt lat="45.87178" lon="3.03699">
        <ele>424</ele>
        <time>2014-08-24T10:39:11Z</time>
      </trkpt>
      <trkpt lat="45.87187" lon="3.03704">
        <ele>424</ele>
        <time>2014-08-24T10:39:13Z</time>
      </trkpt>
      <trkpt lat="45.87199" lon="3.03713">
        <ele>423</ele>
        <time>2014-08-24T10:39:16Z</time>
      </trkpt>
      <trkpt lat="45.8721" lon="3.03723">
        <ele>422</ele>
        <time>2014-08-24T10:39:19Z</time>
      </trkpt>
      <trkpt lat="45.87216" lon="3.03728">
        <ele>423</ele>
        <time>2014-08-24T10:39:21Z</time>
      </trkpt>
      <trkpt lat="45.87221" lon="3.03733">
        <ele>422</ele>
        <time>2014-08-24T10:39:23Z</time>
      </trkpt>
      <trkpt lat="45.87226" lon="3.03737">
        <ele>423</ele>
        <time>2014-08-24T10:39:25Z</time>
      </trkpt>
      <trkpt lat="45.87231" lon="3.03742">
        <ele>423</ele>
        <time>2014-08-24T10:39:27Z</time>
      </trkpt>
      <trkpt lat="45.8724" lon="3.03748">
        <ele>423</ele>
        <time>2014-08-24T10:39:30Z</time>
      </trkpt>
      <trkpt lat="45.87248" lon="3.03751">
        <ele>424</ele>
        <time>2014-08-24T10:39:33Z</time>
      </trkpt>
      <trkpt lat="45.87252" lon="3.03749">
        <ele>424</ele>
        <time>2014-08-24T10:39:36Z</time>
      </trkpt>
      <trkpt lat="45.87253" lon="3.03744">
        <ele>424</ele>
        <time>2014-08-24T10:39:38Z</time>
      </trkpt>
      <trkpt lat="45.87253" lon="3.03739">
        <ele>425</ele>
        <time>2014-08-24T10:39:40Z</time>
      </trkpt>
      <trkpt lat="45.87256" lon="3.03733">
        <ele>425</ele>
        <time>2014-08-24T10:39:42Z</time>
      </trkpt>
      <trkpt lat="45.8726" lon="3.03727">
        <ele>426</ele>
        <time>2014-08-24T10:39:44Z</time>
      </trkpt>
      <trkpt lat="45.87263" lon="3.03722">
        <ele>426</ele>
        <time>2014-08-24T10:39:46Z</time>
      </trkpt>
      <trkpt lat="45.87267" lon="3.03713">
        <ele>427</ele>
        <time>2014-08-24T10:39:49Z</time>
      </trkpt>
      <trkpt lat="45.87274" lon="3.03702">
        <ele>427</ele>
        <time>2014-08-24T10:39:52Z</time>
      </trkpt>
      <trkpt lat="45.87279" lon="3.03695">
        <ele>428</ele>
        <time>2014-08-24T10:39:54Z</time>
      </trkpt>
      <trkpt lat="45.87282" lon="3.03691">
        <ele>428</ele>
        <time>2014-08-24T10:39:56Z</time>
      </trkpt>
      <trkpt lat="45.87286" lon="3.03684">
        <ele>429</ele>
        <time>2014-08-24T10:39:58Z</time>
      </trkpt>
      <trkpt lat="45.8729" lon="3.03678">
        <ele>430</ele>
        <time>2014-08-24T10:40:00Z</time>
      </trkpt>
      <trkpt lat="45.87296" lon="3.0367">
        <ele>430</ele>
        <time>2014-08-24T10:40:03Z</time>
      </trkpt>
      <trkpt lat="45.87301" lon="3.03662">
        <ele>431</ele>
        <time>2014-08-24T10:40:06Z</time>
      </trkpt>
      <trkpt lat="45.87303" lon="3.03658">
        <ele>432</ele>
        <time>2014-08-24T10:40:08Z</time>
      </trkpt>
      <trkpt lat="45.87304" lon="3.03652">
        <ele>432</ele>
        <time>2014-08-24T10:40:10Z</time>
      </trkpt>
      <trkpt lat="45.87305" lon="3.03646">
        <ele>432</ele>
        <time>2014-08-24T10:40:12Z</time>
      </trkpt>
      <trkpt lat="45.87305" lon="3.03641">
        <ele>433</ele>
        <time>2014-08-24T10:40:14Z</time>
      </trkpt>
      <trkpt lat="45.87303" lon="3.03636">
        <ele>433</ele>
        <time>2014-08-24T10:40:16Z</time>
      </trkpt>
      <trkpt lat="45.87301" lon="3.03631">
        <ele>433</ele>
        <time>2014-08-24T10:40:18Z</time>
      </trkpt>
      <trkpt lat="45.87299" lon="3.03624">
        <ele>434</ele>
        <time>2014-08-24T10:40:21Z</time>
      </trkpt>
      <trkpt lat="45.87298" lon="3.03615">
        <ele>434</ele>
        <time>2014-08-24T10:40:24Z</time>
      </trkpt>
      <trkpt lat="45.87297" lon="3.03609">
        <ele>435</ele>
        <time>2014-08-24T10:40:26Z</time>
      </trkpt>
      <trkpt lat="45.87296" lon="3.03604">
        <ele>436</ele>
        <time>2014-08-24T10:40:28Z</time>
      </trkpt>
      <trkpt lat="45.87295" lon="3.03599">
        <ele>436</ele>
        <time>2014-08-24T10:40:30Z</time>
      </trkpt>
      <trkpt lat="45.87294" lon="3.03594">
        <ele>437</ele>
        <time>2014-08-24T10:40:32Z</time>
      </trkpt>
      <trkpt lat="45.87292" lon="3.03589">
        <ele>438</ele>
        <time>2014-08-24T10:40:34Z</time>
      </trkpt>
      <trkpt lat="45.87291" lon="3.03585">
        <ele>438</ele>
        <time>2014-08-24T10:40:36Z</time>
      </trkpt>
      <trkpt lat="45.8729" lon="3.03578">
        <ele>438</ele>
        <time>2014-08-24T10:40:39Z</time>
      </trkpt>
      <trkpt lat="45.87288" lon="3.03573">
        <ele>439</ele>
        <time>2014-08-24T10:40:41Z</time>
      </trkpt>
      <trkpt lat="45.87286" lon="3.03567">
        <ele>439</ele>
        <time>2014-08-24T10:40:43Z</time>
      </trkpt>
      <trkpt lat="45.87283" lon="3.03562">
        <ele>439</ele>
        <time>2014-08-24T10:40:45Z</time>
      </trkpt>
      <trkpt lat="45.8728" lon="3.03557">
        <ele>440</ele>
        <time>2014-08-24T10:40:47Z</time>
      </trkpt>
      <trkpt lat="45.87277" lon="3.03553">
        <ele>440</ele>
        <time>2014-08-24T10:40:49Z</time>
      </trkpt>
      <trkpt lat="45.87274" lon="3.03549">
        <ele>440</ele>
        <time>2014-08-24T10:40:52Z</time>
      </trkpt>
      <trkpt lat="45.87273" lon="3.0355">
        <ele>441</ele>
        <time>2014-08-24T10:40:54Z</time>
      </trkpt>
      <trkpt lat="45.87269" lon="3.03552">
        <ele>441</ele>
        <time>2014-08-24T10:40:57Z</time>
      </trkpt>
      <trkpt lat="45.87265" lon="3.03548">
        <ele>441</ele>
        <time>2014-08-24T10:40:59Z</time>
      </trkpt>
      <trkpt lat="45.8726" lon="3.03546">
        <ele>441</ele>
        <time>2014-08-24T10:41:01Z</time>
      </trkpt>
      <trkpt lat="45.87255" lon="3.03543">
        <ele>441</ele>
        <time>2014-08-24T10:41:03Z</time>
      </trkpt>
      <trkpt lat="45.8725" lon="3.0354">
        <ele>442</ele>
        <time>2014-08-24T10:41:05Z</time>
      </trkpt>
      <trkpt lat="45.87246" lon="3.03538">
        <ele>442</ele>
        <time>2014-08-24T10:41:07Z</time>
      </trkpt>
      <trkpt lat="45.87238" lon="3.03534">
        <ele>443</ele>
        <time>2014-08-24T10:41:10Z</time>
      </trkpt>
      <trkpt lat="45.87233" lon="3.03532">
        <ele>443</ele>
        <time>2014-08-24T10:41:12Z</time>
      </trkpt>
      <trkpt lat="45.87228" lon="3.0353">
        <ele>444</ele>
        <time>2014-08-24T10:41:14Z</time>
      </trkpt>
      <trkpt lat="45.87223" lon="3.03527">
        <ele>445</ele>
        <time>2014-08-24T10:41:16Z</time>
      </trkpt>
      <trkpt lat="45.87218" lon="3.03523">
        <ele>446</ele>
        <time>2014-08-24T10:41:18Z</time>
      </trkpt>
      <trkpt lat="45.87214" lon="3.03519">
        <ele>446</ele>
        <time>2014-08-24T10:41:20Z</time>
      </trkpt>
      <trkpt lat="45.87208" lon="3.03512">
        <ele>447</ele>
        <time>2014-08-24T10:41:23Z</time>
      </trkpt>
      <trkpt lat="45.87205" lon="3.03506">
        <ele>448</ele>
        <time>2014-08-24T10:41:25Z</time>
      </trkpt>
      <trkpt lat="45.87204" lon="3.03501">
        <ele>448</ele>
        <time>2014-08-24T10:41:27Z</time>
      </trkpt>
      <trkpt lat="45.87203" lon="3.03495">
        <ele>449</ele>
        <time>2014-08-24T10:41:29Z</time>
      </trkpt>
      <trkpt lat="45.87204" lon="3.0349">
        <ele>450</ele>
        <time>2014-08-24T10:41:31Z</time>
      </trkpt>
      <trkpt lat="45.87204" lon="3.03484">
        <ele>450</ele>
        <time>2014-08-24T10:41:33Z</time>
      </trkpt>
      <trkpt lat="45.87204" lon="3.03477">
        <ele>451</ele>
        <time>2014-08-24T10:41:36Z</time>
      </trkpt>
      <trkpt lat="45.87204" lon="3.03472">
        <ele>452</ele>
        <time>2014-08-24T10:41:38Z</time>
      </trkpt>
      <trkpt lat="45.87205" lon="3.03468">
        <ele>453</ele>
        <time>2014-08-24T10:41:40Z</time>
      </trkpt>
      <trkpt lat="45.87206" lon="3.03459">
        <ele>454</ele>
        <time>2014-08-24T10:41:43Z</time>
      </trkpt>
      <trkpt lat="45.87207" lon="3.03452">
        <ele>455</ele>
        <time>2014-08-24T10:41:45Z</time>
      </trkpt>
      <trkpt lat="45.8721" lon="3.03446">
        <ele>456</ele>
        <time>2014-08-24T10:41:47Z</time>
      </trkpt>
      <trkpt lat="45.87214" lon="3.03435">
        <ele>457</ele>
        <time>2014-08-24T10:41:50Z</time>
      </trkpt>
      <trkpt lat="45.87216" lon="3.0343">
        <ele>458</ele>
        <time>2014-08-24T10:41:52Z</time>
      </trkpt>
      <trkpt lat="45.87219" lon="3.03422">
        <ele>459</ele>
        <time>2014-08-24T10:41:55Z</time>
      </trkpt>
      <trkpt lat="45.8722" lon="3.03417">
        <ele>460</ele>
        <time>2014-08-24T10:41:57Z</time>
      </trkpt>
      <trkpt lat="45.87221" lon="3.03412">
        <ele>461</ele>
        <time>2014-08-24T10:41:59Z</time>
      </trkpt>
      <trkpt lat="45.87221" lon="3.03405">
        <ele>462</ele>
        <time>2014-08-24T10:42:02Z</time>
      </trkpt>
      <trkpt lat="45.87218" lon="3.03401">
        <ele>463</ele>
        <time>2014-08-24T10:42:05Z</time>
      </trkpt>
      <trkpt lat="45.87216" lon="3.03398">
        <ele>463</ele>
        <time>2014-08-24T10:42:07Z</time>
      </trkpt>
      <trkpt lat="45.87215" lon="3.03393">
        <ele>464</ele>
        <time>2014-08-24T10:42:09Z</time>
      </trkpt>
      <trkpt lat="45.87217" lon="3.03391">
        <ele>464</ele>
        <time>2014-08-24T10:42:12Z</time>
      </trkpt>
      <trkpt lat="45.87222" lon="3.03391">
        <ele>465</ele>
        <time>2014-08-24T10:42:15Z</time>
      </trkpt>
      <trkpt lat="45.87225" lon="3.03389">
        <ele>466</ele>
        <time>2014-08-24T10:42:17Z</time>
      </trkpt>
      <trkpt lat="45.87228" lon="3.03387">
        <ele>466</ele>
        <time>2014-08-24T10:42:19Z</time>
      </trkpt>
      <trkpt lat="45.87233" lon="3.03385">
        <ele>467</ele>
        <time>2014-08-24T10:42:22Z</time>
      </trkpt>
      <trkpt lat="45.87236" lon="3.03383">
        <ele>468</ele>
        <time>2014-08-24T10:42:24Z</time>
      </trkpt>
      <trkpt lat="45.8724" lon="3.03381">
        <ele>468</ele>
        <time>2014-08-24T10:42:27Z</time>
      </trkpt>
      <trkpt lat="45.87242" lon="3.03379">
        <ele>469</ele>
        <time>2014-08-24T10:42:29Z</time>
      </trkpt>
      <trkpt lat="45.87247" lon="3.03376">
        <ele>470</ele>
        <time>2014-08-24T10:42:32Z</time>
      </trkpt>
      <trkpt lat="45.87251" lon="3.03374">
        <ele>471</ele>
        <time>2014-08-24T10:42:34Z</time>
      </trkpt>
      <trkpt lat="45.87255" lon="3.0337">
        <ele>472</ele>
        <time>2014-08-24T10:42:36Z</time>
      </trkpt>
      <trkpt lat="45.87259" lon="3.03367">
        <ele>473</ele>
        <time>2014-08-24T10:42:38Z</time>
      </trkpt>
      <trkpt lat="45.87263" lon="3.03362">
        <ele>474</ele>
        <time>2014-08-24T10:42:41Z</time>
      </trkpt>
      <trkpt lat="45.87269" lon="3.03357">
        <ele>475</ele>
        <time>2014-08-24T10:42:44Z</time>
      </trkpt>
      <trkpt lat="45.87272" lon="3.03355">
        <ele>475</ele>
        <time>2014-08-24T10:42:46Z</time>
      </trkpt>
      <trkpt lat="45.87276" lon="3.03353">
        <ele>476</ele>
        <time>2014-08-24T10:42:48Z</time>
      </trkpt>
      <trkpt lat="45.87279" lon="3.03351">
        <ele>476</ele>
        <time>2014-08-24T10:42:50Z</time>
      </trkpt>
      <trkpt lat="45.87282" lon="3.03349">
        <ele>477</ele>
        <time>2014-08-24T10:42:52Z</time>
      </trkpt>
      <trkpt lat="45.87286" lon="3.03348">
        <ele>477</ele>
        <time>2014-08-24T10:42:54Z</time>
      </trkpt>
      <trkpt lat="45.87286" lon="3.03356">
        <ele>478</ele>
        <time>2014-08-24T10:42:57Z</time>
      </trkpt>
      <trkpt lat="45.87283" lon="3.03359">
        <ele>478</ele>
        <time>2014-08-24T10:42:59Z</time>
      </trkpt>
      <trkpt lat="45.8728" lon="3.03365">
        <ele>479</ele>
        <time>2014-08-24T10:43:01Z</time>
      </trkpt>
      <trkpt lat="45.87276" lon="3.03372">
        <ele>478</ele>
        <time>2014-08-24T10:43:03Z</time>
      </trkpt>
      <trkpt lat="45.87268" lon="3.0338">
        <ele>478</ele>
        <time>2014-08-24T10:43:06Z</time>
      </trkpt>
      <trkpt lat="45.87266" lon="3.03385">
        <ele>478</ele>
        <time>2014-08-24T10:43:08Z</time>
      </trkpt>
      <trkpt lat="45.87266" lon="3.03389">
        <ele>477</ele>
        <time>2014-08-24T10:43:10Z</time>
      </trkpt>
      <trkpt lat="45.87267" lon="3.0339">
        <ele>477</ele>
        <time>2014-08-24T10:43:13Z</time>
      </trkpt>
      <trkpt lat="45.87273" lon="3.03388">
        <ele>477</ele>
        <time>2014-08-24T10:43:15Z</time>
      </trkpt>
      <trkpt lat="45.87275" lon="3.03393">
        <ele>477</ele>
        <time>2014-08-24T10:43:18Z</time>
      </trkpt>
      <trkpt lat="45.87276" lon="3.03398">
        <ele>477</ele>
        <time>2014-08-24T10:43:20Z</time>
      </trkpt>
      <trkpt lat="45.87277" lon="3.03402">
        <ele>478</ele>
        <time>2014-08-24T10:43:22Z</time>
      </trkpt>
      <trkpt lat="45.87279" lon="3.03411">
        <ele>478</ele>
        <time>2014-08-24T10:43:25Z</time>
      </trkpt>
      <trkpt lat="45.87281" lon="3.03416">
        <ele>479</ele>
        <time>2014-08-24T10:43:27Z</time>
      </trkpt>
      <trkpt lat="45.87282" lon="3.03421">
        <ele>479</ele>
        <time>2014-08-24T10:43:29Z</time>
      </trkpt>
      <trkpt lat="45.87283" lon="3.03427">
        <ele>480</ele>
        <time>2014-08-24T10:43:31Z</time>
      </trkpt>
      <trkpt lat="45.87285" lon="3.03432">
        <ele>481</ele>
        <time>2014-08-24T10:43:33Z</time>
      </trkpt>
      <trkpt lat="45.87288" lon="3.03437">
        <ele>482</ele>
        <time>2014-08-24T10:43:35Z</time>
      </trkpt>
      <trkpt lat="45.8729" lon="3.03441">
        <ele>482</ele>
        <time>2014-08-24T10:43:37Z</time>
      </trkpt>
      <trkpt lat="45.87291" lon="3.03446">
        <ele>483</ele>
        <time>2014-08-24T10:43:39Z</time>
      </trkpt>
      <trkpt lat="45.87293" lon="3.03447">
        <ele>484</ele>
        <time>2014-08-24T10:43:41Z</time>
      </trkpt>
      <trkpt lat="45.87297" lon="3.03444">
        <ele>484</ele>
        <time>2014-08-24T10:43:44Z</time>
      </trkpt>
      <trkpt lat="45.87297" lon="3.03441">
        <ele>485</ele>
        <time>2014-08-24T10:43:46Z</time>
      </trkpt>
      <trkpt lat="45.87298" lon="3.03437">
        <ele>485</ele>
        <time>2014-08-24T10:43:48Z</time>
      </trkpt>
      <trkpt lat="45.87299" lon="3.03433">
        <ele>486</ele>
        <time>2014-08-24T10:43:50Z</time>
      </trkpt>
      <trkpt lat="45.87301" lon="3.0343">
        <ele>487</ele>
        <time>2014-08-24T10:43:52Z</time>
      </trkpt>
      <trkpt lat="45.87303" lon="3.03426">
        <ele>487</ele>
        <time>2014-08-24T10:43:54Z</time>
      </trkpt>
      <trkpt lat="45.87305" lon="3.03422">
        <ele>488</ele>
        <time>2014-08-24T10:43:56Z</time>
      </trkpt>
      <trkpt lat="45.87308" lon="3.03427">
        <ele>488</ele>
        <time>2014-08-24T10:43:59Z</time>
      </trkpt>
      <trkpt lat="45.87308" lon="3.03431">
        <ele>489</ele>
        <time>2014-08-24T10:44:01Z</time>
      </trkpt>
      <trkpt lat="45.87308" lon="3.03435">
        <ele>490</ele>
        <time>2014-08-24T10:44:03Z</time>
      </trkpt>
      <trkpt lat="45.87308" lon="3.03439">
        <ele>490</ele>
        <time>2014-08-24T10:44:05Z</time>
      </trkpt>
      <trkpt lat="45.8731" lon="3.03447">
        <ele>491</ele>
        <time>2014-08-24T10:44:08Z</time>
      </trkpt>
      <trkpt lat="45.87312" lon="3.0345">
        <ele>491</ele>
        <time>2014-08-24T10:44:10Z</time>
      </trkpt>
      <trkpt lat="45.87314" lon="3.03454">
        <ele>491</ele>
        <time>2014-08-24T10:44:12Z</time>
      </trkpt>
      <trkpt lat="45.87316" lon="3.03457">
        <ele>492</ele>
        <time>2014-08-24T10:44:14Z</time>
      </trkpt>
      <trkpt lat="45.87318" lon="3.03461">
        <ele>493</ele>
        <time>2014-08-24T10:44:17Z</time>
      </trkpt>
      <trkpt lat="45.8732" lon="3.03463">
        <ele>494</ele>
        <time>2014-08-24T10:44:19Z</time>
      </trkpt>
      <trkpt lat="45.8732" lon="3.03466">
        <ele>494</ele>
        <time>2014-08-24T10:44:21Z</time>
      </trkpt>
      <trkpt lat="45.87323" lon="3.03467">
        <ele>494</ele>
        <time>2014-08-24T10:44:23Z</time>
      </trkpt>
      <trkpt lat="45.87326" lon="3.03466">
        <ele>495</ele>
        <time>2014-08-24T10:44:26Z</time>
      </trkpt>
      <trkpt lat="45.87327" lon="3.03466">
        <ele>495</ele>
        <time>2014-08-24T10:44:28Z</time>
      </trkpt>
      <trkpt lat="45.87327" lon="3.03466">
        <ele>495</ele>
        <time>2014-08-24T10:44:30Z</time>
      </trkpt>
      <trkpt lat="45.87328" lon="3.03467">
        <ele>495</ele>
        <time>2014-08-24T10:44:34Z</time>
      </trkpt>
      <trkpt lat="45.87328" lon="3.0347">
        <ele>495</ele>
        <time>2014-08-24T10:44:36Z</time>
      </trkpt>
      <trkpt lat="45.87328" lon="3.03472">
        <ele>495</ele>
        <time>2014-08-24T10:44:39Z</time>
      </trkpt>
      <trkpt lat="45.87325" lon="3.0347">
        <ele>495</ele>
        <time>2014-08-24T10:44:42Z</time>
      </trkpt>
      <trkpt lat="45.87321" lon="3.03466">
        <ele>494</ele>
        <time>2014-08-24T10:44:44Z</time>
      </trkpt>
      <trkpt lat="45.8732" lon="3.03457">
        <ele>494</ele>
        <time>2014-08-24T10:44:47Z</time>
      </trkpt>
      <trkpt lat="45.87321" lon="3.03452">
        <ele>494</ele>
        <time>2014-08-24T10:44:49Z</time>
      </trkpt>
      <trkpt lat="45.87322" lon="3.03447">
        <ele>494</ele>
        <time>2014-08-24T10:44:51Z</time>
      </trkpt>
      <trkpt lat="45.87325" lon="3.03441">
        <ele>495</ele>
        <time>2014-08-24T10:44:54Z</time>
      </trkpt>
      <trkpt lat="45.87329" lon="3.0344">
        <ele>496</ele>
        <time>2014-08-24T10:44:56Z</time>
      </trkpt>
      <trkpt lat="45.87333" lon="3.0344">
        <ele>498</ele>
        <time>2014-08-24T10:44:58Z</time>
      </trkpt>
      <trkpt lat="45.87336" lon="3.03442">
        <ele>499</ele>
        <time>2014-08-24T10:45:00Z</time>
      </trkpt>
      <trkpt lat="45.8734" lon="3.03443">
        <ele>500</ele>
        <time>2014-08-24T10:45:02Z</time>
      </trkpt>
      <trkpt lat="45.87345" lon="3.03445">
        <ele>501</ele>
        <time>2014-08-24T10:45:05Z</time>
      </trkpt>
      <trkpt lat="45.87351" lon="3.03446">
        <ele>502</ele>
        <time>2014-08-24T10:45:08Z</time>
      </trkpt>
      <trkpt lat="45.87356" lon="3.03449">
        <ele>503</ele>
        <time>2014-08-24T10:45:11Z</time>
      </trkpt>
      <trkpt lat="45.87359" lon="3.03453">
        <ele>504</ele>
        <time>2014-08-24T10:45:14Z</time>
      </trkpt>
      <trkpt lat="45.87363" lon="3.03457">
        <ele>505</ele>
        <time>2014-08-24T10:45:17Z</time>
      </trkpt>
      <trkpt lat="45.87364" lon="3.03458">
        <ele>506</ele>
        <time>2014-08-24T10:45:19Z</time>
      </trkpt>
      <trkpt lat="45.87365" lon="3.03458">
        <ele>507</ele>
        <time>2014-08-24T10:45:23Z</time>
      </trkpt>
      <trkpt lat="45.87366" lon="3.03457">
        <ele>507</ele>
        <time>2014-08-24T10:45:25Z</time>
      </trkpt>
      <trkpt lat="45.87367" lon="3.03457">
        <ele>507</ele>
        <time>2014-08-24T10:45:27Z</time>
      </trkpt>
      <trkpt lat="45.87369" lon="3.03457">
        <ele>508</ele>
        <time>2014-08-24T10:45:29Z</time>
      </trkpt>
      <trkpt lat="45.8737" lon="3.03458">
        <ele>508</ele>
        <time>2014-08-24T10:45:31Z</time>
      </trkpt>
      <trkpt lat="45.87371" lon="3.03459">
        <ele>509</ele>
        <time>2014-08-24T10:45:34Z</time>
      </trkpt>
      <trkpt lat="45.87371" lon="3.03459">
        <ele>509</ele>
        <time>2014-08-24T10:45:37Z</time>
      </trkpt>
      <trkpt lat="45.87371" lon="3.03459">
        <ele>509</ele>
        <time>2014-08-24T10:45:40Z</time>
      </trkpt>
      <trkpt lat="45.87375" lon="3.03462">
        <ele>509</ele>
        <time>2014-08-24T10:45:43Z</time>
      </trkpt>
      <trkpt lat="45.8738" lon="3.03465">
        <ele>510</ele>
        <time>2014-08-24T10:45:46Z</time>
      </trkpt>
      <trkpt lat="45.87383" lon="3.03466">
        <ele>511</ele>
        <time>2014-08-24T10:45:48Z</time>
      </trkpt>
      <trkpt lat="45.87387" lon="3.03468">
        <ele>513</ele>
        <time>2014-08-24T10:45:51Z</time>
      </trkpt>
      <trkpt lat="45.8739" lon="3.03471">
        <ele>514</ele>
        <time>2014-08-24T10:45:54Z</time>
      </trkpt>
      <trkpt lat="45.87394" lon="3.03472">
        <ele>514</ele>
        <time>2014-08-24T10:45:57Z</time>
      </trkpt>
      <trkpt lat="45.87398" lon="3.03471">
        <ele>515</ele>
        <time>2014-08-24T10:46:00Z</time>
      </trkpt>
      <trkpt lat="45.87401" lon="3.03467">
        <ele>516</ele>
        <time>2014-08-24T10:46:03Z</time>
      </trkpt>
      <trkpt lat="45.87403" lon="3.03465">
        <ele>517</ele>
        <time>2014-08-24T10:46:05Z</time>
      </trkpt>
      <trkpt lat="45.87407" lon="3.03466">
        <ele>518</ele>
        <time>2014-08-24T10:46:08Z</time>
      </trkpt>
      <trkpt lat="45.87409" lon="3.03467">
        <ele>518</ele>
        <time>2014-08-24T10:46:10Z</time>
      </trkpt>
      <trkpt lat="45.87412" lon="3.03468">
        <ele>519</ele>
        <time>2014-08-24T10:46:12Z</time>
      </trkpt>
      <trkpt lat="45.87416" lon="3.03469">
        <ele>519</ele>
        <time>2014-08-24T10:46:15Z</time>
      </trkpt>
      <trkpt lat="45.87419" lon="3.03468">
        <ele>520</ele>
        <time>2014-08-24T10:46:17Z</time>
      </trkpt>
      <trkpt lat="45.87423" lon="3.03469">
        <ele>521</ele>
        <time>2014-08-24T10:46:20Z</time>
      </trkpt>
      <trkpt lat="45.87426" lon="3.03469">
        <ele>522</ele>
        <time>2014-08-24T10:46:23Z</time>
      </trkpt>
      <trkpt lat="45.87427" lon="3.03466">
        <ele>522</ele>
        <time>2014-08-24T10:46:26Z</time>
      </trkpt>
      <trkpt lat="45.87428" lon="3.03466">
        <ele>522</ele>
        <time>2014-08-24T10:46:28Z</time>
      </trkpt>
      <trkpt lat="45.87433" lon="3.03472">
        <ele>522</ele>
        <time>2014-08-24T10:46:31Z</time>
      </trkpt>
      <trkpt lat="45.87439" lon="3.03475">
        <ele>523</ele>
        <time>2014-08-24T10:46:34Z</time>
      </trkpt>
      <trkpt lat="45.87443" lon="3.03476">
        <ele>523</ele>
        <time>2014-08-24T10:46:36Z</time>
      </trkpt>
      <trkpt lat="45.87447" lon="3.03479">
        <ele>523</ele>
        <time>2014-08-24T10:46:38Z</time>
      </trkpt>
      <trkpt lat="45.87454" lon="3.03484">
        <ele>524</ele>
        <time>2014-08-24T10:46:41Z</time>
      </trkpt>
      <trkpt lat="45.87461" lon="3.03487">
        <ele>525</ele>
        <time>2014-08-24T10:46:44Z</time>
      </trkpt>
      <trkpt lat="45.87469" lon="3.03492">
        <ele>526</ele>
        <time>2014-08-24T10:46:47Z</time>
      </trkpt>
      <trkpt lat="45.87473" lon="3.03496">
        <ele>526</ele>
        <time>2014-08-24T10:46:49Z</time>
      </trkpt>
      <trkpt lat="45.87479" lon="3.035">
        <ele>527</ele>
        <time>2014-08-24T10:46:52Z</time>
      </trkpt>
      <trkpt lat="45.87486" lon="3.03505">
        <ele>527</ele>
        <time>2014-08-24T10:46:55Z</time>
      </trkpt>
      <trkpt lat="45.8749" lon="3.03508">
        <ele>528</ele>
        <time>2014-08-24T10:46:57Z</time>
      </trkpt>
      <trkpt lat="45.87498" lon="3.03513">
        <ele>529</ele>
        <time>2014-08-24T10:47:00Z</time>
      </trkpt>
      <trkpt lat="45.87503" lon="3.03516">
        <ele>529</ele>
        <time>2014-08-24T10:47:02Z</time>
      </trkpt>
      <trkpt lat="45.87508" lon="3.03518">
        <ele>530</ele>
        <time>2014-08-24T10:47:04Z</time>
      </trkpt>
      <trkpt lat="45.87516" lon="3.03522">
        <ele>531</ele>
        <time>2014-08-24T10:47:07Z</time>
      </trkpt>
      <trkpt lat="45.8752" lon="3.03525">
        <ele>532</ele>
        <time>2014-08-24T10:47:09Z</time>
      </trkpt>
      <trkpt lat="45.87525" lon="3.0353">
        <ele>533</ele>
        <time>2014-08-24T10:47:12Z</time>
      </trkpt>
      <trkpt lat="45.87528" lon="3.03536">
        <ele>534</ele>
        <time>2014-08-24T10:47:15Z</time>
      </trkpt>
      <trkpt lat="45.8753" lon="3.03541">
        <ele>534</ele>
        <time>2014-08-24T10:47:17Z</time>
      </trkpt>
      <trkpt lat="45.87535" lon="3.03548">
        <ele>535</ele>
        <time>2014-08-24T10:47:20Z</time>
      </trkpt>
      <trkpt lat="45.87537" lon="3.03553">
        <ele>535</ele>
        <time>2014-08-24T10:47:22Z</time>
      </trkpt>
      <trkpt lat="45.8754" lon="3.03562">
        <ele>535</ele>
        <time>2014-08-24T10:47:25Z</time>
      </trkpt>
      <trkpt lat="45.87545" lon="3.03571">
        <ele>536</ele>
        <time>2014-08-24T10:47:28Z</time>
      </trkpt>
      <trkpt lat="45.87549" lon="3.03581">
        <ele>536</ele>
        <time>2014-08-24T10:47:31Z</time>
      </trkpt>
      <trkpt lat="45.87552" lon="3.03588">
        <ele>536</ele>
        <time>2014-08-24T10:47:33Z</time>
      </trkpt>
      <trkpt lat="45.87556" lon="3.03598">
        <ele>536</ele>
        <time>2014-08-24T10:47:36Z</time>
      </trkpt>
      <trkpt lat="45.87561" lon="3.03606">
        <ele>536</ele>
        <time>2014-08-24T10:47:38Z</time>
      </trkpt>
      <trkpt lat="45.87565" lon="3.03612">
        <ele>537</ele>
        <time>2014-08-24T10:47:40Z</time>
      </trkpt>
      <trkpt lat="45.87568" lon="3.03617">
        <ele>537</ele>
        <time>2014-08-24T10:47:42Z</time>
      </trkpt>
      <trkpt lat="45.87572" lon="3.03623">
        <ele>539</ele>
        <time>2014-08-24T10:47:45Z</time>
      </trkpt>
      <trkpt lat="45.87574" lon="3.03628">
        <ele>539</ele>
        <time>2014-08-24T10:47:48Z</time>
      </trkpt>
      <trkpt lat="45.87577" lon="3.03634">
        <ele>540</ele>
        <time>2014-08-24T10:47:51Z</time>
      </trkpt>
      <trkpt lat="45.87579" lon="3.0364">
        <ele>541</ele>
        <time>2014-08-24T10:47:53Z</time>
      </trkpt>
      <trkpt lat="45.87583" lon="3.03646">
        <ele>541</ele>
        <time>2014-08-24T10:47:56Z</time>
      </trkpt>
      <trkpt lat="45.87587" lon="3.03653">
        <ele>541</ele>
        <time>2014-08-24T10:47:59Z</time>
      </trkpt>
      <trkpt lat="45.87589" lon="3.03657">
        <ele>541</ele>
        <time>2014-08-24T10:48:01Z</time>
      </trkpt>
      <trkpt lat="45.87592" lon="3.0366">
        <ele>541</ele>
        <time>2014-08-24T10:48:03Z</time>
      </trkpt>
      <trkpt lat="45.87598" lon="3.03668">
        <ele>541</ele>
        <time>2014-08-24T10:48:06Z</time>
      </trkpt>
      <trkpt lat="45.87604" lon="3.03675">
        <ele>541</ele>
        <time>2014-08-24T10:48:08Z</time>
      </trkpt>
      <trkpt lat="45.87615" lon="3.03684">
        <ele>541</ele>
        <time>2014-08-24T10:48:11Z</time>
      </trkpt>
      <trkpt lat="45.87623" lon="3.03689">
        <ele>540</ele>
        <time>2014-08-24T10:48:13Z</time>
      </trkpt>
      <trkpt lat="45.87638" lon="3.03695">
        <ele>539</ele>
        <time>2014-08-24T10:48:16Z</time>
      </trkpt>
      <trkpt lat="45.8765" lon="3.03698">
        <ele>538</ele>
        <time>2014-08-24T10:48:18Z</time>
      </trkpt>
      <trkpt lat="45.87662" lon="3.03701">
        <ele>538</ele>
        <time>2014-08-24T10:48:20Z</time>
      </trkpt>
      <trkpt lat="45.87682" lon="3.03706">
        <ele>537</ele>
        <time>2014-08-24T10:48:23Z</time>
      </trkpt>
      <trkpt lat="45.87693" lon="3.03709">
        <ele>536</ele>
        <time>2014-08-24T10:48:25Z</time>
      </trkpt>
      <trkpt lat="45.87711" lon="3.03713">
        <ele>535</ele>
        <time>2014-08-24T10:48:28Z</time>
      </trkpt>
      <trkpt lat="45.87728" lon="3.03714">
        <ele>534</ele>
        <time>2014-08-24T10:48:31Z</time>
      </trkpt>
      <trkpt lat="45.87741" lon="3.03711">
        <ele>534</ele>
        <time>2014-08-24T10:48:33Z</time>
      </trkpt>
      <trkpt lat="45.87751" lon="3.03705">
        <ele>533</ele>
        <time>2014-08-24T10:48:35Z</time>
      </trkpt>
      <trkpt lat="45.87764" lon="3.03701">
        <ele>533</ele>
        <time>2014-08-24T10:48:37Z</time>
      </trkpt>
      <trkpt lat="45.87785" lon="3.03694">
        <ele>532</ele>
        <time>2014-08-24T10:48:40Z</time>
      </trkpt>
      <trkpt lat="45.87799" lon="3.0369">
        <ele>532</ele>
        <time>2014-08-24T10:48:42Z</time>
      </trkpt>
      <trkpt lat="45.87819" lon="3.03687">
        <ele>531</ele>
        <time>2014-08-24T10:48:45Z</time>
      </trkpt>
      <trkpt lat="45.87831" lon="3.03684">
        <ele>530</ele>
        <time>2014-08-24T10:48:47Z</time>
      </trkpt>
      <trkpt lat="45.87844" lon="3.03682">
        <ele>529</ele>
        <time>2014-08-24T10:48:49Z</time>
      </trkpt>
      <trkpt lat="45.87865" lon="3.0368">
        <ele>528</ele>
        <time>2014-08-24T10:48:52Z</time>
      </trkpt>
      <trkpt lat="45.87878" lon="3.0368">
        <ele>527</ele>
        <time>2014-08-24T10:48:54Z</time>
      </trkpt>
      <trkpt lat="45.87891" lon="3.03678">
        <ele>527</ele>
        <time>2014-08-24T10:48:56Z</time>
      </trkpt>
      <trkpt lat="45.87911" lon="3.03677">
        <ele>527</ele>
        <time>2014-08-24T10:48:59Z</time>
      </trkpt>
      <trkpt lat="45.87924" lon="3.03676">
        <ele>526</ele>
        <time>2014-08-24T10:49:01Z</time>
      </trkpt>
      <trkpt lat="45.87936" lon="3.03675">
        <ele>526</ele>
        <time>2014-08-24T10:49:03Z</time>
      </trkpt>
      <trkpt lat="45.87955" lon="3.03674">
        <ele>525</ele>
        <time>2014-08-24T10:49:06Z</time>
      </trkpt>
      <trkpt lat="45.87975" lon="3.03674">
        <ele>523</ele>
        <time>2014-08-24T10:49:09Z</time>
      </trkpt>
      <trkpt lat="45.87988" lon="3.03675">
        <ele>523</ele>
        <time>2014-08-24T10:49:11Z</time>
      </trkpt>
      <trkpt lat="45.88002" lon="3.03675">
        <ele>522</ele>
        <time>2014-08-24T10:49:13Z</time>
      </trkpt>
      <trkpt lat="45.88021" lon="3.03677">
        <ele>522</ele>
        <time>2014-08-24T10:49:16Z</time>
      </trkpt>
      <trkpt lat="45.88034" lon="3.03674">
        <ele>522</ele>
        <time>2014-08-24T10:49:18Z</time>
      </trkpt>
      <trkpt lat="45.88046" lon="3.03672">
        <ele>522</ele>
        <time>2014-08-24T10:49:20Z</time>
      </trkpt>
      <trkpt lat="45.88065" lon="3.03668">
        <ele>521</ele>
        <time>2014-08-24T10:49:23Z</time>
      </trkpt>
      <trkpt lat="45.88084" lon="3.03664">
        <ele>521</ele>
        <time>2014-08-24T10:49:26Z</time>
      </trkpt>
      <trkpt lat="45.88102" lon="3.03658">
        <ele>520</ele>
        <time>2014-08-24T10:49:29Z</time>
      </trkpt>
      <trkpt lat="45.88112" lon="3.03655">
        <ele>520</ele>
        <time>2014-08-24T10:49:31Z</time>
      </trkpt>
      <trkpt lat="45.88123" lon="3.03654">
        <ele>519</ele>
        <time>2014-08-24T10:49:33Z</time>
      </trkpt>
      <trkpt lat="45.88142" lon="3.03649">
        <ele>519</ele>
        <time>2014-08-24T10:49:36Z</time>
      </trkpt>
      <trkpt lat="45.88154" lon="3.03646">
        <ele>519</ele>
        <time>2014-08-24T10:49:38Z</time>
      </trkpt>
      <trkpt lat="45.88166" lon="3.03644">
        <ele>518</ele>
        <time>2014-08-24T10:49:40Z</time>
      </trkpt>
      <trkpt lat="45.88184" lon="3.03642">
        <ele>518</ele>
        <time>2014-08-24T10:49:43Z</time>
      </trkpt>
      <trkpt lat="45.88196" lon="3.03644">
        <ele>518</ele>
        <time>2014-08-24T10:49:45Z</time>
      </trkpt>
      <trkpt lat="45.88208" lon="3.03647">
        <ele>517</ele>
        <time>2014-08-24T10:49:47Z</time>
      </trkpt>
      <trkpt lat="45.88218" lon="3.03652">
        <ele>517</ele>
        <time>2014-08-24T10:49:49Z</time>
      </trkpt>
      <trkpt lat="45.88229" lon="3.03657">
        <ele>516</ele>
        <time>2014-08-24T10:49:51Z</time>
      </trkpt>
      <trkpt lat="45.88245" lon="3.03668">
        <ele>515</ele>
        <time>2014-08-24T10:49:54Z</time>
      </trkpt>
      <trkpt lat="45.88256" lon="3.03678">
        <ele>515</ele>
        <time>2014-08-24T10:49:56Z</time>
      </trkpt>
      <trkpt lat="45.88275" lon="3.03692">
        <ele>514</ele>
        <time>2014-08-24T10:49:59Z</time>
      </trkpt>
      <trkpt lat="45.88287" lon="3.03697">
        <ele>514</ele>
        <time>2014-08-24T10:50:01Z</time>
      </trkpt>
      <trkpt lat="45.88298" lon="3.03703">
        <ele>514</ele>
        <time>2014-08-24T10:50:03Z</time>
      </trkpt>
      <trkpt lat="45.88309" lon="3.0371">
        <ele>514</ele>
        <time>2014-08-24T10:50:05Z</time>
      </trkpt>
      <trkpt lat="45.88322" lon="3.03718">
        <ele>513</ele>
        <time>2014-08-24T10:50:07Z</time>
      </trkpt>
      <trkpt lat="45.88335" lon="3.03725">
        <ele>513</ele>
        <time>2014-08-24T10:50:09Z</time>
      </trkpt>
      <trkpt lat="45.88347" lon="3.03731">
        <ele>512</ele>
        <time>2014-08-24T10:50:11Z</time>
      </trkpt>
      <trkpt lat="45.8836" lon="3.03736">
        <ele>512</ele>
        <time>2014-08-24T10:50:14Z</time>
      </trkpt>
      <trkpt lat="45.88367" lon="3.03737">
        <ele>511</ele>
        <time>2014-08-24T10:50:17Z</time>
      </trkpt>
      <trkpt lat="45.88369" lon="3.03737">
        <ele>510</ele>
        <time>2014-08-24T10:50:19Z</time>
      </trkpt>
      <trkpt lat="45.88393" lon="3.03744">
        <ele>509</ele>
        <time>2014-08-24T10:50:22Z</time>
      </trkpt>
      <trkpt lat="45.88397" lon="3.03747">
        <ele>509</ele>
        <time>2014-08-24T10:50:24Z</time>
      </trkpt>
      <trkpt lat="45.88406" lon="3.03751">
        <ele>509</ele>
        <time>2014-08-24T10:50:27Z</time>
      </trkpt>
      <trkpt lat="45.88416" lon="3.03759">
        <ele>509</ele>
        <time>2014-08-24T10:50:30Z</time>
      </trkpt>
      <trkpt lat="45.8842" lon="3.03761">
        <ele>508</ele>
        <time>2014-08-24T10:50:32Z</time>
      </trkpt>
      <trkpt lat="45.88425" lon="3.03756">
        <ele>508</ele>
        <time>2014-08-24T10:50:35Z</time>
      </trkpt>
      <trkpt lat="45.88428" lon="3.03752">
        <ele>508</ele>
        <time>2014-08-24T10:50:38Z</time>
      </trkpt>
      <trkpt lat="45.88429" lon="3.03755">
        <ele>508</ele>
        <time>2014-08-24T10:50:40Z</time>
      </trkpt>
      <trkpt lat="45.88427" lon="3.03759">
        <ele>508</ele>
        <time>2014-08-24T10:50:43Z</time>
      </trkpt>
      <trkpt lat="45.88427" lon="3.03759">
        <ele>508</ele>
        <time>2014-08-24T10:50:46Z</time>
      </trkpt>
      <trkpt lat="45.88427" lon="3.03758">
        <ele>507</ele>
        <time>2014-08-24T10:50:49Z</time>
      </trkpt>
      <trkpt lat="45.88437" lon="3.03767">
        <ele>509</ele>
        <time>2014-08-24T10:50:51Z</time>
      </trkpt>
      <trkpt lat="45.88444" lon="3.03775">
        <ele>509</ele>
        <time>2014-08-24T10:50:54Z</time>
      </trkpt>
      <trkpt lat="45.88448" lon="3.0378">
        <ele>508</ele>
        <time>2014-08-24T10:50:56Z</time>
      </trkpt>
      <trkpt lat="45.88455" lon="3.03788">
        <ele>508</ele>
        <time>2014-08-24T10:50:59Z</time>
      </trkpt>
      <trkpt lat="45.88461" lon="3.03791">
        <ele>508</ele>
        <time>2014-08-24T10:51:01Z</time>
      </trkpt>
      <trkpt lat="45.88466" lon="3.03785">
        <ele>507</ele>
        <time>2014-08-24T10:51:03Z</time>
      </trkpt>
      <trkpt lat="45.88471" lon="3.03778">
        <ele>507</ele>
        <time>2014-08-24T10:51:05Z</time>
      </trkpt>
      <trkpt lat="45.88479" lon="3.03768">
        <ele>507</ele>
        <time>2014-08-24T10:51:08Z</time>
      </trkpt>
      <trkpt lat="45.8848" lon="3.03757">
        <ele>506</ele>
        <time>2014-08-24T10:51:11Z</time>
      </trkpt>
      <trkpt lat="45.88474" lon="3.03749">
        <ele>505</ele>
        <time>2014-08-24T10:51:14Z</time>
      </trkpt>
      <trkpt lat="45.88471" lon="3.03745">
        <ele>505</ele>
        <time>2014-08-24T10:51:16Z</time>
      </trkpt>
      <trkpt lat="45.88465" lon="3.03738">
        <ele>505</ele>
        <time>2014-08-24T10:51:19Z</time>
      </trkpt>
      <trkpt lat="45.88459" lon="3.03729">
        <ele>505</ele>
        <time>2014-08-24T10:51:22Z</time>
      </trkpt>
      <trkpt lat="45.88454" lon="3.03723">
        <ele>505</ele>
        <time>2014-08-24T10:51:24Z</time>
      </trkpt>
      <trkpt lat="45.88445" lon="3.03713">
        <ele>505</ele>
        <time>2014-08-24T10:51:27Z</time>
      </trkpt>
      <trkpt lat="45.88436" lon="3.03702">
        <ele>506</ele>
        <time>2014-08-24T10:51:30Z</time>
      </trkpt>
      <trkpt lat="45.88431" lon="3.03695">
        <ele>506</ele>
        <time>2014-08-24T10:51:32Z</time>
      </trkpt>
      <trkpt lat="45.88424" lon="3.03684">
        <ele>506</ele>
        <time>2014-08-24T10:51:35Z</time>
      </trkpt>
      <trkpt lat="45.88417" lon="3.03675">
        <ele>506</ele>
        <time>2014-08-24T10:51:38Z</time>
      </trkpt>
      <trkpt lat="45.88412" lon="3.03669">
        <ele>507</ele>
        <time>2014-08-24T10:51:40Z</time>
      </trkpt>
      <trkpt lat="45.88407" lon="3.03661">
        <ele>507</ele>
        <time>2014-08-24T10:51:43Z</time>
      </trkpt>
      <trkpt lat="45.88403" lon="3.03654">
        <ele>508</ele>
        <time>2014-08-24T10:51:45Z</time>
      </trkpt>
      <trkpt lat="45.88396" lon="3.03644">
        <ele>508</ele>
        <time>2014-08-24T10:51:48Z</time>
      </trkpt>
      <trkpt lat="45.88391" lon="3.03638">
        <ele>509</ele>
        <time>2014-08-24T10:51:50Z</time>
      </trkpt>
      <trkpt lat="45.88385" lon="3.03632">
        <ele>509</ele>
        <time>2014-08-24T10:51:52Z</time>
      </trkpt>
      <trkpt lat="45.8838" lon="3.03627">
        <ele>510</ele>
        <time>2014-08-24T10:51:54Z</time>
      </trkpt>
      <trkpt lat="45.88377" lon="3.0362">
        <ele>511</ele>
        <time>2014-08-24T10:51:57Z</time>
      </trkpt>
      <trkpt lat="45.88375" lon="3.03615">
        <ele>512</ele>
        <time>2014-08-24T10:51:59Z</time>
      </trkpt>
      <trkpt lat="45.88373" lon="3.0361">
        <ele>513</ele>
        <time>2014-08-24T10:52:01Z</time>
      </trkpt>
      <trkpt lat="45.88371" lon="3.03602">
        <ele>514</ele>
        <time>2014-08-24T10:52:04Z</time>
      </trkpt>
      <trkpt lat="45.88369" lon="3.03597">
        <ele>514</ele>
        <time>2014-08-24T10:52:06Z</time>
      </trkpt>
      <trkpt lat="45.8837" lon="3.03589">
        <ele>516</ele>
        <time>2014-08-24T10:52:09Z</time>
      </trkpt>
      <trkpt lat="45.8837" lon="3.03584">
        <ele>516</ele>
        <time>2014-08-24T10:52:11Z</time>
      </trkpt>
      <trkpt lat="45.8837" lon="3.03576">
        <ele>517</ele>
        <time>2014-08-24T10:52:14Z</time>
      </trkpt>
      <trkpt lat="45.88373" lon="3.03567">
        <ele>518</ele>
        <time>2014-08-24T10:52:17Z</time>
      </trkpt>
      <trkpt lat="45.88375" lon="3.03562">
        <ele>519</ele>
        <time>2014-08-24T10:52:19Z</time>
      </trkpt>
      <trkpt lat="45.88379" lon="3.03557">
        <ele>520</ele>
        <time>2014-08-24T10:52:22Z</time>
      </trkpt>
      <trkpt lat="45.88383" lon="3.03551">
        <ele>521</ele>
        <time>2014-08-24T10:52:25Z</time>
      </trkpt>
      <trkpt lat="45.88387" lon="3.03546">
        <ele>522</ele>
        <time>2014-08-24T10:52:28Z</time>
      </trkpt>
      <trkpt lat="45.88392" lon="3.03542">
        <ele>522</ele>
        <time>2014-08-24T10:52:30Z</time>
      </trkpt>
      <trkpt lat="45.88397" lon="3.03536">
        <ele>524</ele>
        <time>2014-08-24T10:52:33Z</time>
      </trkpt>
      <trkpt lat="45.884" lon="3.03529">
        <ele>525</ele>
        <time>2014-08-24T10:52:35Z</time>
      </trkpt>
      <trkpt lat="45.88403" lon="3.03518">
        <ele>525</ele>
        <time>2014-08-24T10:52:38Z</time>
      </trkpt>
      <trkpt lat="45.88404" lon="3.03507">
        <ele>526</ele>
        <time>2014-08-24T10:52:41Z</time>
      </trkpt>
      <trkpt lat="45.88405" lon="3.03497">
        <ele>526</ele>
        <time>2014-08-24T10:52:44Z</time>
      </trkpt>
      <trkpt lat="45.88405" lon="3.03491">
        <ele>526</ele>
        <time>2014-08-24T10:52:46Z</time>
      </trkpt>
      <trkpt lat="45.88404" lon="3.03485">
        <ele>526</ele>
        <time>2014-08-24T10:52:48Z</time>
      </trkpt>
      <trkpt lat="45.88403" lon="3.0348">
        <ele>527</ele>
        <time>2014-08-24T10:52:50Z</time>
      </trkpt>
      <trkpt lat="45.88402" lon="3.0347">
        <ele>527</ele>
        <time>2014-08-24T10:52:53Z</time>
      </trkpt>
      <trkpt lat="45.88401" lon="3.03463">
        <ele>527</ele>
        <time>2014-08-24T10:52:55Z</time>
      </trkpt>
      <trkpt lat="45.884" lon="3.03452">
        <ele>528</ele>
        <time>2014-08-24T10:52:58Z</time>
      </trkpt>
      <trkpt lat="45.88398" lon="3.03444">
        <ele>528</ele>
        <time>2014-08-24T10:53:00Z</time>
      </trkpt>
      <trkpt lat="45.88395" lon="3.03433">
        <ele>530</ele>
        <time>2014-08-24T10:53:03Z</time>
      </trkpt>
      <trkpt lat="45.88393" lon="3.03427">
        <ele>530</ele>
        <time>2014-08-24T10:53:05Z</time>
      </trkpt>
      <trkpt lat="45.88389" lon="3.03416">
        <ele>531</ele>
        <time>2014-08-24T10:53:08Z</time>
      </trkpt>
      <trkpt lat="45.88386" lon="3.03409">
        <ele>531</ele>
        <time>2014-08-24T10:53:10Z</time>
      </trkpt>
      <trkpt lat="45.88382" lon="3.03398">
        <ele>532</ele>
        <time>2014-08-24T10:53:13Z</time>
      </trkpt>
      <trkpt lat="45.88379" lon="3.03391">
        <ele>532</ele>
        <time>2014-08-24T10:53:15Z</time>
      </trkpt>
      <trkpt lat="45.88375" lon="3.03381">
        <ele>533</ele>
        <time>2014-08-24T10:53:18Z</time>
      </trkpt>
      <trkpt lat="45.88372" lon="3.03375">
        <ele>533</ele>
        <time>2014-08-24T10:53:20Z</time>
      </trkpt>
      <trkpt lat="45.88366" lon="3.03364">
        <ele>534</ele>
        <time>2014-08-24T10:53:23Z</time>
      </trkpt>
      <trkpt lat="45.88361" lon="3.03354">
        <ele>535</ele>
        <time>2014-08-24T10:53:26Z</time>
      </trkpt>
      <trkpt lat="45.88358" lon="3.03348">
        <ele>536</ele>
        <time>2014-08-24T10:53:28Z</time>
      </trkpt>
      <trkpt lat="45.88352" lon="3.0334">
        <ele>536</ele>
        <time>2014-08-24T10:53:31Z</time>
      </trkpt>
      <trkpt lat="45.88347" lon="3.03337">
        <ele>537</ele>
        <time>2014-08-24T10:53:34Z</time>
      </trkpt>
      <trkpt lat="45.88345" lon="3.03334">
        <ele>537</ele>
        <time>2014-08-24T10:53:36Z</time>
      </trkpt>
      <trkpt lat="45.88341" lon="3.03327">
        <ele>538</ele>
        <time>2014-08-24T10:53:39Z</time>
      </trkpt>
      <trkpt lat="45.88337" lon="3.03321">
        <ele>538</ele>
        <time>2014-08-24T10:53:42Z</time>
      </trkpt>
      <trkpt lat="45.88334" lon="3.03315">
        <ele>539</ele>
        <time>2014-08-24T10:53:44Z</time>
      </trkpt>
      <trkpt lat="45.8833" lon="3.03308">
        <ele>539</ele>
        <time>2014-08-24T10:53:47Z</time>
      </trkpt>
      <trkpt lat="45.88326" lon="3.03301">
        <ele>539</ele>
        <time>2014-08-24T10:53:49Z</time>
      </trkpt>
      <trkpt lat="45.88323" lon="3.03296">
        <ele>540</ele>
        <time>2014-08-24T10:53:51Z</time>
      </trkpt>
      <trkpt lat="45.88317" lon="3.03286">
        <ele>541</ele>
        <time>2014-08-24T10:53:54Z</time>
      </trkpt>
      <trkpt lat="45.88314" lon="3.03279">
        <ele>542</ele>
        <time>2014-08-24T10:53:56Z</time>
      </trkpt>
      <trkpt lat="45.88309" lon="3.03271">
        <ele>543</ele>
        <time>2014-08-24T10:53:59Z</time>
      </trkpt>
      <trkpt lat="45.88306" lon="3.03266">
        <ele>544</ele>
        <time>2014-08-24T10:54:01Z</time>
      </trkpt>
      <trkpt lat="45.88302" lon="3.03259">
        <ele>544</ele>
        <time>2014-08-24T10:54:04Z</time>
      </trkpt>
      <trkpt lat="45.883" lon="3.03254">
        <ele>545</ele>
        <time>2014-08-24T10:54:06Z</time>
      </trkpt>
      <trkpt lat="45.88298" lon="3.03248">
        <ele>545</ele>
        <time>2014-08-24T10:54:08Z</time>
      </trkpt>
      <trkpt lat="45.88296" lon="3.03243">
        <ele>546</ele>
        <time>2014-08-24T10:54:10Z</time>
      </trkpt>
      <trkpt lat="45.88294" lon="3.03236">
        <ele>547</ele>
        <time>2014-08-24T10:54:13Z</time>
      </trkpt>
      <trkpt lat="45.88292" lon="3.03231">
        <ele>547</ele>
        <time>2014-08-24T10:54:15Z</time>
      </trkpt>
      <trkpt lat="45.8829" lon="3.03226">
        <ele>548</ele>
        <time>2014-08-24T10:54:17Z</time>
      </trkpt>
      <trkpt lat="45.88287" lon="3.03222">
        <ele>548</ele>
        <time>2014-08-24T10:54:20Z</time>
      </trkpt>
      <trkpt lat="45.88287" lon="3.03221">
        <ele>548</ele>
        <time>2014-08-24T10:54:22Z</time>
      </trkpt>
      <trkpt lat="45.88285" lon="3.03213">
        <ele>549</ele>
        <time>2014-08-24T10:54:24Z</time>
      </trkpt>
      <trkpt lat="45.88282" lon="3.03213">
        <ele>549</ele>
        <time>2014-08-24T10:54:27Z</time>
      </trkpt>
      <trkpt lat="45.8828" lon="3.03211">
        <ele>549</ele>
        <time>2014-08-24T10:54:29Z</time>
      </trkpt>
      <trkpt lat="45.88278" lon="3.03208">
        <ele>549</ele>
        <time>2014-08-24T10:54:31Z</time>
      </trkpt>
      <trkpt lat="45.88276" lon="3.03205">
        <ele>550</ele>
        <time>2014-08-24T10:54:33Z</time>
      </trkpt>
      <trkpt lat="45.88276" lon="3.03201">
        <ele>551</ele>
        <time>2014-08-24T10:54:36Z</time>
      </trkpt>
      <trkpt lat="45.88274" lon="3.03196">
        <ele>551</ele>
        <time>2014-08-24T10:54:38Z</time>
      </trkpt>
      <trkpt lat="45.8827" lon="3.03189">
        <ele>552</ele>
        <time>2014-08-24T10:54:41Z</time>
      </trkpt>
      <trkpt lat="45.88267" lon="3.03184">
        <ele>552</ele>
        <time>2014-08-24T10:54:43Z</time>
      </trkpt>
      <trkpt lat="45.88265" lon="3.0318">
        <ele>553</ele>
        <time>2014-08-24T10:54:45Z</time>
      </trkpt>
      <trkpt lat="45.88262" lon="3.03175">
        <ele>553</ele>
        <time>2014-08-24T10:54:47Z</time>
      </trkpt>
      <trkpt lat="45.88257" lon="3.03169">
        <ele>554</ele>
        <time>2014-08-24T10:54:50Z</time>
      </trkpt>
      <trkpt lat="45.88255" lon="3.03166">
        <ele>554</ele>
        <time>2014-08-24T10:54:52Z</time>
      </trkpt>
      <trkpt lat="45.8825" lon="3.0316">
        <ele>555</ele>
        <time>2014-08-24T10:54:55Z</time>
      </trkpt>
      <trkpt lat="45.88247" lon="3.03155">
        <ele>555</ele>
        <time>2014-08-24T10:54:57Z</time>
      </trkpt>
      <trkpt lat="45.88242" lon="3.03149">
        <ele>556</ele>
        <time>2014-08-24T10:55:00Z</time>
      </trkpt>
      <trkpt lat="45.88239" lon="3.03145">
        <ele>556</ele>
        <time>2014-08-24T10:55:02Z</time>
      </trkpt>
      <trkpt lat="45.88234" lon="3.03138">
        <ele>557</ele>
        <time>2014-08-24T10:55:05Z</time>
      </trkpt>
      <trkpt lat="45.8823" lon="3.03134">
        <ele>558</ele>
        <time>2014-08-24T10:55:07Z</time>
      </trkpt>
      <trkpt lat="45.88224" lon="3.03126">
        <ele>558</ele>
        <time>2014-08-24T10:55:10Z</time>
      </trkpt>
      <trkpt lat="45.88221" lon="3.0312">
        <ele>559</ele>
        <time>2014-08-24T10:55:12Z</time>
      </trkpt>
      <trkpt lat="45.88217" lon="3.03115">
        <ele>559</ele>
        <time>2014-08-24T10:55:14Z</time>
      </trkpt>
      <trkpt lat="45.88212" lon="3.03108">
        <ele>561</ele>
        <time>2014-08-24T10:55:17Z</time>
      </trkpt>
      <trkpt lat="45.88209" lon="3.03102">
        <ele>561</ele>
        <time>2014-08-24T10:55:19Z</time>
      </trkpt>
      <trkpt lat="45.88207" lon="3.03098">
        <ele>562</ele>
        <time>2014-08-24T10:55:21Z</time>
      </trkpt>
      <trkpt lat="45.88203" lon="3.03093">
        <ele>563</ele>
        <time>2014-08-24T10:55:23Z</time>
      </trkpt>
      <trkpt lat="45.88199" lon="3.03088">
        <ele>563</ele>
        <time>2014-08-24T10:55:25Z</time>
      </trkpt>
      <trkpt lat="45.88196" lon="3.03083">
        <ele>563</ele>
        <time>2014-08-24T10:55:28Z</time>
      </trkpt>
      <trkpt lat="45.88195" lon="3.03081">
        <ele>564</ele>
        <time>2014-08-24T10:55:30Z</time>
      </trkpt>
      <trkpt lat="45.88192" lon="3.03075">
        <ele>564</ele>
        <time>2014-08-24T10:55:33Z</time>
      </trkpt>
      <trkpt lat="45.88191" lon="3.03072">
        <ele>565</ele>
        <time>2014-08-24T10:55:35Z</time>
      </trkpt>
      <trkpt lat="45.8819" lon="3.03069">
        <ele>565</ele>
        <time>2014-08-24T10:55:37Z</time>
      </trkpt>
      <trkpt lat="45.88187" lon="3.03064">
        <ele>566</ele>
        <time>2014-08-24T10:55:40Z</time>
      </trkpt>
      <trkpt lat="45.88184" lon="3.03057">
        <ele>566</ele>
        <time>2014-08-24T10:55:43Z</time>
      </trkpt>
      <trkpt lat="45.88183" lon="3.03054">
        <ele>566</ele>
        <time>2014-08-24T10:55:45Z</time>
      </trkpt>
      <trkpt lat="45.8818" lon="3.03048">
        <ele>567</ele>
        <time>2014-08-24T10:55:47Z</time>
      </trkpt>
      <trkpt lat="45.88175" lon="3.03041">
        <ele>568</ele>
        <time>2014-08-24T10:55:50Z</time>
      </trkpt>
      <trkpt lat="45.88172" lon="3.03036">
        <ele>569</ele>
        <time>2014-08-24T10:55:52Z</time>
      </trkpt>
      <trkpt lat="45.88169" lon="3.0303">
        <ele>569</ele>
        <time>2014-08-24T10:55:54Z</time>
      </trkpt>
      <trkpt lat="45.88166" lon="3.03023">
        <ele>570</ele>
        <time>2014-08-24T10:55:56Z</time>
      </trkpt>
      <trkpt lat="45.88161" lon="3.03011">
        <ele>572</ele>
        <time>2014-08-24T10:55:59Z</time>
      </trkpt>
      <trkpt lat="45.88159" lon="3.03003">
        <ele>572</ele>
        <time>2014-08-24T10:56:01Z</time>
      </trkpt>
      <trkpt lat="45.88156" lon="3.02995">
        <ele>573</ele>
        <time>2014-08-24T10:56:03Z</time>
      </trkpt>
      <trkpt lat="45.88152" lon="3.02985">
        <ele>574</ele>
        <time>2014-08-24T10:56:06Z</time>
      </trkpt>
      <trkpt lat="45.88149" lon="3.02978">
        <ele>575</ele>
        <time>2014-08-24T10:56:08Z</time>
      </trkpt>
      <trkpt lat="45.88147" lon="3.02972">
        <ele>576</ele>
        <time>2014-08-24T10:56:10Z</time>
      </trkpt>
      <trkpt lat="45.88145" lon="3.02966">
        <ele>577</ele>
        <time>2014-08-24T10:56:12Z</time>
      </trkpt>
      <trkpt lat="45.88142" lon="3.02959">
        <ele>577</ele>
        <time>2014-08-24T10:56:15Z</time>
      </trkpt>
      <trkpt lat="45.8814" lon="3.02955">
        <ele>578</ele>
        <time>2014-08-24T10:56:17Z</time>
      </trkpt>
      <trkpt lat="45.8814" lon="3.02949">
        <ele>579</ele>
        <time>2014-08-24T10:56:20Z</time>
      </trkpt>
      <trkpt lat="45.8814" lon="3.02945">
        <ele>579</ele>
        <time>2014-08-24T10:56:22Z</time>
      </trkpt>
      <trkpt lat="45.88139" lon="3.02939">
        <ele>580</ele>
        <time>2014-08-24T10:56:25Z</time>
      </trkpt>
      <trkpt lat="45.88138" lon="3.02934">
        <ele>580</ele>
        <time>2014-08-24T10:56:27Z</time>
      </trkpt>
      <trkpt lat="45.88137" lon="3.0293">
        <ele>580</ele>
        <time>2014-08-24T10:56:29Z</time>
      </trkpt>
      <trkpt lat="45.88136" lon="3.02923">
        <ele>580</ele>
        <time>2014-08-24T10:56:32Z</time>
      </trkpt>
      <trkpt lat="45.88135" lon="3.02916">
        <ele>581</ele>
        <time>2014-08-24T10:56:35Z</time>
      </trkpt>
      <trkpt lat="45.88134" lon="3.02911">
        <ele>581</ele>
        <time>2014-08-24T10:56:37Z</time>
      </trkpt>
      <trkpt lat="45.88132" lon="3.02903">
        <ele>582</ele>
        <time>2014-08-24T10:56:40Z</time>
      </trkpt>
      <trkpt lat="45.88131" lon="3.02898">
        <ele>582</ele>
        <time>2014-08-24T10:56:42Z</time>
      </trkpt>
      <trkpt lat="45.88129" lon="3.0289">
        <ele>583</ele>
        <time>2014-08-24T10:56:45Z</time>
      </trkpt>
      <trkpt lat="45.88127" lon="3.02884">
        <ele>584</ele>
        <time>2014-08-24T10:56:47Z</time>
      </trkpt>
      <trkpt lat="45.88126" lon="3.02878">
        <ele>584</ele>
        <time>2014-08-24T10:56:49Z</time>
      </trkpt>
      <trkpt lat="45.88124" lon="3.02872">
        <ele>584</ele>
        <time>2014-08-24T10:56:51Z</time>
      </trkpt>
      <trkpt lat="45.88123" lon="3.02863">
        <ele>585</ele>
        <time>2014-08-24T10:56:54Z</time>
      </trkpt>
      <trkpt lat="45.88122" lon="3.02858">
        <ele>586</ele>
        <time>2014-08-24T10:56:56Z</time>
      </trkpt>
      <trkpt lat="45.88121" lon="3.02852">
        <ele>586</ele>
        <time>2014-08-24T10:56:58Z</time>
      </trkpt>
      <trkpt lat="45.8812" lon="3.02843">
        <ele>587</ele>
        <time>2014-08-24T10:57:01Z</time>
      </trkpt>
      <trkpt lat="45.88119" lon="3.02838">
        <ele>588</ele>
        <time>2014-08-24T10:57:03Z</time>
      </trkpt>
      <trkpt lat="45.88118" lon="3.02833">
        <ele>588</ele>
        <time>2014-08-24T10:57:05Z</time>
      </trkpt>
      <trkpt lat="45.88118" lon="3.02826">
        <ele>589</ele>
        <time>2014-08-24T10:57:08Z</time>
      </trkpt>
      <trkpt lat="45.88118" lon="3.02818">
        <ele>590</ele>
        <time>2014-08-24T10:57:11Z</time>
      </trkpt>
      <trkpt lat="45.88117" lon="3.02812">
        <ele>590</ele>
        <time>2014-08-24T10:57:13Z</time>
      </trkpt>
      <trkpt lat="45.88118" lon="3.02803">
        <ele>591</ele>
        <time>2014-08-24T10:57:16Z</time>
      </trkpt>
      <trkpt lat="45.88121" lon="3.02797">
        <ele>592</ele>
        <time>2014-08-24T10:57:19Z</time>
      </trkpt>
      <trkpt lat="45.88128" lon="3.02794">
        <ele>593</ele>
        <time>2014-08-24T10:57:22Z</time>
      </trkpt>
      <trkpt lat="45.88134" lon="3.0279">
        <ele>594</ele>
        <time>2014-08-24T10:57:25Z</time>
      </trkpt>
      <trkpt lat="45.88138" lon="3.02787">
        <ele>595</ele>
        <time>2014-08-24T10:57:27Z</time>
      </trkpt>
      <trkpt lat="45.88144" lon="3.02783">
        <ele>596</ele>
        <time>2014-08-24T10:57:30Z</time>
      </trkpt>
      <trkpt lat="45.8815" lon="3.02782">
        <ele>598</ele>
        <time>2014-08-24T10:57:33Z</time>
      </trkpt>
      <trkpt lat="45.88155" lon="3.0278">
        <ele>599</ele>
        <time>2014-08-24T10:57:36Z</time>
      </trkpt>
      <trkpt lat="45.88158" lon="3.02778">
        <ele>599</ele>
        <time>2014-08-24T10:57:38Z</time>
      </trkpt>
      <trkpt lat="45.88163" lon="3.02778">
        <ele>599</ele>
        <time>2014-08-24T10:57:41Z</time>
      </trkpt>
      <trkpt lat="45.88166" lon="3.02778">
        <ele>600</ele>
        <time>2014-08-24T10:57:43Z</time>
      </trkpt>
      <trkpt lat="45.8817" lon="3.02776">
        <ele>600</ele>
        <time>2014-08-24T10:57:45Z</time>
      </trkpt>
      <trkpt lat="45.88175" lon="3.02773">
        <ele>601</ele>
        <time>2014-08-24T10:57:48Z</time>
      </trkpt>
      <trkpt lat="45.88181" lon="3.02771">
        <ele>601</ele>
        <time>2014-08-24T10:57:51Z</time>
      </trkpt>
      <trkpt lat="45.88185" lon="3.02769">
        <ele>602</ele>
        <time>2014-08-24T10:57:53Z</time>
      </trkpt>
      <trkpt lat="45.8819" lon="3.02768">
        <ele>603</ele>
        <time>2014-08-24T10:57:56Z</time>
      </trkpt>
      <trkpt lat="45.88196" lon="3.02768">
        <ele>604</ele>
        <time>2014-08-24T10:57:59Z</time>
      </trkpt>
      <trkpt lat="45.882" lon="3.02767">
        <ele>604</ele>
        <time>2014-08-24T10:58:01Z</time>
      </trkpt>
      <trkpt lat="45.88205" lon="3.02765">
        <ele>605</ele>
        <time>2014-08-24T10:58:04Z</time>
      </trkpt>
      <trkpt lat="45.8821" lon="3.02764">
        <ele>606</ele>
        <time>2014-08-24T10:58:07Z</time>
      </trkpt>
      <trkpt lat="45.88214" lon="3.02762">
        <ele>606</ele>
        <time>2014-08-24T10:58:09Z</time>
      </trkpt>
      <trkpt lat="45.88221" lon="3.02761">
        <ele>607</ele>
        <time>2014-08-24T10:58:12Z</time>
      </trkpt>
      <trkpt lat="45.88228" lon="3.0276">
        <ele>608</ele>
        <time>2014-08-24T10:58:15Z</time>
      </trkpt>
      <trkpt lat="45.88233" lon="3.0276">
        <ele>609</ele>
        <time>2014-08-24T10:58:17Z</time>
      </trkpt>
      <trkpt lat="45.88236" lon="3.02761">
        <ele>610</ele>
        <time>2014-08-24T10:58:19Z</time>
      </trkpt>
      <trkpt lat="45.88241" lon="3.02763">
        <ele>611</ele>
        <time>2014-08-24T10:58:22Z</time>
      </trkpt>
      <trkpt lat="45.88244" lon="3.02763">
        <ele>612</ele>
        <time>2014-08-24T10:58:24Z</time>
      </trkpt>
      <trkpt lat="45.88249" lon="3.02764">
        <ele>612</ele>
        <time>2014-08-24T10:58:27Z</time>
      </trkpt>
      <trkpt lat="45.88255" lon="3.02763">
        <ele>613</ele>
        <time>2014-08-24T10:58:30Z</time>
      </trkpt>
      <trkpt lat="45.88258" lon="3.02763">
        <ele>613</ele>
        <time>2014-08-24T10:58:32Z</time>
      </trkpt>
      <trkpt lat="45.88264" lon="3.02761">
        <ele>614</ele>
        <time>2014-08-24T10:58:35Z</time>
      </trkpt>
      <trkpt lat="45.88267" lon="3.02759">
        <ele>615</ele>
        <time>2014-08-24T10:58:37Z</time>
      </trkpt>
      <trkpt lat="45.88273" lon="3.02757">
        <ele>615</ele>
        <time>2014-08-24T10:58:40Z</time>
      </trkpt>
      <trkpt lat="45.88279" lon="3.02758">
        <ele>616</ele>
        <time>2014-08-24T10:58:43Z</time>
      </trkpt>
      <trkpt lat="45.88284" lon="3.02757">
        <ele>617</ele>
        <time>2014-08-24T10:58:46Z</time>
      </trkpt>
      <trkpt lat="45.88287" lon="3.02752">
        <ele>618</ele>
        <time>2014-08-24T10:58:49Z</time>
      </trkpt>
      <trkpt lat="45.88291" lon="3.02749">
        <ele>619</ele>
        <time>2014-08-24T10:58:52Z</time>
      </trkpt>
      <trkpt lat="45.88294" lon="3.02747">
        <ele>620</ele>
        <time>2014-08-24T10:58:54Z</time>
      </trkpt>
      <trkpt lat="45.88298" lon="3.02742">
        <ele>621</ele>
        <time>2014-08-24T10:58:57Z</time>
      </trkpt>
      <trkpt lat="45.88303" lon="3.0274">
        <ele>622</ele>
        <time>2014-08-24T10:59:00Z</time>
      </trkpt>
      <trkpt lat="45.88304" lon="3.02733">
        <ele>622</ele>
        <time>2014-08-24T10:59:03Z</time>
      </trkpt>
      <trkpt lat="45.88304" lon="3.02726">
        <ele>623</ele>
        <time>2014-08-24T10:59:06Z</time>
      </trkpt>
      <trkpt lat="45.88303" lon="3.02723">
        <ele>623</ele>
        <time>2014-08-24T10:59:08Z</time>
      </trkpt>
      <trkpt lat="45.88302" lon="3.02718">
        <ele>623</ele>
        <time>2014-08-24T10:59:10Z</time>
      </trkpt>
      <trkpt lat="45.88299" lon="3.02712">
        <ele>624</ele>
        <time>2014-08-24T10:59:13Z</time>
      </trkpt>
      <trkpt lat="45.88295" lon="3.02706">
        <ele>625</ele>
        <time>2014-08-24T10:59:16Z</time>
      </trkpt>
      <trkpt lat="45.8829" lon="3.027">
        <ele>626</ele>
        <time>2014-08-24T10:59:19Z</time>
      </trkpt>
      <trkpt lat="45.88284" lon="3.02692">
        <ele>627</ele>
        <time>2014-08-24T10:59:22Z</time>
      </trkpt>
      <trkpt lat="45.88282" lon="3.02687">
        <ele>628</ele>
        <time>2014-08-24T10:59:24Z</time>
      </trkpt>
      <trkpt lat="45.88277" lon="3.0268">
        <ele>629</ele>
        <time>2014-08-24T10:59:27Z</time>
      </trkpt>
      <trkpt lat="45.88274" lon="3.02676">
        <ele>629</ele>
        <time>2014-08-24T10:59:29Z</time>
      </trkpt>
      <trkpt lat="45.88272" lon="3.02671">
        <ele>630</ele>
        <time>2014-08-24T10:59:31Z</time>
      </trkpt>
      <trkpt lat="45.88267" lon="3.02665">
        <ele>630</ele>
        <time>2014-08-24T10:59:34Z</time>
      </trkpt>
      <trkpt lat="45.88264" lon="3.02661">
        <ele>631</ele>
        <time>2014-08-24T10:59:36Z</time>
      </trkpt>
      <trkpt lat="45.88262" lon="3.02657">
        <ele>632</ele>
        <time>2014-08-24T10:59:38Z</time>
      </trkpt>
      <trkpt lat="45.88258" lon="3.0265">
        <ele>633</ele>
        <time>2014-08-24T10:59:41Z</time>
      </trkpt>
      <trkpt lat="45.88253" lon="3.02643">
        <ele>634</ele>
        <time>2014-08-24T10:59:44Z</time>
      </trkpt>
      <trkpt lat="45.8825" lon="3.02636">
        <ele>635</ele>
        <time>2014-08-24T10:59:47Z</time>
      </trkpt>
      <trkpt lat="45.88248" lon="3.02631">
        <ele>636</ele>
        <time>2014-08-24T10:59:49Z</time>
      </trkpt>
      <trkpt lat="45.88245" lon="3.02625">
        <ele>636</ele>
        <time>2014-08-24T10:59:51Z</time>
      </trkpt>
      <trkpt lat="45.88242" lon="3.02616">
        <ele>637</ele>
        <time>2014-08-24T10:59:54Z</time>
      </trkpt>
      <trkpt lat="45.88239" lon="3.02607">
        <ele>638</ele>
        <time>2014-08-24T10:59:57Z</time>
      </trkpt>
      <trkpt lat="45.88237" lon="3.02601">
        <ele>639</ele>
        <time>2014-08-24T10:59:59Z</time>
      </trkpt>
      <trkpt lat="45.88234" lon="3.02595">
        <ele>639</ele>
        <time>2014-08-24T11:00:01Z</time>
      </trkpt>
      <trkpt lat="45.88233" lon="3.02588">
        <ele>640</ele>
        <time>2014-08-24T11:00:03Z</time>
      </trkpt>
      <trkpt lat="45.88231" lon="3.02583">
        <ele>640</ele>
        <time>2014-08-24T11:00:05Z</time>
      </trkpt>
      <trkpt lat="45.88232" lon="3.02574">
        <ele>641</ele>
        <time>2014-08-24T11:00:08Z</time>
      </trkpt>
      <trkpt lat="45.88232" lon="3.02568">
        <ele>642</ele>
        <time>2014-08-24T11:00:10Z</time>
      </trkpt>
      <trkpt lat="45.88232" lon="3.02559">
        <ele>643</ele>
        <time>2014-08-24T11:00:13Z</time>
      </trkpt>
      <trkpt lat="45.88235" lon="3.02552">
        <ele>643</ele>
        <time>2014-08-24T11:00:16Z</time>
      </trkpt>
      <trkpt lat="45.8824" lon="3.02545">
        <ele>644</ele>
        <time>2014-08-24T11:00:19Z</time>
      </trkpt>
      <trkpt lat="45.88245" lon="3.0254">
        <ele>644</ele>
        <time>2014-08-24T11:00:22Z</time>
      </trkpt>
      <trkpt lat="45.88248" lon="3.02532">
        <ele>645</ele>
        <time>2014-08-24T11:00:25Z</time>
      </trkpt>
      <trkpt lat="45.8825" lon="3.02527">
        <ele>645</ele>
        <time>2014-08-24T11:00:27Z</time>
      </trkpt>
      <trkpt lat="45.88253" lon="3.02523">
        <ele>645</ele>
        <time>2014-08-24T11:00:29Z</time>
      </trkpt>
      <trkpt lat="45.88254" lon="3.02521">
        <ele>645</ele>
        <time>2014-08-24T11:00:32Z</time>
      </trkpt>
      <trkpt lat="45.88251" lon="3.02513">
        <ele>645</ele>
        <time>2014-08-24T11:00:35Z</time>
      </trkpt>
      <trkpt lat="45.88254" lon="3.02512">
        <ele>645</ele>
        <time>2014-08-24T11:00:37Z</time>
      </trkpt>
      <trkpt lat="45.88258" lon="3.02507">
        <ele>644</ele>
        <time>2014-08-24T11:00:39Z</time>
      </trkpt>
      <trkpt lat="45.88263" lon="3.02496">
        <ele>645</ele>
        <time>2014-08-24T11:00:42Z</time>
      </trkpt>
      <trkpt lat="45.8827" lon="3.02481">
        <ele>645</ele>
        <time>2014-08-24T11:00:45Z</time>
      </trkpt>
      <trkpt lat="45.88277" lon="3.02466">
        <ele>645</ele>
        <time>2014-08-24T11:00:48Z</time>
      </trkpt>
      <trkpt lat="45.88282" lon="3.02457">
        <ele>644</ele>
        <time>2014-08-24T11:00:50Z</time>
      </trkpt>
      <trkpt lat="45.88289" lon="3.02451">
        <ele>644</ele>
        <time>2014-08-24T11:00:52Z</time>
      </trkpt>
      <trkpt lat="45.88298" lon="3.02445">
        <ele>644</ele>
        <time>2014-08-24T11:00:55Z</time>
      </trkpt>
      <trkpt lat="45.88307" lon="3.02437">
        <ele>644</ele>
        <time>2014-08-24T11:00:58Z</time>
      </trkpt>
      <trkpt lat="45.88317" lon="3.0243">
        <ele>644</ele>
        <time>2014-08-24T11:01:01Z</time>
      </trkpt>
      <trkpt lat="45.88324" lon="3.02426">
        <ele>644</ele>
        <time>2014-08-24T11:01:03Z</time>
      </trkpt>
      <trkpt lat="45.88332" lon="3.02423">
        <ele>645</ele>
        <time>2014-08-24T11:01:05Z</time>
      </trkpt>
      <trkpt lat="45.88343" lon="3.02418">
        <ele>645</ele>
        <time>2014-08-24T11:01:08Z</time>
      </trkpt>
      <trkpt lat="45.8835" lon="3.02416">
        <ele>645</ele>
        <time>2014-08-24T11:01:10Z</time>
      </trkpt>
      <trkpt lat="45.88358" lon="3.02413">
        <ele>645</ele>
        <time>2014-08-24T11:01:13Z</time>
      </trkpt>
      <trkpt lat="45.88367" lon="3.02409">
        <ele>646</ele>
        <time>2014-08-24T11:01:16Z</time>
      </trkpt>
      <trkpt lat="45.88373" lon="3.02407">
        <ele>646</ele>
        <time>2014-08-24T11:01:18Z</time>
      </trkpt>
      <trkpt lat="45.88381" lon="3.02404">
        <ele>646</ele>
        <time>2014-08-24T11:01:21Z</time>
      </trkpt>
      <trkpt lat="45.88386" lon="3.02402">
        <ele>647</ele>
        <time>2014-08-24T11:01:23Z</time>
      </trkpt>
      <trkpt lat="45.88391" lon="3.024">
        <ele>647</ele>
        <time>2014-08-24T11:01:25Z</time>
      </trkpt>
      <trkpt lat="45.88395" lon="3.02397">
        <ele>648</ele>
        <time>2014-08-24T11:01:27Z</time>
      </trkpt>
      <trkpt lat="45.88398" lon="3.02393">
        <ele>649</ele>
        <time>2014-08-24T11:01:29Z</time>
      </trkpt>
      <trkpt lat="45.88404" lon="3.02387">
        <ele>649</ele>
        <time>2014-08-24T11:01:32Z</time>
      </trkpt>
      <trkpt lat="45.88407" lon="3.02384">
        <ele>650</ele>
        <time>2014-08-24T11:01:34Z</time>
      </trkpt>
      <trkpt lat="45.88409" lon="3.0238">
        <ele>650</ele>
        <time>2014-08-24T11:01:36Z</time>
      </trkpt>
      <trkpt lat="45.88413" lon="3.02377">
        <ele>651</ele>
        <time>2014-08-24T11:01:38Z</time>
      </trkpt>
      <trkpt lat="45.88418" lon="3.02374">
        <ele>651</ele>
        <time>2014-08-24T11:01:40Z</time>
      </trkpt>
      <trkpt lat="45.88424" lon="3.02372">
        <ele>651</ele>
        <time>2014-08-24T11:01:43Z</time>
      </trkpt>
      <trkpt lat="45.88429" lon="3.02372">
        <ele>650</ele>
        <time>2014-08-24T11:01:45Z</time>
      </trkpt>
      <trkpt lat="45.88435" lon="3.02373">
        <ele>651</ele>
        <time>2014-08-24T11:01:47Z</time>
      </trkpt>
      <trkpt lat="45.88446" lon="3.02373">
        <ele>651</ele>
        <time>2014-08-24T11:01:50Z</time>
      </trkpt>
      <trkpt lat="45.88451" lon="3.02373">
        <ele>651</ele>
        <time>2014-08-24T11:01:52Z</time>
      </trkpt>
      <trkpt lat="45.88456" lon="3.02372">
        <ele>651</ele>
        <time>2014-08-24T11:01:54Z</time>
      </trkpt>
      <trkpt lat="45.88464" lon="3.02372">
        <ele>652</ele>
        <time>2014-08-24T11:01:57Z</time>
      </trkpt>
      <trkpt lat="45.88473" lon="3.02371">
        <ele>652</ele>
        <time>2014-08-24T11:02:00Z</time>
      </trkpt>
      <trkpt lat="45.88478" lon="3.0237">
        <ele>652</ele>
        <time>2014-08-24T11:02:02Z</time>
      </trkpt>
      <trkpt lat="45.88489" lon="3.02369">
        <ele>652</ele>
        <time>2014-08-24T11:02:05Z</time>
      </trkpt>
      <trkpt lat="45.885" lon="3.02366">
        <ele>652</ele>
        <time>2014-08-24T11:02:08Z</time>
      </trkpt>
      <trkpt lat="45.88512" lon="3.02363">
        <ele>651</ele>
        <time>2014-08-24T11:02:11Z</time>
      </trkpt>
      <trkpt lat="45.88526" lon="3.02362">
        <ele>652</ele>
        <time>2014-08-24T11:02:14Z</time>
      </trkpt>
      <trkpt lat="45.88535" lon="3.02364">
        <ele>652</ele>
        <time>2014-08-24T11:02:16Z</time>
      </trkpt>
      <trkpt lat="45.88543" lon="3.02364">
        <ele>652</ele>
        <time>2014-08-24T11:02:18Z</time>
      </trkpt>
      <trkpt lat="45.88554" lon="3.02364">
        <ele>653</ele>
        <time>2014-08-24T11:02:21Z</time>
      </trkpt>
      <trkpt lat="45.88561" lon="3.02363">
        <ele>653</ele>
        <time>2014-08-24T11:02:23Z</time>
      </trkpt>
      <trkpt lat="45.88566" lon="3.02361">
        <ele>653</ele>
        <time>2014-08-24T11:02:25Z</time>
      </trkpt>
      <trkpt lat="45.8857" lon="3.02359">
        <ele>653</ele>
        <time>2014-08-24T11:02:27Z</time>
      </trkpt>
      <trkpt lat="45.88575" lon="3.02355">
        <ele>654</ele>
        <time>2014-08-24T11:02:29Z</time>
      </trkpt>
      <trkpt lat="45.88581" lon="3.02345">
        <ele>654</ele>
        <time>2014-08-24T11:02:32Z</time>
      </trkpt>
      <trkpt lat="45.88587" lon="3.02333">
        <ele>655</ele>
        <time>2014-08-24T11:02:35Z</time>
      </trkpt>
      <trkpt lat="45.88591" lon="3.02323">
        <ele>654</ele>
        <time>2014-08-24T11:02:37Z</time>
      </trkpt>
      <trkpt lat="45.88596" lon="3.02307">
        <ele>654</ele>
        <time>2014-08-24T11:02:40Z</time>
      </trkpt>
      <trkpt lat="45.88601" lon="3.02289">
        <ele>653</ele>
        <time>2014-08-24T11:02:43Z</time>
      </trkpt>
      <trkpt lat="45.88607" lon="3.02278">
        <ele>653</ele>
        <time>2014-08-24T11:02:45Z</time>
      </trkpt>
      <trkpt lat="45.88614" lon="3.02258">
        <ele>652</ele>
        <time>2014-08-24T11:02:48Z</time>
      </trkpt>
      <trkpt lat="45.88623" lon="3.02238">
        <ele>652</ele>
        <time>2014-08-24T11:02:51Z</time>
      </trkpt>
      <trkpt lat="45.88631" lon="3.02226">
        <ele>652</ele>
        <time>2014-08-24T11:02:53Z</time>
      </trkpt>
      <trkpt lat="45.88646" lon="3.02218">
        <ele>651</ele>
        <time>2014-08-24T11:02:56Z</time>
      </trkpt>
      <trkpt lat="45.88657" lon="3.02214">
        <ele>651</ele>
        <time>2014-08-24T11:02:58Z</time>
      </trkpt>
      <trkpt lat="45.88675" lon="3.02207">
        <ele>651</ele>
        <time>2014-08-24T11:03:01Z</time>
      </trkpt>
      <trkpt lat="45.88694" lon="3.022">
        <ele>651</ele>
        <time>2014-08-24T11:03:04Z</time>
      </trkpt>
      <trkpt lat="45.88707" lon="3.02195">
        <ele>650</ele>
        <time>2014-08-24T11:03:06Z</time>
      </trkpt>
      <trkpt lat="45.88723" lon="3.02187">
        <ele>649</ele>
        <time>2014-08-24T11:03:09Z</time>
      </trkpt>
      <trkpt lat="45.88733" lon="3.02183">
        <ele>649</ele>
        <time>2014-08-24T11:03:11Z</time>
      </trkpt>
      <trkpt lat="45.88742" lon="3.02181">
        <ele>649</ele>
        <time>2014-08-24T11:03:13Z</time>
      </trkpt>
      <trkpt lat="45.88751" lon="3.02178">
        <ele>649</ele>
        <time>2014-08-24T11:03:15Z</time>
      </trkpt>
      <trkpt lat="45.8876" lon="3.02175">
        <ele>649</ele>
        <time>2014-08-24T11:03:17Z</time>
      </trkpt>
      <trkpt lat="45.88774" lon="3.02169">
        <ele>649</ele>
        <time>2014-08-24T11:03:20Z</time>
      </trkpt>
      <trkpt lat="45.88785" lon="3.02165">
        <ele>649</ele>
        <time>2014-08-24T11:03:22Z</time>
      </trkpt>
      <trkpt lat="45.88796" lon="3.0216">
        <ele>648</ele>
        <time>2014-08-24T11:03:24Z</time>
      </trkpt>
      <trkpt lat="45.88808" lon="3.02156">
        <ele>648</ele>
        <time>2014-08-24T11:03:26Z</time>
      </trkpt>
      <trkpt lat="45.88824" lon="3.02152">
        <ele>647</ele>
        <time>2014-08-24T11:03:29Z</time>
      </trkpt>
      <trkpt lat="45.88831" lon="3.02147">
        <ele>646</ele>
        <time>2014-08-24T11:03:31Z</time>
      </trkpt>
      <trkpt lat="45.88837" lon="3.02144">
        <ele>645</ele>
        <time>2014-08-24T11:03:34Z</time>
      </trkpt>
      <trkpt lat="45.88845" lon="3.02142">
        <ele>644</ele>
        <time>2014-08-24T11:03:37Z</time>
      </trkpt>
      <trkpt lat="45.88852" lon="3.0214">
        <ele>644</ele>
        <time>2014-08-24T11:03:40Z</time>
      </trkpt>
      <trkpt lat="45.88854" lon="3.02139">
        <ele>643</ele>
        <time>2014-08-24T11:03:42Z</time>
      </trkpt>
      <trkpt lat="45.88857" lon="3.02138">
        <ele>644</ele>
        <time>2014-08-24T11:03:44Z</time>
      </trkpt>
      <trkpt lat="45.8886" lon="3.02137">
        <ele>644</ele>
        <time>2014-08-24T11:03:46Z</time>
      </trkpt>
      <trkpt lat="45.88863" lon="3.02137">
        <ele>644</ele>
        <time>2014-08-24T11:03:49Z</time>
      </trkpt>
      <trkpt lat="45.88864" lon="3.02137">
        <ele>644</ele>
        <time>2014-08-24T11:03:51Z</time>
      </trkpt>
      <trkpt lat="45.88865" lon="3.02137">
        <ele>644</ele>
        <time>2014-08-24T11:03:57Z</time>
      </trkpt>
      <trkpt lat="45.8887" lon="3.02136">
        <ele>644</ele>
        <time>2014-08-24T11:04:00Z</time>
      </trkpt>
      <trkpt lat="45.88874" lon="3.02136">
        <ele>644</ele>
        <time>2014-08-24T11:04:02Z</time>
      </trkpt>
      <trkpt lat="45.88879" lon="3.02134">
        <ele>644</ele>
        <time>2014-08-24T11:04:05Z</time>
      </trkpt>
      <trkpt lat="45.88882" lon="3.02133">
        <ele>644</ele>
        <time>2014-08-24T11:04:07Z</time>
      </trkpt>
      <trkpt lat="45.88886" lon="3.02133">
        <ele>644</ele>
        <time>2014-08-24T11:04:10Z</time>
      </trkpt>
      <trkpt lat="45.8889" lon="3.02133">
        <ele>644</ele>
        <time>2014-08-24T11:04:12Z</time>
      </trkpt>
      <trkpt lat="45.88895" lon="3.02132">
        <ele>644</ele>
        <time>2014-08-24T11:04:14Z</time>
      </trkpt>
      <trkpt lat="45.889" lon="3.02131">
        <ele>645</ele>
        <time>2014-08-24T11:04:16Z</time>
      </trkpt>
      <trkpt lat="45.88905" lon="3.0213">
        <ele>645</ele>
        <time>2014-08-24T11:04:18Z</time>
      </trkpt>
      <trkpt lat="45.88914" lon="3.02127">
        <ele>645</ele>
        <time>2014-08-24T11:04:21Z</time>
      </trkpt>
      <trkpt lat="45.88924" lon="3.02125">
        <ele>645</ele>
        <time>2014-08-24T11:04:24Z</time>
      </trkpt>
      <trkpt lat="45.88935" lon="3.02122">
        <ele>646</ele>
        <time>2014-08-24T11:04:27Z</time>
      </trkpt>
      <trkpt lat="45.88942" lon="3.0212">
        <ele>646</ele>
        <time>2014-08-24T11:04:29Z</time>
      </trkpt>
      <trkpt lat="45.8895" lon="3.02116">
        <ele>647</ele>
        <time>2014-08-24T11:04:32Z</time>
      </trkpt>
      <trkpt lat="45.88955" lon="3.02112">
        <ele>647</ele>
        <time>2014-08-24T11:04:34Z</time>
      </trkpt>
      <trkpt lat="45.88961" lon="3.02106">
        <ele>647</ele>
        <time>2014-08-24T11:04:37Z</time>
      </trkpt>
      <trkpt lat="45.88966" lon="3.02101">
        <ele>648</ele>
        <time>2014-08-24T11:04:39Z</time>
      </trkpt>
      <trkpt lat="45.88972" lon="3.02094">
        <ele>648</ele>
        <time>2014-08-24T11:04:42Z</time>
      </trkpt>
      <trkpt lat="45.88977" lon="3.02089">
        <ele>648</ele>
        <time>2014-08-24T11:04:45Z</time>
      </trkpt>
      <trkpt lat="45.88983" lon="3.02083">
        <ele>649</ele>
        <time>2014-08-24T11:04:48Z</time>
      </trkpt>
      <trkpt lat="45.88988" lon="3.02079">
        <ele>649</ele>
        <time>2014-08-24T11:04:50Z</time>
      </trkpt>
      <trkpt lat="45.88995" lon="3.02072">
        <ele>649</ele>
        <time>2014-08-24T11:04:53Z</time>
      </trkpt>
      <trkpt lat="45.89002" lon="3.02066">
        <ele>650</ele>
        <time>2014-08-24T11:04:56Z</time>
      </trkpt>
      <trkpt lat="45.89006" lon="3.02062">
        <ele>651</ele>
        <time>2014-08-24T11:04:58Z</time>
      </trkpt>
      <trkpt lat="45.89014" lon="3.02054">
        <ele>651</ele>
        <time>2014-08-24T11:05:01Z</time>
      </trkpt>
      <trkpt lat="45.89018" lon="3.02051">
        <ele>651</ele>
        <time>2014-08-24T11:05:03Z</time>
      </trkpt>
      <trkpt lat="45.89025" lon="3.02045">
        <ele>652</ele>
        <time>2014-08-24T11:05:06Z</time>
      </trkpt>
      <trkpt lat="45.89031" lon="3.02039">
        <ele>652</ele>
        <time>2014-08-24T11:05:09Z</time>
      </trkpt>
      <trkpt lat="45.89038" lon="3.02033">
        <ele>653</ele>
        <time>2014-08-24T11:05:12Z</time>
      </trkpt>
      <trkpt lat="45.89043" lon="3.02028">
        <ele>653</ele>
        <time>2014-08-24T11:05:14Z</time>
      </trkpt>
      <trkpt lat="45.8905" lon="3.02021">
        <ele>653</ele>
        <time>2014-08-24T11:05:17Z</time>
      </trkpt>
      <trkpt lat="45.89054" lon="3.02018">
        <ele>653</ele>
        <time>2014-08-24T11:05:19Z</time>
      </trkpt>
      <trkpt lat="45.89058" lon="3.02014">
        <ele>652</ele>
        <time>2014-08-24T11:05:21Z</time>
      </trkpt>
      <trkpt lat="45.89062" lon="3.02012">
        <ele>652</ele>
        <time>2014-08-24T11:05:23Z</time>
      </trkpt>
      <trkpt lat="45.89069" lon="3.02009">
        <ele>652</ele>
        <time>2014-08-24T11:05:26Z</time>
      </trkpt>
      <trkpt lat="45.89074" lon="3.02007">
        <ele>653</ele>
        <time>2014-08-24T11:05:28Z</time>
      </trkpt>
      <trkpt lat="45.89083" lon="3.02002">
        <ele>653</ele>
        <time>2014-08-24T11:05:31Z</time>
      </trkpt>
      <trkpt lat="45.89089" lon="3.01998">
        <ele>652</ele>
        <time>2014-08-24T11:05:33Z</time>
      </trkpt>
      <trkpt lat="45.89095" lon="3.01994">
        <ele>652</ele>
        <time>2014-08-24T11:05:35Z</time>
      </trkpt>
      <trkpt lat="45.891" lon="3.0199">
        <ele>652</ele>
        <time>2014-08-24T11:05:37Z</time>
      </trkpt>
      <trkpt lat="45.89107" lon="3.01986">
        <ele>652</ele>
        <time>2014-08-24T11:05:40Z</time>
      </trkpt>
      <trkpt lat="45.89112" lon="3.01983">
        <ele>652</ele>
        <time>2014-08-24T11:05:42Z</time>
      </trkpt>
      <trkpt lat="45.89117" lon="3.01981">
        <ele>652</ele>
        <time>2014-08-24T11:05:44Z</time>
      </trkpt>
      <trkpt lat="45.89125" lon="3.01978">
        <ele>652</ele>
        <time>2014-08-24T11:05:47Z</time>
      </trkpt>
      <trkpt lat="45.8913" lon="3.01974">
        <ele>652</ele>
        <time>2014-08-24T11:05:49Z</time>
      </trkpt>
      <trkpt lat="45.89137" lon="3.01971">
        <ele>651</ele>
        <time>2014-08-24T11:05:51Z</time>
      </trkpt>
      <trkpt lat="45.89144" lon="3.01969">
        <ele>651</ele>
        <time>2014-08-24T11:05:54Z</time>
      </trkpt>
      <trkpt lat="45.8915" lon="3.01965">
        <ele>652</ele>
        <time>2014-08-24T11:05:57Z</time>
      </trkpt>
      <trkpt lat="45.89155" lon="3.01963">
        <ele>652</ele>
        <time>2014-08-24T11:05:59Z</time>
      </trkpt>
      <trkpt lat="45.89162" lon="3.01959">
        <ele>652</ele>
        <time>2014-08-24T11:06:02Z</time>
      </trkpt>
      <trkpt lat="45.89167" lon="3.01957">
        <ele>652</ele>
        <time>2014-08-24T11:06:04Z</time>
      </trkpt>
      <trkpt lat="45.89169" lon="3.01956">
        <ele>652</ele>
        <time>2014-08-24T11:06:07Z</time>
      </trkpt>
      <trkpt lat="45.8917" lon="3.01956">
        <ele>652</ele>
        <time>2014-08-24T11:06:09Z</time>
      </trkpt>
      <trkpt lat="45.8918" lon="3.01948">
        <ele>652</ele>
        <time>2014-08-24T11:06:11Z</time>
      </trkpt>
      <trkpt lat="45.89182" lon="3.01945">
        <ele>652</ele>
        <time>2014-08-24T11:06:13Z</time>
      </trkpt>
      <trkpt lat="45.89183" lon="3.01942">
        <ele>652</ele>
        <time>2014-08-24T11:06:15Z</time>
      </trkpt>
      <trkpt lat="45.89184" lon="3.01935">
        <ele>652</ele>
        <time>2014-08-24T11:06:18Z</time>
      </trkpt>
      <trkpt lat="45.89183" lon="3.0193">
        <ele>652</ele>
        <time>2014-08-24T11:06:20Z</time>
      </trkpt>
      <trkpt lat="45.89182" lon="3.0192">
        <ele>652</ele>
        <time>2014-08-24T11:06:23Z</time>
      </trkpt>
      <trkpt lat="45.8918" lon="3.01911">
        <ele>652</ele>
        <time>2014-08-24T11:06:25Z</time>
      </trkpt>
      <trkpt lat="45.89177" lon="3.01898">
        <ele>652</ele>
        <time>2014-08-24T11:06:28Z</time>
      </trkpt>
      <trkpt lat="45.89177" lon="3.01889">
        <ele>653</ele>
        <time>2014-08-24T11:06:30Z</time>
      </trkpt>
      <trkpt lat="45.89176" lon="3.0188">
        <ele>653</ele>
        <time>2014-08-24T11:06:32Z</time>
      </trkpt>
      <trkpt lat="45.89177" lon="3.01865">
        <ele>654</ele>
        <time>2014-08-24T11:06:35Z</time>
      </trkpt>
      <trkpt lat="45.89177" lon="3.01855">
        <ele>654</ele>
        <time>2014-08-24T11:06:37Z</time>
      </trkpt>
      <trkpt lat="45.89177" lon="3.01844">
        <ele>655</ele>
        <time>2014-08-24T11:06:39Z</time>
      </trkpt>
      <trkpt lat="45.89179" lon="3.01827">
        <ele>655</ele>
        <time>2014-08-24T11:06:42Z</time>
      </trkpt>
      <trkpt lat="45.89179" lon="3.01817">
        <ele>655</ele>
        <time>2014-08-24T11:06:44Z</time>
      </trkpt>
      <trkpt lat="45.8918" lon="3.01806">
        <ele>656</ele>
        <time>2014-08-24T11:06:46Z</time>
      </trkpt>
      <trkpt lat="45.89181" lon="3.0179">
        <ele>656</ele>
        <time>2014-08-24T11:06:49Z</time>
      </trkpt>
      <trkpt lat="45.89183" lon="3.01772">
        <ele>656</ele>
        <time>2014-08-24T11:06:52Z</time>
      </trkpt>
      <trkpt lat="45.89182" lon="3.01761">
        <ele>657</ele>
        <time>2014-08-24T11:06:54Z</time>
      </trkpt>
      <trkpt lat="45.89179" lon="3.01747">
        <ele>656</ele>
        <time>2014-08-24T11:06:56Z</time>
      </trkpt>
      <trkpt lat="45.89175" lon="3.01725">
        <ele>656</ele>
        <time>2014-08-24T11:06:59Z</time>
      </trkpt>
      <trkpt lat="45.89173" lon="3.0171">
        <ele>656</ele>
        <time>2014-08-24T11:07:01Z</time>
      </trkpt>
      <trkpt lat="45.8917" lon="3.01693">
        <ele>656</ele>
        <time>2014-08-24T11:07:03Z</time>
      </trkpt>
      <trkpt lat="45.89164" lon="3.01666">
        <ele>656</ele>
        <time>2014-08-24T11:07:06Z</time>
      </trkpt>
      <trkpt lat="45.8916" lon="3.01647">
        <ele>656</ele>
        <time>2014-08-24T11:07:08Z</time>
      </trkpt>
      <trkpt lat="45.89156" lon="3.01627">
        <ele>656</ele>
        <time>2014-08-24T11:07:10Z</time>
      </trkpt>
      <trkpt lat="45.89149" lon="3.01598">
        <ele>656</ele>
        <time>2014-08-24T11:07:13Z</time>
      </trkpt>
      <trkpt lat="45.89147" lon="3.01581">
        <ele>657</ele>
        <time>2014-08-24T11:07:15Z</time>
      </trkpt>
      <trkpt lat="45.89146" lon="3.01564">
        <ele>658</ele>
        <time>2014-08-24T11:07:17Z</time>
      </trkpt>
      <trkpt lat="45.89145" lon="3.01549">
        <ele>659</ele>
        <time>2014-08-24T11:07:19Z</time>
      </trkpt>
      <trkpt lat="45.89143" lon="3.01533">
        <ele>659</ele>
        <time>2014-08-24T11:07:21Z</time>
      </trkpt>
      <trkpt lat="45.89143" lon="3.01514">
        <ele>660</ele>
        <time>2014-08-24T11:07:24Z</time>
      </trkpt>
      <trkpt lat="45.89142" lon="3.01498">
        <ele>661</ele>
        <time>2014-08-24T11:07:27Z</time>
      </trkpt>
      <trkpt lat="45.89139" lon="3.01482">
        <ele>662</ele>
        <time>2014-08-24T11:07:30Z</time>
      </trkpt>
      <trkpt lat="45.89134" lon="3.01466">
        <ele>662</ele>
        <time>2014-08-24T11:07:33Z</time>
      </trkpt>
      <trkpt lat="45.89131" lon="3.01456">
        <ele>663</ele>
        <time>2014-08-24T11:07:35Z</time>
      </trkpt>
      <trkpt lat="45.89128" lon="3.01447">
        <ele>663</ele>
        <time>2014-08-24T11:07:37Z</time>
      </trkpt>
      <trkpt lat="45.89125" lon="3.01438">
        <ele>663</ele>
        <time>2014-08-24T11:07:39Z</time>
      </trkpt>
      <trkpt lat="45.8912" lon="3.01426">
        <ele>663</ele>
        <time>2014-08-24T11:07:42Z</time>
      </trkpt>
      <trkpt lat="45.89118" lon="3.01417">
        <ele>663</ele>
        <time>2014-08-24T11:07:44Z</time>
      </trkpt>
      <trkpt lat="45.89114" lon="3.01408">
        <ele>663</ele>
        <time>2014-08-24T11:07:46Z</time>
      </trkpt>
      <trkpt lat="45.89111" lon="3.014">
        <ele>663</ele>
        <time>2014-08-24T11:07:48Z</time>
      </trkpt>
      <trkpt lat="45.89109" lon="3.01394">
        <ele>663</ele>
        <time>2014-08-24T11:07:50Z</time>
      </trkpt>
      <trkpt lat="45.89108" lon="3.01389">
        <ele>663</ele>
        <time>2014-08-24T11:07:52Z</time>
      </trkpt>
      <trkpt lat="45.89109" lon="3.01388">
        <ele>661</ele>
        <time>2014-08-24T11:07:55Z</time>
      </trkpt>
      <trkpt lat="45.89109" lon="3.01387">
        <ele>662</ele>
        <time>2014-08-24T11:07:58Z</time>
      </trkpt>
      <trkpt lat="45.89111" lon="3.01385">
        <ele>662</ele>
        <time>2014-08-24T11:08:00Z</time>
      </trkpt>
      <trkpt lat="45.89114" lon="3.01382">
        <ele>662</ele>
        <time>2014-08-24T11:08:03Z</time>
      </trkpt>
      <trkpt lat="45.89118" lon="3.01379">
        <ele>662</ele>
        <time>2014-08-24T11:08:05Z</time>
      </trkpt>
      <trkpt lat="45.89122" lon="3.01373">
        <ele>662</ele>
        <time>2014-08-24T11:08:07Z</time>
      </trkpt>
      <trkpt lat="45.89127" lon="3.01366">
        <ele>662</ele>
        <time>2014-08-24T11:08:10Z</time>
      </trkpt>
      <trkpt lat="45.89134" lon="3.01358">
        <ele>663</ele>
        <time>2014-08-24T11:08:13Z</time>
      </trkpt>
      <trkpt lat="45.8914" lon="3.01353">
        <ele>663</ele>
        <time>2014-08-24T11:08:15Z</time>
      </trkpt>
      <trkpt lat="45.8915" lon="3.01343">
        <ele>664</ele>
        <time>2014-08-24T11:08:18Z</time>
      </trkpt>
      <trkpt lat="45.89157" lon="3.01337">
        <ele>664</ele>
        <time>2014-08-24T11:08:20Z</time>
      </trkpt>
      <trkpt lat="45.89165" lon="3.0133">
        <ele>665</ele>
        <time>2014-08-24T11:08:22Z</time>
      </trkpt>
      <trkpt lat="45.89173" lon="3.01323">
        <ele>665</ele>
        <time>2014-08-24T11:08:24Z</time>
      </trkpt>
      <trkpt lat="45.8918" lon="3.01315">
        <ele>665</ele>
        <time>2014-08-24T11:08:26Z</time>
      </trkpt>
      <trkpt lat="45.8919" lon="3.01303">
        <ele>666</ele>
        <time>2014-08-24T11:08:29Z</time>
      </trkpt>
      <trkpt lat="45.89195" lon="3.01295">
        <ele>666</ele>
        <time>2014-08-24T11:08:31Z</time>
      </trkpt>
      <trkpt lat="45.89202" lon="3.01282">
        <ele>666</ele>
        <time>2014-08-24T11:08:34Z</time>
      </trkpt>
      <trkpt lat="45.89207" lon="3.01272">
        <ele>666</ele>
        <time>2014-08-24T11:08:36Z</time>
      </trkpt>
      <trkpt lat="45.89214" lon="3.01255">
        <ele>666</ele>
        <time>2014-08-24T11:08:39Z</time>
      </trkpt>
      <trkpt lat="45.89219" lon="3.01242">
        <ele>666</ele>
        <time>2014-08-24T11:08:41Z</time>
      </trkpt>
      <trkpt lat="45.89224" lon="3.0123">
        <ele>665</ele>
        <time>2014-08-24T11:08:43Z</time>
      </trkpt>
      <trkpt lat="45.89232" lon="3.01211">
        <ele>665</ele>
        <time>2014-08-24T11:08:46Z</time>
      </trkpt>
      <trkpt lat="45.89239" lon="3.01201">
        <ele>665</ele>
        <time>2014-08-24T11:08:48Z</time>
      </trkpt>
      <trkpt lat="45.89249" lon="3.01187">
        <ele>665</ele>
        <time>2014-08-24T11:08:51Z</time>
      </trkpt>
      <trkpt lat="45.89256" lon="3.01176">
        <ele>665</ele>
        <time>2014-08-24T11:08:53Z</time>
      </trkpt>
      <trkpt lat="45.89262" lon="3.01166">
        <ele>665</ele>
        <time>2014-08-24T11:08:55Z</time>
      </trkpt>
      <trkpt lat="45.8927" lon="3.01154">
        <ele>665</ele>
        <time>2014-08-24T11:08:57Z</time>
      </trkpt>
      <trkpt lat="45.89277" lon="3.01142">
        <ele>665</ele>
        <time>2014-08-24T11:08:59Z</time>
      </trkpt>
      <trkpt lat="45.89284" lon="3.01129">
        <ele>665</ele>
        <time>2014-08-24T11:09:01Z</time>
      </trkpt>
      <trkpt lat="45.8929" lon="3.01116">
        <ele>665</ele>
        <time>2014-08-24T11:09:03Z</time>
      </trkpt>
      <trkpt lat="45.89296" lon="3.01103">
        <ele>665</ele>
        <time>2014-08-24T11:09:05Z</time>
      </trkpt>
      <trkpt lat="45.89304" lon="3.01084">
        <ele>665</ele>
        <time>2014-08-24T11:09:08Z</time>
      </trkpt>
      <trkpt lat="45.8931" lon="3.01073">
        <ele>665</ele>
        <time>2014-08-24T11:09:10Z</time>
      </trkpt>
      <trkpt lat="45.89315" lon="3.01061">
        <ele>665</ele>
        <time>2014-08-24T11:09:12Z</time>
      </trkpt>
      <trkpt lat="45.8932" lon="3.01049">
        <ele>665</ele>
        <time>2014-08-24T11:09:14Z</time>
      </trkpt>
      <trkpt lat="45.89328" lon="3.01032">
        <ele>666</ele>
        <time>2014-08-24T11:09:17Z</time>
      </trkpt>
      <trkpt lat="45.89334" lon="3.01021">
        <ele>666</ele>
        <time>2014-08-24T11:09:19Z</time>
      </trkpt>
      <trkpt lat="45.89339" lon="3.01008">
        <ele>666</ele>
        <time>2014-08-24T11:09:21Z</time>
      </trkpt>
      <trkpt lat="45.89347" lon="3.0099">
        <ele>667</ele>
        <time>2014-08-24T11:09:24Z</time>
      </trkpt>
      <trkpt lat="45.89356" lon="3.00973">
        <ele>668</ele>
        <time>2014-08-24T11:09:27Z</time>
      </trkpt>
      <trkpt lat="45.89364" lon="3.00954">
        <ele>668</ele>
        <time>2014-08-24T11:09:30Z</time>
      </trkpt>
      <trkpt lat="45.89369" lon="3.00942">
        <ele>669</ele>
        <time>2014-08-24T11:09:32Z</time>
      </trkpt>
      <trkpt lat="45.89375" lon="3.00931">
        <ele>669</ele>
        <time>2014-08-24T11:09:34Z</time>
      </trkpt>
      <trkpt lat="45.89383" lon="3.00916">
        <ele>670</ele>
        <time>2014-08-24T11:09:37Z</time>
      </trkpt>
      <trkpt lat="45.89389" lon="3.00906">
        <ele>670</ele>
        <time>2014-08-24T11:09:39Z</time>
      </trkpt>
      <trkpt lat="45.89394" lon="3.00896">
        <ele>670</ele>
        <time>2014-08-24T11:09:41Z</time>
      </trkpt>
      <trkpt lat="45.89402" lon="3.00879">
        <ele>670</ele>
        <time>2014-08-24T11:09:44Z</time>
      </trkpt>
      <trkpt lat="45.89407" lon="3.00869">
        <ele>671</ele>
        <time>2014-08-24T11:09:46Z</time>
      </trkpt>
      <trkpt lat="45.89413" lon="3.00859">
        <ele>671</ele>
        <time>2014-08-24T11:09:48Z</time>
      </trkpt>
      <trkpt lat="45.89419" lon="3.0085">
        <ele>672</ele>
        <time>2014-08-24T11:09:50Z</time>
      </trkpt>
      <trkpt lat="45.89428" lon="3.00837">
        <ele>673</ele>
        <time>2014-08-24T11:09:53Z</time>
      </trkpt>
      <trkpt lat="45.89433" lon="3.00829">
        <ele>673</ele>
        <time>2014-08-24T11:09:55Z</time>
      </trkpt>
      <trkpt lat="45.89442" lon="3.00814">
        <ele>674</ele>
        <time>2014-08-24T11:09:58Z</time>
      </trkpt>
      <trkpt lat="45.89448" lon="3.00803">
        <ele>674</ele>
        <time>2014-08-24T11:10:00Z</time>
      </trkpt>
      <trkpt lat="45.89454" lon="3.00794">
        <ele>675</ele>
        <time>2014-08-24T11:10:02Z</time>
      </trkpt>
      <trkpt lat="45.89464" lon="3.00781">
        <ele>676</ele>
        <time>2014-08-24T11:10:05Z</time>
      </trkpt>
      <trkpt lat="45.8947" lon="3.00772">
        <ele>676</ele>
        <time>2014-08-24T11:10:07Z</time>
      </trkpt>
      <trkpt lat="45.89476" lon="3.00763">
        <ele>677</ele>
        <time>2014-08-24T11:10:09Z</time>
      </trkpt>
      <trkpt lat="45.89484" lon="3.00751">
        <ele>677</ele>
        <time>2014-08-24T11:10:12Z</time>
      </trkpt>
      <trkpt lat="45.8949" lon="3.00743">
        <ele>677</ele>
        <time>2014-08-24T11:10:14Z</time>
      </trkpt>
      <trkpt lat="45.89496" lon="3.00735">
        <ele>677</ele>
        <time>2014-08-24T11:10:16Z</time>
      </trkpt>
      <trkpt lat="45.89504" lon="3.00726">
        <ele>677</ele>
        <time>2014-08-24T11:10:19Z</time>
      </trkpt>
      <trkpt lat="45.89513" lon="3.00718">
        <ele>678</ele>
        <time>2014-08-24T11:10:22Z</time>
      </trkpt>
      <trkpt lat="45.89519" lon="3.00712">
        <ele>678</ele>
        <time>2014-08-24T11:10:24Z</time>
      </trkpt>
      <trkpt lat="45.89529" lon="3.00705">
        <ele>679</ele>
        <time>2014-08-24T11:10:27Z</time>
      </trkpt>
      <trkpt lat="45.89536" lon="3.007">
        <ele>679</ele>
        <time>2014-08-24T11:10:29Z</time>
      </trkpt>
      <trkpt lat="45.89544" lon="3.00694">
        <ele>679</ele>
        <time>2014-08-24T11:10:32Z</time>
      </trkpt>
      <trkpt lat="45.89552" lon="3.00688">
        <ele>680</ele>
        <time>2014-08-24T11:10:35Z</time>
      </trkpt>
      <trkpt lat="45.89558" lon="3.00683">
        <ele>680</ele>
        <time>2014-08-24T11:10:37Z</time>
      </trkpt>
      <trkpt lat="45.89568" lon="3.00674">
        <ele>681</ele>
        <time>2014-08-24T11:10:40Z</time>
      </trkpt>
      <trkpt lat="45.89574" lon="3.00669">
        <ele>682</ele>
        <time>2014-08-24T11:10:42Z</time>
      </trkpt>
      <trkpt lat="45.89582" lon="3.00662">
        <ele>682</ele>
        <time>2014-08-24T11:10:45Z</time>
      </trkpt>
      <trkpt lat="45.89586" lon="3.00656">
        <ele>682</ele>
        <time>2014-08-24T11:10:47Z</time>
      </trkpt>
      <trkpt lat="45.89591" lon="3.0065">
        <ele>683</ele>
        <time>2014-08-24T11:10:49Z</time>
      </trkpt>
      <trkpt lat="45.89595" lon="3.00643">
        <ele>683</ele>
        <time>2014-08-24T11:10:51Z</time>
      </trkpt>
      <trkpt lat="45.89599" lon="3.00636">
        <ele>683</ele>
        <time>2014-08-24T11:10:53Z</time>
      </trkpt>
      <trkpt lat="45.89604" lon="3.00624">
        <ele>684</ele>
        <time>2014-08-24T11:10:56Z</time>
      </trkpt>
      <trkpt lat="45.8961" lon="3.00611">
        <ele>684</ele>
        <time>2014-08-24T11:10:59Z</time>
      </trkpt>
      <trkpt lat="45.89615" lon="3.006">
        <ele>685</ele>
        <time>2014-08-24T11:11:02Z</time>
      </trkpt>
      <trkpt lat="45.89618" lon="3.00591">
        <ele>685</ele>
        <time>2014-08-24T11:11:04Z</time>
      </trkpt>
      <trkpt lat="45.89621" lon="3.00583">
        <ele>685</ele>
        <time>2014-08-24T11:11:06Z</time>
      </trkpt>
      <trkpt lat="45.89624" lon="3.00576">
        <ele>685</ele>
        <time>2014-08-24T11:11:08Z</time>
      </trkpt>
      <trkpt lat="45.89628" lon="3.00566">
        <ele>686</ele>
        <time>2014-08-24T11:11:11Z</time>
      </trkpt>
      <trkpt lat="45.89633" lon="3.00555">
        <ele>686</ele>
        <time>2014-08-24T11:11:14Z</time>
      </trkpt>
      <trkpt lat="45.89636" lon="3.00548">
        <ele>686</ele>
        <time>2014-08-24T11:11:16Z</time>
      </trkpt>
      <trkpt lat="45.8964" lon="3.00537">
        <ele>687</ele>
        <time>2014-08-24T11:11:19Z</time>
      </trkpt>
      <trkpt lat="45.89642" lon="3.00528">
        <ele>687</ele>
        <time>2014-08-24T11:11:22Z</time>
      </trkpt>
      <trkpt lat="45.89645" lon="3.00518">
        <ele>687</ele>
        <time>2014-08-24T11:11:25Z</time>
      </trkpt>
      <trkpt lat="45.89647" lon="3.00512">
        <ele>687</ele>
        <time>2014-08-24T11:11:27Z</time>
      </trkpt>
      <trkpt lat="45.8965" lon="3.00503">
        <ele>688</ele>
        <time>2014-08-24T11:11:30Z</time>
      </trkpt>
      <trkpt lat="45.89653" lon="3.00497">
        <ele>688</ele>
        <time>2014-08-24T11:11:32Z</time>
      </trkpt>
      <trkpt lat="45.89655" lon="3.0049">
        <ele>687</ele>
        <time>2014-08-24T11:11:34Z</time>
      </trkpt>
      <trkpt lat="45.89658" lon="3.00482">
        <ele>687</ele>
        <time>2014-08-24T11:11:36Z</time>
      </trkpt>
      <trkpt lat="45.89664" lon="3.00468">
        <ele>687</ele>
        <time>2014-08-24T11:11:39Z</time>
      </trkpt>
      <trkpt lat="45.89668" lon="3.00457">
        <ele>686</ele>
        <time>2014-08-24T11:11:41Z</time>
      </trkpt>
      <trkpt lat="45.89677" lon="3.00439">
        <ele>686</ele>
        <time>2014-08-24T11:11:44Z</time>
      </trkpt>
      <trkpt lat="45.89682" lon="3.00426">
        <ele>685</ele>
        <time>2014-08-24T11:11:46Z</time>
      </trkpt>
      <trkpt lat="45.8969" lon="3.00407">
        <ele>685</ele>
        <time>2014-08-24T11:11:49Z</time>
      </trkpt>
      <trkpt lat="45.89698" lon="3.00387">
        <ele>684</ele>
        <time>2014-08-24T11:11:52Z</time>
      </trkpt>
      <trkpt lat="45.89704" lon="3.00373">
        <ele>684</ele>
        <time>2014-08-24T11:11:54Z</time>
      </trkpt>
      <trkpt lat="45.89709" lon="3.00361">
        <ele>684</ele>
        <time>2014-08-24T11:11:56Z</time>
      </trkpt>
      <trkpt lat="45.89714" lon="3.00343">
        <ele>683</ele>
        <time>2014-08-24T11:11:59Z</time>
      </trkpt>
      <trkpt lat="45.89719" lon="3.00329">
        <ele>683</ele>
        <time>2014-08-24T11:12:02Z</time>
      </trkpt>
      <trkpt lat="45.89723" lon="3.00321">
        <ele>683</ele>
        <time>2014-08-24T11:12:04Z</time>
      </trkpt>
      <trkpt lat="45.89726" lon="3.00314">
        <ele>683</ele>
        <time>2014-08-24T11:12:06Z</time>
      </trkpt>
      <trkpt lat="45.8973" lon="3.00302">
        <ele>683</ele>
        <time>2014-08-24T11:12:09Z</time>
      </trkpt>
      <trkpt lat="45.89735" lon="3.00289">
        <ele>684</ele>
        <time>2014-08-24T11:12:12Z</time>
      </trkpt>
      <trkpt lat="45.89738" lon="3.00281">
        <ele>684</ele>
        <time>2014-08-24T11:12:14Z</time>
      </trkpt>
      <trkpt lat="45.89741" lon="3.00273">
        <ele>684</ele>
        <time>2014-08-24T11:12:16Z</time>
      </trkpt>
      <trkpt lat="45.89748" lon="3.00258">
        <ele>683</ele>
        <time>2014-08-24T11:12:19Z</time>
      </trkpt>
      <trkpt lat="45.89753" lon="3.00248">
        <ele>683</ele>
        <time>2014-08-24T11:12:21Z</time>
      </trkpt>
      <trkpt lat="45.89757" lon="3.00236">
        <ele>684</ele>
        <time>2014-08-24T11:12:23Z</time>
      </trkpt>
      <trkpt lat="45.89764" lon="3.00221">
        <ele>684</ele>
        <time>2014-08-24T11:12:26Z</time>
      </trkpt>
      <trkpt lat="45.89773" lon="3.00208">
        <ele>684</ele>
        <time>2014-08-24T11:12:29Z</time>
      </trkpt>
      <trkpt lat="45.89779" lon="3.002">
        <ele>685</ele>
        <time>2014-08-24T11:12:31Z</time>
      </trkpt>
      <trkpt lat="45.89788" lon="3.00192">
        <ele>685</ele>
        <time>2014-08-24T11:12:34Z</time>
      </trkpt>
      <trkpt lat="45.89791" lon="3.00182">
        <ele>685</ele>
        <time>2014-08-24T11:12:36Z</time>
      </trkpt>
      <trkpt lat="45.89789" lon="3.0017">
        <ele>685</ele>
        <time>2014-08-24T11:12:38Z</time>
      </trkpt>
      <trkpt lat="45.89782" lon="3.00151">
        <ele>685</ele>
        <time>2014-08-24T11:12:41Z</time>
      </trkpt>
      <trkpt lat="45.89777" lon="3.00141">
        <ele>685</ele>
        <time>2014-08-24T11:12:43Z</time>
      </trkpt>
      <trkpt lat="45.89766" lon="3.00128">
        <ele>686</ele>
        <time>2014-08-24T11:12:46Z</time>
      </trkpt>
      <trkpt lat="45.89755" lon="3.00117">
        <ele>687</ele>
        <time>2014-08-24T11:12:49Z</time>
      </trkpt>
      <trkpt lat="45.89742" lon="3.00105">
        <ele>687</ele>
        <time>2014-08-24T11:12:52Z</time>
      </trkpt>
      <trkpt lat="45.89727" lon="3.00093">
        <ele>687</ele>
        <time>2014-08-24T11:12:55Z</time>
      </trkpt>
      <trkpt lat="45.89718" lon="3.00083">
        <ele>687</ele>
        <time>2014-08-24T11:12:57Z</time>
      </trkpt>
      <trkpt lat="45.89704" lon="3.00069">
        <ele>688</ele>
        <time>2014-08-24T11:13:00Z</time>
      </trkpt>
      <trkpt lat="45.89695" lon="3.0006">
        <ele>689</ele>
        <time>2014-08-24T11:13:02Z</time>
      </trkpt>
      <trkpt lat="45.89686" lon="3.00051">
        <ele>690</ele>
        <time>2014-08-24T11:13:04Z</time>
      </trkpt>
      <trkpt lat="45.89672" lon="3.0004">
        <ele>690</ele>
        <time>2014-08-24T11:13:07Z</time>
      </trkpt>
      <trkpt lat="45.8966" lon="3.00029">
        <ele>690</ele>
        <time>2014-08-24T11:13:10Z</time>
      </trkpt>
      <trkpt lat="45.89647" lon="3.00017">
        <ele>690</ele>
        <time>2014-08-24T11:13:13Z</time>
      </trkpt>
      <trkpt lat="45.89639" lon="3.00009">
        <ele>690</ele>
        <time>2014-08-24T11:13:15Z</time>
      </trkpt>
      <trkpt lat="45.89631" lon="3">
        <ele>690</ele>
        <time>2014-08-24T11:13:17Z</time>
      </trkpt>
      <trkpt lat="45.89624" lon="2.99991">
        <ele>691</ele>
        <time>2014-08-24T11:13:19Z</time>
      </trkpt>
      <trkpt lat="45.89619" lon="2.99975">
        <ele>692</ele>
        <time>2014-08-24T11:13:22Z</time>
      </trkpt>
      <trkpt lat="45.89616" lon="2.9996">
        <ele>693</ele>
        <time>2014-08-24T11:13:25Z</time>
      </trkpt>
      <trkpt lat="45.89613" lon="2.99952">
        <ele>694</ele>
        <time>2014-08-24T11:13:27Z</time>
      </trkpt>
      <trkpt lat="45.89608" lon="2.99938">
        <ele>694</ele>
        <time>2014-08-24T11:13:30Z</time>
      </trkpt>
      <trkpt lat="45.89605" lon="2.99929">
        <ele>695</ele>
        <time>2014-08-24T11:13:32Z</time>
      </trkpt>
      <trkpt lat="45.89602" lon="2.99915">
        <ele>696</ele>
        <time>2014-08-24T11:13:35Z</time>
      </trkpt>
      <trkpt lat="45.89601" lon="2.99906">
        <ele>696</ele>
        <time>2014-08-24T11:13:37Z</time>
      </trkpt>
      <trkpt lat="45.89601" lon="2.99897">
        <ele>697</ele>
        <time>2014-08-24T11:13:39Z</time>
      </trkpt>
      <trkpt lat="45.89602" lon="2.99883">
        <ele>698</ele>
        <time>2014-08-24T11:13:42Z</time>
      </trkpt>
      <trkpt lat="45.89603" lon="2.99869">
        <ele>698</ele>
        <time>2014-08-24T11:13:45Z</time>
      </trkpt>
      <trkpt lat="45.89602" lon="2.99855">
        <ele>698</ele>
        <time>2014-08-24T11:13:48Z</time>
      </trkpt>
      <trkpt lat="45.89601" lon="2.99841">
        <ele>698</ele>
        <time>2014-08-24T11:13:51Z</time>
      </trkpt>
      <trkpt lat="45.89599" lon="2.9983">
        <ele>698</ele>
        <time>2014-08-24T11:13:54Z</time>
      </trkpt>
      <trkpt lat="45.89597" lon="2.99822">
        <ele>698</ele>
        <time>2014-08-24T11:13:56Z</time>
      </trkpt>
      <trkpt lat="45.89595" lon="2.99815">
        <ele>699</ele>
        <time>2014-08-24T11:13:58Z</time>
      </trkpt>
      <trkpt lat="45.8959" lon="2.99802">
        <ele>699</ele>
        <time>2014-08-24T11:14:01Z</time>
      </trkpt>
      <trkpt lat="45.89586" lon="2.99794">
        <ele>699</ele>
        <time>2014-08-24T11:14:03Z</time>
      </trkpt>
      <trkpt lat="45.89581" lon="2.99786">
        <ele>698</ele>
        <time>2014-08-24T11:14:05Z</time>
      </trkpt>
      <trkpt lat="45.89576" lon="2.99778">
        <ele>698</ele>
        <time>2014-08-24T11:14:07Z</time>
      </trkpt>
      <trkpt lat="45.8957" lon="2.99771">
        <ele>698</ele>
        <time>2014-08-24T11:14:09Z</time>
      </trkpt>
      <trkpt lat="45.89561" lon="2.99761">
        <ele>698</ele>
        <time>2014-08-24T11:14:12Z</time>
      </trkpt>
      <trkpt lat="45.89556" lon="2.99751">
        <ele>699</ele>
        <time>2014-08-24T11:14:14Z</time>
      </trkpt>
      <trkpt lat="45.89551" lon="2.99741">
        <ele>699</ele>
        <time>2014-08-24T11:14:16Z</time>
      </trkpt>
      <trkpt lat="45.89545" lon="2.99731">
        <ele>699</ele>
        <time>2014-08-24T11:14:18Z</time>
      </trkpt>
      <trkpt lat="45.89539" lon="2.99721">
        <ele>699</ele>
        <time>2014-08-24T11:14:20Z</time>
      </trkpt>
      <trkpt lat="45.89531" lon="2.99706">
        <ele>700</ele>
        <time>2014-08-24T11:14:23Z</time>
      </trkpt>
      <trkpt lat="45.89526" lon="2.99697">
        <ele>700</ele>
        <time>2014-08-24T11:14:25Z</time>
      </trkpt>
      <trkpt lat="45.89518" lon="2.99686">
        <ele>700</ele>
        <time>2014-08-24T11:14:28Z</time>
      </trkpt>
      <trkpt lat="45.89513" lon="2.99678">
        <ele>701</ele>
        <time>2014-08-24T11:14:30Z</time>
      </trkpt>
      <trkpt lat="45.89508" lon="2.99672">
        <ele>701</ele>
        <time>2014-08-24T11:14:32Z</time>
      </trkpt>
      <trkpt lat="45.89501" lon="2.99665">
        <ele>701</ele>
        <time>2014-08-24T11:14:35Z</time>
      </trkpt>
      <trkpt lat="45.89494" lon="2.99661">
        <ele>701</ele>
        <time>2014-08-24T11:14:37Z</time>
      </trkpt>
      <trkpt lat="45.89487" lon="2.99657">
        <ele>701</ele>
        <time>2014-08-24T11:14:39Z</time>
      </trkpt>
      <trkpt lat="45.89477" lon="2.99651">
        <ele>701</ele>
        <time>2014-08-24T11:14:42Z</time>
      </trkpt>
      <trkpt lat="45.89472" lon="2.99646">
        <ele>702</ele>
        <time>2014-08-24T11:14:44Z</time>
      </trkpt>
      <trkpt lat="45.89464" lon="2.99638">
        <ele>702</ele>
        <time>2014-08-24T11:14:47Z</time>
      </trkpt>
      <trkpt lat="45.89455" lon="2.9963">
        <ele>702</ele>
        <time>2014-08-24T11:14:50Z</time>
      </trkpt>
      <trkpt lat="45.89449" lon="2.99623">
        <ele>702</ele>
        <time>2014-08-24T11:14:52Z</time>
      </trkpt>
      <trkpt lat="45.89441" lon="2.99613">
        <ele>703</ele>
        <time>2014-08-24T11:14:55Z</time>
      </trkpt>
      <trkpt lat="45.89435" lon="2.99606">
        <ele>703</ele>
        <time>2014-08-24T11:14:57Z</time>
      </trkpt>
      <trkpt lat="45.89429" lon="2.99601">
        <ele>703</ele>
        <time>2014-08-24T11:14:59Z</time>
      </trkpt>
      <trkpt lat="45.89421" lon="2.99594">
        <ele>704</ele>
        <time>2014-08-24T11:15:02Z</time>
      </trkpt>
      <trkpt lat="45.89415" lon="2.99589">
        <ele>704</ele>
        <time>2014-08-24T11:15:05Z</time>
      </trkpt>
      <trkpt lat="45.8942" lon="2.99593">
        <ele>705</ele>
        <time>2014-08-24T11:15:07Z</time>
      </trkpt>
      <trkpt lat="45.89425" lon="2.99596">
        <ele>705</ele>
        <time>2014-08-24T11:15:09Z</time>
      </trkpt>
      <trkpt lat="45.89436" lon="2.99605">
        <ele>705</ele>
        <time>2014-08-24T11:15:12Z</time>
      </trkpt>
      <trkpt lat="45.89443" lon="2.99613">
        <ele>705</ele>
        <time>2014-08-24T11:15:14Z</time>
      </trkpt>
      <trkpt lat="45.89455" lon="2.99625">
        <ele>704</ele>
        <time>2014-08-24T11:15:17Z</time>
      </trkpt>
      <trkpt lat="45.89463" lon="2.99633">
        <ele>704</ele>
        <time>2014-08-24T11:15:19Z</time>
      </trkpt>
      <trkpt lat="45.89472" lon="2.99641">
        <ele>704</ele>
        <time>2014-08-24T11:15:21Z</time>
      </trkpt>
      <trkpt lat="45.89484" lon="2.99652">
        <ele>704</ele>
        <time>2014-08-24T11:15:24Z</time>
      </trkpt>
      <trkpt lat="45.89498" lon="2.99654">
        <ele>703</ele>
        <time>2014-08-24T11:15:27Z</time>
      </trkpt>
      <trkpt lat="45.89503" lon="2.99646">
        <ele>703</ele>
        <time>2014-08-24T11:15:29Z</time>
      </trkpt>
      <trkpt lat="45.89503" lon="2.99627">
        <ele>703</ele>
        <time>2014-08-24T11:15:32Z</time>
      </trkpt>
      <trkpt lat="45.89501" lon="2.99616">
        <ele>704</ele>
        <time>2014-08-24T11:15:34Z</time>
      </trkpt>
      <trkpt lat="45.895" lon="2.99604">
        <ele>704</ele>
        <time>2014-08-24T11:15:36Z</time>
      </trkpt>
      <trkpt lat="45.89498" lon="2.99592">
        <ele>704</ele>
        <time>2014-08-24T11:15:38Z</time>
      </trkpt>
      <trkpt lat="45.89495" lon="2.99572">
        <ele>704</ele>
        <time>2014-08-24T11:15:41Z</time>
      </trkpt>
      <trkpt lat="45.8949" lon="2.99549">
        <ele>704</ele>
        <time>2014-08-24T11:15:44Z</time>
      </trkpt>
      <trkpt lat="45.89484" lon="2.99533">
        <ele>703</ele>
        <time>2014-08-24T11:15:46Z</time>
      </trkpt>
      <trkpt lat="45.89474" lon="2.9951">
        <ele>703</ele>
        <time>2014-08-24T11:15:49Z</time>
      </trkpt>
      <trkpt lat="45.89465" lon="2.99487">
        <ele>702</ele>
        <time>2014-08-24T11:15:52Z</time>
      </trkpt>
      <trkpt lat="45.8946" lon="2.99473">
        <ele>702</ele>
        <time>2014-08-24T11:15:54Z</time>
      </trkpt>
      <trkpt lat="45.89454" lon="2.99451">
        <ele>702</ele>
        <time>2014-08-24T11:15:57Z</time>
      </trkpt>
      <trkpt lat="45.89451" lon="2.99436">
        <ele>702</ele>
        <time>2014-08-24T11:15:59Z</time>
      </trkpt>
      <trkpt lat="45.8945" lon="2.99421">
        <ele>702</ele>
        <time>2014-08-24T11:16:01Z</time>
      </trkpt>
      <trkpt lat="45.89448" lon="2.99405">
        <ele>702</ele>
        <time>2014-08-24T11:16:03Z</time>
      </trkpt>
      <trkpt lat="45.89446" lon="2.99389">
        <ele>701</ele>
        <time>2014-08-24T11:16:05Z</time>
      </trkpt>
      <trkpt lat="45.89445" lon="2.99364">
        <ele>701</ele>
        <time>2014-08-24T11:16:08Z</time>
      </trkpt>
      <trkpt lat="45.89443" lon="2.99345">
        <ele>701</ele>
        <time>2014-08-24T11:16:10Z</time>
      </trkpt>
      <trkpt lat="45.89439" lon="2.99328">
        <ele>701</ele>
        <time>2014-08-24T11:16:12Z</time>
      </trkpt>
      <trkpt lat="45.89437" lon="2.99311">
        <ele>701</ele>
        <time>2014-08-24T11:16:14Z</time>
      </trkpt>
      <trkpt lat="45.89433" lon="2.99285">
        <ele>701</ele>
        <time>2014-08-24T11:16:17Z</time>
      </trkpt>
      <trkpt lat="45.8943" lon="2.99268">
        <ele>701</ele>
        <time>2014-08-24T11:16:19Z</time>
      </trkpt>
      <trkpt lat="45.89426" lon="2.99252">
        <ele>701</ele>
        <time>2014-08-24T11:16:21Z</time>
      </trkpt>
      <trkpt lat="45.89421" lon="2.99229">
        <ele>701</ele>
        <time>2014-08-24T11:16:24Z</time>
      </trkpt>
      <trkpt lat="45.89418" lon="2.99206">
        <ele>701</ele>
        <time>2014-08-24T11:16:27Z</time>
      </trkpt>
      <trkpt lat="45.89419" lon="2.99191">
        <ele>701</ele>
        <time>2014-08-24T11:16:29Z</time>
      </trkpt>
      <trkpt lat="45.89421" lon="2.99176">
        <ele>700</ele>
        <time>2014-08-24T11:16:31Z</time>
      </trkpt>
      <trkpt lat="45.89428" lon="2.99154">
        <ele>700</ele>
        <time>2014-08-24T11:16:34Z</time>
      </trkpt>
      <trkpt lat="45.89437" lon="2.99138">
        <ele>701</ele>
        <time>2014-08-24T11:16:37Z</time>
      </trkpt>
      <trkpt lat="45.89444" lon="2.99125">
        <ele>701</ele>
        <time>2014-08-24T11:16:40Z</time>
      </trkpt>
      <trkpt lat="45.89448" lon="2.99118">
        <ele>701</ele>
        <time>2014-08-24T11:16:42Z</time>
      </trkpt>
      <trkpt lat="45.89452" lon="2.9911">
        <ele>702</ele>
        <time>2014-08-24T11:16:44Z</time>
      </trkpt>
      <trkpt lat="45.89455" lon="2.991">
        <ele>702</ele>
        <time>2014-08-24T11:16:46Z</time>
      </trkpt>
      <trkpt lat="45.89457" lon="2.99087">
        <ele>703</ele>
        <time>2014-08-24T11:16:49Z</time>
      </trkpt>
      <trkpt lat="45.89457" lon="2.99078">
        <ele>704</ele>
        <time>2014-08-24T11:16:51Z</time>
      </trkpt>
      <trkpt lat="45.89458" lon="2.99068">
        <ele>704</ele>
        <time>2014-08-24T11:16:53Z</time>
      </trkpt>
      <trkpt lat="45.8946" lon="2.99057">
        <ele>705</ele>
        <time>2014-08-24T11:16:55Z</time>
      </trkpt>
      <trkpt lat="45.89461" lon="2.99045">
        <ele>705</ele>
        <time>2014-08-24T11:16:57Z</time>
      </trkpt>
      <trkpt lat="45.89463" lon="2.99029">
        <ele>705</ele>
        <time>2014-08-24T11:17:00Z</time>
      </trkpt>
      <trkpt lat="45.89464" lon="2.99017">
        <ele>705</ele>
        <time>2014-08-24T11:17:03Z</time>
      </trkpt>
      <trkpt lat="45.89465" lon="2.99008">
        <ele>705</ele>
        <time>2014-08-24T11:17:06Z</time>
      </trkpt>
      <trkpt lat="45.89466" lon="2.99002">
        <ele>706</ele>
        <time>2014-08-24T11:17:08Z</time>
      </trkpt>
      <trkpt lat="45.89468" lon="2.98995">
        <ele>706</ele>
        <time>2014-08-24T11:17:11Z</time>
      </trkpt>
      <trkpt lat="45.8947" lon="2.98991">
        <ele>706</ele>
        <time>2014-08-24T11:17:13Z</time>
      </trkpt>
      <trkpt lat="45.89473" lon="2.98981">
        <ele>706</ele>
        <time>2014-08-24T11:17:16Z</time>
      </trkpt>
      <trkpt lat="45.89478" lon="2.98969">
        <ele>705</ele>
        <time>2014-08-24T11:17:19Z</time>
      </trkpt>
      <trkpt lat="45.89482" lon="2.98961">
        <ele>705</ele>
        <time>2014-08-24T11:17:21Z</time>
      </trkpt>
      <trkpt lat="45.89488" lon="2.98948">
        <ele>705</ele>
        <time>2014-08-24T11:17:24Z</time>
      </trkpt>
      <trkpt lat="45.89491" lon="2.98938">
        <ele>705</ele>
        <time>2014-08-24T11:17:26Z</time>
      </trkpt>
      <trkpt lat="45.89494" lon="2.98928">
        <ele>705</ele>
        <time>2014-08-24T11:17:28Z</time>
      </trkpt>
      <trkpt lat="45.89497" lon="2.98917">
        <ele>705</ele>
        <time>2014-08-24T11:17:30Z</time>
      </trkpt>
      <trkpt lat="45.895" lon="2.98899">
        <ele>705</ele>
        <time>2014-08-24T11:17:33Z</time>
      </trkpt>
      <trkpt lat="45.89502" lon="2.98885">
        <ele>704</ele>
        <time>2014-08-24T11:17:35Z</time>
      </trkpt>
      <trkpt lat="45.89505" lon="2.98864">
        <ele>703</ele>
        <time>2014-08-24T11:17:38Z</time>
      </trkpt>
      <trkpt lat="45.89507" lon="2.98849">
        <ele>703</ele>
        <time>2014-08-24T11:17:40Z</time>
      </trkpt>
      <trkpt lat="45.8951" lon="2.9882">
        <ele>703</ele>
        <time>2014-08-24T11:17:43Z</time>
      </trkpt>
      <trkpt lat="45.89514" lon="2.988">
        <ele>703</ele>
        <time>2014-08-24T11:17:45Z</time>
      </trkpt>
      <trkpt lat="45.89519" lon="2.98781">
        <ele>703</ele>
        <time>2014-08-24T11:17:47Z</time>
      </trkpt>
      <trkpt lat="45.89528" lon="2.98755">
        <ele>702</ele>
        <time>2014-08-24T11:17:50Z</time>
      </trkpt>
      <trkpt lat="45.89539" lon="2.98731">
        <ele>702</ele>
        <time>2014-08-24T11:17:53Z</time>
      </trkpt>
      <trkpt lat="45.89545" lon="2.98717">
        <ele>702</ele>
        <time>2014-08-24T11:17:55Z</time>
      </trkpt>
      <trkpt lat="45.8955" lon="2.98703">
        <ele>701</ele>
        <time>2014-08-24T11:17:57Z</time>
      </trkpt>
      <trkpt lat="45.89553" lon="2.98691">
        <ele>701</ele>
        <time>2014-08-24T11:17:59Z</time>
      </trkpt>
      <trkpt lat="45.89555" lon="2.98673">
        <ele>701</ele>
        <time>2014-08-24T11:18:02Z</time>
      </trkpt>
      <trkpt lat="45.89558" lon="2.98661">
        <ele>701</ele>
        <time>2014-08-24T11:18:04Z</time>
      </trkpt>
      <trkpt lat="45.89561" lon="2.98649">
        <ele>701</ele>
        <time>2014-08-24T11:18:06Z</time>
      </trkpt>
      <trkpt lat="45.89567" lon="2.98631">
        <ele>701</ele>
        <time>2014-08-24T11:18:09Z</time>
      </trkpt>
      <trkpt lat="45.89571" lon="2.98617">
        <ele>701</ele>
        <time>2014-08-24T11:18:11Z</time>
      </trkpt>
      <trkpt lat="45.89576" lon="2.98602">
        <ele>700</ele>
        <time>2014-08-24T11:18:13Z</time>
      </trkpt>
      <trkpt lat="45.89584" lon="2.98577">
        <ele>699</ele>
        <time>2014-08-24T11:18:16Z</time>
      </trkpt>
      <trkpt lat="45.8959" lon="2.98561">
        <ele>699</ele>
        <time>2014-08-24T11:18:18Z</time>
      </trkpt>
      <trkpt lat="45.89596" lon="2.98544">
        <ele>699</ele>
        <time>2014-08-24T11:18:20Z</time>
      </trkpt>
      <trkpt lat="45.89606" lon="2.9852">
        <ele>698</ele>
        <time>2014-08-24T11:18:23Z</time>
      </trkpt>
      <trkpt lat="45.89614" lon="2.98496">
        <ele>698</ele>
        <time>2014-08-24T11:18:26Z</time>
      </trkpt>
      <trkpt lat="45.89616" lon="2.98478">
        <ele>698</ele>
        <time>2014-08-24T11:18:28Z</time>
      </trkpt>
      <trkpt lat="45.89619" lon="2.98454">
        <ele>698</ele>
        <time>2014-08-24T11:18:31Z</time>
      </trkpt>
      <trkpt lat="45.89619" lon="2.98433">
        <ele>698</ele>
        <time>2014-08-24T11:18:34Z</time>
      </trkpt>
      <trkpt lat="45.89619" lon="2.98421">
        <ele>698</ele>
        <time>2014-08-24T11:18:36Z</time>
      </trkpt>
      <trkpt lat="45.8962" lon="2.98408">
        <ele>698</ele>
        <time>2014-08-24T11:18:38Z</time>
      </trkpt>
      <trkpt lat="45.8962" lon="2.98389">
        <ele>698</ele>
        <time>2014-08-24T11:18:41Z</time>
      </trkpt>
      <trkpt lat="45.89621" lon="2.98377">
        <ele>698</ele>
        <time>2014-08-24T11:18:43Z</time>
      </trkpt>
      <trkpt lat="45.89619" lon="2.98358">
        <ele>697</ele>
        <time>2014-08-24T11:18:46Z</time>
      </trkpt>
      <trkpt lat="45.89613" lon="2.98338">
        <ele>697</ele>
        <time>2014-08-24T11:18:49Z</time>
      </trkpt>
      <trkpt lat="45.89608" lon="2.98318">
        <ele>697</ele>
        <time>2014-08-24T11:18:52Z</time>
      </trkpt>
      <trkpt lat="45.89604" lon="2.98305">
        <ele>697</ele>
        <time>2014-08-24T11:18:54Z</time>
      </trkpt>
      <trkpt lat="45.896" lon="2.98292">
        <ele>697</ele>
        <time>2014-08-24T11:18:56Z</time>
      </trkpt>
      <trkpt lat="45.89596" lon="2.98278">
        <ele>697</ele>
        <time>2014-08-24T11:18:58Z</time>
      </trkpt>
      <trkpt lat="45.89592" lon="2.98262">
        <ele>697</ele>
        <time>2014-08-24T11:19:00Z</time>
      </trkpt>
      <trkpt lat="45.89586" lon="2.98235">
        <ele>697</ele>
        <time>2014-08-24T11:19:03Z</time>
      </trkpt>
      <trkpt lat="45.89579" lon="2.98218">
        <ele>696</ele>
        <time>2014-08-24T11:19:05Z</time>
      </trkpt>
      <trkpt lat="45.89568" lon="2.98204">
        <ele>696</ele>
        <time>2014-08-24T11:19:07Z</time>
      </trkpt>
      <trkpt lat="45.89549" lon="2.98185">
        <ele>694</ele>
        <time>2014-08-24T11:19:10Z</time>
      </trkpt>
      <trkpt lat="45.89534" lon="2.98159">
        <ele>693</ele>
        <time>2014-08-24T11:19:13Z</time>
      </trkpt>
      <trkpt lat="45.89522" lon="2.9813">
        <ele>693</ele>
        <time>2014-08-24T11:19:16Z</time>
      </trkpt>
      <trkpt lat="45.89511" lon="2.98103">
        <ele>692</ele>
        <time>2014-08-24T11:19:19Z</time>
      </trkpt>
      <trkpt lat="45.89508" lon="2.98084">
        <ele>691</ele>
        <time>2014-08-24T11:19:21Z</time>
      </trkpt>
      <trkpt lat="45.8951" lon="2.98065">
        <ele>691</ele>
        <time>2014-08-24T11:19:23Z</time>
      </trkpt>
      <trkpt lat="45.89509" lon="2.98042">
        <ele>691</ele>
        <time>2014-08-24T11:19:26Z</time>
      </trkpt>
      <trkpt lat="45.89508" lon="2.98031">
        <ele>691</ele>
        <time>2014-08-24T11:19:28Z</time>
      </trkpt>
      <trkpt lat="45.89511" lon="2.98021">
        <ele>691</ele>
        <time>2014-08-24T11:19:31Z</time>
      </trkpt>
      <trkpt lat="45.89512" lon="2.98005">
        <ele>692</ele>
        <time>2014-08-24T11:19:34Z</time>
      </trkpt>
      <trkpt lat="45.89513" lon="2.97984">
        <ele>692</ele>
        <time>2014-08-24T11:19:37Z</time>
      </trkpt>
      <trkpt lat="45.89512" lon="2.97968">
        <ele>692</ele>
        <time>2014-08-24T11:19:39Z</time>
      </trkpt>
      <trkpt lat="45.89511" lon="2.97952">
        <ele>692</ele>
        <time>2014-08-24T11:19:41Z</time>
      </trkpt>
      <trkpt lat="45.89509" lon="2.97937">
        <ele>693</ele>
        <time>2014-08-24T11:19:43Z</time>
      </trkpt>
      <trkpt lat="45.89506" lon="2.97922">
        <ele>694</ele>
        <time>2014-08-24T11:19:45Z</time>
      </trkpt>
      <trkpt lat="45.89502" lon="2.97909">
        <ele>694</ele>
        <time>2014-08-24T11:19:47Z</time>
      </trkpt>
      <trkpt lat="45.89497" lon="2.97897">
        <ele>693</ele>
        <time>2014-08-24T11:19:49Z</time>
      </trkpt>
      <trkpt lat="45.89489" lon="2.97881">
        <ele>693</ele>
        <time>2014-08-24T11:19:52Z</time>
      </trkpt>
      <trkpt lat="45.89481" lon="2.97865">
        <ele>694</ele>
        <time>2014-08-24T11:19:55Z</time>
      </trkpt>
      <trkpt lat="45.89476" lon="2.97856">
        <ele>695</ele>
        <time>2014-08-24T11:19:57Z</time>
      </trkpt>
      <trkpt lat="45.89468" lon="2.9784">
        <ele>695</ele>
        <time>2014-08-24T11:20:00Z</time>
      </trkpt>
      <trkpt lat="45.89462" lon="2.97824">
        <ele>695</ele>
        <time>2014-08-24T11:20:03Z</time>
      </trkpt>
      <trkpt lat="45.89456" lon="2.97804">
        <ele>695</ele>
        <time>2014-08-24T11:20:06Z</time>
      </trkpt>
      <trkpt lat="45.89452" lon="2.97792">
        <ele>696</ele>
        <time>2014-08-24T11:20:08Z</time>
      </trkpt>
      <trkpt lat="45.89447" lon="2.97773">
        <ele>696</ele>
        <time>2014-08-24T11:20:11Z</time>
      </trkpt>
      <trkpt lat="45.89444" lon="2.97759">
        <ele>697</ele>
        <time>2014-08-24T11:20:13Z</time>
      </trkpt>
      <trkpt lat="45.8944" lon="2.97738">
        <ele>698</ele>
        <time>2014-08-24T11:20:16Z</time>
      </trkpt>
      <trkpt lat="45.89438" lon="2.97723">
        <ele>698</ele>
        <time>2014-08-24T11:20:18Z</time>
      </trkpt>
      <trkpt lat="45.89436" lon="2.97706">
        <ele>698</ele>
        <time>2014-08-24T11:20:20Z</time>
      </trkpt>
      <trkpt lat="45.89435" lon="2.9769">
        <ele>699</ele>
        <time>2014-08-24T11:20:22Z</time>
      </trkpt>
      <trkpt lat="45.89434" lon="2.97668">
        <ele>700</ele>
        <time>2014-08-24T11:20:25Z</time>
      </trkpt>
      <trkpt lat="45.89434" lon="2.97655">
        <ele>701</ele>
        <time>2014-08-24T11:20:27Z</time>
      </trkpt>
      <trkpt lat="45.89432" lon="2.97643">
        <ele>702</ele>
        <time>2014-08-24T11:20:29Z</time>
      </trkpt>
      <trkpt lat="45.8943" lon="2.97628">
        <ele>703</ele>
        <time>2014-08-24T11:20:32Z</time>
      </trkpt>
      <trkpt lat="45.89429" lon="2.97619">
        <ele>704</ele>
        <time>2014-08-24T11:20:34Z</time>
      </trkpt>
      <trkpt lat="45.89429" lon="2.97611">
        <ele>705</ele>
        <time>2014-08-24T11:20:36Z</time>
      </trkpt>
      <trkpt lat="45.89428" lon="2.97599">
        <ele>707</ele>
        <time>2014-08-24T11:20:39Z</time>
      </trkpt>
      <trkpt lat="45.89427" lon="2.97591">
        <ele>707</ele>
        <time>2014-08-24T11:20:41Z</time>
      </trkpt>
      <trkpt lat="45.89427" lon="2.97579">
        <ele>708</ele>
        <time>2014-08-24T11:20:44Z</time>
      </trkpt>
      <trkpt lat="45.89426" lon="2.97565">
        <ele>709</ele>
        <time>2014-08-24T11:20:47Z</time>
      </trkpt>
      <trkpt lat="45.89425" lon="2.97557">
        <ele>709</ele>
        <time>2014-08-24T11:20:49Z</time>
      </trkpt>
      <trkpt lat="45.89424" lon="2.97551">
        <ele>709</ele>
        <time>2014-08-24T11:20:51Z</time>
      </trkpt>
      <trkpt lat="45.89424" lon="2.97549">
        <ele>710</ele>
        <time>2014-08-24T11:20:54Z</time>
      </trkpt>
      <trkpt lat="45.89424" lon="2.97547">
        <ele>710</ele>
        <time>2014-08-24T11:20:57Z</time>
      </trkpt>
      <trkpt lat="45.89423" lon="2.97546">
        <ele>710</ele>
        <time>2014-08-24T11:20:59Z</time>
      </trkpt>
      <trkpt lat="45.89423" lon="2.97545">
        <ele>709</ele>
        <time>2014-08-24T11:21:01Z</time>
      </trkpt>
      <trkpt lat="45.89424" lon="2.97545">
        <ele>709</ele>
        <time>2014-08-24T11:21:04Z</time>
      </trkpt>
      <trkpt lat="45.89424" lon="2.97545">
        <ele>709</ele>
        <time>2014-08-24T11:21:07Z</time>
      </trkpt>
      <trkpt lat="45.89424" lon="2.9754">
        <ele>709</ele>
        <time>2014-08-24T11:21:10Z</time>
      </trkpt>
      <trkpt lat="45.89424" lon="2.9753">
        <ele>709</ele>
        <time>2014-08-24T11:21:13Z</time>
      </trkpt>
      <trkpt lat="45.89423" lon="2.97521">
        <ele>709</ele>
        <time>2014-08-24T11:21:15Z</time>
      </trkpt>
      <trkpt lat="45.89422" lon="2.97512">
        <ele>710</ele>
        <time>2014-08-24T11:21:17Z</time>
      </trkpt>
      <trkpt lat="45.89421" lon="2.97503">
        <ele>710</ele>
        <time>2014-08-24T11:21:19Z</time>
      </trkpt>
      <trkpt lat="45.8942" lon="2.97489">
        <ele>710</ele>
        <time>2014-08-24T11:21:22Z</time>
      </trkpt>
      <trkpt lat="45.89419" lon="2.9748">
        <ele>710</ele>
        <time>2014-08-24T11:21:24Z</time>
      </trkpt>
      <trkpt lat="45.89418" lon="2.97469">
        <ele>710</ele>
        <time>2014-08-24T11:21:26Z</time>
      </trkpt>
      <trkpt lat="45.89417" lon="2.97459">
        <ele>711</ele>
        <time>2014-08-24T11:21:28Z</time>
      </trkpt>
      <trkpt lat="45.89416" lon="2.97448">
        <ele>711</ele>
        <time>2014-08-24T11:21:30Z</time>
      </trkpt>
      <trkpt lat="45.89415" lon="2.97434">
        <ele>711</ele>
        <time>2014-08-24T11:21:33Z</time>
      </trkpt>
      <trkpt lat="45.89413" lon="2.97426">
        <ele>711</ele>
        <time>2014-08-24T11:21:35Z</time>
      </trkpt>
      <trkpt lat="45.89411" lon="2.97418">
        <ele>712</ele>
        <time>2014-08-24T11:21:37Z</time>
      </trkpt>
      <trkpt lat="45.89409" lon="2.97408">
        <ele>711</ele>
        <time>2014-08-24T11:21:39Z</time>
      </trkpt>
      <trkpt lat="45.89407" lon="2.97397">
        <ele>712</ele>
        <time>2014-08-24T11:21:41Z</time>
      </trkpt>
      <trkpt lat="45.89405" lon="2.97383">
        <ele>712</ele>
        <time>2014-08-24T11:21:44Z</time>
      </trkpt>
      <trkpt lat="45.89402" lon="2.97369">
        <ele>712</ele>
        <time>2014-08-24T11:21:47Z</time>
      </trkpt>
      <trkpt lat="45.89401" lon="2.97358">
        <ele>712</ele>
        <time>2014-08-24T11:21:49Z</time>
      </trkpt>
      <trkpt lat="45.89399" lon="2.97343">
        <ele>713</ele>
        <time>2014-08-24T11:21:52Z</time>
      </trkpt>
      <trkpt lat="45.89397" lon="2.97333">
        <ele>713</ele>
        <time>2014-08-24T11:21:54Z</time>
      </trkpt>
      <trkpt lat="45.89395" lon="2.97317">
        <ele>713</ele>
        <time>2014-08-24T11:21:57Z</time>
      </trkpt>
      <trkpt lat="45.89393" lon="2.973">
        <ele>713</ele>
        <time>2014-08-24T11:22:00Z</time>
      </trkpt>
      <trkpt lat="45.8939" lon="2.97283">
        <ele>714</ele>
        <time>2014-08-24T11:22:03Z</time>
      </trkpt>
      <trkpt lat="45.89389" lon="2.97271">
        <ele>714</ele>
        <time>2014-08-24T11:22:05Z</time>
      </trkpt>
      <trkpt lat="45.89386" lon="2.97254">
        <ele>714</ele>
        <time>2014-08-24T11:22:08Z</time>
      </trkpt>
      <trkpt lat="45.89385" lon="2.97242">
        <ele>714</ele>
        <time>2014-08-24T11:22:10Z</time>
      </trkpt>
      <trkpt lat="45.89383" lon="2.97224">
        <ele>714</ele>
        <time>2014-08-24T11:22:13Z</time>
      </trkpt>
      <trkpt lat="45.89381" lon="2.97212">
        <ele>714</ele>
        <time>2014-08-24T11:22:15Z</time>
      </trkpt>
      <trkpt lat="45.89379" lon="2.97201">
        <ele>715</ele>
        <time>2014-08-24T11:22:17Z</time>
      </trkpt>
      <trkpt lat="45.89376" lon="2.97189">
        <ele>715</ele>
        <time>2014-08-24T11:22:19Z</time>
      </trkpt>
      <trkpt lat="45.89372" lon="2.97171">
        <ele>715</ele>
        <time>2014-08-24T11:22:22Z</time>
      </trkpt>
      <trkpt lat="45.89369" lon="2.97159">
        <ele>716</ele>
        <time>2014-08-24T11:22:24Z</time>
      </trkpt>
      <trkpt lat="45.89364" lon="2.97141">
        <ele>716</ele>
        <time>2014-08-24T11:22:27Z</time>
      </trkpt>
      <trkpt lat="45.89362" lon="2.97129">
        <ele>716</ele>
        <time>2014-08-24T11:22:29Z</time>
      </trkpt>
      <trkpt lat="45.89357" lon="2.97111">
        <ele>715</ele>
        <time>2014-08-24T11:22:32Z</time>
      </trkpt>
      <trkpt lat="45.89353" lon="2.97093">
        <ele>716</ele>
        <time>2014-08-24T11:22:35Z</time>
      </trkpt>
      <trkpt lat="45.89351" lon="2.97081">
        <ele>717</ele>
        <time>2014-08-24T11:22:37Z</time>
      </trkpt>
      <trkpt lat="45.89346" lon="2.9706">
        <ele>717</ele>
        <time>2014-08-24T11:22:40Z</time>
      </trkpt>
      <trkpt lat="45.89343" lon="2.97047">
        <ele>717</ele>
        <time>2014-08-24T11:22:42Z</time>
      </trkpt>
      <trkpt lat="45.89341" lon="2.97033">
        <ele>717</ele>
        <time>2014-08-24T11:22:44Z</time>
      </trkpt>
      <trkpt lat="45.89338" lon="2.97019">
        <ele>717</ele>
        <time>2014-08-24T11:22:46Z</time>
      </trkpt>
      <trkpt lat="45.89335" lon="2.97005">
        <ele>717</ele>
        <time>2014-08-24T11:22:48Z</time>
      </trkpt>
      <trkpt lat="45.89331" lon="2.96985">
        <ele>718</ele>
        <time>2014-08-24T11:22:51Z</time>
      </trkpt>
      <trkpt lat="45.89329" lon="2.96972">
        <ele>718</ele>
        <time>2014-08-24T11:22:53Z</time>
      </trkpt>
      <trkpt lat="45.89326" lon="2.96955">
        <ele>717</ele>
        <time>2014-08-24T11:22:56Z</time>
      </trkpt>
      <trkpt lat="45.89322" lon="2.96938">
        <ele>718</ele>
        <time>2014-08-24T11:22:59Z</time>
      </trkpt>
      <trkpt lat="45.89318" lon="2.9692">
        <ele>718</ele>
        <time>2014-08-24T11:23:02Z</time>
      </trkpt>
      <trkpt lat="45.89316" lon="2.96907">
        <ele>718</ele>
        <time>2014-08-24T11:23:04Z</time>
      </trkpt>
      <trkpt lat="45.89312" lon="2.96887">
        <ele>718</ele>
        <time>2014-08-24T11:23:07Z</time>
      </trkpt>
      <trkpt lat="45.89308" lon="2.96867">
        <ele>717</ele>
        <time>2014-08-24T11:23:10Z</time>
      </trkpt>
      <trkpt lat="45.89305" lon="2.96854">
        <ele>716</ele>
        <time>2014-08-24T11:23:12Z</time>
      </trkpt>
      <trkpt lat="45.89303" lon="2.96841">
        <ele>716</ele>
        <time>2014-08-24T11:23:14Z</time>
      </trkpt>
      <trkpt lat="45.89302" lon="2.96821">
        <ele>716</ele>
        <time>2014-08-24T11:23:17Z</time>
      </trkpt>
      <trkpt lat="45.89302" lon="2.96803">
        <ele>716</ele>
        <time>2014-08-24T11:23:20Z</time>
      </trkpt>
      <trkpt lat="45.89302" lon="2.96789">
        <ele>716</ele>
        <time>2014-08-24T11:23:22Z</time>
      </trkpt>
      <trkpt lat="45.89301" lon="2.96769">
        <ele>716</ele>
        <time>2014-08-24T11:23:25Z</time>
      </trkpt>
      <trkpt lat="45.89301" lon="2.96748">
        <ele>716</ele>
        <time>2014-08-24T11:23:28Z</time>
      </trkpt>
      <trkpt lat="45.89301" lon="2.96734">
        <ele>716</ele>
        <time>2014-08-24T11:23:30Z</time>
      </trkpt>
      <trkpt lat="45.89302" lon="2.96713">
        <ele>717</ele>
        <time>2014-08-24T11:23:33Z</time>
      </trkpt>
      <trkpt lat="45.89307" lon="2.96691">
        <ele>717</ele>
        <time>2014-08-24T11:23:36Z</time>
      </trkpt>
      <trkpt lat="45.8931" lon="2.96676">
        <ele>717</ele>
        <time>2014-08-24T11:23:38Z</time>
      </trkpt>
      <trkpt lat="45.89315" lon="2.96655">
        <ele>717</ele>
        <time>2014-08-24T11:23:41Z</time>
      </trkpt>
      <trkpt lat="45.89317" lon="2.96641">
        <ele>717</ele>
        <time>2014-08-24T11:23:43Z</time>
      </trkpt>
      <trkpt lat="45.8932" lon="2.96627">
        <ele>717</ele>
        <time>2014-08-24T11:23:45Z</time>
      </trkpt>
      <trkpt lat="45.89323" lon="2.96614">
        <ele>718</ele>
        <time>2014-08-24T11:23:47Z</time>
      </trkpt>
      <trkpt lat="45.89329" lon="2.96595">
        <ele>718</ele>
        <time>2014-08-24T11:23:50Z</time>
      </trkpt>
      <trkpt lat="45.89333" lon="2.9658">
        <ele>718</ele>
        <time>2014-08-24T11:23:52Z</time>
      </trkpt>
      <trkpt lat="45.89336" lon="2.96565">
        <ele>718</ele>
        <time>2014-08-24T11:23:54Z</time>
      </trkpt>
      <trkpt lat="45.89339" lon="2.96543">
        <ele>718</ele>
        <time>2014-08-24T11:23:57Z</time>
      </trkpt>
      <trkpt lat="45.89341" lon="2.96523">
        <ele>717</ele>
        <time>2014-08-24T11:24:00Z</time>
      </trkpt>
      <trkpt lat="45.89339" lon="2.96514">
        <ele>717</ele>
        <time>2014-08-24T11:24:02Z</time>
      </trkpt>
      <trkpt lat="45.89333" lon="2.96508">
        <ele>717</ele>
        <time>2014-08-24T11:24:05Z</time>
      </trkpt>
      <trkpt lat="45.89328" lon="2.96507">
        <ele>717</ele>
        <time>2014-08-24T11:24:08Z</time>
      </trkpt>
      <trkpt lat="45.89323" lon="2.96505">
        <ele>718</ele>
        <time>2014-08-24T11:24:11Z</time>
      </trkpt>
      <trkpt lat="45.8932" lon="2.96506">
        <ele>718</ele>
        <time>2014-08-24T11:24:14Z</time>
      </trkpt>
      <trkpt lat="45.89321" lon="2.96507">
        <ele>717</ele>
        <time>2014-08-24T11:24:16Z</time>
      </trkpt>
      <trkpt lat="45.89323" lon="2.96505">
        <ele>718</ele>
        <time>2014-08-24T11:24:18Z</time>
      </trkpt>
      <trkpt lat="45.89326" lon="2.96502">
        <ele>718</ele>
        <time>2014-08-24T11:24:20Z</time>
      </trkpt>
      <trkpt lat="45.89328" lon="2.96496">
        <ele>718</ele>
        <time>2014-08-24T11:24:23Z</time>
      </trkpt>
      <trkpt lat="45.89329" lon="2.96491">
        <ele>718</ele>
        <time>2014-08-24T11:24:25Z</time>
      </trkpt>
      <trkpt lat="45.89329" lon="2.96486">
        <ele>717</ele>
        <time>2014-08-24T11:24:27Z</time>
      </trkpt>
      <trkpt lat="45.89331" lon="2.96473">
        <ele>718</ele>
        <time>2014-08-24T11:24:30Z</time>
      </trkpt>
      <trkpt lat="45.89333" lon="2.96466">
        <ele>718</ele>
        <time>2014-08-24T11:24:32Z</time>
      </trkpt>
      <trkpt lat="45.89338" lon="2.96454">
        <ele>719</ele>
        <time>2014-08-24T11:24:35Z</time>
      </trkpt>
      <trkpt lat="45.89341" lon="2.96444">
        <ele>719</ele>
        <time>2014-08-24T11:24:37Z</time>
      </trkpt>
      <trkpt lat="45.89346" lon="2.96427">
        <ele>719</ele>
        <time>2014-08-24T11:24:40Z</time>
      </trkpt>
      <trkpt lat="45.89351" lon="2.96412">
        <ele>720</ele>
        <time>2014-08-24T11:24:43Z</time>
      </trkpt>
      <trkpt lat="45.89355" lon="2.96394">
        <ele>720</ele>
        <time>2014-08-24T11:24:46Z</time>
      </trkpt>
      <trkpt lat="45.89361" lon="2.96376">
        <ele>720</ele>
        <time>2014-08-24T11:24:49Z</time>
      </trkpt>
      <trkpt lat="45.89364" lon="2.96367">
        <ele>720</ele>
        <time>2014-08-24T11:24:51Z</time>
      </trkpt>
      <trkpt lat="45.89368" lon="2.96354">
        <ele>720</ele>
        <time>2014-08-24T11:24:54Z</time>
      </trkpt>
      <trkpt lat="45.89372" lon="2.96346">
        <ele>721</ele>
        <time>2014-08-24T11:24:56Z</time>
      </trkpt>
      <trkpt lat="45.89378" lon="2.96333">
        <ele>721</ele>
        <time>2014-08-24T11:24:59Z</time>
      </trkpt>
      <trkpt lat="45.89381" lon="2.96321">
        <ele>722</ele>
        <time>2014-08-24T11:25:01Z</time>
      </trkpt>
      <trkpt lat="45.89387" lon="2.96306">
        <ele>722</ele>
        <time>2014-08-24T11:25:04Z</time>
      </trkpt>
      <trkpt lat="45.89391" lon="2.96293">
        <ele>722</ele>
        <time>2014-08-24T11:25:07Z</time>
      </trkpt>
      <trkpt lat="45.89394" lon="2.96279">
        <ele>723</ele>
        <time>2014-08-24T11:25:10Z</time>
      </trkpt>
      <trkpt lat="45.89397" lon="2.9627">
        <ele>723</ele>
        <time>2014-08-24T11:25:12Z</time>
      </trkpt>
      <trkpt lat="45.89402" lon="2.96257">
        <ele>723</ele>
        <time>2014-08-24T11:25:15Z</time>
      </trkpt>
      <trkpt lat="45.89405" lon="2.96248">
        <ele>723</ele>
        <time>2014-08-24T11:25:17Z</time>
      </trkpt>
      <trkpt lat="45.89408" lon="2.96235">
        <ele>724</ele>
        <time>2014-08-24T11:25:20Z</time>
      </trkpt>
      <trkpt lat="45.8941" lon="2.96226">
        <ele>724</ele>
        <time>2014-08-24T11:25:22Z</time>
      </trkpt>
      <trkpt lat="45.89412" lon="2.9621">
        <ele>724</ele>
        <time>2014-08-24T11:25:25Z</time>
      </trkpt>
      <trkpt lat="45.89415" lon="2.96196">
        <ele>724</ele>
        <time>2014-08-24T11:25:28Z</time>
      </trkpt>
      <trkpt lat="45.89418" lon="2.96185">
        <ele>724</ele>
        <time>2014-08-24T11:25:30Z</time>
      </trkpt>
      <trkpt lat="45.89423" lon="2.9617">
        <ele>725</ele>
        <time>2014-08-24T11:25:33Z</time>
      </trkpt>
      <trkpt lat="45.89431" lon="2.96156">
        <ele>725</ele>
        <time>2014-08-24T11:25:36Z</time>
      </trkpt>
      <trkpt lat="45.89437" lon="2.96148">
        <ele>726</ele>
        <time>2014-08-24T11:25:38Z</time>
      </trkpt>
      <trkpt lat="45.89439" lon="2.96135">
        <ele>726</ele>
        <time>2014-08-24T11:25:41Z</time>
      </trkpt>
      <trkpt lat="45.89439" lon="2.96129">
        <ele>726</ele>
        <time>2014-08-24T11:25:43Z</time>
      </trkpt>
      <trkpt lat="45.89439" lon="2.96114">
        <ele>726</ele>
        <time>2014-08-24T11:25:46Z</time>
      </trkpt>
      <trkpt lat="45.89439" lon="2.96105">
        <ele>727</ele>
        <time>2014-08-24T11:25:48Z</time>
      </trkpt>
      <trkpt lat="45.89441" lon="2.96088">
        <ele>727</ele>
        <time>2014-08-24T11:25:51Z</time>
      </trkpt>
      <trkpt lat="45.89443" lon="2.96076">
        <ele>727</ele>
        <time>2014-08-24T11:25:53Z</time>
      </trkpt>
      <trkpt lat="45.89444" lon="2.96065">
        <ele>728</ele>
        <time>2014-08-24T11:25:55Z</time>
      </trkpt>
      <trkpt lat="45.89445" lon="2.96046">
        <ele>728</ele>
        <time>2014-08-24T11:25:58Z</time>
      </trkpt>
      <trkpt lat="45.89446" lon="2.96029">
        <ele>728</ele>
        <time>2014-08-24T11:26:01Z</time>
      </trkpt>
      <trkpt lat="45.89447" lon="2.96011">
        <ele>729</ele>
        <time>2014-08-24T11:26:04Z</time>
      </trkpt>
      <trkpt lat="45.89449" lon="2.96001">
        <ele>729</ele>
        <time>2014-08-24T11:26:06Z</time>
      </trkpt>
      <trkpt lat="45.89454" lon="2.95984">
        <ele>729</ele>
        <time>2014-08-24T11:26:09Z</time>
      </trkpt>
      <trkpt lat="45.89455" lon="2.95973">
        <ele>729</ele>
        <time>2014-08-24T11:26:11Z</time>
      </trkpt>
      <trkpt lat="45.89457" lon="2.95955">
        <ele>729</ele>
        <time>2014-08-24T11:26:14Z</time>
      </trkpt>
      <trkpt lat="45.89458" lon="2.95946">
        <ele>729</ele>
        <time>2014-08-24T11:26:16Z</time>
      </trkpt>
      <trkpt lat="45.89459" lon="2.95936">
        <ele>729</ele>
        <time>2014-08-24T11:26:18Z</time>
      </trkpt>
      <trkpt lat="45.89462" lon="2.95928">
        <ele>729</ele>
        <time>2014-08-24T11:26:20Z</time>
      </trkpt>
      <trkpt lat="45.89464" lon="2.95913">
        <ele>729</ele>
        <time>2014-08-24T11:26:23Z</time>
      </trkpt>
      <trkpt lat="45.89466" lon="2.95904">
        <ele>730</ele>
        <time>2014-08-24T11:26:25Z</time>
      </trkpt>
      <trkpt lat="45.89468" lon="2.95889">
        <ele>730</ele>
        <time>2014-08-24T11:26:28Z</time>
      </trkpt>
      <trkpt lat="45.8947" lon="2.9588">
        <ele>730</ele>
        <time>2014-08-24T11:26:30Z</time>
      </trkpt>
      <trkpt lat="45.89473" lon="2.95868">
        <ele>731</ele>
        <time>2014-08-24T11:26:33Z</time>
      </trkpt>
      <trkpt lat="45.89476" lon="2.95856">
        <ele>731</ele>
        <time>2014-08-24T11:26:36Z</time>
      </trkpt>
      <trkpt lat="45.89478" lon="2.95848">
        <ele>731</ele>
        <time>2014-08-24T11:26:38Z</time>
      </trkpt>
      <trkpt lat="45.8948" lon="2.95839">
        <ele>731</ele>
        <time>2014-08-24T11:26:40Z</time>
      </trkpt>
      <trkpt lat="45.89482" lon="2.95831">
        <ele>731</ele>
        <time>2014-08-24T11:26:42Z</time>
      </trkpt>
      <trkpt lat="45.89484" lon="2.95816">
        <ele>732</ele>
        <time>2014-08-24T11:26:45Z</time>
      </trkpt>
      <trkpt lat="45.89485" lon="2.95809">
        <ele>733</ele>
        <time>2014-08-24T11:26:47Z</time>
      </trkpt>
      <trkpt lat="45.89488" lon="2.95797">
        <ele>735</ele>
        <time>2014-08-24T11:26:50Z</time>
      </trkpt>
      <trkpt lat="45.89489" lon="2.95785">
        <ele>736</ele>
        <time>2014-08-24T11:26:53Z</time>
      </trkpt>
      <trkpt lat="45.89493" lon="2.95771">
        <ele>737</ele>
        <time>2014-08-24T11:26:56Z</time>
      </trkpt>
      <trkpt lat="45.89495" lon="2.95755">
        <ele>737</ele>
        <time>2014-08-24T11:26:59Z</time>
      </trkpt>
      <trkpt lat="45.89498" lon="2.95743">
        <ele>738</ele>
        <time>2014-08-24T11:27:02Z</time>
      </trkpt>
      <trkpt lat="45.895" lon="2.95733">
        <ele>739</ele>
        <time>2014-08-24T11:27:04Z</time>
      </trkpt>
      <trkpt lat="45.89502" lon="2.95724">
        <ele>739</ele>
        <time>2014-08-24T11:27:06Z</time>
      </trkpt>
      <trkpt lat="45.89506" lon="2.95712">
        <ele>739</ele>
        <time>2014-08-24T11:27:08Z</time>
      </trkpt>
      <trkpt lat="45.89509" lon="2.957">
        <ele>739</ele>
        <time>2014-08-24T11:27:10Z</time>
      </trkpt>
      <trkpt lat="45.89513" lon="2.95681">
        <ele>739</ele>
        <time>2014-08-24T11:27:13Z</time>
      </trkpt>
      <trkpt lat="45.89513" lon="2.9567">
        <ele>739</ele>
        <time>2014-08-24T11:27:15Z</time>
      </trkpt>
      <trkpt lat="45.89512" lon="2.95654">
        <ele>739</ele>
        <time>2014-08-24T11:27:18Z</time>
      </trkpt>
      <trkpt lat="45.89513" lon="2.95644">
        <ele>739</ele>
        <time>2014-08-24T11:27:20Z</time>
      </trkpt>
      <trkpt lat="45.89516" lon="2.95627">
        <ele>738</ele>
        <time>2014-08-24T11:27:23Z</time>
      </trkpt>
      <trkpt lat="45.8952" lon="2.95615">
        <ele>737</ele>
        <time>2014-08-24T11:27:25Z</time>
      </trkpt>
      <trkpt lat="45.89523" lon="2.95601">
        <ele>737</ele>
        <time>2014-08-24T11:27:27Z</time>
      </trkpt>
      <trkpt lat="45.89525" lon="2.9559">
        <ele>736</ele>
        <time>2014-08-24T11:27:29Z</time>
      </trkpt>
      <trkpt lat="45.8953" lon="2.95578">
        <ele>736</ele>
        <time>2014-08-24T11:27:32Z</time>
      </trkpt>
      <trkpt lat="45.89535" lon="2.95565">
        <ele>735</ele>
        <time>2014-08-24T11:27:35Z</time>
      </trkpt>
      <trkpt lat="45.89539" lon="2.95554">
        <ele>736</ele>
        <time>2014-08-24T11:27:37Z</time>
      </trkpt>
      <trkpt lat="45.89545" lon="2.95533">
        <ele>736</ele>
        <time>2014-08-24T11:27:40Z</time>
      </trkpt>
      <trkpt lat="45.89551" lon="2.95518">
        <ele>737</ele>
        <time>2014-08-24T11:27:43Z</time>
      </trkpt>
      <trkpt lat="45.89554" lon="2.95509">
        <ele>737</ele>
        <time>2014-08-24T11:27:45Z</time>
      </trkpt>
      <trkpt lat="45.89557" lon="2.95497">
        <ele>737</ele>
        <time>2014-08-24T11:27:48Z</time>
      </trkpt>
      <trkpt lat="45.89557" lon="2.95488">
        <ele>737</ele>
        <time>2014-08-24T11:27:50Z</time>
      </trkpt>
      <trkpt lat="45.89558" lon="2.95479">
        <ele>738</ele>
        <time>2014-08-24T11:27:52Z</time>
      </trkpt>
      <trkpt lat="45.89563" lon="2.95465">
        <ele>739</ele>
        <time>2014-08-24T11:27:55Z</time>
      </trkpt>
      <trkpt lat="45.89568" lon="2.95451">
        <ele>740</ele>
        <time>2014-08-24T11:27:58Z</time>
      </trkpt>
      <trkpt lat="45.89571" lon="2.95443">
        <ele>741</ele>
        <time>2014-08-24T11:28:00Z</time>
      </trkpt>
      <trkpt lat="45.89572" lon="2.95436">
        <ele>741</ele>
        <time>2014-08-24T11:28:02Z</time>
      </trkpt>
      <trkpt lat="45.89577" lon="2.95418">
        <ele>742</ele>
        <time>2014-08-24T11:28:05Z</time>
      </trkpt>
      <trkpt lat="45.8958" lon="2.95406">
        <ele>742</ele>
        <time>2014-08-24T11:28:07Z</time>
      </trkpt>
      <trkpt lat="45.89586" lon="2.9539">
        <ele>742</ele>
        <time>2014-08-24T11:28:10Z</time>
      </trkpt>
      <trkpt lat="45.89586" lon="2.95377">
        <ele>743</ele>
        <time>2014-08-24T11:28:13Z</time>
      </trkpt>
      <trkpt lat="45.89587" lon="2.95367">
        <ele>743</ele>
        <time>2014-08-24T11:28:15Z</time>
      </trkpt>
      <trkpt lat="45.89589" lon="2.95358">
        <ele>744</ele>
        <time>2014-08-24T11:28:17Z</time>
      </trkpt>
      <trkpt lat="45.89591" lon="2.95346">
        <ele>745</ele>
        <time>2014-08-24T11:28:20Z</time>
      </trkpt>
      <trkpt lat="45.8959" lon="2.95329">
        <ele>745</ele>
        <time>2014-08-24T11:28:23Z</time>
      </trkpt>
      <trkpt lat="45.89589" lon="2.95314">
        <ele>745</ele>
        <time>2014-08-24T11:28:26Z</time>
      </trkpt>
      <trkpt lat="45.89586" lon="2.95301">
        <ele>746</ele>
        <time>2014-08-24T11:28:29Z</time>
      </trkpt>
      <trkpt lat="45.89584" lon="2.95291">
        <ele>746</ele>
        <time>2014-08-24T11:28:31Z</time>
      </trkpt>
      <trkpt lat="45.89582" lon="2.95284">
        <ele>746</ele>
        <time>2014-08-24T11:28:33Z</time>
      </trkpt>
      <trkpt lat="45.89579" lon="2.95274">
        <ele>746</ele>
        <time>2014-08-24T11:28:36Z</time>
      </trkpt>
      <trkpt lat="45.89578" lon="2.95268">
        <ele>746</ele>
        <time>2014-08-24T11:28:38Z</time>
      </trkpt>
      <trkpt lat="45.89577" lon="2.95262">
        <ele>746</ele>
        <time>2014-08-24T11:28:40Z</time>
      </trkpt>
      <trkpt lat="45.89576" lon="2.95259">
        <ele>746</ele>
        <time>2014-08-24T11:28:42Z</time>
      </trkpt>
      <trkpt lat="45.89576" lon="2.95255">
        <ele>745</ele>
        <time>2014-08-24T11:28:44Z</time>
      </trkpt>
      <trkpt lat="45.89576" lon="2.95251">
        <ele>746</ele>
        <time>2014-08-24T11:28:47Z</time>
      </trkpt>
      <trkpt lat="45.89574" lon="2.95234">
        <ele>747</ele>
        <time>2014-08-24T11:28:49Z</time>
      </trkpt>
      <trkpt lat="45.89571" lon="2.95235">
        <ele>747</ele>
        <time>2014-08-24T11:28:51Z</time>
      </trkpt>
      <trkpt lat="45.89565" lon="2.95233">
        <ele>747</ele>
        <time>2014-08-24T11:28:54Z</time>
      </trkpt>
      <trkpt lat="45.89561" lon="2.95231">
        <ele>747</ele>
        <time>2014-08-24T11:28:56Z</time>
      </trkpt>
      <trkpt lat="45.89557" lon="2.95227">
        <ele>747</ele>
        <time>2014-08-24T11:28:58Z</time>
      </trkpt>
      <trkpt lat="45.89556" lon="2.95223">
        <ele>747</ele>
        <time>2014-08-24T11:29:00Z</time>
      </trkpt>
      <trkpt lat="45.89555" lon="2.95219">
        <ele>747</ele>
        <time>2014-08-24T11:29:02Z</time>
      </trkpt>
      <trkpt lat="45.89555" lon="2.95215">
        <ele>746</ele>
        <time>2014-08-24T11:29:04Z</time>
      </trkpt>
      <trkpt lat="45.8955" lon="2.95205">
        <ele>746</ele>
        <time>2014-08-24T11:29:07Z</time>
      </trkpt>
      <trkpt lat="45.89545" lon="2.952">
        <ele>746</ele>
        <time>2014-08-24T11:29:09Z</time>
      </trkpt>
      <trkpt lat="45.89538" lon="2.95193">
        <ele>745</ele>
        <time>2014-08-24T11:29:11Z</time>
      </trkpt>
      <trkpt lat="45.89529" lon="2.95184">
        <ele>745</ele>
        <time>2014-08-24T11:29:13Z</time>
      </trkpt>
      <trkpt lat="45.89518" lon="2.95176">
        <ele>744</ele>
        <time>2014-08-24T11:29:15Z</time>
      </trkpt>
      <trkpt lat="45.89504" lon="2.95166">
        <ele>743</ele>
        <time>2014-08-24T11:29:18Z</time>
      </trkpt>
      <trkpt lat="45.89495" lon="2.9516">
        <ele>742</ele>
        <time>2014-08-24T11:29:20Z</time>
      </trkpt>
      <trkpt lat="45.89492" lon="2.9515">
        <ele>742</ele>
        <time>2014-08-24T11:29:22Z</time>
      </trkpt>
      <trkpt lat="45.89494" lon="2.95138">
        <ele>741</ele>
        <time>2014-08-24T11:29:24Z</time>
      </trkpt>
      <trkpt lat="45.89498" lon="2.95118">
        <ele>740</ele>
        <time>2014-08-24T11:29:27Z</time>
      </trkpt>
      <trkpt lat="45.89499" lon="2.95098">
        <ele>739</ele>
        <time>2014-08-24T11:29:30Z</time>
      </trkpt>
      <trkpt lat="45.89498" lon="2.95081">
        <ele>738</ele>
        <time>2014-08-24T11:29:33Z</time>
      </trkpt>
      <trkpt lat="45.89493" lon="2.95077">
        <ele>738</ele>
        <time>2014-08-24T11:29:35Z</time>
      </trkpt>
      <trkpt lat="45.89486" lon="2.95075">
        <ele>738</ele>
        <time>2014-08-24T11:29:37Z</time>
      </trkpt>
      <trkpt lat="45.89477" lon="2.95073">
        <ele>738</ele>
        <time>2014-08-24T11:29:39Z</time>
      </trkpt>
      <trkpt lat="45.89461" lon="2.9507">
        <ele>738</ele>
        <time>2014-08-24T11:29:42Z</time>
      </trkpt>
      <trkpt lat="45.89442" lon="2.95068">
        <ele>739</ele>
        <time>2014-08-24T11:29:45Z</time>
      </trkpt>
      <trkpt lat="45.89429" lon="2.95065">
        <ele>740</ele>
        <time>2014-08-24T11:29:47Z</time>
      </trkpt>
      <trkpt lat="45.89419" lon="2.95064">
        <ele>740</ele>
        <time>2014-08-24T11:29:49Z</time>
      </trkpt>
      <trkpt lat="45.89409" lon="2.95063">
        <ele>741</ele>
        <time>2014-08-24T11:29:51Z</time>
      </trkpt>
      <trkpt lat="45.89396" lon="2.95061">
        <ele>740</ele>
        <time>2014-08-24T11:29:54Z</time>
      </trkpt>
      <trkpt lat="45.89388" lon="2.9506">
        <ele>741</ele>
        <time>2014-08-24T11:29:56Z</time>
      </trkpt>
      <trkpt lat="45.8938" lon="2.95059">
        <ele>741</ele>
        <time>2014-08-24T11:29:58Z</time>
      </trkpt>
      <trkpt lat="45.89368" lon="2.95058">
        <ele>741</ele>
        <time>2014-08-24T11:30:01Z</time>
      </trkpt>
      <trkpt lat="45.89359" lon="2.95057">
        <ele>741</ele>
        <time>2014-08-24T11:30:03Z</time>
      </trkpt>
      <trkpt lat="45.89347" lon="2.95055">
        <ele>741</ele>
        <time>2014-08-24T11:30:06Z</time>
      </trkpt>
      <trkpt lat="45.89336" lon="2.95055">
        <ele>741</ele>
        <time>2014-08-24T11:30:09Z</time>
      </trkpt>
      <trkpt lat="45.8933" lon="2.95054">
        <ele>741</ele>
        <time>2014-08-24T11:30:11Z</time>
      </trkpt>
      <trkpt lat="45.89321" lon="2.95053">
        <ele>741</ele>
        <time>2014-08-24T11:30:14Z</time>
      </trkpt>
      <trkpt lat="45.89313" lon="2.95051">
        <ele>741</ele>
        <time>2014-08-24T11:30:17Z</time>
      </trkpt>
      <trkpt lat="45.8931" lon="2.95045">
        <ele>741</ele>
        <time>2014-08-24T11:30:19Z</time>
      </trkpt>
      <trkpt lat="45.89309" lon="2.95033">
        <ele>741</ele>
        <time>2014-08-24T11:30:22Z</time>
      </trkpt>
      <trkpt lat="45.89309" lon="2.95023">
        <ele>741</ele>
        <time>2014-08-24T11:30:24Z</time>
      </trkpt>
      <trkpt lat="45.8931" lon="2.95012">
        <ele>742</ele>
        <time>2014-08-24T11:30:26Z</time>
      </trkpt>
      <trkpt lat="45.8931" lon="2.95">
        <ele>742</ele>
        <time>2014-08-24T11:30:28Z</time>
      </trkpt>
      <trkpt lat="45.89311" lon="2.94981">
        <ele>742</ele>
        <time>2014-08-24T11:30:31Z</time>
      </trkpt>
      <trkpt lat="45.89311" lon="2.94968">
        <ele>742</ele>
        <time>2014-08-24T11:30:33Z</time>
      </trkpt>
      <trkpt lat="45.89312" lon="2.9495">
        <ele>741</ele>
        <time>2014-08-24T11:30:36Z</time>
      </trkpt>
      <trkpt lat="45.89313" lon="2.94933">
        <ele>741</ele>
        <time>2014-08-24T11:30:39Z</time>
      </trkpt>
      <trkpt lat="45.89313" lon="2.94922">
        <ele>741</ele>
        <time>2014-08-24T11:30:41Z</time>
      </trkpt>
      <trkpt lat="45.89313" lon="2.94904">
        <ele>740</ele>
        <time>2014-08-24T11:30:44Z</time>
      </trkpt>
      <trkpt lat="45.8931" lon="2.94894">
        <ele>739</ele>
        <time>2014-08-24T11:30:46Z</time>
      </trkpt>
      <trkpt lat="45.89301" lon="2.94891">
        <ele>739</ele>
        <time>2014-08-24T11:30:49Z</time>
      </trkpt>
      <trkpt lat="45.89291" lon="2.94893">
        <ele>738</ele>
        <time>2014-08-24T11:30:52Z</time>
      </trkpt>
      <trkpt lat="45.89286" lon="2.94895">
        <ele>739</ele>
        <time>2014-08-24T11:30:54Z</time>
      </trkpt>
      <trkpt lat="45.89278" lon="2.94897">
        <ele>739</ele>
        <time>2014-08-24T11:30:57Z</time>
      </trkpt>
      <trkpt lat="45.89274" lon="2.94897">
        <ele>740</ele>
        <time>2014-08-24T11:30:59Z</time>
      </trkpt>
      <trkpt lat="45.89271" lon="2.94896">
        <ele>740</ele>
        <time>2014-08-24T11:31:02Z</time>
      </trkpt>
      <trkpt lat="45.8927" lon="2.94897">
        <ele>741</ele>
        <time>2014-08-24T11:31:05Z</time>
      </trkpt>
      <trkpt lat="45.8927" lon="2.94897">
        <ele>741</ele>
        <time>2014-08-24T11:31:07Z</time>
      </trkpt>
      <trkpt lat="45.89269" lon="2.94896">
        <ele>741</ele>
        <time>2014-08-24T11:31:09Z</time>
      </trkpt>
      <trkpt lat="45.89268" lon="2.94893">
        <ele>741</ele>
        <time>2014-08-24T11:31:11Z</time>
      </trkpt>
      <trkpt lat="45.89265" lon="2.94885">
        <ele>741</ele>
        <time>2014-08-24T11:31:14Z</time>
      </trkpt>
      <trkpt lat="45.89264" lon="2.94881">
        <ele>741</ele>
        <time>2014-08-24T11:31:16Z</time>
      </trkpt>
      <trkpt lat="45.89264" lon="2.94877">
        <ele>741</ele>
        <time>2014-08-24T11:31:18Z</time>
      </trkpt>
      <trkpt lat="45.89262" lon="2.94872">
        <ele>741</ele>
        <time>2014-08-24T11:31:20Z</time>
      </trkpt>
      <trkpt lat="45.89259" lon="2.94864">
        <ele>741</ele>
        <time>2014-08-24T11:31:23Z</time>
      </trkpt>
      <trkpt lat="45.89259" lon="2.94857">
        <ele>741</ele>
        <time>2014-08-24T11:31:25Z</time>
      </trkpt>
      <trkpt lat="45.8926" lon="2.94843">
        <ele>741</ele>
        <time>2014-08-24T11:31:28Z</time>
      </trkpt>
      <trkpt lat="45.89263" lon="2.94824">
        <ele>741</ele>
        <time>2014-08-24T11:31:31Z</time>
      </trkpt>
      <trkpt lat="45.89263" lon="2.94809">
        <ele>741</ele>
        <time>2014-08-24T11:31:33Z</time>
      </trkpt>
      <trkpt lat="45.89262" lon="2.94794">
        <ele>741</ele>
        <time>2014-08-24T11:31:35Z</time>
      </trkpt>
      <trkpt lat="45.89256" lon="2.94781">
        <ele>740</ele>
        <time>2014-08-24T11:31:37Z</time>
      </trkpt>
      <trkpt lat="45.89251" lon="2.94774">
        <ele>739</ele>
        <time>2014-08-24T11:31:39Z</time>
      </trkpt>
      <trkpt lat="45.89247" lon="2.94772">
        <ele>738</ele>
        <time>2014-08-24T11:31:42Z</time>
      </trkpt>
      <trkpt lat="45.89246" lon="2.94773">
        <ele>737</ele>
        <time>2014-08-24T11:31:45Z</time>
      </trkpt>
      <trkpt lat="45.89246" lon="2.94772">
        <ele>736</ele>
        <time>2014-08-24T11:31:47Z</time>
      </trkpt>
      <trkpt lat="45.89246" lon="2.9477">
        <ele>737</ele>
        <time>2014-08-24T11:31:50Z</time>
      </trkpt>
      <trkpt lat="45.89245" lon="2.94772">
        <ele>736</ele>
        <time>2014-08-24T11:31:52Z</time>
      </trkpt>
      <trkpt lat="45.89244" lon="2.94774">
        <ele>736</ele>
        <time>2014-08-24T11:31:54Z</time>
      </trkpt>
      <trkpt lat="45.89242" lon="2.94777">
        <ele>736</ele>
        <time>2014-08-24T11:31:56Z</time>
      </trkpt>
      <trkpt lat="45.8924" lon="2.9478">
        <ele>736</ele>
        <time>2014-08-24T11:31:58Z</time>
      </trkpt>
      <trkpt lat="45.89235" lon="2.94786">
        <ele>737</ele>
        <time>2014-08-24T11:32:01Z</time>
      </trkpt>
      <trkpt lat="45.89231" lon="2.94791">
        <ele>737</ele>
        <time>2014-08-24T11:32:03Z</time>
      </trkpt>
      <trkpt lat="45.89225" lon="2.94796">
        <ele>738</ele>
        <time>2014-08-24T11:32:05Z</time>
      </trkpt>
      <trkpt lat="45.8922" lon="2.94801">
        <ele>738</ele>
        <time>2014-08-24T11:32:07Z</time>
      </trkpt>
      <trkpt lat="45.89213" lon="2.94806">
        <ele>739</ele>
        <time>2014-08-24T11:32:09Z</time>
      </trkpt>
      <trkpt lat="45.89203" lon="2.94813">
        <ele>739</ele>
        <time>2014-08-24T11:32:12Z</time>
      </trkpt>
      <trkpt lat="45.89196" lon="2.94817">
        <ele>739</ele>
        <time>2014-08-24T11:32:14Z</time>
      </trkpt>
      <trkpt lat="45.89188" lon="2.94822">
        <ele>740</ele>
        <time>2014-08-24T11:32:16Z</time>
      </trkpt>
      <trkpt lat="45.89181" lon="2.94826">
        <ele>740</ele>
        <time>2014-08-24T11:32:18Z</time>
      </trkpt>
      <trkpt lat="45.89169" lon="2.94833">
        <ele>740</ele>
        <time>2014-08-24T11:32:21Z</time>
      </trkpt>
      <trkpt lat="45.89157" lon="2.94839">
        <ele>740</ele>
        <time>2014-08-24T11:32:24Z</time>
      </trkpt>
      <trkpt lat="45.89145" lon="2.94846">
        <ele>739</ele>
        <time>2014-08-24T11:32:27Z</time>
      </trkpt>
      <trkpt lat="45.89133" lon="2.94853">
        <ele>740</ele>
        <time>2014-08-24T11:32:30Z</time>
      </trkpt>
      <trkpt lat="45.89124" lon="2.94858">
        <ele>740</ele>
        <time>2014-08-24T11:32:32Z</time>
      </trkpt>
      <trkpt lat="45.89116" lon="2.94862">
        <ele>740</ele>
        <time>2014-08-24T11:32:34Z</time>
      </trkpt>
      <trkpt lat="45.89108" lon="2.94867">
        <ele>740</ele>
        <time>2014-08-24T11:32:36Z</time>
      </trkpt>
      <trkpt lat="45.891" lon="2.94871">
        <ele>740</ele>
        <time>2014-08-24T11:32:38Z</time>
      </trkpt>
      <trkpt lat="45.89091" lon="2.94876">
        <ele>740</ele>
        <time>2014-08-24T11:32:40Z</time>
      </trkpt>
      <trkpt lat="45.89082" lon="2.9488">
        <ele>741</ele>
        <time>2014-08-24T11:32:42Z</time>
      </trkpt>
      <trkpt lat="45.89068" lon="2.94888">
        <ele>741</ele>
        <time>2014-08-24T11:32:45Z</time>
      </trkpt>
      <trkpt lat="45.89059" lon="2.94893">
        <ele>741</ele>
        <time>2014-08-24T11:32:47Z</time>
      </trkpt>
      <trkpt lat="45.89051" lon="2.94897">
        <ele>740</ele>
        <time>2014-08-24T11:32:49Z</time>
      </trkpt>
      <trkpt lat="45.89041" lon="2.94903">
        <ele>740</ele>
        <time>2014-08-24T11:32:51Z</time>
      </trkpt>
      <trkpt lat="45.89028" lon="2.94912">
        <ele>739</ele>
        <time>2014-08-24T11:32:54Z</time>
      </trkpt>
      <trkpt lat="45.89015" lon="2.94922">
        <ele>739</ele>
        <time>2014-08-24T11:32:57Z</time>
      </trkpt>
      <trkpt lat="45.89007" lon="2.9493">
        <ele>739</ele>
        <time>2014-08-24T11:32:59Z</time>
      </trkpt>
      <trkpt lat="45.89" lon="2.94937">
        <ele>739</ele>
        <time>2014-08-24T11:33:01Z</time>
      </trkpt>
      <trkpt lat="45.88992" lon="2.94944">
        <ele>739</ele>
        <time>2014-08-24T11:33:03Z</time>
      </trkpt>
      <trkpt lat="45.88981" lon="2.94953">
        <ele>739</ele>
        <time>2014-08-24T11:33:06Z</time>
      </trkpt>
      <trkpt lat="45.88975" lon="2.94958">
        <ele>739</ele>
        <time>2014-08-24T11:33:08Z</time>
      </trkpt>
      <trkpt lat="45.88971" lon="2.9496">
        <ele>738</ele>
        <time>2014-08-24T11:33:10Z</time>
      </trkpt>
      <trkpt lat="45.88969" lon="2.94958">
        <ele>738</ele>
        <time>2014-08-24T11:33:12Z</time>
      </trkpt>
      <trkpt lat="45.88969" lon="2.94958">
        <ele>737</ele>
        <time>2014-08-24T11:33:14Z</time>
      </trkpt>
      <trkpt lat="45.88968" lon="2.94948">
        <ele>738</ele>
        <time>2014-08-24T11:33:16Z</time>
      </trkpt>
      <trkpt lat="45.88973" lon="2.94939">
        <ele>738</ele>
        <time>2014-08-24T11:33:19Z</time>
      </trkpt>
      <trkpt lat="45.88976" lon="2.94931">
        <ele>738</ele>
        <time>2014-08-24T11:33:21Z</time>
      </trkpt>
      <trkpt lat="45.88982" lon="2.94915">
        <ele>738</ele>
        <time>2014-08-24T11:33:24Z</time>
      </trkpt>
      <trkpt lat="45.88987" lon="2.94903">
        <ele>738</ele>
        <time>2014-08-24T11:33:26Z</time>
      </trkpt>
      <trkpt lat="45.88992" lon="2.94891">
        <ele>738</ele>
        <time>2014-08-24T11:33:28Z</time>
      </trkpt>
      <trkpt lat="45.88996" lon="2.94878">
        <ele>738</ele>
        <time>2014-08-24T11:33:30Z</time>
      </trkpt>
      <trkpt lat="45.89004" lon="2.94858">
        <ele>739</ele>
        <time>2014-08-24T11:33:33Z</time>
      </trkpt>
      <trkpt lat="45.89009" lon="2.94846">
        <ele>739</ele>
        <time>2014-08-24T11:33:35Z</time>
      </trkpt>
      <trkpt lat="45.89015" lon="2.94828">
        <ele>739</ele>
        <time>2014-08-24T11:33:38Z</time>
      </trkpt>
      <trkpt lat="45.89023" lon="2.94809">
        <ele>740</ele>
        <time>2014-08-24T11:33:41Z</time>
      </trkpt>
      <trkpt lat="45.89028" lon="2.94795">
        <ele>740</ele>
        <time>2014-08-24T11:33:43Z</time>
      </trkpt>
      <trkpt lat="45.89034" lon="2.94782">
        <ele>740</ele>
        <time>2014-08-24T11:33:45Z</time>
      </trkpt>
      <trkpt lat="45.89039" lon="2.94769">
        <ele>740</ele>
        <time>2014-08-24T11:33:47Z</time>
      </trkpt>
      <trkpt lat="45.89048" lon="2.9475">
        <ele>740</ele>
        <time>2014-08-24T11:33:50Z</time>
      </trkpt>
      <trkpt lat="45.89055" lon="2.94737">
        <ele>740</ele>
        <time>2014-08-24T11:33:52Z</time>
      </trkpt>
      <trkpt lat="45.89066" lon="2.94719">
        <ele>740</ele>
        <time>2014-08-24T11:33:55Z</time>
      </trkpt>
      <trkpt lat="45.89073" lon="2.94708">
        <ele>740</ele>
        <time>2014-08-24T11:33:57Z</time>
      </trkpt>
      <trkpt lat="45.89086" lon="2.94691">
        <ele>740</ele>
        <time>2014-08-24T11:34:00Z</time>
      </trkpt>
      <trkpt lat="45.89094" lon="2.94682">
        <ele>739</ele>
        <time>2014-08-24T11:34:02Z</time>
      </trkpt>
      <trkpt lat="45.89104" lon="2.94666">
        <ele>739</ele>
        <time>2014-08-24T11:34:05Z</time>
      </trkpt>
      <trkpt lat="45.89114" lon="2.94647">
        <ele>738</ele>
        <time>2014-08-24T11:34:08Z</time>
      </trkpt>
      <trkpt lat="45.8912" lon="2.94624">
        <ele>739</ele>
        <time>2014-08-24T11:34:11Z</time>
      </trkpt>
      <trkpt lat="45.89122" lon="2.94608">
        <ele>738</ele>
        <time>2014-08-24T11:34:13Z</time>
      </trkpt>
      <trkpt lat="45.89115" lon="2.94585">
        <ele>739</ele>
        <time>2014-08-24T11:34:16Z</time>
      </trkpt>
      <trkpt lat="45.89104" lon="2.94564">
        <ele>739</ele>
        <time>2014-08-24T11:34:19Z</time>
      </trkpt>
      <trkpt lat="45.89098" lon="2.9455">
        <ele>739</ele>
        <time>2014-08-24T11:34:21Z</time>
      </trkpt>
      <trkpt lat="45.8909" lon="2.9453">
        <ele>739</ele>
        <time>2014-08-24T11:34:24Z</time>
      </trkpt>
      <trkpt lat="45.89085" lon="2.94514">
        <ele>740</ele>
        <time>2014-08-24T11:34:26Z</time>
      </trkpt>
      <trkpt lat="45.89082" lon="2.94499">
        <ele>740</ele>
        <time>2014-08-24T11:34:28Z</time>
      </trkpt>
      <trkpt lat="45.89078" lon="2.94484">
        <ele>740</ele>
        <time>2014-08-24T11:34:30Z</time>
      </trkpt>
      <trkpt lat="45.89074" lon="2.94469">
        <ele>741</ele>
        <time>2014-08-24T11:34:32Z</time>
      </trkpt>
      <trkpt lat="45.89068" lon="2.94447">
        <ele>741</ele>
        <time>2014-08-24T11:34:35Z</time>
      </trkpt>
      <trkpt lat="45.89062" lon="2.94424">
        <ele>740</ele>
        <time>2014-08-24T11:34:38Z</time>
      </trkpt>
      <trkpt lat="45.89056" lon="2.94401">
        <ele>740</ele>
        <time>2014-08-24T11:34:41Z</time>
      </trkpt>
      <trkpt lat="45.89051" lon="2.94385">
        <ele>740</ele>
        <time>2014-08-24T11:34:43Z</time>
      </trkpt>
      <trkpt lat="45.89043" lon="2.94363">
        <ele>741</ele>
        <time>2014-08-24T11:34:46Z</time>
      </trkpt>
      <trkpt lat="45.89039" lon="2.94348">
        <ele>741</ele>
        <time>2014-08-24T11:34:48Z</time>
      </trkpt>
      <trkpt lat="45.89035" lon="2.94333">
        <ele>741</ele>
        <time>2014-08-24T11:34:50Z</time>
      </trkpt>
      <trkpt lat="45.89031" lon="2.94317">
        <ele>741</ele>
        <time>2014-08-24T11:34:52Z</time>
      </trkpt>
      <trkpt lat="45.89028" lon="2.94301">
        <ele>740</ele>
        <time>2014-08-24T11:34:54Z</time>
      </trkpt>
      <trkpt lat="45.89024" lon="2.94284">
        <ele>740</ele>
        <time>2014-08-24T11:34:56Z</time>
      </trkpt>
      <trkpt lat="45.89018" lon="2.94259">
        <ele>741</ele>
        <time>2014-08-24T11:34:59Z</time>
      </trkpt>
      <trkpt lat="45.89012" lon="2.94234">
        <ele>741</ele>
        <time>2014-08-24T11:35:02Z</time>
      </trkpt>
      <trkpt lat="45.89003" lon="2.94211">
        <ele>741</ele>
        <time>2014-08-24T11:35:05Z</time>
      </trkpt>
      <trkpt lat="45.88992" lon="2.9419">
        <ele>741</ele>
        <time>2014-08-24T11:35:08Z</time>
      </trkpt>
      <trkpt lat="45.8898" lon="2.9417">
        <ele>742</ele>
        <time>2014-08-24T11:35:11Z</time>
      </trkpt>
      <trkpt lat="45.8897" lon="2.94151">
        <ele>742</ele>
        <time>2014-08-24T11:35:14Z</time>
      </trkpt>
      <trkpt lat="45.88959" lon="2.94133">
        <ele>742</ele>
        <time>2014-08-24T11:35:17Z</time>
      </trkpt>
      <trkpt lat="45.88947" lon="2.94117">
        <ele>742</ele>
        <time>2014-08-24T11:35:20Z</time>
      </trkpt>
      <trkpt lat="45.88934" lon="2.94103">
        <ele>742</ele>
        <time>2014-08-24T11:35:23Z</time>
      </trkpt>
      <trkpt lat="45.88926" lon="2.94094">
        <ele>742</ele>
        <time>2014-08-24T11:35:25Z</time>
      </trkpt>
      <trkpt lat="45.88919" lon="2.94086">
        <ele>742</ele>
        <time>2014-08-24T11:35:27Z</time>
      </trkpt>
      <trkpt lat="45.88909" lon="2.9408">
        <ele>742</ele>
        <time>2014-08-24T11:35:29Z</time>
      </trkpt>
      <trkpt lat="45.88897" lon="2.94071">
        <ele>743</ele>
        <time>2014-08-24T11:35:32Z</time>
      </trkpt>
      <trkpt lat="45.88885" lon="2.94066">
        <ele>743</ele>
        <time>2014-08-24T11:35:35Z</time>
      </trkpt>
      <trkpt lat="45.88873" lon="2.94063">
        <ele>743</ele>
        <time>2014-08-24T11:35:38Z</time>
      </trkpt>
      <trkpt lat="45.8886" lon="2.94061">
        <ele>744</ele>
        <time>2014-08-24T11:35:41Z</time>
      </trkpt>
      <trkpt lat="45.88851" lon="2.94062">
        <ele>745</ele>
        <time>2014-08-24T11:35:43Z</time>
      </trkpt>
      <trkpt lat="45.88838" lon="2.94063">
        <ele>747</ele>
        <time>2014-08-24T11:35:46Z</time>
      </trkpt>
      <trkpt lat="45.88829" lon="2.94064">
        <ele>748</ele>
        <time>2014-08-24T11:35:48Z</time>
      </trkpt>
      <trkpt lat="45.88817" lon="2.94065">
        <ele>749</ele>
        <time>2014-08-24T11:35:51Z</time>
      </trkpt>
      <trkpt lat="45.88808" lon="2.94066">
        <ele>749</ele>
        <time>2014-08-24T11:35:53Z</time>
      </trkpt>
      <trkpt lat="45.88799" lon="2.94065">
        <ele>749</ele>
        <time>2014-08-24T11:35:55Z</time>
      </trkpt>
      <trkpt lat="45.88786" lon="2.94064">
        <ele>750</ele>
        <time>2014-08-24T11:35:58Z</time>
      </trkpt>
      <trkpt lat="45.88777" lon="2.94063">
        <ele>750</ele>
        <time>2014-08-24T11:36:00Z</time>
      </trkpt>
      <trkpt lat="45.88764" lon="2.94063">
        <ele>751</ele>
        <time>2014-08-24T11:36:03Z</time>
      </trkpt>
      <trkpt lat="45.88755" lon="2.94063">
        <ele>751</ele>
        <time>2014-08-24T11:36:05Z</time>
      </trkpt>
      <trkpt lat="45.88747" lon="2.94063">
        <ele>751</ele>
        <time>2014-08-24T11:36:07Z</time>
      </trkpt>
      <trkpt lat="45.88738" lon="2.94063">
        <ele>752</ele>
        <time>2014-08-24T11:36:09Z</time>
      </trkpt>
      <trkpt lat="45.88725" lon="2.94064">
        <ele>752</ele>
        <time>2014-08-24T11:36:12Z</time>
      </trkpt>
      <trkpt lat="45.88717" lon="2.94064">
        <ele>752</ele>
        <time>2014-08-24T11:36:14Z</time>
      </trkpt>
      <trkpt lat="45.88708" lon="2.94065">
        <ele>753</ele>
        <time>2014-08-24T11:36:16Z</time>
      </trkpt>
      <trkpt lat="45.887" lon="2.94067">
        <ele>753</ele>
        <time>2014-08-24T11:36:18Z</time>
      </trkpt>
      <trkpt lat="45.88686" lon="2.94069">
        <ele>754</ele>
        <time>2014-08-24T11:36:21Z</time>
      </trkpt>
      <trkpt lat="45.88678" lon="2.9407">
        <ele>754</ele>
        <time>2014-08-24T11:36:23Z</time>
      </trkpt>
      <trkpt lat="45.88664" lon="2.94072">
        <ele>755</ele>
        <time>2014-08-24T11:36:26Z</time>
      </trkpt>
      <trkpt lat="45.88656" lon="2.94073">
        <ele>755</ele>
        <time>2014-08-24T11:36:28Z</time>
      </trkpt>
      <trkpt lat="45.88647" lon="2.94074">
        <ele>755</ele>
        <time>2014-08-24T11:36:30Z</time>
      </trkpt>
      <trkpt lat="45.88636" lon="2.94074">
        <ele>755</ele>
        <time>2014-08-24T11:36:33Z</time>
      </trkpt>
      <trkpt lat="45.88625" lon="2.94072">
        <ele>755</ele>
        <time>2014-08-24T11:36:36Z</time>
      </trkpt>
      <trkpt lat="45.88617" lon="2.9407">
        <ele>755</ele>
        <time>2014-08-24T11:36:38Z</time>
      </trkpt>
      <trkpt lat="45.88607" lon="2.94068">
        <ele>755</ele>
        <time>2014-08-24T11:36:41Z</time>
      </trkpt>
      <trkpt lat="45.886" lon="2.94061">
        <ele>754</ele>
        <time>2014-08-24T11:36:43Z</time>
      </trkpt>
      <trkpt lat="45.88598" lon="2.94049">
        <ele>753</ele>
        <time>2014-08-24T11:36:45Z</time>
      </trkpt>
      <trkpt lat="45.88587" lon="2.94029">
        <ele>752</ele>
        <time>2014-08-24T11:36:48Z</time>
      </trkpt>
      <trkpt lat="45.88576" lon="2.94021">
        <ele>751</ele>
        <time>2014-08-24T11:36:50Z</time>
      </trkpt>
      <trkpt lat="45.88564" lon="2.94014">
        <ele>751</ele>
        <time>2014-08-24T11:36:52Z</time>
      </trkpt>
      <trkpt lat="45.88553" lon="2.9401">
        <ele>751</ele>
        <time>2014-08-24T11:36:54Z</time>
      </trkpt>
      <trkpt lat="45.88542" lon="2.94006">
        <ele>751</ele>
        <time>2014-08-24T11:36:56Z</time>
      </trkpt>
      <trkpt lat="45.88528" lon="2.94001">
        <ele>751</ele>
        <time>2014-08-24T11:36:59Z</time>
      </trkpt>
      <trkpt lat="45.88519" lon="2.94001">
        <ele>751</ele>
        <time>2014-08-24T11:37:01Z</time>
      </trkpt>
      <trkpt lat="45.88514" lon="2.94008">
        <ele>751</ele>
        <time>2014-08-24T11:37:03Z</time>
      </trkpt>
      <trkpt lat="45.88512" lon="2.94017">
        <ele>751</ele>
        <time>2014-08-24T11:37:05Z</time>
      </trkpt>
      <trkpt lat="45.88511" lon="2.94028">
        <ele>751</ele>
        <time>2014-08-24T11:37:07Z</time>
      </trkpt>
      <trkpt lat="45.88512" lon="2.94041">
        <ele>751</ele>
        <time>2014-08-24T11:37:09Z</time>
      </trkpt>
      <trkpt lat="45.88513" lon="2.94054">
        <ele>751</ele>
        <time>2014-08-24T11:37:11Z</time>
      </trkpt>
      <trkpt lat="45.88514" lon="2.94067">
        <ele>751</ele>
        <time>2014-08-24T11:37:13Z</time>
      </trkpt>
      <trkpt lat="45.88516" lon="2.94081">
        <ele>751</ele>
        <time>2014-08-24T11:37:15Z</time>
      </trkpt>
      <trkpt lat="45.88517" lon="2.94094">
        <ele>751</ele>
        <time>2014-08-24T11:37:17Z</time>
      </trkpt>
      <trkpt lat="45.88519" lon="2.94109">
        <ele>750</ele>
        <time>2014-08-24T11:37:19Z</time>
      </trkpt>
      <trkpt lat="45.88523" lon="2.94134">
        <ele>750</ele>
        <time>2014-08-24T11:37:22Z</time>
      </trkpt>
      <trkpt lat="45.88531" lon="2.94161">
        <ele>750</ele>
        <time>2014-08-24T11:37:25Z</time>
      </trkpt>
      <trkpt lat="45.88538" lon="2.94191">
        <ele>751</ele>
        <time>2014-08-24T11:37:28Z</time>
      </trkpt>
      <trkpt lat="45.88541" lon="2.94213">
        <ele>750</ele>
        <time>2014-08-24T11:37:30Z</time>
      </trkpt>
      <trkpt lat="45.88541" lon="2.94236">
        <ele>749</ele>
        <time>2014-08-24T11:37:32Z</time>
      </trkpt>
      <trkpt lat="45.88532" lon="2.94266">
        <ele>747</ele>
        <time>2014-08-24T11:37:35Z</time>
      </trkpt>
      <trkpt lat="45.88516" lon="2.94289">
        <ele>745</ele>
        <time>2014-08-24T11:37:38Z</time>
      </trkpt>
      <trkpt lat="45.88502" lon="2.94302">
        <ele>744</ele>
        <time>2014-08-24T11:37:40Z</time>
      </trkpt>
      <trkpt lat="45.88487" lon="2.94317">
        <ele>744</ele>
        <time>2014-08-24T11:37:42Z</time>
      </trkpt>
      <trkpt lat="45.88463" lon="2.94337">
        <ele>743</ele>
        <time>2014-08-24T11:37:45Z</time>
      </trkpt>
      <trkpt lat="45.88449" lon="2.94353">
        <ele>743</ele>
        <time>2014-08-24T11:37:47Z</time>
      </trkpt>
      <trkpt lat="45.88432" lon="2.9438">
        <ele>742</ele>
        <time>2014-08-24T11:37:50Z</time>
      </trkpt>
      <trkpt lat="45.88424" lon="2.94394">
        <ele>742</ele>
        <time>2014-08-24T11:37:52Z</time>
      </trkpt>
      <trkpt lat="45.88412" lon="2.94415">
        <ele>741</ele>
        <time>2014-08-24T11:37:55Z</time>
      </trkpt>
      <trkpt lat="45.88406" lon="2.94428">
        <ele>740</ele>
        <time>2014-08-24T11:37:57Z</time>
      </trkpt>
      <trkpt lat="45.88395" lon="2.94448">
        <ele>740</ele>
        <time>2014-08-24T11:38:00Z</time>
      </trkpt>
      <trkpt lat="45.88385" lon="2.94462">
        <ele>740</ele>
        <time>2014-08-24T11:38:02Z</time>
      </trkpt>
      <trkpt lat="45.88374" lon="2.94475">
        <ele>739</ele>
        <time>2014-08-24T11:38:04Z</time>
      </trkpt>
      <trkpt lat="45.88355" lon="2.94494">
        <ele>738</ele>
        <time>2014-08-24T11:38:07Z</time>
      </trkpt>
      <trkpt lat="45.88343" lon="2.94505">
        <ele>737</ele>
        <time>2014-08-24T11:38:09Z</time>
      </trkpt>
      <trkpt lat="45.88328" lon="2.94518">
        <ele>736</ele>
        <time>2014-08-24T11:38:12Z</time>
      </trkpt>
      <trkpt lat="45.88323" lon="2.94523">
        <ele>736</ele>
        <time>2014-08-24T11:38:14Z</time>
      </trkpt>
      <trkpt lat="45.88319" lon="2.94524">
        <ele>735</ele>
        <time>2014-08-24T11:38:16Z</time>
      </trkpt>
      <trkpt lat="45.88313" lon="2.9452">
        <ele>735</ele>
        <time>2014-08-24T11:38:19Z</time>
      </trkpt>
      <trkpt lat="45.88303" lon="2.94511">
        <ele>734</ele>
        <time>2014-08-24T11:38:22Z</time>
      </trkpt>
      <trkpt lat="45.88295" lon="2.94505">
        <ele>735</ele>
        <time>2014-08-24T11:38:24Z</time>
      </trkpt>
      <trkpt lat="45.8828" lon="2.94501">
        <ele>735</ele>
        <time>2014-08-24T11:38:27Z</time>
      </trkpt>
      <trkpt lat="45.88265" lon="2.94502">
        <ele>736</ele>
        <time>2014-08-24T11:38:30Z</time>
      </trkpt>
      <trkpt lat="45.88253" lon="2.94502">
        <ele>736</ele>
        <time>2014-08-24T11:38:33Z</time>
      </trkpt>
      <trkpt lat="45.88244" lon="2.94502">
        <ele>736</ele>
        <time>2014-08-24T11:38:35Z</time>
      </trkpt>
      <trkpt lat="45.88233" lon="2.94502">
        <ele>735</ele>
        <time>2014-08-24T11:38:37Z</time>
      </trkpt>
      <trkpt lat="45.88222" lon="2.94503">
        <ele>736</ele>
        <time>2014-08-24T11:38:39Z</time>
      </trkpt>
      <trkpt lat="45.88208" lon="2.94503">
        <ele>736</ele>
        <time>2014-08-24T11:38:41Z</time>
      </trkpt>
      <trkpt lat="45.88189" lon="2.94504">
        <ele>737</ele>
        <time>2014-08-24T11:38:44Z</time>
      </trkpt>
      <trkpt lat="45.88179" lon="2.94502">
        <ele>737</ele>
        <time>2014-08-24T11:38:46Z</time>
      </trkpt>
      <trkpt lat="45.88162" lon="2.94496">
        <ele>737</ele>
        <time>2014-08-24T11:38:49Z</time>
      </trkpt>
      <trkpt lat="45.88149" lon="2.94492">
        <ele>737</ele>
        <time>2014-08-24T11:38:51Z</time>
      </trkpt>
      <trkpt lat="45.88129" lon="2.94485">
        <ele>737</ele>
        <time>2014-08-24T11:38:54Z</time>
      </trkpt>
      <trkpt lat="45.88115" lon="2.94482">
        <ele>737</ele>
        <time>2014-08-24T11:38:56Z</time>
      </trkpt>
      <trkpt lat="45.88096" lon="2.9448">
        <ele>736</ele>
        <time>2014-08-24T11:38:59Z</time>
      </trkpt>
      <trkpt lat="45.88081" lon="2.94479">
        <ele>736</ele>
        <time>2014-08-24T11:39:02Z</time>
      </trkpt>
      <trkpt lat="45.88071" lon="2.94481">
        <ele>735</ele>
        <time>2014-08-24T11:39:05Z</time>
      </trkpt>
      <trkpt lat="45.88064" lon="2.94479">
        <ele>735</ele>
        <time>2014-08-24T11:39:08Z</time>
      </trkpt>
      <trkpt lat="45.88063" lon="2.94481">
        <ele>735</ele>
        <time>2014-08-24T11:39:10Z</time>
      </trkpt>
      <trkpt lat="45.88064" lon="2.9448">
        <ele>734</ele>
        <time>2014-08-24T11:39:13Z</time>
      </trkpt>
      <trkpt lat="45.88066" lon="2.9448">
        <ele>735</ele>
        <time>2014-08-24T11:39:15Z</time>
      </trkpt>
      <trkpt lat="45.8807" lon="2.9448">
        <ele>735</ele>
        <time>2014-08-24T11:39:17Z</time>
      </trkpt>
      <trkpt lat="45.88075" lon="2.94472">
        <ele>735</ele>
        <time>2014-08-24T11:39:20Z</time>
      </trkpt>
      <trkpt lat="45.88073" lon="2.94463">
        <ele>735</ele>
        <time>2014-08-24T11:39:22Z</time>
      </trkpt>
      <trkpt lat="45.88068" lon="2.94449">
        <ele>735</ele>
        <time>2014-08-24T11:39:25Z</time>
      </trkpt>
      <trkpt lat="45.88065" lon="2.94441">
        <ele>735</ele>
        <time>2014-08-24T11:39:27Z</time>
      </trkpt>
      <trkpt lat="45.88059" lon="2.94428">
        <ele>736</ele>
        <time>2014-08-24T11:39:30Z</time>
      </trkpt>
      <trkpt lat="45.88052" lon="2.94419">
        <ele>736</ele>
        <time>2014-08-24T11:39:32Z</time>
      </trkpt>
      <trkpt lat="45.88042" lon="2.94407">
        <ele>736</ele>
        <time>2014-08-24T11:39:35Z</time>
      </trkpt>
      <trkpt lat="45.88035" lon="2.94397">
        <ele>736</ele>
        <time>2014-08-24T11:39:37Z</time>
      </trkpt>
      <trkpt lat="45.88025" lon="2.94382">
        <ele>737</ele>
        <time>2014-08-24T11:39:40Z</time>
      </trkpt>
      <trkpt lat="45.88018" lon="2.94371">
        <ele>737</ele>
        <time>2014-08-24T11:39:42Z</time>
      </trkpt>
      <trkpt lat="45.88011" lon="2.94361">
        <ele>737</ele>
        <time>2014-08-24T11:39:44Z</time>
      </trkpt>
      <trkpt lat="45.88004" lon="2.94351">
        <ele>737</ele>
        <time>2014-08-24T11:39:46Z</time>
      </trkpt>
      <trkpt lat="45.87992" lon="2.94337">
        <ele>738</ele>
        <time>2014-08-24T11:39:49Z</time>
      </trkpt>
      <trkpt lat="45.87979" lon="2.94323">
        <ele>739</ele>
        <time>2014-08-24T11:39:52Z</time>
      </trkpt>
      <trkpt lat="45.87966" lon="2.94313">
        <ele>739</ele>
        <time>2014-08-24T11:39:55Z</time>
      </trkpt>
      <trkpt lat="45.87952" lon="2.94301">
        <ele>740</ele>
        <time>2014-08-24T11:39:58Z</time>
      </trkpt>
      <trkpt lat="45.87943" lon="2.94295">
        <ele>740</ele>
        <time>2014-08-24T11:40:00Z</time>
      </trkpt>
      <trkpt lat="45.87935" lon="2.9429">
        <ele>741</ele>
        <time>2014-08-24T11:40:02Z</time>
      </trkpt>
      <trkpt lat="45.87928" lon="2.94275">
        <ele>741</ele>
        <time>2014-08-24T11:40:05Z</time>
      </trkpt>
      <trkpt lat="45.87928" lon="2.94263">
        <ele>741</ele>
        <time>2014-08-24T11:40:07Z</time>
      </trkpt>
      <trkpt lat="45.87932" lon="2.94252">
        <ele>742</ele>
        <time>2014-08-24T11:40:09Z</time>
      </trkpt>
      <trkpt lat="45.87935" lon="2.9424">
        <ele>742</ele>
        <time>2014-08-24T11:40:11Z</time>
      </trkpt>
      <trkpt lat="45.87936" lon="2.94229">
        <ele>742</ele>
        <time>2014-08-24T11:40:13Z</time>
      </trkpt>
      <trkpt lat="45.87935" lon="2.94218">
        <ele>742</ele>
        <time>2014-08-24T11:40:15Z</time>
      </trkpt>
      <trkpt lat="45.87932" lon="2.9421">
        <ele>742</ele>
        <time>2014-08-24T11:40:17Z</time>
      </trkpt>
      <trkpt lat="45.87926" lon="2.94197">
        <ele>743</ele>
        <time>2014-08-24T11:40:20Z</time>
      </trkpt>
      <trkpt lat="45.87923" lon="2.94188">
        <ele>743</ele>
        <time>2014-08-24T11:40:22Z</time>
      </trkpt>
      <trkpt lat="45.87919" lon="2.94179">
        <ele>744</ele>
        <time>2014-08-24T11:40:24Z</time>
      </trkpt>
      <trkpt lat="45.87916" lon="2.94168">
        <ele>745</ele>
        <time>2014-08-24T11:40:26Z</time>
      </trkpt>
      <trkpt lat="45.87911" lon="2.94151">
        <ele>745</ele>
        <time>2014-08-24T11:40:29Z</time>
      </trkpt>
      <trkpt lat="45.87909" lon="2.94132">
        <ele>746</ele>
        <time>2014-08-24T11:40:32Z</time>
      </trkpt>
      <trkpt lat="45.87911" lon="2.9412">
        <ele>747</ele>
        <time>2014-08-24T11:40:34Z</time>
      </trkpt>
      <trkpt lat="45.87912" lon="2.94104">
        <ele>747</ele>
        <time>2014-08-24T11:40:37Z</time>
      </trkpt>
      <trkpt lat="45.87909" lon="2.94087">
        <ele>747</ele>
        <time>2014-08-24T11:40:40Z</time>
      </trkpt>
      <trkpt lat="45.87903" lon="2.94075">
        <ele>747</ele>
        <time>2014-08-24T11:40:42Z</time>
      </trkpt>
      <trkpt lat="45.87894" lon="2.94057">
        <ele>748</ele>
        <time>2014-08-24T11:40:45Z</time>
      </trkpt>
      <trkpt lat="45.87886" lon="2.94047">
        <ele>748</ele>
        <time>2014-08-24T11:40:47Z</time>
      </trkpt>
      <trkpt lat="45.87879" lon="2.94037">
        <ele>747</ele>
        <time>2014-08-24T11:40:49Z</time>
      </trkpt>
      <trkpt lat="45.87872" lon="2.94027">
        <ele>747</ele>
        <time>2014-08-24T11:40:51Z</time>
      </trkpt>
      <trkpt lat="45.87863" lon="2.94015">
        <ele>747</ele>
        <time>2014-08-24T11:40:54Z</time>
      </trkpt>
      <trkpt lat="45.87856" lon="2.9401">
        <ele>747</ele>
        <time>2014-08-24T11:40:56Z</time>
      </trkpt>
      <trkpt lat="45.87851" lon="2.94008">
        <ele>747</ele>
        <time>2014-08-24T11:40:58Z</time>
      </trkpt>
      <trkpt lat="45.87847" lon="2.94006">
        <ele>748</ele>
        <time>2014-08-24T11:41:00Z</time>
      </trkpt>
      <trkpt lat="45.87842" lon="2.94006">
        <ele>748</ele>
        <time>2014-08-24T11:41:02Z</time>
      </trkpt>
      <trkpt lat="45.87832" lon="2.94005">
        <ele>749</ele>
        <time>2014-08-24T11:41:05Z</time>
      </trkpt>
      <trkpt lat="45.87825" lon="2.94003">
        <ele>749</ele>
        <time>2014-08-24T11:41:07Z</time>
      </trkpt>
      <trkpt lat="45.87814" lon="2.94">
        <ele>750</ele>
        <time>2014-08-24T11:41:10Z</time>
      </trkpt>
      <trkpt lat="45.87807" lon="2.93997">
        <ele>750</ele>
        <time>2014-08-24T11:41:12Z</time>
      </trkpt>
      <trkpt lat="45.87797" lon="2.93993">
        <ele>751</ele>
        <time>2014-08-24T11:41:15Z</time>
      </trkpt>
      <trkpt lat="45.87793" lon="2.9399">
        <ele>751</ele>
        <time>2014-08-24T11:41:17Z</time>
      </trkpt>
      <trkpt lat="45.8779" lon="2.93988">
        <ele>752</ele>
        <time>2014-08-24T11:41:19Z</time>
      </trkpt>
      <trkpt lat="45.87785" lon="2.93987">
        <ele>752</ele>
        <time>2014-08-24T11:41:22Z</time>
      </trkpt>
      <trkpt lat="45.87781" lon="2.93985">
        <ele>752</ele>
        <time>2014-08-24T11:41:24Z</time>
      </trkpt>
      <trkpt lat="45.87774" lon="2.93978">
        <ele>752</ele>
        <time>2014-08-24T11:41:27Z</time>
      </trkpt>
      <trkpt lat="45.8777" lon="2.93974">
        <ele>752</ele>
        <time>2014-08-24T11:41:29Z</time>
      </trkpt>
      <trkpt lat="45.87766" lon="2.93972">
        <ele>752</ele>
        <time>2014-08-24T11:41:31Z</time>
      </trkpt>
      <trkpt lat="45.87759" lon="2.93967">
        <ele>753</ele>
        <time>2014-08-24T11:41:34Z</time>
      </trkpt>
      <trkpt lat="45.87753" lon="2.93963">
        <ele>753</ele>
        <time>2014-08-24T11:41:36Z</time>
      </trkpt>
      <trkpt lat="45.87746" lon="2.93959">
        <ele>753</ele>
        <time>2014-08-24T11:41:38Z</time>
      </trkpt>
      <trkpt lat="45.87736" lon="2.93952">
        <ele>754</ele>
        <time>2014-08-24T11:41:41Z</time>
      </trkpt>
      <trkpt lat="45.87729" lon="2.93948">
        <ele>754</ele>
        <time>2014-08-24T11:41:43Z</time>
      </trkpt>
      <trkpt lat="45.87716" lon="2.93942">
        <ele>755</ele>
        <time>2014-08-24T11:41:46Z</time>
      </trkpt>
      <trkpt lat="45.87706" lon="2.93938">
        <ele>755</ele>
        <time>2014-08-24T11:41:48Z</time>
      </trkpt>
      <trkpt lat="45.87697" lon="2.93936">
        <ele>756</ele>
        <time>2014-08-24T11:41:50Z</time>
      </trkpt>
      <trkpt lat="45.87688" lon="2.93934">
        <ele>757</ele>
        <time>2014-08-24T11:41:52Z</time>
      </trkpt>
      <trkpt lat="45.87677" lon="2.93931">
        <ele>758</ele>
        <time>2014-08-24T11:41:55Z</time>
      </trkpt>
      <trkpt lat="45.87668" lon="2.93929">
        <ele>759</ele>
        <time>2014-08-24T11:41:58Z</time>
      </trkpt>
      <trkpt lat="45.87658" lon="2.93928">
        <ele>759</ele>
        <time>2014-08-24T11:42:01Z</time>
      </trkpt>
      <trkpt lat="45.87652" lon="2.93927">
        <ele>760</ele>
        <time>2014-08-24T11:42:03Z</time>
      </trkpt>
      <trkpt lat="45.87641" lon="2.93924">
        <ele>761</ele>
        <time>2014-08-24T11:42:06Z</time>
      </trkpt>
      <trkpt lat="45.87634" lon="2.93922">
        <ele>761</ele>
        <time>2014-08-24T11:42:08Z</time>
      </trkpt>
      <trkpt lat="45.87626" lon="2.93919">
        <ele>762</ele>
        <time>2014-08-24T11:42:10Z</time>
      </trkpt>
      <trkpt lat="45.87617" lon="2.93918">
        <ele>762</ele>
        <time>2014-08-24T11:42:13Z</time>
      </trkpt>
      <trkpt lat="45.8761" lon="2.93916">
        <ele>762</ele>
        <time>2014-08-24T11:42:15Z</time>
      </trkpt>
      <trkpt lat="45.87604" lon="2.93912">
        <ele>761</ele>
        <time>2014-08-24T11:42:17Z</time>
      </trkpt>
      <trkpt lat="45.87595" lon="2.93909">
        <ele>762</ele>
        <time>2014-08-24T11:42:20Z</time>
      </trkpt>
      <trkpt lat="45.87586" lon="2.93905">
        <ele>762</ele>
        <time>2014-08-24T11:42:23Z</time>
      </trkpt>
      <trkpt lat="45.8758" lon="2.93904">
        <ele>762</ele>
        <time>2014-08-24T11:42:25Z</time>
      </trkpt>
      <trkpt lat="45.87572" lon="2.93908">
        <ele>762</ele>
        <time>2014-08-24T11:42:28Z</time>
      </trkpt>
      <trkpt lat="45.87567" lon="2.93914">
        <ele>762</ele>
        <time>2014-08-24T11:42:30Z</time>
      </trkpt>
      <trkpt lat="45.87562" lon="2.93921">
        <ele>762</ele>
        <time>2014-08-24T11:42:32Z</time>
      </trkpt>
      <trkpt lat="45.87554" lon="2.93935">
        <ele>762</ele>
        <time>2014-08-24T11:42:35Z</time>
      </trkpt>
      <trkpt lat="45.87548" lon="2.93946">
        <ele>762</ele>
        <time>2014-08-24T11:42:37Z</time>
      </trkpt>
      <trkpt lat="45.8754" lon="2.93966">
        <ele>762</ele>
        <time>2014-08-24T11:42:40Z</time>
      </trkpt>
      <trkpt lat="45.87536" lon="2.93981">
        <ele>762</ele>
        <time>2014-08-24T11:42:42Z</time>
      </trkpt>
      <trkpt lat="45.87534" lon="2.93997">
        <ele>762</ele>
        <time>2014-08-24T11:42:44Z</time>
      </trkpt>
      <trkpt lat="45.87535" lon="2.94021">
        <ele>761</ele>
        <time>2014-08-24T11:42:47Z</time>
      </trkpt>
      <trkpt lat="45.87537" lon="2.94044">
        <ele>761</ele>
        <time>2014-08-24T11:42:50Z</time>
      </trkpt>
      <trkpt lat="45.87539" lon="2.94059">
        <ele>761</ele>
        <time>2014-08-24T11:42:52Z</time>
      </trkpt>
      <trkpt lat="45.8754" lon="2.94078">
        <ele>760</ele>
        <time>2014-08-24T11:42:55Z</time>
      </trkpt>
      <trkpt lat="45.87544" lon="2.94093">
        <ele>760</ele>
        <time>2014-08-24T11:42:58Z</time>
      </trkpt>
      <trkpt lat="45.8755" lon="2.94109">
        <ele>760</ele>
        <time>2014-08-24T11:43:01Z</time>
      </trkpt>
      <trkpt lat="45.87554" lon="2.9412">
        <ele>760</ele>
        <time>2014-08-24T11:43:03Z</time>
      </trkpt>
      <trkpt lat="45.87557" lon="2.94136">
        <ele>761</ele>
        <time>2014-08-24T11:43:06Z</time>
      </trkpt>
      <trkpt lat="45.87557" lon="2.94151">
        <ele>762</ele>
        <time>2014-08-24T11:43:09Z</time>
      </trkpt>
      <trkpt lat="45.87556" lon="2.94166">
        <ele>762</ele>
        <time>2014-08-24T11:43:12Z</time>
      </trkpt>
      <trkpt lat="45.87555" lon="2.94175">
        <ele>763</ele>
        <time>2014-08-24T11:43:14Z</time>
      </trkpt>
      <trkpt lat="45.87555" lon="2.94183">
        <ele>763</ele>
        <time>2014-08-24T11:43:16Z</time>
      </trkpt>
      <trkpt lat="45.87553" lon="2.94196">
        <ele>763</ele>
        <time>2014-08-24T11:43:19Z</time>
      </trkpt>
      <trkpt lat="45.87551" lon="2.94209">
        <ele>763</ele>
        <time>2014-08-24T11:43:22Z</time>
      </trkpt>
      <trkpt lat="45.87548" lon="2.94223">
        <ele>764</ele>
        <time>2014-08-24T11:43:25Z</time>
      </trkpt>
      <trkpt lat="45.87543" lon="2.94239">
        <ele>764</ele>
        <time>2014-08-24T11:43:28Z</time>
      </trkpt>
      <trkpt lat="45.8754" lon="2.9425">
        <ele>763</ele>
        <time>2014-08-24T11:43:30Z</time>
      </trkpt>
      <trkpt lat="45.87537" lon="2.94262">
        <ele>763</ele>
        <time>2014-08-24T11:43:32Z</time>
      </trkpt>
      <trkpt lat="45.87535" lon="2.94273">
        <ele>763</ele>
        <time>2014-08-24T11:43:34Z</time>
      </trkpt>
      <trkpt lat="45.87531" lon="2.94288">
        <ele>764</ele>
        <time>2014-08-24T11:43:37Z</time>
      </trkpt>
      <trkpt lat="45.87528" lon="2.94298">
        <ele>764</ele>
        <time>2014-08-24T11:43:40Z</time>
      </trkpt>
      <trkpt lat="45.87527" lon="2.94304">
        <ele>764</ele>
        <time>2014-08-24T11:43:42Z</time>
      </trkpt>
      <trkpt lat="45.87526" lon="2.94308">
        <ele>764</ele>
        <time>2014-08-24T11:43:44Z</time>
      </trkpt>
      <trkpt lat="45.87524" lon="2.94314">
        <ele>764</ele>
        <time>2014-08-24T11:43:47Z</time>
      </trkpt>
      <trkpt lat="45.87522" lon="2.94321">
        <ele>764</ele>
        <time>2014-08-24T11:43:49Z</time>
      </trkpt>
      <trkpt lat="45.87519" lon="2.94331">
        <ele>764</ele>
        <time>2014-08-24T11:43:51Z</time>
      </trkpt>
      <trkpt lat="45.87517" lon="2.94341">
        <ele>765</ele>
        <time>2014-08-24T11:43:53Z</time>
      </trkpt>
      <trkpt lat="45.87513" lon="2.94353">
        <ele>765</ele>
        <time>2014-08-24T11:43:56Z</time>
      </trkpt>
      <trkpt lat="45.87511" lon="2.94359">
        <ele>764</ele>
        <time>2014-08-24T11:43:59Z</time>
      </trkpt>
      <trkpt lat="45.87511" lon="2.94358">
        <ele>764</ele>
        <time>2014-08-24T11:44:01Z</time>
      </trkpt>
      <trkpt lat="45.87506" lon="2.9437">
        <ele>764</ele>
        <time>2014-08-24T11:44:04Z</time>
      </trkpt>
      <trkpt lat="45.87503" lon="2.94379">
        <ele>764</ele>
        <time>2014-08-24T11:44:06Z</time>
      </trkpt>
      <trkpt lat="45.875" lon="2.94387">
        <ele>765</ele>
        <time>2014-08-24T11:44:08Z</time>
      </trkpt>
      <trkpt lat="45.87496" lon="2.94396">
        <ele>765</ele>
        <time>2014-08-24T11:44:10Z</time>
      </trkpt>
      <trkpt lat="45.87492" lon="2.94405">
        <ele>765</ele>
        <time>2014-08-24T11:44:12Z</time>
      </trkpt>
      <trkpt lat="45.87484" lon="2.94416">
        <ele>765</ele>
        <time>2014-08-24T11:44:15Z</time>
      </trkpt>
      <trkpt lat="45.87479" lon="2.94424">
        <ele>765</ele>
        <time>2014-08-24T11:44:17Z</time>
      </trkpt>
      <trkpt lat="45.87472" lon="2.94433">
        <ele>765</ele>
        <time>2014-08-24T11:44:19Z</time>
      </trkpt>
      <trkpt lat="45.87466" lon="2.94443">
        <ele>765</ele>
        <time>2014-08-24T11:44:21Z</time>
      </trkpt>
      <trkpt lat="45.87458" lon="2.9446">
        <ele>766</ele>
        <time>2014-08-24T11:44:24Z</time>
      </trkpt>
      <trkpt lat="45.87452" lon="2.94468">
        <ele>766</ele>
        <time>2014-08-24T11:44:26Z</time>
      </trkpt>
      <trkpt lat="45.87447" lon="2.94477">
        <ele>766</ele>
        <time>2014-08-24T11:44:28Z</time>
      </trkpt>
      <trkpt lat="45.87441" lon="2.94486">
        <ele>767</ele>
        <time>2014-08-24T11:44:30Z</time>
      </trkpt>
      <trkpt lat="45.87434" lon="2.94497">
        <ele>768</ele>
        <time>2014-08-24T11:44:33Z</time>
      </trkpt>
      <trkpt lat="45.87429" lon="2.94503">
        <ele>769</ele>
        <time>2014-08-24T11:44:35Z</time>
      </trkpt>
      <trkpt lat="45.87424" lon="2.94509">
        <ele>770</ele>
        <time>2014-08-24T11:44:37Z</time>
      </trkpt>
      <trkpt lat="45.87418" lon="2.94515">
        <ele>771</ele>
        <time>2014-08-24T11:44:40Z</time>
      </trkpt>
      <trkpt lat="45.87415" lon="2.94519">
        <ele>771</ele>
        <time>2014-08-24T11:44:42Z</time>
      </trkpt>
      <trkpt lat="45.87409" lon="2.94527">
        <ele>772</ele>
        <time>2014-08-24T11:44:45Z</time>
      </trkpt>
      <trkpt lat="45.87403" lon="2.94536">
        <ele>772</ele>
        <time>2014-08-24T11:44:48Z</time>
      </trkpt>
      <trkpt lat="45.87397" lon="2.94545">
        <ele>773</ele>
        <time>2014-08-24T11:44:51Z</time>
      </trkpt>
      <trkpt lat="45.87393" lon="2.94551">
        <ele>774</ele>
        <time>2014-08-24T11:44:53Z</time>
      </trkpt>
      <trkpt lat="45.87388" lon="2.94563">
        <ele>775</ele>
        <time>2014-08-24T11:44:56Z</time>
      </trkpt>
      <trkpt lat="45.87383" lon="2.94572">
        <ele>776</ele>
        <time>2014-08-24T11:44:58Z</time>
      </trkpt>
      <trkpt lat="45.87378" lon="2.94582">
        <ele>776</ele>
        <time>2014-08-24T11:45:00Z</time>
      </trkpt>
      <trkpt lat="45.87373" lon="2.94589">
        <ele>777</ele>
        <time>2014-08-24T11:45:02Z</time>
      </trkpt>
      <trkpt lat="45.87368" lon="2.94598">
        <ele>778</ele>
        <time>2014-08-24T11:45:04Z</time>
      </trkpt>
      <trkpt lat="45.87364" lon="2.94606">
        <ele>778</ele>
        <time>2014-08-24T11:45:06Z</time>
      </trkpt>
      <trkpt lat="45.8736" lon="2.94615">
        <ele>779</ele>
        <time>2014-08-24T11:45:09Z</time>
      </trkpt>
      <trkpt lat="45.87356" lon="2.94626">
        <ele>780</ele>
        <time>2014-08-24T11:45:12Z</time>
      </trkpt>
      <trkpt lat="45.87352" lon="2.94634">
        <ele>780</ele>
        <time>2014-08-24T11:45:14Z</time>
      </trkpt>
      <trkpt lat="45.87347" lon="2.94642">
        <ele>781</ele>
        <time>2014-08-24T11:45:16Z</time>
      </trkpt>
      <trkpt lat="45.87343" lon="2.94652">
        <ele>781</ele>
        <time>2014-08-24T11:45:18Z</time>
      </trkpt>
      <trkpt lat="45.87338" lon="2.94668">
        <ele>782</ele>
        <time>2014-08-24T11:45:21Z</time>
      </trkpt>
      <trkpt lat="45.87335" lon="2.94678">
        <ele>782</ele>
        <time>2014-08-24T11:45:24Z</time>
      </trkpt>
      <trkpt lat="45.87332" lon="2.94686">
        <ele>782</ele>
        <time>2014-08-24T11:45:26Z</time>
      </trkpt>
      <trkpt lat="45.87328" lon="2.94701">
        <ele>783</ele>
        <time>2014-08-24T11:45:29Z</time>
      </trkpt>
      <trkpt lat="45.87326" lon="2.9471">
        <ele>783</ele>
        <time>2014-08-24T11:45:31Z</time>
      </trkpt>
      <trkpt lat="45.87323" lon="2.94717">
        <ele>783</ele>
        <time>2014-08-24T11:45:33Z</time>
      </trkpt>
      <trkpt lat="45.87319" lon="2.94731">
        <ele>783</ele>
        <time>2014-08-24T11:45:36Z</time>
      </trkpt>
      <trkpt lat="45.87316" lon="2.9474">
        <ele>783</ele>
        <time>2014-08-24T11:45:38Z</time>
      </trkpt>
      <trkpt lat="45.87312" lon="2.94755">
        <ele>783</ele>
        <time>2014-08-24T11:45:41Z</time>
      </trkpt>
      <trkpt lat="45.87311" lon="2.94766">
        <ele>782</ele>
        <time>2014-08-24T11:45:43Z</time>
      </trkpt>
      <trkpt lat="45.87309" lon="2.94777">
        <ele>782</ele>
        <time>2014-08-24T11:45:45Z</time>
      </trkpt>
      <trkpt lat="45.87308" lon="2.94791">
        <ele>782</ele>
        <time>2014-08-24T11:45:48Z</time>
      </trkpt>
      <trkpt lat="45.87307" lon="2.94803">
        <ele>782</ele>
        <time>2014-08-24T11:45:51Z</time>
      </trkpt>
      <trkpt lat="45.87307" lon="2.94813">
        <ele>782</ele>
        <time>2014-08-24T11:45:53Z</time>
      </trkpt>
      <trkpt lat="45.87306" lon="2.94822">
        <ele>782</ele>
        <time>2014-08-24T11:45:55Z</time>
      </trkpt>
      <trkpt lat="45.87305" lon="2.94832">
        <ele>783</ele>
        <time>2014-08-24T11:45:57Z</time>
      </trkpt>
      <trkpt lat="45.87299" lon="2.94847">
        <ele>782</ele>
        <time>2014-08-24T11:46:00Z</time>
      </trkpt>
      <trkpt lat="45.87294" lon="2.94857">
        <ele>783</ele>
        <time>2014-08-24T11:46:02Z</time>
      </trkpt>
      <trkpt lat="45.87289" lon="2.94865">
        <ele>783</ele>
        <time>2014-08-24T11:46:04Z</time>
      </trkpt>
      <trkpt lat="45.87284" lon="2.94873">
        <ele>783</ele>
        <time>2014-08-24T11:46:06Z</time>
      </trkpt>
      <trkpt lat="45.87281" lon="2.94882">
        <ele>783</ele>
        <time>2014-08-24T11:46:08Z</time>
      </trkpt>
      <trkpt lat="45.87278" lon="2.94889">
        <ele>784</ele>
        <time>2014-08-24T11:46:10Z</time>
      </trkpt>
      <trkpt lat="45.87274" lon="2.94897">
        <ele>784</ele>
        <time>2014-08-24T11:46:12Z</time>
      </trkpt>
      <trkpt lat="45.87266" lon="2.94909">
        <ele>785</ele>
        <time>2014-08-24T11:46:15Z</time>
      </trkpt>
      <trkpt lat="45.87258" lon="2.94921">
        <ele>785</ele>
        <time>2014-08-24T11:46:18Z</time>
      </trkpt>
      <trkpt lat="45.87252" lon="2.94931">
        <ele>785</ele>
        <time>2014-08-24T11:46:20Z</time>
      </trkpt>
      <trkpt lat="45.87247" lon="2.9494">
        <ele>785</ele>
        <time>2014-08-24T11:46:23Z</time>
      </trkpt>
      <trkpt lat="45.87244" lon="2.94944">
        <ele>785</ele>
        <time>2014-08-24T11:46:25Z</time>
      </trkpt>
      <trkpt lat="45.87241" lon="2.94949">
        <ele>785</ele>
        <time>2014-08-24T11:46:27Z</time>
      </trkpt>
      <trkpt lat="45.87239" lon="2.94954">
        <ele>785</ele>
        <time>2014-08-24T11:46:30Z</time>
      </trkpt>
      <trkpt lat="45.87224" lon="2.9499">
        <ele>784</ele>
        <time>2014-08-24T11:46:32Z</time>
      </trkpt>
      <trkpt lat="45.87225" lon="2.9499">
        <ele>784</ele>
        <time>2014-08-24T11:46:34Z</time>
      </trkpt>
      <trkpt lat="45.87226" lon="2.94995">
        <ele>784</ele>
        <time>2014-08-24T11:46:37Z</time>
      </trkpt>
      <trkpt lat="45.8723" lon="2.95001">
        <ele>784</ele>
        <time>2014-08-24T11:46:40Z</time>
      </trkpt>
      <trkpt lat="45.87232" lon="2.95004">
        <ele>784</ele>
        <time>2014-08-24T11:46:43Z</time>
      </trkpt>
      <trkpt lat="45.87236" lon="2.95012">
        <ele>784</ele>
        <time>2014-08-24T11:46:45Z</time>
      </trkpt>
      <trkpt lat="45.87237" lon="2.95018">
        <ele>784</ele>
        <time>2014-08-24T11:46:47Z</time>
      </trkpt>
      <trkpt lat="45.87241" lon="2.95026">
        <ele>784</ele>
        <time>2014-08-24T11:46:49Z</time>
      </trkpt>
      <trkpt lat="45.87246" lon="2.95034">
        <ele>785</ele>
        <time>2014-08-24T11:46:51Z</time>
      </trkpt>
      <trkpt lat="45.87255" lon="2.95049">
        <ele>785</ele>
        <time>2014-08-24T11:46:54Z</time>
      </trkpt>
      <trkpt lat="45.8726" lon="2.95058">
        <ele>785</ele>
        <time>2014-08-24T11:46:56Z</time>
      </trkpt>
      <trkpt lat="45.87269" lon="2.9507">
        <ele>784</ele>
        <time>2014-08-24T11:46:59Z</time>
      </trkpt>
      <trkpt lat="45.87278" lon="2.95083">
        <ele>784</ele>
        <time>2014-08-24T11:47:02Z</time>
      </trkpt>
      <trkpt lat="45.87287" lon="2.95093">
        <ele>783</ele>
        <time>2014-08-24T11:47:05Z</time>
      </trkpt>
      <trkpt lat="45.87289" lon="2.95096">
        <ele>783</ele>
        <time>2014-08-24T11:47:07Z</time>
      </trkpt>
      <trkpt lat="45.87293" lon="2.951">
        <ele>783</ele>
        <time>2014-08-24T11:47:10Z</time>
      </trkpt>
      <trkpt lat="45.87297" lon="2.95104">
        <ele>783</ele>
        <time>2014-08-24T11:47:12Z</time>
      </trkpt>
      <trkpt lat="45.87302" lon="2.95111">
        <ele>783</ele>
        <time>2014-08-24T11:47:15Z</time>
      </trkpt>
      <trkpt lat="45.87307" lon="2.95118">
        <ele>783</ele>
        <time>2014-08-24T11:47:18Z</time>
      </trkpt>
      <trkpt lat="45.87309" lon="2.9512">
        <ele>782</ele>
        <time>2014-08-24T11:47:20Z</time>
      </trkpt>
      <trkpt lat="45.87311" lon="2.95122">
        <ele>782</ele>
        <time>2014-08-24T11:47:22Z</time>
      </trkpt>
      <trkpt lat="45.87313" lon="2.95124">
        <ele>782</ele>
        <time>2014-08-24T11:47:25Z</time>
      </trkpt>
      <trkpt lat="45.87315" lon="2.95125">
        <ele>782</ele>
        <time>2014-08-24T11:47:28Z</time>
      </trkpt>
      <trkpt lat="45.87316" lon="2.95127">
        <ele>782</ele>
        <time>2014-08-24T11:47:30Z</time>
      </trkpt>
      <trkpt lat="45.87318" lon="2.9513">
        <ele>782</ele>
        <time>2014-08-24T11:47:32Z</time>
      </trkpt>
      <trkpt lat="45.8732" lon="2.95133">
        <ele>782</ele>
        <time>2014-08-24T11:47:34Z</time>
      </trkpt>
      <trkpt lat="45.87321" lon="2.95135">
        <ele>782</ele>
        <time>2014-08-24T11:47:36Z</time>
      </trkpt>
      <trkpt lat="45.87322" lon="2.95139">
        <ele>782</ele>
        <time>2014-08-24T11:47:38Z</time>
      </trkpt>
      <trkpt lat="45.87321" lon="2.95144">
        <ele>782</ele>
        <time>2014-08-24T11:47:40Z</time>
      </trkpt>
      <trkpt lat="45.8732" lon="2.9515">
        <ele>783</ele>
        <time>2014-08-24T11:47:43Z</time>
      </trkpt>
      <trkpt lat="45.87319" lon="2.95154">
        <ele>783</ele>
        <time>2014-08-24T11:47:45Z</time>
      </trkpt>
      <trkpt lat="45.87318" lon="2.95158">
        <ele>783</ele>
        <time>2014-08-24T11:47:48Z</time>
      </trkpt>
      <trkpt lat="45.87318" lon="2.95167">
        <ele>783</ele>
        <time>2014-08-24T11:47:50Z</time>
      </trkpt>
      <trkpt lat="45.87315" lon="2.95174">
        <ele>782</ele>
        <time>2014-08-24T11:47:52Z</time>
      </trkpt>
      <trkpt lat="45.87313" lon="2.95181">
        <ele>783</ele>
        <time>2014-08-24T11:47:54Z</time>
      </trkpt>
      <trkpt lat="45.87311" lon="2.9519">
        <ele>783</ele>
        <time>2014-08-24T11:47:56Z</time>
      </trkpt>
      <trkpt lat="45.8731" lon="2.95199">
        <ele>783</ele>
        <time>2014-08-24T11:47:58Z</time>
      </trkpt>
      <trkpt lat="45.87308" lon="2.95209">
        <ele>783</ele>
        <time>2014-08-24T11:48:01Z</time>
      </trkpt>
      <trkpt lat="45.87306" lon="2.95216">
        <ele>783</ele>
        <time>2014-08-24T11:48:03Z</time>
      </trkpt>
      <trkpt lat="45.87304" lon="2.95223">
        <ele>783</ele>
        <time>2014-08-24T11:48:05Z</time>
      </trkpt>
      <trkpt lat="45.87302" lon="2.95235">
        <ele>784</ele>
        <time>2014-08-24T11:48:08Z</time>
      </trkpt>
      <trkpt lat="45.87302" lon="2.95242">
        <ele>784</ele>
        <time>2014-08-24T11:48:11Z</time>
      </trkpt>
      <trkpt lat="45.873" lon="2.95253">
        <ele>785</ele>
        <time>2014-08-24T11:48:13Z</time>
      </trkpt>
      <trkpt lat="45.873" lon="2.9526">
        <ele>785</ele>
        <time>2014-08-24T11:48:15Z</time>
      </trkpt>
      <trkpt lat="45.873" lon="2.95269">
        <ele>785</ele>
        <time>2014-08-24T11:48:17Z</time>
      </trkpt>
      <trkpt lat="45.87302" lon="2.95282">
        <ele>786</ele>
        <time>2014-08-24T11:48:20Z</time>
      </trkpt>
      <trkpt lat="45.87303" lon="2.95298">
        <ele>787</ele>
        <time>2014-08-24T11:48:23Z</time>
      </trkpt>
      <trkpt lat="45.87302" lon="2.95307">
        <ele>788</ele>
        <time>2014-08-24T11:48:25Z</time>
      </trkpt>
      <trkpt lat="45.87302" lon="2.95316">
        <ele>788</ele>
        <time>2014-08-24T11:48:28Z</time>
      </trkpt>
      <trkpt lat="45.87301" lon="2.95332">
        <ele>789</ele>
        <time>2014-08-24T11:48:30Z</time>
      </trkpt>
      <trkpt lat="45.873" lon="2.95343">
        <ele>790</ele>
        <time>2014-08-24T11:48:32Z</time>
      </trkpt>
      <trkpt lat="45.873" lon="2.95352">
        <ele>790</ele>
        <time>2014-08-24T11:48:34Z</time>
      </trkpt>
      <trkpt lat="45.87301" lon="2.95358">
        <ele>791</ele>
        <time>2014-08-24T11:48:36Z</time>
      </trkpt>
      <trkpt lat="45.87303" lon="2.95368">
        <ele>791</ele>
        <time>2014-08-24T11:48:38Z</time>
      </trkpt>
      <trkpt lat="45.87305" lon="2.95377">
        <ele>790</ele>
        <time>2014-08-24T11:48:40Z</time>
      </trkpt>
      <trkpt lat="45.87307" lon="2.9539">
        <ele>790</ele>
        <time>2014-08-24T11:48:43Z</time>
      </trkpt>
      <trkpt lat="45.87309" lon="2.95401">
        <ele>790</ele>
        <time>2014-08-24T11:48:45Z</time>
      </trkpt>
      <trkpt lat="45.87312" lon="2.95414">
        <ele>789</ele>
        <time>2014-08-24T11:48:47Z</time>
      </trkpt>
      <trkpt lat="45.87313" lon="2.95428">
        <ele>789</ele>
        <time>2014-08-24T11:48:49Z</time>
      </trkpt>
      <trkpt lat="45.87313" lon="2.95442">
        <ele>789</ele>
        <time>2014-08-24T11:48:51Z</time>
      </trkpt>
      <trkpt lat="45.87313" lon="2.95455">
        <ele>789</ele>
        <time>2014-08-24T11:48:53Z</time>
      </trkpt>
      <trkpt lat="45.87312" lon="2.95476">
        <ele>788</ele>
        <time>2014-08-24T11:48:56Z</time>
      </trkpt>
      <trkpt lat="45.87311" lon="2.95488">
        <ele>788</ele>
        <time>2014-08-24T11:48:58Z</time>
      </trkpt>
      <trkpt lat="45.87309" lon="2.95499">
        <ele>788</ele>
        <time>2014-08-24T11:49:00Z</time>
      </trkpt>
      <trkpt lat="45.87305" lon="2.95517">
        <ele>787</ele>
        <time>2014-08-24T11:49:03Z</time>
      </trkpt>
      <trkpt lat="45.87299" lon="2.95533">
        <ele>787</ele>
        <time>2014-08-24T11:49:06Z</time>
      </trkpt>
      <trkpt lat="45.87292" lon="2.95548">
        <ele>788</ele>
        <time>2014-08-24T11:49:09Z</time>
      </trkpt>
      <trkpt lat="45.87289" lon="2.95559">
        <ele>788</ele>
        <time>2014-08-24T11:49:12Z</time>
      </trkpt>
      <trkpt lat="45.87284" lon="2.95574">
        <ele>788</ele>
        <time>2014-08-24T11:49:14Z</time>
      </trkpt>
      <trkpt lat="45.8728" lon="2.95584">
        <ele>788</ele>
        <time>2014-08-24T11:49:17Z</time>
      </trkpt>
      <trkpt lat="45.87279" lon="2.95592">
        <ele>788</ele>
        <time>2014-08-24T11:49:19Z</time>
      </trkpt>
      <trkpt lat="45.87278" lon="2.95602">
        <ele>788</ele>
        <time>2014-08-24T11:49:21Z</time>
      </trkpt>
      <trkpt lat="45.87277" lon="2.95614">
        <ele>789</ele>
        <time>2014-08-24T11:49:23Z</time>
      </trkpt>
      <trkpt lat="45.87273" lon="2.95624">
        <ele>789</ele>
        <time>2014-08-24T11:49:25Z</time>
      </trkpt>
      <trkpt lat="45.87267" lon="2.95635">
        <ele>789</ele>
        <time>2014-08-24T11:49:27Z</time>
      </trkpt>
      <trkpt lat="45.87255" lon="2.95645">
        <ele>789</ele>
        <time>2014-08-24T11:49:30Z</time>
      </trkpt>
      <trkpt lat="45.8725" lon="2.95653">
        <ele>789</ele>
        <time>2014-08-24T11:49:32Z</time>
      </trkpt>
      <trkpt lat="45.87245" lon="2.95659">
        <ele>790</ele>
        <time>2014-08-24T11:49:34Z</time>
      </trkpt>
      <trkpt lat="45.87241" lon="2.95668">
        <ele>790</ele>
        <time>2014-08-24T11:49:37Z</time>
      </trkpt>
      <trkpt lat="45.87238" lon="2.95672">
        <ele>790</ele>
        <time>2014-08-24T11:49:39Z</time>
      </trkpt>
      <trkpt lat="45.87234" lon="2.95676">
        <ele>790</ele>
        <time>2014-08-24T11:49:41Z</time>
      </trkpt>
      <trkpt lat="45.8723" lon="2.95682">
        <ele>790</ele>
        <time>2014-08-24T11:49:44Z</time>
      </trkpt>
      <trkpt lat="45.87221" lon="2.9569">
        <ele>790</ele>
        <time>2014-08-24T11:49:46Z</time>
      </trkpt>
      <trkpt lat="45.87214" lon="2.95697">
        <ele>790</ele>
        <time>2014-08-24T11:49:48Z</time>
      </trkpt>
      <trkpt lat="45.87205" lon="2.95708">
        <ele>790</ele>
        <time>2014-08-24T11:49:51Z</time>
      </trkpt>
      <trkpt lat="45.87196" lon="2.95723">
        <ele>790</ele>
        <time>2014-08-24T11:49:54Z</time>
      </trkpt>
      <trkpt lat="45.87189" lon="2.95734">
        <ele>790</ele>
        <time>2014-08-24T11:49:56Z</time>
      </trkpt>
      <trkpt lat="45.87178" lon="2.95752">
        <ele>790</ele>
        <time>2014-08-24T11:49:59Z</time>
      </trkpt>
      <trkpt lat="45.87171" lon="2.95764">
        <ele>789</ele>
        <time>2014-08-24T11:50:02Z</time>
      </trkpt>
      <trkpt lat="45.8716" lon="2.95775">
        <ele>788</ele>
        <time>2014-08-24T11:50:04Z</time>
      </trkpt>
      <trkpt lat="45.8715" lon="2.95783">
        <ele>787</ele>
        <time>2014-08-24T11:50:07Z</time>
      </trkpt>
      <trkpt lat="45.87146" lon="2.95789">
        <ele>786</ele>
        <time>2014-08-24T11:50:09Z</time>
      </trkpt>
      <trkpt lat="45.87139" lon="2.95797">
        <ele>784</ele>
        <time>2014-08-24T11:50:11Z</time>
      </trkpt>
      <trkpt lat="45.87125" lon="2.95819">
        <ele>782</ele>
        <time>2014-08-24T11:50:14Z</time>
      </trkpt>
      <trkpt lat="45.87115" lon="2.9583">
        <ele>780</ele>
        <time>2014-08-24T11:50:16Z</time>
      </trkpt>
      <trkpt lat="45.87106" lon="2.95841">
        <ele>778</ele>
        <time>2014-08-24T11:50:19Z</time>
      </trkpt>
      <trkpt lat="45.87097" lon="2.9585">
        <ele>776</ele>
        <time>2014-08-24T11:50:22Z</time>
      </trkpt>
      <trkpt lat="45.8709" lon="2.95856">
        <ele>774</ele>
        <time>2014-08-24T11:50:24Z</time>
      </trkpt>
      <trkpt lat="45.87085" lon="2.95862">
        <ele>772</ele>
        <time>2014-08-24T11:50:26Z</time>
      </trkpt>
      <trkpt lat="45.87075" lon="2.9587">
        <ele>770</ele>
        <time>2014-08-24T11:50:29Z</time>
      </trkpt>
      <trkpt lat="45.87062" lon="2.95879">
        <ele>768</ele>
        <time>2014-08-24T11:50:32Z</time>
      </trkpt>
      <trkpt lat="45.87051" lon="2.95887">
        <ele>767</ele>
        <time>2014-08-24T11:50:35Z</time>
      </trkpt>
      <trkpt lat="45.87034" lon="2.959">
        <ele>766</ele>
        <time>2014-08-24T11:50:37Z</time>
      </trkpt>
      <trkpt lat="45.87024" lon="2.95908">
        <ele>764</ele>
        <time>2014-08-24T11:50:39Z</time>
      </trkpt>
      <trkpt lat="45.87013" lon="2.95918">
        <ele>763</ele>
        <time>2014-08-24T11:50:41Z</time>
      </trkpt>
      <trkpt lat="45.86996" lon="2.95931">
        <ele>761</ele>
        <time>2014-08-24T11:50:44Z</time>
      </trkpt>
      <trkpt lat="45.86985" lon="2.95941">
        <ele>759</ele>
        <time>2014-08-24T11:50:46Z</time>
      </trkpt>
      <trkpt lat="45.86974" lon="2.95952">
        <ele>758</ele>
        <time>2014-08-24T11:50:48Z</time>
      </trkpt>
      <trkpt lat="45.86959" lon="2.95973">
        <ele>756</ele>
        <time>2014-08-24T11:50:51Z</time>
      </trkpt>
      <trkpt lat="45.8695" lon="2.9599">
        <ele>755</ele>
        <time>2014-08-24T11:50:53Z</time>
      </trkpt>
      <trkpt lat="45.86943" lon="2.96008">
        <ele>755</ele>
        <time>2014-08-24T11:50:56Z</time>
      </trkpt>
      <trkpt lat="45.86936" lon="2.96039">
        <ele>754</ele>
        <time>2014-08-24T11:50:58Z</time>
      </trkpt>
      <trkpt lat="45.8693" lon="2.96056">
        <ele>754</ele>
        <time>2014-08-24T11:51:00Z</time>
      </trkpt>
      <trkpt lat="45.8692" lon="2.96077">
        <ele>753</ele>
        <time>2014-08-24T11:51:03Z</time>
      </trkpt>
      <trkpt lat="45.86916" lon="2.96096">
        <ele>752</ele>
        <time>2014-08-24T11:51:06Z</time>
      </trkpt>
      <trkpt lat="45.86913" lon="2.96111">
        <ele>752</ele>
        <time>2014-08-24T11:51:08Z</time>
      </trkpt>
      <trkpt lat="45.8691" lon="2.9612">
        <ele>752</ele>
        <time>2014-08-24T11:51:11Z</time>
      </trkpt>
      <trkpt lat="45.86903" lon="2.96139">
        <ele>752</ele>
        <time>2014-08-24T11:51:13Z</time>
      </trkpt>
      <trkpt lat="45.86896" lon="2.96155">
        <ele>751</ele>
        <time>2014-08-24T11:51:16Z</time>
      </trkpt>
      <trkpt lat="45.8689" lon="2.96171">
        <ele>750</ele>
        <time>2014-08-24T11:51:19Z</time>
      </trkpt>
      <trkpt lat="45.86884" lon="2.96182">
        <ele>750</ele>
        <time>2014-08-24T11:51:21Z</time>
      </trkpt>
      <trkpt lat="45.86877" lon="2.962">
        <ele>750</ele>
        <time>2014-08-24T11:51:24Z</time>
      </trkpt>
      <trkpt lat="45.8687" lon="2.96217">
        <ele>749</ele>
        <time>2014-08-24T11:51:27Z</time>
      </trkpt>
      <trkpt lat="45.86866" lon="2.96229">
        <ele>749</ele>
        <time>2014-08-24T11:51:30Z</time>
      </trkpt>
      <trkpt lat="45.8686" lon="2.96245">
        <ele>750</ele>
        <time>2014-08-24T11:51:32Z</time>
      </trkpt>
      <trkpt lat="45.86855" lon="2.96257">
        <ele>750</ele>
        <time>2014-08-24T11:51:34Z</time>
      </trkpt>
      <trkpt lat="45.86851" lon="2.96267">
        <ele>750</ele>
        <time>2014-08-24T11:51:36Z</time>
      </trkpt>
      <trkpt lat="45.86843" lon="2.96279">
        <ele>749</ele>
        <time>2014-08-24T11:51:39Z</time>
      </trkpt>
      <trkpt lat="45.8684" lon="2.96285">
        <ele>749</ele>
        <time>2014-08-24T11:51:41Z</time>
      </trkpt>
      <trkpt lat="45.86837" lon="2.96294">
        <ele>749</ele>
        <time>2014-08-24T11:51:43Z</time>
      </trkpt>
      <trkpt lat="45.86831" lon="2.96311">
        <ele>750</ele>
        <time>2014-08-24T11:51:46Z</time>
      </trkpt>
      <trkpt lat="45.86827" lon="2.96322">
        <ele>749</ele>
        <time>2014-08-24T11:51:48Z</time>
      </trkpt>
      <trkpt lat="45.86824" lon="2.96332">
        <ele>749</ele>
        <time>2014-08-24T11:51:51Z</time>
      </trkpt>
      <trkpt lat="45.8682" lon="2.96344">
        <ele>749</ele>
        <time>2014-08-24T11:51:53Z</time>
      </trkpt>
      <trkpt lat="45.86815" lon="2.96355">
        <ele>749</ele>
        <time>2014-08-24T11:51:56Z</time>
      </trkpt>
      <trkpt lat="45.8681" lon="2.96368">
        <ele>749</ele>
        <time>2014-08-24T11:51:59Z</time>
      </trkpt>
      <trkpt lat="45.86803" lon="2.96376">
        <ele>749</ele>
        <time>2014-08-24T11:52:01Z</time>
      </trkpt>
      <trkpt lat="45.86794" lon="2.96391">
        <ele>749</ele>
        <time>2014-08-24T11:52:04Z</time>
      </trkpt>
      <trkpt lat="45.86789" lon="2.96399">
        <ele>750</ele>
        <time>2014-08-24T11:52:06Z</time>
      </trkpt>
      <trkpt lat="45.86786" lon="2.96405">
        <ele>749</ele>
        <time>2014-08-24T11:52:08Z</time>
      </trkpt>
      <trkpt lat="45.86782" lon="2.96409">
        <ele>749</ele>
        <time>2014-08-24T11:52:10Z</time>
      </trkpt>
      <trkpt lat="45.86778" lon="2.96415">
        <ele>749</ele>
        <time>2014-08-24T11:52:13Z</time>
      </trkpt>
      <trkpt lat="45.86775" lon="2.96419">
        <ele>749</ele>
        <time>2014-08-24T11:52:15Z</time>
      </trkpt>
      <trkpt lat="45.86773" lon="2.96422">
        <ele>750</ele>
        <time>2014-08-24T11:52:17Z</time>
      </trkpt>
      <trkpt lat="45.8677" lon="2.96427">
        <ele>750</ele>
        <time>2014-08-24T11:52:20Z</time>
      </trkpt>
      <trkpt lat="45.86766" lon="2.96432">
        <ele>750</ele>
        <time>2014-08-24T11:52:22Z</time>
      </trkpt>
      <trkpt lat="45.86761" lon="2.96438">
        <ele>750</ele>
        <time>2014-08-24T11:52:24Z</time>
      </trkpt>
      <trkpt lat="45.86757" lon="2.96444">
        <ele>750</ele>
        <time>2014-08-24T11:52:26Z</time>
      </trkpt>
      <trkpt lat="45.8675" lon="2.96453">
        <ele>751</ele>
        <time>2014-08-24T11:52:29Z</time>
      </trkpt>
      <trkpt lat="45.86747" lon="2.96458">
        <ele>751</ele>
        <time>2014-08-24T11:52:31Z</time>
      </trkpt>
      <trkpt lat="45.86741" lon="2.96469">
        <ele>751</ele>
        <time>2014-08-24T11:52:34Z</time>
      </trkpt>
      <trkpt lat="45.86737" lon="2.96477">
        <ele>751</ele>
        <time>2014-08-24T11:52:36Z</time>
      </trkpt>
      <trkpt lat="45.8673" lon="2.96491">
        <ele>751</ele>
        <time>2014-08-24T11:52:39Z</time>
      </trkpt>
      <trkpt lat="45.86726" lon="2.96501">
        <ele>751</ele>
        <time>2014-08-24T11:52:41Z</time>
      </trkpt>
      <trkpt lat="45.86721" lon="2.96514">
        <ele>752</ele>
        <time>2014-08-24T11:52:44Z</time>
      </trkpt>
      <trkpt lat="45.86716" lon="2.96523">
        <ele>751</ele>
        <time>2014-08-24T11:52:46Z</time>
      </trkpt>
      <trkpt lat="45.86712" lon="2.96531">
        <ele>751</ele>
        <time>2014-08-24T11:52:48Z</time>
      </trkpt>
      <trkpt lat="45.86708" lon="2.96539">
        <ele>750</ele>
        <time>2014-08-24T11:52:50Z</time>
      </trkpt>
      <trkpt lat="45.86705" lon="2.96548">
        <ele>751</ele>
        <time>2014-08-24T11:52:52Z</time>
      </trkpt>
      <trkpt lat="45.86701" lon="2.96557">
        <ele>751</ele>
        <time>2014-08-24T11:52:54Z</time>
      </trkpt>
      <trkpt lat="45.86697" lon="2.96569">
        <ele>751</ele>
        <time>2014-08-24T11:52:57Z</time>
      </trkpt>
      <trkpt lat="45.86692" lon="2.96586">
        <ele>750</ele>
        <time>2014-08-24T11:52:59Z</time>
      </trkpt>
      <trkpt lat="45.86687" lon="2.96597">
        <ele>750</ele>
        <time>2014-08-24T11:53:01Z</time>
      </trkpt>
      <trkpt lat="45.86683" lon="2.96607">
        <ele>749</ele>
        <time>2014-08-24T11:53:03Z</time>
      </trkpt>
      <trkpt lat="45.86674" lon="2.96623">
        <ele>750</ele>
        <time>2014-08-24T11:53:06Z</time>
      </trkpt>
      <trkpt lat="45.86663" lon="2.96642">
        <ele>750</ele>
        <time>2014-08-24T11:53:09Z</time>
      </trkpt>
      <trkpt lat="45.86653" lon="2.96654">
        <ele>750</ele>
        <time>2014-08-24T11:53:11Z</time>
      </trkpt>
      <trkpt lat="45.86639" lon="2.96671">
        <ele>750</ele>
        <time>2014-08-24T11:53:14Z</time>
      </trkpt>
      <trkpt lat="45.86632" lon="2.96683">
        <ele>750</ele>
        <time>2014-08-24T11:53:16Z</time>
      </trkpt>
      <trkpt lat="45.86623" lon="2.96698">
        <ele>750</ele>
        <time>2014-08-24T11:53:19Z</time>
      </trkpt>
      <trkpt lat="45.86611" lon="2.96715">
        <ele>750</ele>
        <time>2014-08-24T11:53:22Z</time>
      </trkpt>
      <trkpt lat="45.86599" lon="2.96732">
        <ele>750</ele>
        <time>2014-08-24T11:53:25Z</time>
      </trkpt>
      <trkpt lat="45.86586" lon="2.96751">
        <ele>750</ele>
        <time>2014-08-24T11:53:28Z</time>
      </trkpt>
      <trkpt lat="45.86577" lon="2.96762">
        <ele>750</ele>
        <time>2014-08-24T11:53:30Z</time>
      </trkpt>
      <trkpt lat="45.86569" lon="2.96774">
        <ele>750</ele>
        <time>2014-08-24T11:53:32Z</time>
      </trkpt>
      <trkpt lat="45.86561" lon="2.96787">
        <ele>750</ele>
        <time>2014-08-24T11:53:34Z</time>
      </trkpt>
      <trkpt lat="45.86554" lon="2.96801">
        <ele>750</ele>
        <time>2014-08-24T11:53:37Z</time>
      </trkpt>
      <trkpt lat="45.86544" lon="2.96819">
        <ele>751</ele>
        <time>2014-08-24T11:53:39Z</time>
      </trkpt>
      <trkpt lat="45.86538" lon="2.96831">
        <ele>750</ele>
        <time>2014-08-24T11:53:41Z</time>
      </trkpt>
      <trkpt lat="45.86529" lon="2.96847">
        <ele>750</ele>
        <time>2014-08-24T11:53:44Z</time>
      </trkpt>
      <trkpt lat="45.86523" lon="2.96857">
        <ele>749</ele>
        <time>2014-08-24T11:53:47Z</time>
      </trkpt>
      <trkpt lat="45.8652" lon="2.9686">
        <ele>749</ele>
        <time>2014-08-24T11:53:49Z</time>
      </trkpt>
      <trkpt lat="45.86518" lon="2.96861">
        <ele>748</ele>
        <time>2014-08-24T11:53:51Z</time>
      </trkpt>
      <trkpt lat="45.86514" lon="2.96875">
        <ele>747</ele>
        <time>2014-08-24T11:53:53Z</time>
      </trkpt>
      <trkpt lat="45.86514" lon="2.96874">
        <ele>748</ele>
        <time>2014-08-24T11:53:55Z</time>
      </trkpt>
      <trkpt lat="45.86513" lon="2.96872">
        <ele>748</ele>
        <time>2014-08-24T11:53:57Z</time>
      </trkpt>
      <trkpt lat="45.86512" lon="2.9687">
        <ele>748</ele>
        <time>2014-08-24T11:53:59Z</time>
      </trkpt>
      <trkpt lat="45.86506" lon="2.96866">
        <ele>748</ele>
        <time>2014-08-24T11:54:02Z</time>
      </trkpt>
      <trkpt lat="45.865" lon="2.96862">
        <ele>748</ele>
        <time>2014-08-24T11:54:04Z</time>
      </trkpt>
      <trkpt lat="45.86494" lon="2.96857">
        <ele>748</ele>
        <time>2014-08-24T11:54:06Z</time>
      </trkpt>
      <trkpt lat="45.86486" lon="2.96852">
        <ele>749</ele>
        <time>2014-08-24T11:54:09Z</time>
      </trkpt>
      <trkpt lat="45.86475" lon="2.96845">
        <ele>749</ele>
        <time>2014-08-24T11:54:11Z</time>
      </trkpt>
      <trkpt lat="45.86467" lon="2.96841">
        <ele>750</ele>
        <time>2014-08-24T11:54:13Z</time>
      </trkpt>
      <trkpt lat="45.86457" lon="2.96836">
        <ele>750</ele>
        <time>2014-08-24T11:54:15Z</time>
      </trkpt>
      <trkpt lat="45.86442" lon="2.96829">
        <ele>750</ele>
        <time>2014-08-24T11:54:18Z</time>
      </trkpt>
      <trkpt lat="45.86432" lon="2.96824">
        <ele>751</ele>
        <time>2014-08-24T11:54:20Z</time>
      </trkpt>
      <trkpt lat="45.86422" lon="2.96818">
        <ele>751</ele>
        <time>2014-08-24T11:54:22Z</time>
      </trkpt>
      <trkpt lat="45.86414" lon="2.96814">
        <ele>751</ele>
        <time>2014-08-24T11:54:24Z</time>
      </trkpt>
      <trkpt lat="45.86405" lon="2.96814">
        <ele>751</ele>
        <time>2014-08-24T11:54:26Z</time>
      </trkpt>
      <trkpt lat="45.86397" lon="2.96819">
        <ele>751</ele>
        <time>2014-08-24T11:54:28Z</time>
      </trkpt>
      <trkpt lat="45.86389" lon="2.96821">
        <ele>752</ele>
        <time>2014-08-24T11:54:30Z</time>
      </trkpt>
      <trkpt lat="45.86381" lon="2.96826">
        <ele>752</ele>
        <time>2014-08-24T11:54:33Z</time>
      </trkpt>
      <trkpt lat="45.86368" lon="2.96836">
        <ele>752</ele>
        <time>2014-08-24T11:54:35Z</time>
      </trkpt>
      <trkpt lat="45.86356" lon="2.96844">
        <ele>752</ele>
        <time>2014-08-24T11:54:38Z</time>
      </trkpt>
      <trkpt lat="45.86345" lon="2.96851">
        <ele>753</ele>
        <time>2014-08-24T11:54:41Z</time>
      </trkpt>
      <trkpt lat="45.86332" lon="2.96861">
        <ele>753</ele>
        <time>2014-08-24T11:54:44Z</time>
      </trkpt>
      <trkpt lat="45.8632" lon="2.96873">
        <ele>754</ele>
        <time>2014-08-24T11:54:47Z</time>
      </trkpt>
      <trkpt lat="45.86312" lon="2.9688">
        <ele>755</ele>
        <time>2014-08-24T11:54:49Z</time>
      </trkpt>
      <trkpt lat="45.86305" lon="2.96887">
        <ele>755</ele>
        <time>2014-08-24T11:54:52Z</time>
      </trkpt>
      <trkpt lat="45.86294" lon="2.96895">
        <ele>756</ele>
        <time>2014-08-24T11:54:54Z</time>
      </trkpt>
      <trkpt lat="45.86284" lon="2.96903">
        <ele>756</ele>
        <time>2014-08-24T11:54:57Z</time>
      </trkpt>
      <trkpt lat="45.86275" lon="2.96912">
        <ele>756</ele>
        <time>2014-08-24T11:54:59Z</time>
      </trkpt>
      <trkpt lat="45.86259" lon="2.96924">
        <ele>756</ele>
        <time>2014-08-24T11:55:02Z</time>
      </trkpt>
      <trkpt lat="45.8625" lon="2.96932">
        <ele>756</ele>
        <time>2014-08-24T11:55:04Z</time>
      </trkpt>
      <trkpt lat="45.86236" lon="2.96947">
        <ele>756</ele>
        <time>2014-08-24T11:55:07Z</time>
      </trkpt>
      <trkpt lat="45.86226" lon="2.96957">
        <ele>756</ele>
        <time>2014-08-24T11:55:09Z</time>
      </trkpt>
      <trkpt lat="45.8621" lon="2.96973">
        <ele>756</ele>
        <time>2014-08-24T11:55:12Z</time>
      </trkpt>
      <trkpt lat="45.862" lon="2.96981">
        <ele>756</ele>
        <time>2014-08-24T11:55:14Z</time>
      </trkpt>
      <trkpt lat="45.86184" lon="2.9699">
        <ele>756</ele>
        <time>2014-08-24T11:55:17Z</time>
      </trkpt>
      <trkpt lat="45.86171" lon="2.97001">
        <ele>757</ele>
        <time>2014-08-24T11:55:20Z</time>
      </trkpt>
      <trkpt lat="45.86163" lon="2.9701">
        <ele>757</ele>
        <time>2014-08-24T11:55:22Z</time>
      </trkpt>
      <trkpt lat="45.86152" lon="2.97024">
        <ele>757</ele>
        <time>2014-08-24T11:55:25Z</time>
      </trkpt>
      <trkpt lat="45.86142" lon="2.9704">
        <ele>758</ele>
        <time>2014-08-24T11:55:28Z</time>
      </trkpt>
      <trkpt lat="45.86131" lon="2.97057">
        <ele>759</ele>
        <time>2014-08-24T11:55:31Z</time>
      </trkpt>
      <trkpt lat="45.86121" lon="2.97071">
        <ele>760</ele>
        <time>2014-08-24T11:55:34Z</time>
      </trkpt>
      <trkpt lat="45.86114" lon="2.97081">
        <ele>760</ele>
        <time>2014-08-24T11:55:37Z</time>
      </trkpt>
      <trkpt lat="45.86107" lon="2.97095">
        <ele>761</ele>
        <time>2014-08-24T11:55:40Z</time>
      </trkpt>
      <trkpt lat="45.86099" lon="2.97106">
        <ele>763</ele>
        <time>2014-08-24T11:55:43Z</time>
      </trkpt>
      <trkpt lat="45.86094" lon="2.97113">
        <ele>763</ele>
        <time>2014-08-24T11:55:45Z</time>
      </trkpt>
      <trkpt lat="45.86088" lon="2.97126">
        <ele>763</ele>
        <time>2014-08-24T11:55:48Z</time>
      </trkpt>
      <trkpt lat="45.86084" lon="2.97133">
        <ele>763</ele>
        <time>2014-08-24T11:55:50Z</time>
      </trkpt>
      <trkpt lat="45.86079" lon="2.97144">
        <ele>763</ele>
        <time>2014-08-24T11:55:53Z</time>
      </trkpt>
      <trkpt lat="45.86074" lon="2.9715">
        <ele>763</ele>
        <time>2014-08-24T11:55:55Z</time>
      </trkpt>
      <trkpt lat="45.8607" lon="2.97158">
        <ele>763</ele>
        <time>2014-08-24T11:55:57Z</time>
      </trkpt>
      <trkpt lat="45.86063" lon="2.97172">
        <ele>763</ele>
        <time>2014-08-24T11:56:00Z</time>
      </trkpt>
      <trkpt lat="45.86058" lon="2.97182">
        <ele>764</ele>
        <time>2014-08-24T11:56:02Z</time>
      </trkpt>
      <trkpt lat="45.86049" lon="2.97196">
        <ele>764</ele>
        <time>2014-08-24T11:56:05Z</time>
      </trkpt>
      <trkpt lat="45.86043" lon="2.97204">
        <ele>763</ele>
        <time>2014-08-24T11:56:07Z</time>
      </trkpt>
      <trkpt lat="45.86037" lon="2.97214">
        <ele>763</ele>
        <time>2014-08-24T11:56:09Z</time>
      </trkpt>
      <trkpt lat="45.86031" lon="2.97232">
        <ele>763</ele>
        <time>2014-08-24T11:56:12Z</time>
      </trkpt>
      <trkpt lat="45.86022" lon="2.97249">
        <ele>763</ele>
        <time>2014-08-24T11:56:15Z</time>
      </trkpt>
      <trkpt lat="45.86017" lon="2.97259">
        <ele>764</ele>
        <time>2014-08-24T11:56:17Z</time>
      </trkpt>
      <trkpt lat="45.86013" lon="2.97269">
        <ele>764</ele>
        <time>2014-08-24T11:56:19Z</time>
      </trkpt>
      <trkpt lat="45.8601" lon="2.97281">
        <ele>764</ele>
        <time>2014-08-24T11:56:21Z</time>
      </trkpt>
      <trkpt lat="45.86005" lon="2.97294">
        <ele>764</ele>
        <time>2014-08-24T11:56:23Z</time>
      </trkpt>
      <trkpt lat="45.85999" lon="2.9731">
        <ele>764</ele>
        <time>2014-08-24T11:56:26Z</time>
      </trkpt>
      <trkpt lat="45.8599" lon="2.97324">
        <ele>764</ele>
        <time>2014-08-24T11:56:29Z</time>
      </trkpt>
      <trkpt lat="45.85983" lon="2.97336">
        <ele>764</ele>
        <time>2014-08-24T11:56:32Z</time>
      </trkpt>
      <trkpt lat="45.85976" lon="2.97343">
        <ele>764</ele>
        <time>2014-08-24T11:56:34Z</time>
      </trkpt>
      <trkpt lat="45.85964" lon="2.97352">
        <ele>765</ele>
        <time>2014-08-24T11:56:37Z</time>
      </trkpt>
      <trkpt lat="45.85955" lon="2.97355">
        <ele>766</ele>
        <time>2014-08-24T11:56:40Z</time>
      </trkpt>
      <trkpt lat="45.8595" lon="2.97359">
        <ele>766</ele>
        <time>2014-08-24T11:56:42Z</time>
      </trkpt>
      <trkpt lat="45.85946" lon="2.97364">
        <ele>766</ele>
        <time>2014-08-24T11:56:45Z</time>
      </trkpt>
      <trkpt lat="45.85944" lon="2.97365">
        <ele>766</ele>
        <time>2014-08-24T11:56:47Z</time>
      </trkpt>
      <trkpt lat="45.85944" lon="2.97366">
        <ele>766</ele>
        <time>2014-08-24T11:56:49Z</time>
      </trkpt>
      <trkpt lat="45.85943" lon="2.97369">
        <ele>766</ele>
        <time>2014-08-24T11:56:52Z</time>
      </trkpt>
      <trkpt lat="45.85942" lon="2.9737">
        <ele>766</ele>
        <time>2014-08-24T11:56:54Z</time>
      </trkpt>
      <trkpt lat="45.85942" lon="2.97371">
        <ele>766</ele>
        <time>2014-08-24T11:56:56Z</time>
      </trkpt>
      <trkpt lat="45.85942" lon="2.97373">
        <ele>766</ele>
        <time>2014-08-24T11:56:58Z</time>
      </trkpt>
      <trkpt lat="45.85944" lon="2.97377">
        <ele>766</ele>
        <time>2014-08-24T11:57:01Z</time>
      </trkpt>
      <trkpt lat="45.85945" lon="2.9738">
        <ele>766</ele>
        <time>2014-08-24T11:57:03Z</time>
      </trkpt>
      <trkpt lat="45.85947" lon="2.97388">
        <ele>766</ele>
        <time>2014-08-24T11:57:06Z</time>
      </trkpt>
      <trkpt lat="45.85949" lon="2.97397">
        <ele>765</ele>
        <time>2014-08-24T11:57:09Z</time>
      </trkpt>
      <trkpt lat="45.85953" lon="2.9741">
        <ele>765</ele>
        <time>2014-08-24T11:57:12Z</time>
      </trkpt>
      <trkpt lat="45.8596" lon="2.97422">
        <ele>765</ele>
        <time>2014-08-24T11:57:15Z</time>
      </trkpt>
      <trkpt lat="45.85965" lon="2.97431">
        <ele>764</ele>
        <time>2014-08-24T11:57:17Z</time>
      </trkpt>
      <trkpt lat="45.85971" lon="2.97439">
        <ele>764</ele>
        <time>2014-08-24T11:57:19Z</time>
      </trkpt>
      <trkpt lat="45.85978" lon="2.97447">
        <ele>764</ele>
        <time>2014-08-24T11:57:21Z</time>
      </trkpt>
      <trkpt lat="45.85985" lon="2.97455">
        <ele>763</ele>
        <time>2014-08-24T11:57:23Z</time>
      </trkpt>
      <trkpt lat="45.86" lon="2.97467">
        <ele>763</ele>
        <time>2014-08-24T11:57:26Z</time>
      </trkpt>
      <trkpt lat="45.86015" lon="2.97473">
        <ele>762</ele>
        <time>2014-08-24T11:57:29Z</time>
      </trkpt>
      <trkpt lat="45.86031" lon="2.97481">
        <ele>761</ele>
        <time>2014-08-24T11:57:32Z</time>
      </trkpt>
      <trkpt lat="45.86047" lon="2.97491">
        <ele>760</ele>
        <time>2014-08-24T11:57:35Z</time>
      </trkpt>
      <trkpt lat="45.8606" lon="2.97501">
        <ele>760</ele>
        <time>2014-08-24T11:57:37Z</time>
      </trkpt>
      <trkpt lat="45.86074" lon="2.97513">
        <ele>759</ele>
        <time>2014-08-24T11:57:40Z</time>
      </trkpt>
      <trkpt lat="45.86083" lon="2.97519">
        <ele>759</ele>
        <time>2014-08-24T11:57:42Z</time>
      </trkpt>
      <trkpt lat="45.86094" lon="2.97521">
        <ele>759</ele>
        <time>2014-08-24T11:57:45Z</time>
      </trkpt>
      <trkpt lat="45.86106" lon="2.97523">
        <ele>758</ele>
        <time>2014-08-24T11:57:47Z</time>
      </trkpt>
      <trkpt lat="45.86117" lon="2.97523">
        <ele>759</ele>
        <time>2014-08-24T11:57:49Z</time>
      </trkpt>
      <trkpt lat="45.86132" lon="2.97527">
        <ele>758</ele>
        <time>2014-08-24T11:57:52Z</time>
      </trkpt>
      <trkpt lat="45.86145" lon="2.97535">
        <ele>758</ele>
        <time>2014-08-24T11:57:55Z</time>
      </trkpt>
      <trkpt lat="45.86154" lon="2.97541">
        <ele>757</ele>
        <time>2014-08-24T11:57:57Z</time>
      </trkpt>
      <trkpt lat="45.86163" lon="2.9755">
        <ele>757</ele>
        <time>2014-08-24T11:58:00Z</time>
      </trkpt>
      <trkpt lat="45.86168" lon="2.97555">
        <ele>756</ele>
        <time>2014-08-24T11:58:02Z</time>
      </trkpt>
      <trkpt lat="45.86173" lon="2.9756">
        <ele>756</ele>
        <time>2014-08-24T11:58:04Z</time>
      </trkpt>
      <trkpt lat="45.86181" lon="2.9757">
        <ele>756</ele>
        <time>2014-08-24T11:58:07Z</time>
      </trkpt>
      <trkpt lat="45.86189" lon="2.97577">
        <ele>755</ele>
        <time>2014-08-24T11:58:10Z</time>
      </trkpt>
      <trkpt lat="45.86193" lon="2.97581">
        <ele>755</ele>
        <time>2014-08-24T11:58:12Z</time>
      </trkpt>
      <trkpt lat="45.86197" lon="2.97586">
        <ele>755</ele>
        <time>2014-08-24T11:58:14Z</time>
      </trkpt>
      <trkpt lat="45.86206" lon="2.97604">
        <ele>754</ele>
        <time>2014-08-24T11:58:17Z</time>
      </trkpt>
      <trkpt lat="45.86213" lon="2.97622">
        <ele>753</ele>
        <time>2014-08-24T11:58:20Z</time>
      </trkpt>
      <trkpt lat="45.86218" lon="2.97635">
        <ele>753</ele>
        <time>2014-08-24T11:58:22Z</time>
      </trkpt>
      <trkpt lat="45.86224" lon="2.97648">
        <ele>752</ele>
        <time>2014-08-24T11:58:24Z</time>
      </trkpt>
      <trkpt lat="45.86235" lon="2.97667">
        <ele>752</ele>
        <time>2014-08-24T11:58:27Z</time>
      </trkpt>
      <trkpt lat="45.8624" lon="2.97676">
        <ele>751</ele>
        <time>2014-08-24T11:58:29Z</time>
      </trkpt>
      <trkpt lat="45.86243" lon="2.97684">
        <ele>751</ele>
        <time>2014-08-24T11:58:31Z</time>
      </trkpt>
      <trkpt lat="45.86248" lon="2.9769">
        <ele>750</ele>
        <time>2014-08-24T11:58:34Z</time>
      </trkpt>
      <trkpt lat="45.86251" lon="2.97692">
        <ele>750</ele>
        <time>2014-08-24T11:58:36Z</time>
      </trkpt>
      <trkpt lat="45.86253" lon="2.97696">
        <ele>750</ele>
        <time>2014-08-24T11:58:38Z</time>
      </trkpt>
      <trkpt lat="45.86258" lon="2.97702">
        <ele>750</ele>
        <time>2014-08-24T11:58:41Z</time>
      </trkpt>
      <trkpt lat="45.86261" lon="2.97706">
        <ele>750</ele>
        <time>2014-08-24T11:58:43Z</time>
      </trkpt>
      <trkpt lat="45.86264" lon="2.9771">
        <ele>750</ele>
        <time>2014-08-24T11:58:45Z</time>
      </trkpt>
      <trkpt lat="45.86269" lon="2.97716">
        <ele>749</ele>
        <time>2014-08-24T11:58:48Z</time>
      </trkpt>
      <trkpt lat="45.86274" lon="2.97718">
        <ele>749</ele>
        <time>2014-08-24T11:58:51Z</time>
      </trkpt>
      <trkpt lat="45.86277" lon="2.97719">
        <ele>749</ele>
        <time>2014-08-24T11:58:53Z</time>
      </trkpt>
      <trkpt lat="45.86288" lon="2.97723">
        <ele>748</ele>
        <time>2014-08-24T11:58:56Z</time>
      </trkpt>
      <trkpt lat="45.863" lon="2.97728">
        <ele>748</ele>
        <time>2014-08-24T11:58:59Z</time>
      </trkpt>
      <trkpt lat="45.86308" lon="2.97732">
        <ele>747</ele>
        <time>2014-08-24T11:59:01Z</time>
      </trkpt>
      <trkpt lat="45.86318" lon="2.97736">
        <ele>747</ele>
        <time>2014-08-24T11:59:04Z</time>
      </trkpt>
      <trkpt lat="45.86327" lon="2.97739">
        <ele>747</ele>
        <time>2014-08-24T11:59:06Z</time>
      </trkpt>
      <trkpt lat="45.8634" lon="2.97745">
        <ele>746</ele>
        <time>2014-08-24T11:59:09Z</time>
      </trkpt>
      <trkpt lat="45.86354" lon="2.97756">
        <ele>745</ele>
        <time>2014-08-24T11:59:12Z</time>
      </trkpt>
      <trkpt lat="45.86362" lon="2.97763">
        <ele>744</ele>
        <time>2014-08-24T11:59:14Z</time>
      </trkpt>
      <trkpt lat="45.86372" lon="2.97772">
        <ele>743</ele>
        <time>2014-08-24T11:59:17Z</time>
      </trkpt>
      <trkpt lat="45.86375" lon="2.9778">
        <ele>743</ele>
        <time>2014-08-24T11:59:19Z</time>
      </trkpt>
      <trkpt lat="45.86383" lon="2.97791">
        <ele>741</ele>
        <time>2014-08-24T11:59:22Z</time>
      </trkpt>
      <trkpt lat="45.86393" lon="2.978">
        <ele>740</ele>
        <time>2014-08-24T11:59:25Z</time>
      </trkpt>
      <trkpt lat="45.86401" lon="2.97808">
        <ele>740</ele>
        <time>2014-08-24T11:59:27Z</time>
      </trkpt>
      <trkpt lat="45.86422" lon="2.97824">
        <ele>739</ele>
        <time>2014-08-24T11:59:30Z</time>
      </trkpt>
      <trkpt lat="45.86433" lon="2.97835">
        <ele>739</ele>
        <time>2014-08-24T11:59:32Z</time>
      </trkpt>
      <trkpt lat="45.86443" lon="2.97847">
        <ele>738</ele>
        <time>2014-08-24T11:59:34Z</time>
      </trkpt>
      <trkpt lat="45.8646" lon="2.97867">
        <ele>737</ele>
        <time>2014-08-24T11:59:37Z</time>
      </trkpt>
      <trkpt lat="45.86472" lon="2.97878">
        <ele>736</ele>
        <time>2014-08-24T11:59:39Z</time>
      </trkpt>
      <trkpt lat="45.86485" lon="2.97891">
        <ele>735</ele>
        <time>2014-08-24T11:59:42Z</time>
      </trkpt>
      <trkpt lat="45.86495" lon="2.97897">
        <ele>734</ele>
        <time>2014-08-24T11:59:44Z</time>
      </trkpt>
      <trkpt lat="45.86507" lon="2.97899">
        <ele>733</ele>
        <time>2014-08-24T11:59:46Z</time>
      </trkpt>
      <trkpt lat="45.86519" lon="2.97902">
        <ele>732</ele>
        <time>2014-08-24T11:59:48Z</time>
      </trkpt>
      <trkpt lat="45.86528" lon="2.97907">
        <ele>731</ele>
        <time>2014-08-24T11:59:50Z</time>
      </trkpt>
      <trkpt lat="45.86539" lon="2.97922">
        <ele>731</ele>
        <time>2014-08-24T11:59:53Z</time>
      </trkpt>
      <trkpt lat="45.8655" lon="2.97934">
        <ele>730</ele>
        <time>2014-08-24T11:59:56Z</time>
      </trkpt>
      <trkpt lat="45.86563" lon="2.97938">
        <ele>729</ele>
        <time>2014-08-24T11:59:59Z</time>
      </trkpt>
      <trkpt lat="45.8657" lon="2.97944">
        <ele>728</ele>
        <time>2014-08-24T12:00:01Z</time>
      </trkpt>
      <trkpt lat="45.86577" lon="2.97948">
        <ele>728</ele>
        <time>2014-08-24T12:00:03Z</time>
      </trkpt>
      <trkpt lat="45.86583" lon="2.97952">
        <ele>728</ele>
        <time>2014-08-24T12:00:05Z</time>
      </trkpt>
      <trkpt lat="45.86594" lon="2.97956">
        <ele>728</ele>
        <time>2014-08-24T12:00:08Z</time>
      </trkpt>
      <trkpt lat="45.866" lon="2.97961">
        <ele>728</ele>
        <time>2014-08-24T12:00:10Z</time>
      </trkpt>
      <trkpt lat="45.86609" lon="2.97968">
        <ele>727</ele>
        <time>2014-08-24T12:00:13Z</time>
      </trkpt>
      <trkpt lat="45.86617" lon="2.97973">
        <ele>727</ele>
        <time>2014-08-24T12:00:15Z</time>
      </trkpt>
      <trkpt lat="45.86626" lon="2.97978">
        <ele>726</ele>
        <time>2014-08-24T12:00:17Z</time>
      </trkpt>
      <trkpt lat="45.86637" lon="2.97984">
        <ele>726</ele>
        <time>2014-08-24T12:00:19Z</time>
      </trkpt>
      <trkpt lat="45.86649" lon="2.9799">
        <ele>725</ele>
        <time>2014-08-24T12:00:21Z</time>
      </trkpt>
      <trkpt lat="45.86665" lon="2.98001">
        <ele>725</ele>
        <time>2014-08-24T12:00:24Z</time>
      </trkpt>
      <trkpt lat="45.86673" lon="2.98006">
        <ele>724</ele>
        <time>2014-08-24T12:00:26Z</time>
      </trkpt>
      <trkpt lat="45.86685" lon="2.98012">
        <ele>724</ele>
        <time>2014-08-24T12:00:28Z</time>
      </trkpt>
      <trkpt lat="45.86699" lon="2.98021">
        <ele>723</ele>
        <time>2014-08-24T12:00:30Z</time>
      </trkpt>
      <trkpt lat="45.8671" lon="2.98028">
        <ele>723</ele>
        <time>2014-08-24T12:00:32Z</time>
      </trkpt>
      <trkpt lat="45.86716" lon="2.98033">
        <ele>722</ele>
        <time>2014-08-24T12:00:34Z</time>
      </trkpt>
      <trkpt lat="45.86724" lon="2.98037">
        <ele>722</ele>
        <time>2014-08-24T12:00:36Z</time>
      </trkpt>
      <trkpt lat="45.86738" lon="2.98046">
        <ele>721</ele>
        <time>2014-08-24T12:00:39Z</time>
      </trkpt>
      <trkpt lat="45.86746" lon="2.98055">
        <ele>721</ele>
        <time>2014-08-24T12:00:41Z</time>
      </trkpt>
      <trkpt lat="45.86754" lon="2.98067">
        <ele>721</ele>
        <time>2014-08-24T12:00:43Z</time>
      </trkpt>
      <trkpt lat="45.86763" lon="2.98088">
        <ele>720</ele>
        <time>2014-08-24T12:00:46Z</time>
      </trkpt>
      <trkpt lat="45.86774" lon="2.98112">
        <ele>719</ele>
        <time>2014-08-24T12:00:49Z</time>
      </trkpt>
      <trkpt lat="45.86784" lon="2.98133">
        <ele>718</ele>
        <time>2014-08-24T12:00:52Z</time>
      </trkpt>
      <trkpt lat="45.8679" lon="2.98147">
        <ele>718</ele>
        <time>2014-08-24T12:00:54Z</time>
      </trkpt>
      <trkpt lat="45.86795" lon="2.98164">
        <ele>718</ele>
        <time>2014-08-24T12:00:56Z</time>
      </trkpt>
      <trkpt lat="45.86801" lon="2.98188">
        <ele>717</ele>
        <time>2014-08-24T12:00:59Z</time>
      </trkpt>
      <trkpt lat="45.86803" lon="2.98203">
        <ele>717</ele>
        <time>2014-08-24T12:01:01Z</time>
      </trkpt>
      <trkpt lat="45.86809" lon="2.98228">
        <ele>717</ele>
        <time>2014-08-24T12:01:04Z</time>
      </trkpt>
      <trkpt lat="45.86813" lon="2.98249">
        <ele>717</ele>
        <time>2014-08-24T12:01:07Z</time>
      </trkpt>
      <trkpt lat="45.86817" lon="2.98268">
        <ele>716</ele>
        <time>2014-08-24T12:01:10Z</time>
      </trkpt>
      <trkpt lat="45.86819" lon="2.98278">
        <ele>716</ele>
        <time>2014-08-24T12:01:13Z</time>
      </trkpt>
      <trkpt lat="45.8682" lon="2.98282">
        <ele>716</ele>
        <time>2014-08-24T12:01:15Z</time>
      </trkpt>
      <trkpt lat="45.86822" lon="2.98286">
        <ele>716</ele>
        <time>2014-08-24T12:01:17Z</time>
      </trkpt>
      <trkpt lat="45.86826" lon="2.98292">
        <ele>716</ele>
        <time>2014-08-24T12:01:20Z</time>
      </trkpt>
      <trkpt lat="45.86829" lon="2.98297">
        <ele>716</ele>
        <time>2014-08-24T12:01:22Z</time>
      </trkpt>
      <trkpt lat="45.86832" lon="2.98303">
        <ele>716</ele>
        <time>2014-08-24T12:01:25Z</time>
      </trkpt>
      <trkpt lat="45.86837" lon="2.98311">
        <ele>716</ele>
        <time>2014-08-24T12:01:28Z</time>
      </trkpt>
      <trkpt lat="45.86843" lon="2.9832">
        <ele>716</ele>
        <time>2014-08-24T12:01:31Z</time>
      </trkpt>
      <trkpt lat="45.86848" lon="2.98327">
        <ele>716</ele>
        <time>2014-08-24T12:01:33Z</time>
      </trkpt>
      <trkpt lat="45.86855" lon="2.98336">
        <ele>716</ele>
        <time>2014-08-24T12:01:36Z</time>
      </trkpt>
      <trkpt lat="45.86863" lon="2.98341">
        <ele>717</ele>
        <time>2014-08-24T12:01:39Z</time>
      </trkpt>
      <trkpt lat="45.86871" lon="2.98345">
        <ele>717</ele>
        <time>2014-08-24T12:01:42Z</time>
      </trkpt>
      <trkpt lat="45.86879" lon="2.98348">
        <ele>718</ele>
        <time>2014-08-24T12:01:45Z</time>
      </trkpt>
      <trkpt lat="45.86887" lon="2.98349">
        <ele>718</ele>
        <time>2014-08-24T12:01:47Z</time>
      </trkpt>
      <trkpt lat="45.86893" lon="2.98349">
        <ele>718</ele>
        <time>2014-08-24T12:01:49Z</time>
      </trkpt>
      <trkpt lat="45.869" lon="2.98348">
        <ele>718</ele>
        <time>2014-08-24T12:01:51Z</time>
      </trkpt>
      <trkpt lat="45.86909" lon="2.98348">
        <ele>718</ele>
        <time>2014-08-24T12:01:53Z</time>
      </trkpt>
      <trkpt lat="45.86923" lon="2.9835">
        <ele>718</ele>
        <time>2014-08-24T12:01:56Z</time>
      </trkpt>
      <trkpt lat="45.86931" lon="2.98351">
        <ele>718</ele>
        <time>2014-08-24T12:01:58Z</time>
      </trkpt>
      <trkpt lat="45.86943" lon="2.98352">
        <ele>718</ele>
        <time>2014-08-24T12:02:01Z</time>
      </trkpt>
      <trkpt lat="45.8695" lon="2.98355">
        <ele>717</ele>
        <time>2014-08-24T12:02:03Z</time>
      </trkpt>
      <trkpt lat="45.86957" lon="2.98358">
        <ele>717</ele>
        <time>2014-08-24T12:02:05Z</time>
      </trkpt>
      <trkpt lat="45.86964" lon="2.98361">
        <ele>716</ele>
        <time>2014-08-24T12:02:07Z</time>
      </trkpt>
      <trkpt lat="45.86976" lon="2.98367">
        <ele>716</ele>
        <time>2014-08-24T12:02:10Z</time>
      </trkpt>
      <trkpt lat="45.86984" lon="2.98374">
        <ele>716</ele>
        <time>2014-08-24T12:02:12Z</time>
      </trkpt>
      <trkpt lat="45.86993" lon="2.98383">
        <ele>716</ele>
        <time>2014-08-24T12:02:15Z</time>
      </trkpt>
      <trkpt lat="45.87" lon="2.9839">
        <ele>715</ele>
        <time>2014-08-24T12:02:17Z</time>
      </trkpt>
      <trkpt lat="45.87011" lon="2.98399">
        <ele>714</ele>
        <time>2014-08-24T12:02:20Z</time>
      </trkpt>
      <trkpt lat="45.87019" lon="2.98405">
        <ele>714</ele>
        <time>2014-08-24T12:02:22Z</time>
      </trkpt>
      <trkpt lat="45.87033" lon="2.98414">
        <ele>713</ele>
        <time>2014-08-24T12:02:25Z</time>
      </trkpt>
      <trkpt lat="45.87046" lon="2.9842">
        <ele>712</ele>
        <time>2014-08-24T12:02:28Z</time>
      </trkpt>
      <trkpt lat="45.87064" lon="2.98427">
        <ele>711</ele>
        <time>2014-08-24T12:02:31Z</time>
      </trkpt>
      <trkpt lat="45.87076" lon="2.98433">
        <ele>710</ele>
        <time>2014-08-24T12:02:33Z</time>
      </trkpt>
      <trkpt lat="45.87095" lon="2.98444">
        <ele>709</ele>
        <time>2014-08-24T12:02:36Z</time>
      </trkpt>
      <trkpt lat="45.87107" lon="2.9845">
        <ele>708</ele>
        <time>2014-08-24T12:02:38Z</time>
      </trkpt>
      <trkpt lat="45.87125" lon="2.98459">
        <ele>706</ele>
        <time>2014-08-24T12:02:41Z</time>
      </trkpt>
      <trkpt lat="45.8714" lon="2.98464">
        <ele>705</ele>
        <time>2014-08-24T12:02:43Z</time>
      </trkpt>
      <trkpt lat="45.87155" lon="2.98468">
        <ele>705</ele>
        <time>2014-08-24T12:02:45Z</time>
      </trkpt>
      <trkpt lat="45.87167" lon="2.9847">
        <ele>704</ele>
        <time>2014-08-24T12:02:47Z</time>
      </trkpt>
      <trkpt lat="45.8718" lon="2.98472">
        <ele>703</ele>
        <time>2014-08-24T12:02:49Z</time>
      </trkpt>
      <trkpt lat="45.87188" lon="2.98475">
        <ele>703</ele>
        <time>2014-08-24T12:02:51Z</time>
      </trkpt>
      <trkpt lat="45.87198" lon="2.98487">
        <ele>702</ele>
        <time>2014-08-24T12:02:54Z</time>
      </trkpt>
      <trkpt lat="45.87209" lon="2.98499">
        <ele>702</ele>
        <time>2014-08-24T12:02:57Z</time>
      </trkpt>
      <trkpt lat="45.87218" lon="2.98507">
        <ele>701</ele>
        <time>2014-08-24T12:02:59Z</time>
      </trkpt>
      <trkpt lat="45.8723" lon="2.98521">
        <ele>701</ele>
        <time>2014-08-24T12:03:02Z</time>
      </trkpt>
      <trkpt lat="45.87239" lon="2.9854">
        <ele>701</ele>
        <time>2014-08-24T12:03:05Z</time>
      </trkpt>
      <trkpt lat="45.87241" lon="2.98552">
        <ele>700</ele>
        <time>2014-08-24T12:03:07Z</time>
      </trkpt>
      <trkpt lat="45.87239" lon="2.98569">
        <ele>700</ele>
        <time>2014-08-24T12:03:10Z</time>
      </trkpt>
      <trkpt lat="45.87239" lon="2.98579">
        <ele>700</ele>
        <time>2014-08-24T12:03:12Z</time>
      </trkpt>
      <trkpt lat="45.87239" lon="2.98589">
        <ele>699</ele>
        <time>2014-08-24T12:03:14Z</time>
      </trkpt>
      <trkpt lat="45.87239" lon="2.986">
        <ele>700</ele>
        <time>2014-08-24T12:03:16Z</time>
      </trkpt>
      <trkpt lat="45.87239" lon="2.98608">
        <ele>699</ele>
        <time>2014-08-24T12:03:18Z</time>
      </trkpt>
      <trkpt lat="45.87239" lon="2.98615">
        <ele>699</ele>
        <time>2014-08-24T12:03:20Z</time>
      </trkpt>
      <trkpt lat="45.87241" lon="2.9863">
        <ele>698</ele>
        <time>2014-08-24T12:03:23Z</time>
      </trkpt>
      <trkpt lat="45.87241" lon="2.98643">
        <ele>698</ele>
        <time>2014-08-24T12:03:25Z</time>
      </trkpt>
      <trkpt lat="45.87243" lon="2.98658">
        <ele>698</ele>
        <time>2014-08-24T12:03:27Z</time>
      </trkpt>
      <trkpt lat="45.87244" lon="2.98682">
        <ele>697</ele>
        <time>2014-08-24T12:03:30Z</time>
      </trkpt>
      <trkpt lat="45.87245" lon="2.98698">
        <ele>697</ele>
        <time>2014-08-24T12:03:32Z</time>
      </trkpt>
      <trkpt lat="45.87245" lon="2.98714">
        <ele>696</ele>
        <time>2014-08-24T12:03:34Z</time>
      </trkpt>
      <trkpt lat="45.87246" lon="2.98732">
        <ele>696</ele>
        <time>2014-08-24T12:03:36Z</time>
      </trkpt>
      <trkpt lat="45.87246" lon="2.98748">
        <ele>696</ele>
        <time>2014-08-24T12:03:38Z</time>
      </trkpt>
      <trkpt lat="45.87247" lon="2.98776">
        <ele>696</ele>
        <time>2014-08-24T12:03:41Z</time>
      </trkpt>
      <trkpt lat="45.87246" lon="2.98802">
        <ele>696</ele>
        <time>2014-08-24T12:03:44Z</time>
      </trkpt>
      <trkpt lat="45.87243" lon="2.98816">
        <ele>696</ele>
        <time>2014-08-24T12:03:46Z</time>
      </trkpt>
      <trkpt lat="45.87239" lon="2.98839">
        <ele>696</ele>
        <time>2014-08-24T12:03:49Z</time>
      </trkpt>
      <trkpt lat="45.87237" lon="2.98864">
        <ele>696</ele>
        <time>2014-08-24T12:03:52Z</time>
      </trkpt>
      <trkpt lat="45.87235" lon="2.98877">
        <ele>696</ele>
        <time>2014-08-24T12:03:54Z</time>
      </trkpt>
      <trkpt lat="45.87233" lon="2.98891">
        <ele>696</ele>
        <time>2014-08-24T12:03:56Z</time>
      </trkpt>
      <trkpt lat="45.87237" lon="2.98918">
        <ele>695</ele>
        <time>2014-08-24T12:03:59Z</time>
      </trkpt>
      <trkpt lat="45.87244" lon="2.98947">
        <ele>694</ele>
        <time>2014-08-24T12:04:02Z</time>
      </trkpt>
      <trkpt lat="45.87247" lon="2.98977">
        <ele>694</ele>
        <time>2014-08-24T12:04:05Z</time>
      </trkpt>
      <trkpt lat="45.87248" lon="2.98995">
        <ele>693</ele>
        <time>2014-08-24T12:04:07Z</time>
      </trkpt>
      <trkpt lat="45.87254" lon="2.99021">
        <ele>693</ele>
        <time>2014-08-24T12:04:10Z</time>
      </trkpt>
      <trkpt lat="45.87256" lon="2.99038">
        <ele>693</ele>
        <time>2014-08-24T12:04:12Z</time>
      </trkpt>
      <trkpt lat="45.87254" lon="2.99057">
        <ele>692</ele>
        <time>2014-08-24T12:04:14Z</time>
      </trkpt>
      <trkpt lat="45.87254" lon="2.99074">
        <ele>691</ele>
        <time>2014-08-24T12:04:17Z</time>
      </trkpt>
      <trkpt lat="45.87256" lon="2.99077">
        <ele>691</ele>
        <time>2014-08-24T12:04:19Z</time>
      </trkpt>
      <trkpt lat="45.87259" lon="2.99076">
        <ele>691</ele>
        <time>2014-08-24T12:04:21Z</time>
      </trkpt>
      <trkpt lat="45.87261" lon="2.99071">
        <ele>690</ele>
        <time>2014-08-24T12:04:23Z</time>
      </trkpt>
      <trkpt lat="45.87264" lon="2.99062">
        <ele>691</ele>
        <time>2014-08-24T12:04:25Z</time>
      </trkpt>
      <trkpt lat="45.87266" lon="2.99052">
        <ele>691</ele>
        <time>2014-08-24T12:04:27Z</time>
      </trkpt>
      <trkpt lat="45.87265" lon="2.99037">
        <ele>691</ele>
        <time>2014-08-24T12:04:30Z</time>
      </trkpt>
      <trkpt lat="45.8726" lon="2.99028">
        <ele>692</ele>
        <time>2014-08-24T12:04:32Z</time>
      </trkpt>
      <trkpt lat="45.87254" lon="2.99021">
        <ele>692</ele>
        <time>2014-08-24T12:04:34Z</time>
      </trkpt>
      <trkpt lat="45.87241" lon="2.99009">
        <ele>693</ele>
        <time>2014-08-24T12:04:37Z</time>
      </trkpt>
      <trkpt lat="45.87233" lon="2.99005">
        <ele>693</ele>
        <time>2014-08-24T12:04:39Z</time>
      </trkpt>
      <trkpt lat="45.87225" lon="2.99006">
        <ele>694</ele>
        <time>2014-08-24T12:04:41Z</time>
      </trkpt>
      <trkpt lat="45.87215" lon="2.99018">
        <ele>695</ele>
        <time>2014-08-24T12:04:44Z</time>
      </trkpt>
      <trkpt lat="45.87206" lon="2.99026">
        <ele>696</ele>
        <time>2014-08-24T12:04:46Z</time>
      </trkpt>
      <trkpt lat="45.87197" lon="2.99035">
        <ele>696</ele>
        <time>2014-08-24T12:04:48Z</time>
      </trkpt>
      <trkpt lat="45.87185" lon="2.99047">
        <ele>697</ele>
        <time>2014-08-24T12:04:51Z</time>
      </trkpt>
      <trkpt lat="45.87178" lon="2.99053">
        <ele>698</ele>
        <time>2014-08-24T12:04:53Z</time>
      </trkpt>
      <trkpt lat="45.87172" lon="2.99061">
        <ele>699</ele>
        <time>2014-08-24T12:04:55Z</time>
      </trkpt>
      <trkpt lat="45.87161" lon="2.99075">
        <ele>700</ele>
        <time>2014-08-24T12:04:58Z</time>
      </trkpt>
      <trkpt lat="45.87153" lon="2.99086">
        <ele>700</ele>
        <time>2014-08-24T12:05:00Z</time>
      </trkpt>
      <trkpt lat="45.87146" lon="2.99098">
        <ele>700</ele>
        <time>2014-08-24T12:05:02Z</time>
      </trkpt>
      <trkpt lat="45.87138" lon="2.99107">
        <ele>700</ele>
        <time>2014-08-24T12:05:04Z</time>
      </trkpt>
      <trkpt lat="45.87127" lon="2.99124">
        <ele>700</ele>
        <time>2014-08-24T12:05:07Z</time>
      </trkpt>
      <trkpt lat="45.8712" lon="2.99136">
        <ele>700</ele>
        <time>2014-08-24T12:05:09Z</time>
      </trkpt>
      <trkpt lat="45.87114" lon="2.99152">
        <ele>700</ele>
        <time>2014-08-24T12:05:12Z</time>
      </trkpt>
      <trkpt lat="45.87112" lon="2.99164">
        <ele>700</ele>
        <time>2014-08-24T12:05:15Z</time>
      </trkpt>
      <trkpt lat="45.87112" lon="2.99171">
        <ele>700</ele>
        <time>2014-08-24T12:05:17Z</time>
      </trkpt>
      <trkpt lat="45.87112" lon="2.9918">
        <ele>700</ele>
        <time>2014-08-24T12:05:20Z</time>
      </trkpt>
      <trkpt lat="45.87114" lon="2.9919">
        <ele>700</ele>
        <time>2014-08-24T12:05:22Z</time>
      </trkpt>
      <trkpt lat="45.87119" lon="2.99203">
        <ele>699</ele>
        <time>2014-08-24T12:05:24Z</time>
      </trkpt>
      <trkpt lat="45.87125" lon="2.99221">
        <ele>699</ele>
        <time>2014-08-24T12:05:27Z</time>
      </trkpt>
      <trkpt lat="45.87133" lon="2.99232">
        <ele>698</ele>
        <time>2014-08-24T12:05:30Z</time>
      </trkpt>
      <trkpt lat="45.87137" lon="2.99238">
        <ele>697</ele>
        <time>2014-08-24T12:05:32Z</time>
      </trkpt>
      <trkpt lat="45.87143" lon="2.99247">
        <ele>696</ele>
        <time>2014-08-24T12:05:35Z</time>
      </trkpt>
      <trkpt lat="45.87147" lon="2.99258">
        <ele>696</ele>
        <time>2014-08-24T12:05:37Z</time>
      </trkpt>
      <trkpt lat="45.8715" lon="2.99273">
        <ele>695</ele>
        <time>2014-08-24T12:05:39Z</time>
      </trkpt>
      <trkpt lat="45.87155" lon="2.99297">
        <ele>695</ele>
        <time>2014-08-24T12:05:42Z</time>
      </trkpt>
      <trkpt lat="45.87159" lon="2.99314">
        <ele>694</ele>
        <time>2014-08-24T12:05:44Z</time>
      </trkpt>
      <trkpt lat="45.87159" lon="2.99332">
        <ele>693</ele>
        <time>2014-08-24T12:05:46Z</time>
      </trkpt>
      <trkpt lat="45.87152" lon="2.99349">
        <ele>692</ele>
        <time>2014-08-24T12:05:48Z</time>
      </trkpt>
      <trkpt lat="45.87135" lon="2.99373">
        <ele>690</ele>
        <time>2014-08-24T12:05:51Z</time>
      </trkpt>
      <trkpt lat="45.87123" lon="2.99389">
        <ele>689</ele>
        <time>2014-08-24T12:05:53Z</time>
      </trkpt>
      <trkpt lat="45.87103" lon="2.99402">
        <ele>686</ele>
        <time>2014-08-24T12:05:56Z</time>
      </trkpt>
      <trkpt lat="45.87088" lon="2.9941">
        <ele>683</ele>
        <time>2014-08-24T12:05:59Z</time>
      </trkpt>
      <trkpt lat="45.87083" lon="2.99418">
        <ele>682</ele>
        <time>2014-08-24T12:06:01Z</time>
      </trkpt>
      <trkpt lat="45.87087" lon="2.99437">
        <ele>680</ele>
        <time>2014-08-24T12:06:04Z</time>
      </trkpt>
      <trkpt lat="45.87088" lon="2.99463">
        <ele>680</ele>
        <time>2014-08-24T12:06:07Z</time>
      </trkpt>
      <trkpt lat="45.87085" lon="2.99494">
        <ele>678</ele>
        <time>2014-08-24T12:06:10Z</time>
      </trkpt>
      <trkpt lat="45.87085" lon="2.99514">
        <ele>677</ele>
        <time>2014-08-24T12:06:12Z</time>
      </trkpt>
      <trkpt lat="45.87085" lon="2.99528">
        <ele>676</ele>
        <time>2014-08-24T12:06:14Z</time>
      </trkpt>
      <trkpt lat="45.87082" lon="2.99549">
        <ele>673</ele>
        <time>2014-08-24T12:06:17Z</time>
      </trkpt>
      <trkpt lat="45.8708" lon="2.99568">
        <ele>672</ele>
        <time>2014-08-24T12:06:19Z</time>
      </trkpt>
      <trkpt lat="45.87079" lon="2.99599">
        <ele>670</ele>
        <time>2014-08-24T12:06:22Z</time>
      </trkpt>
      <trkpt lat="45.87083" lon="2.99628">
        <ele>668</ele>
        <time>2014-08-24T12:06:25Z</time>
      </trkpt>
      <trkpt lat="45.8708" lon="2.99651">
        <ele>667</ele>
        <time>2014-08-24T12:06:27Z</time>
      </trkpt>
      <trkpt lat="45.87078" lon="2.99675">
        <ele>665</ele>
        <time>2014-08-24T12:06:29Z</time>
      </trkpt>
      <trkpt lat="45.87079" lon="2.99715">
        <ele>663</ele>
        <time>2014-08-24T12:06:32Z</time>
      </trkpt>
      <trkpt lat="45.87077" lon="2.9974">
        <ele>661</ele>
        <time>2014-08-24T12:06:34Z</time>
      </trkpt>
      <trkpt lat="45.87072" lon="2.99776">
        <ele>658</ele>
        <time>2014-08-24T12:06:37Z</time>
      </trkpt>
      <trkpt lat="45.87072" lon="2.99796">
        <ele>657</ele>
        <time>2014-08-24T12:06:39Z</time>
      </trkpt>
      <trkpt lat="45.87071" lon="2.99828">
        <ele>656</ele>
        <time>2014-08-24T12:06:42Z</time>
      </trkpt>
      <trkpt lat="45.8707" lon="2.99851">
        <ele>655</ele>
        <time>2014-08-24T12:06:44Z</time>
      </trkpt>
      <trkpt lat="45.87069" lon="2.99874">
        <ele>654</ele>
        <time>2014-08-24T12:06:46Z</time>
      </trkpt>
      <trkpt lat="45.87072" lon="2.99899">
        <ele>652</ele>
        <time>2014-08-24T12:06:48Z</time>
      </trkpt>
      <trkpt lat="45.87074" lon="2.99924">
        <ele>652</ele>
        <time>2014-08-24T12:06:50Z</time>
      </trkpt>
      <trkpt lat="45.87072" lon="2.99963">
        <ele>650</ele>
        <time>2014-08-24T12:06:53Z</time>
      </trkpt>
      <trkpt lat="45.87072" lon="2.99988">
        <ele>648</ele>
        <time>2014-08-24T12:06:55Z</time>
      </trkpt>
      <trkpt lat="45.87074" lon="3.00024">
        <ele>644</ele>
        <time>2014-08-24T12:06:58Z</time>
      </trkpt>
      <trkpt lat="45.87076" lon="3.00048">
        <ele>642</ele>
        <time>2014-08-24T12:07:00Z</time>
      </trkpt>
      <trkpt lat="45.87072" lon="3.00082">
        <ele>641</ele>
        <time>2014-08-24T12:07:03Z</time>
      </trkpt>
      <trkpt lat="45.8707" lon="3.00103">
        <ele>640</ele>
        <time>2014-08-24T12:07:05Z</time>
      </trkpt>
      <trkpt lat="45.87071" lon="3.00126">
        <ele>639</ele>
        <time>2014-08-24T12:07:07Z</time>
      </trkpt>
      <trkpt lat="45.8707" lon="3.00149">
        <ele>638</ele>
        <time>2014-08-24T12:07:09Z</time>
      </trkpt>
      <trkpt lat="45.87067" lon="3.00182">
        <ele>636</ele>
        <time>2014-08-24T12:07:12Z</time>
      </trkpt>
      <trkpt lat="45.87063" lon="3.00202">
        <ele>636</ele>
        <time>2014-08-24T12:07:14Z</time>
      </trkpt>
      <trkpt lat="45.87062" lon="3.00236">
        <ele>634</ele>
        <time>2014-08-24T12:07:17Z</time>
      </trkpt>
      <trkpt lat="45.87061" lon="3.00258">
        <ele>633</ele>
        <time>2014-08-24T12:07:19Z</time>
      </trkpt>
      <trkpt lat="45.87059" lon="3.0028">
        <ele>632</ele>
        <time>2014-08-24T12:07:21Z</time>
      </trkpt>
      <trkpt lat="45.87056" lon="3.00299">
        <ele>631</ele>
        <time>2014-08-24T12:07:23Z</time>
      </trkpt>
      <trkpt lat="45.87055" lon="3.00317">
        <ele>630</ele>
        <time>2014-08-24T12:07:25Z</time>
      </trkpt>
      <trkpt lat="45.87054" lon="3.00349">
        <ele>629</ele>
        <time>2014-08-24T12:07:28Z</time>
      </trkpt>
      <trkpt lat="45.87052" lon="3.00368">
        <ele>628</ele>
        <time>2014-08-24T12:07:30Z</time>
      </trkpt>
      <trkpt lat="45.87052" lon="3.0039">
        <ele>627</ele>
        <time>2014-08-24T12:07:32Z</time>
      </trkpt>
      <trkpt lat="45.87053" lon="3.00422">
        <ele>626</ele>
        <time>2014-08-24T12:07:35Z</time>
      </trkpt>
      <trkpt lat="45.87053" lon="3.00443">
        <ele>625</ele>
        <time>2014-08-24T12:07:37Z</time>
      </trkpt>
      <trkpt lat="45.87054" lon="3.00465">
        <ele>625</ele>
        <time>2014-08-24T12:07:39Z</time>
      </trkpt>
      <trkpt lat="45.87057" lon="3.00487">
        <ele>624</ele>
        <time>2014-08-24T12:07:41Z</time>
      </trkpt>
      <trkpt lat="45.87059" lon="3.00518">
        <ele>623</ele>
        <time>2014-08-24T12:07:44Z</time>
      </trkpt>
      <trkpt lat="45.87057" lon="3.00531">
        <ele>621</ele>
        <time>2014-08-24T12:07:46Z</time>
      </trkpt>
      <trkpt lat="45.87056" lon="3.00547">
        <ele>620</ele>
        <time>2014-08-24T12:07:49Z</time>
      </trkpt>
      <trkpt lat="45.87053" lon="3.00558">
        <ele>619</ele>
        <time>2014-08-24T12:07:51Z</time>
      </trkpt>
      <trkpt lat="45.87046" lon="3.00566">
        <ele>618</ele>
        <time>2014-08-24T12:07:53Z</time>
      </trkpt>
      <trkpt lat="45.87036" lon="3.00584">
        <ele>617</ele>
        <time>2014-08-24T12:07:56Z</time>
      </trkpt>
      <trkpt lat="45.87031" lon="3.00597">
        <ele>616</ele>
        <time>2014-08-24T12:07:58Z</time>
      </trkpt>
      <trkpt lat="45.87029" lon="3.00614">
        <ele>615</ele>
        <time>2014-08-24T12:08:01Z</time>
      </trkpt>
      <trkpt lat="45.87027" lon="3.00624">
        <ele>614</ele>
        <time>2014-08-24T12:08:03Z</time>
      </trkpt>
      <trkpt lat="45.87027" lon="3.00636">
        <ele>613</ele>
        <time>2014-08-24T12:08:05Z</time>
      </trkpt>
      <trkpt lat="45.87027" lon="3.00649">
        <ele>612</ele>
        <time>2014-08-24T12:08:07Z</time>
      </trkpt>
      <trkpt lat="45.87028" lon="3.00663">
        <ele>611</ele>
        <time>2014-08-24T12:08:09Z</time>
      </trkpt>
      <trkpt lat="45.8703" lon="3.00681">
        <ele>610</ele>
        <time>2014-08-24T12:08:12Z</time>
      </trkpt>
      <trkpt lat="45.8703" lon="3.00699">
        <ele>609</ele>
        <time>2014-08-24T12:08:15Z</time>
      </trkpt>
      <trkpt lat="45.87032" lon="3.00713">
        <ele>608</ele>
        <time>2014-08-24T12:08:17Z</time>
      </trkpt>
      <trkpt lat="45.87035" lon="3.00727">
        <ele>607</ele>
        <time>2014-08-24T12:08:19Z</time>
      </trkpt>
      <trkpt lat="45.87037" lon="3.00735">
        <ele>606</ele>
        <time>2014-08-24T12:08:21Z</time>
      </trkpt>
      <trkpt lat="45.87044" lon="3.00742">
        <ele>605</ele>
        <time>2014-08-24T12:08:23Z</time>
      </trkpt>
      <trkpt lat="45.87055" lon="3.00746">
        <ele>605</ele>
        <time>2014-08-24T12:08:25Z</time>
      </trkpt>
      <trkpt lat="45.87067" lon="3.0075">
        <ele>603</ele>
        <time>2014-08-24T12:08:28Z</time>
      </trkpt>
      <trkpt lat="45.87073" lon="3.00753">
        <ele>603</ele>
        <time>2014-08-24T12:08:30Z</time>
      </trkpt>
      <trkpt lat="45.8708" lon="3.00756">
        <ele>602</ele>
        <time>2014-08-24T12:08:32Z</time>
      </trkpt>
      <trkpt lat="45.87092" lon="3.00759">
        <ele>602</ele>
        <time>2014-08-24T12:08:35Z</time>
      </trkpt>
      <trkpt lat="45.871" lon="3.00763">
        <ele>602</ele>
        <time>2014-08-24T12:08:37Z</time>
      </trkpt>
      <trkpt lat="45.87109" lon="3.00787">
        <ele>600</ele>
        <time>2014-08-24T12:08:40Z</time>
      </trkpt>
      <trkpt lat="45.87114" lon="3.00817">
        <ele>599</ele>
        <time>2014-08-24T12:08:43Z</time>
      </trkpt>
      <trkpt lat="45.87117" lon="3.00837">
        <ele>598</ele>
        <time>2014-08-24T12:08:45Z</time>
      </trkpt>
      <trkpt lat="45.87122" lon="3.00858">
        <ele>597</ele>
        <time>2014-08-24T12:08:47Z</time>
      </trkpt>
      <trkpt lat="45.87129" lon="3.00891">
        <ele>596</ele>
        <time>2014-08-24T12:08:50Z</time>
      </trkpt>
      <trkpt lat="45.87133" lon="3.00914">
        <ele>595</ele>
        <time>2014-08-24T12:08:52Z</time>
      </trkpt>
      <trkpt lat="45.87139" lon="3.00949">
        <ele>593</ele>
        <time>2014-08-24T12:08:55Z</time>
      </trkpt>
      <trkpt lat="45.87141" lon="3.0097">
        <ele>592</ele>
        <time>2014-08-24T12:08:57Z</time>
      </trkpt>
      <trkpt lat="45.87142" lon="3.00989">
        <ele>591</ele>
        <time>2014-08-24T12:08:59Z</time>
      </trkpt>
      <trkpt lat="45.87146" lon="3.01017">
        <ele>590</ele>
        <time>2014-08-24T12:09:02Z</time>
      </trkpt>
      <trkpt lat="45.87148" lon="3.01047">
        <ele>589</ele>
        <time>2014-08-24T12:09:05Z</time>
      </trkpt>
      <trkpt lat="45.87151" lon="3.01067">
        <ele>588</ele>
        <time>2014-08-24T12:09:07Z</time>
      </trkpt>
      <trkpt lat="45.87158" lon="3.01093">
        <ele>586</ele>
        <time>2014-08-24T12:09:10Z</time>
      </trkpt>
      <trkpt lat="45.8716" lon="3.01109">
        <ele>585</ele>
        <time>2014-08-24T12:09:12Z</time>
      </trkpt>
      <trkpt lat="45.87163" lon="3.01125">
        <ele>584</ele>
        <time>2014-08-24T12:09:14Z</time>
      </trkpt>
      <trkpt lat="45.87175" lon="3.0115">
        <ele>583</ele>
        <time>2014-08-24T12:09:17Z</time>
      </trkpt>
      <trkpt lat="45.87183" lon="3.01165">
        <ele>581</ele>
        <time>2014-08-24T12:09:19Z</time>
      </trkpt>
      <trkpt lat="45.87193" lon="3.01191">
        <ele>580</ele>
        <time>2014-08-24T12:09:22Z</time>
      </trkpt>
      <trkpt lat="45.87199" lon="3.01213">
        <ele>579</ele>
        <time>2014-08-24T12:09:24Z</time>
      </trkpt>
      <trkpt lat="45.87203" lon="3.01241">
        <ele>577</ele>
        <time>2014-08-24T12:09:27Z</time>
      </trkpt>
      <trkpt lat="45.872" lon="3.01255">
        <ele>576</ele>
        <time>2014-08-24T12:09:29Z</time>
      </trkpt>
      <trkpt lat="45.87196" lon="3.01277">
        <ele>573</ele>
        <time>2014-08-24T12:09:32Z</time>
      </trkpt>
      <trkpt lat="45.87193" lon="3.01293">
        <ele>573</ele>
        <time>2014-08-24T12:09:34Z</time>
      </trkpt>
      <trkpt lat="45.87189" lon="3.01316">
        <ele>572</ele>
        <time>2014-08-24T12:09:37Z</time>
      </trkpt>
      <trkpt lat="45.87187" lon="3.01329">
        <ele>572</ele>
        <time>2014-08-24T12:09:39Z</time>
      </trkpt>
      <trkpt lat="45.87185" lon="3.01342">
        <ele>572</ele>
        <time>2014-08-24T12:09:41Z</time>
      </trkpt>
      <trkpt lat="45.87191" lon="3.01361">
        <ele>571</ele>
        <time>2014-08-24T12:09:44Z</time>
      </trkpt>
      <trkpt lat="45.87196" lon="3.01376">
        <ele>570</ele>
        <time>2014-08-24T12:09:46Z</time>
      </trkpt>
      <trkpt lat="45.87204" lon="3.01397">
        <ele>570</ele>
        <time>2014-08-24T12:09:49Z</time>
      </trkpt>
      <trkpt lat="45.87208" lon="3.01417">
        <ele>570</ele>
        <time>2014-08-24T12:09:52Z</time>
      </trkpt>
      <trkpt lat="45.8721" lon="3.0143">
        <ele>569</ele>
        <time>2014-08-24T12:09:54Z</time>
      </trkpt>
      <trkpt lat="45.87212" lon="3.0145">
        <ele>569</ele>
        <time>2014-08-24T12:09:57Z</time>
      </trkpt>
      <trkpt lat="45.87214" lon="3.01465">
        <ele>568</ele>
        <time>2014-08-24T12:09:59Z</time>
      </trkpt>
      <trkpt lat="45.87214" lon="3.01481">
        <ele>568</ele>
        <time>2014-08-24T12:10:01Z</time>
      </trkpt>
      <trkpt lat="45.87212" lon="3.01497">
        <ele>567</ele>
        <time>2014-08-24T12:10:03Z</time>
      </trkpt>
      <trkpt lat="45.87209" lon="3.01509">
        <ele>566</ele>
        <time>2014-08-24T12:10:05Z</time>
      </trkpt>
      <trkpt lat="45.87202" lon="3.01529">
        <ele>567</ele>
        <time>2014-08-24T12:10:08Z</time>
      </trkpt>
      <trkpt lat="45.87199" lon="3.01543">
        <ele>566</ele>
        <time>2014-08-24T12:10:10Z</time>
      </trkpt>
      <trkpt lat="45.87195" lon="3.01564">
        <ele>566</ele>
        <time>2014-08-24T12:10:13Z</time>
      </trkpt>
      <trkpt lat="45.87189" lon="3.01578">
        <ele>565</ele>
        <time>2014-08-24T12:10:15Z</time>
      </trkpt>
      <trkpt lat="45.87183" lon="3.0159">
        <ele>564</ele>
        <time>2014-08-24T12:10:17Z</time>
      </trkpt>
      <trkpt lat="45.87175" lon="3.01601">
        <ele>563</ele>
        <time>2014-08-24T12:10:19Z</time>
      </trkpt>
      <trkpt lat="45.8716" lon="3.01616">
        <ele>562</ele>
        <time>2014-08-24T12:10:22Z</time>
      </trkpt>
      <trkpt lat="45.87151" lon="3.0163">
        <ele>561</ele>
        <time>2014-08-24T12:10:24Z</time>
      </trkpt>
      <trkpt lat="45.87144" lon="3.0165">
        <ele>561</ele>
        <time>2014-08-24T12:10:26Z</time>
      </trkpt>
      <trkpt lat="45.8714" lon="3.01667">
        <ele>560</ele>
        <time>2014-08-24T12:10:28Z</time>
      </trkpt>
      <trkpt lat="45.87132" lon="3.01687">
        <ele>557</ele>
        <time>2014-08-24T12:10:31Z</time>
      </trkpt>
      <trkpt lat="45.8713" lon="3.01701">
        <ele>555</ele>
        <time>2014-08-24T12:10:34Z</time>
      </trkpt>
      <trkpt lat="45.87129" lon="3.01706">
        <ele>555</ele>
        <time>2014-08-24T12:10:36Z</time>
      </trkpt>
      <trkpt lat="45.87129" lon="3.01712">
        <ele>554</ele>
        <time>2014-08-24T12:10:39Z</time>
      </trkpt>
      <trkpt lat="45.87128" lon="3.01719">
        <ele>554</ele>
        <time>2014-08-24T12:10:41Z</time>
      </trkpt>
      <trkpt lat="45.8712" lon="3.0173">
        <ele>553</ele>
        <time>2014-08-24T12:10:44Z</time>
      </trkpt>
      <trkpt lat="45.87115" lon="3.01744">
        <ele>553</ele>
        <time>2014-08-24T12:10:46Z</time>
      </trkpt>
      <trkpt lat="45.8711" lon="3.0177">
        <ele>550</ele>
        <time>2014-08-24T12:10:49Z</time>
      </trkpt>
      <trkpt lat="45.87108" lon="3.01791">
        <ele>549</ele>
        <time>2014-08-24T12:10:51Z</time>
      </trkpt>
      <trkpt lat="45.87107" lon="3.0181">
        <ele>548</ele>
        <time>2014-08-24T12:10:53Z</time>
      </trkpt>
      <trkpt lat="45.87108" lon="3.01825">
        <ele>546</ele>
        <time>2014-08-24T12:10:55Z</time>
      </trkpt>
      <trkpt lat="45.87108" lon="3.01842">
        <ele>545</ele>
        <time>2014-08-24T12:10:57Z</time>
      </trkpt>
      <trkpt lat="45.87111" lon="3.01867">
        <ele>543</ele>
        <time>2014-08-24T12:11:00Z</time>
      </trkpt>
      <trkpt lat="45.87114" lon="3.01884">
        <ele>542</ele>
        <time>2014-08-24T12:11:02Z</time>
      </trkpt>
      <trkpt lat="45.87117" lon="3.01897">
        <ele>542</ele>
        <time>2014-08-24T12:11:04Z</time>
      </trkpt>
      <trkpt lat="45.87121" lon="3.01916">
        <ele>541</ele>
        <time>2014-08-24T12:11:07Z</time>
      </trkpt>
      <trkpt lat="45.87128" lon="3.01932">
        <ele>540</ele>
        <time>2014-08-24T12:11:09Z</time>
      </trkpt>
      <trkpt lat="45.87134" lon="3.0195">
        <ele>538</ele>
        <time>2014-08-24T12:11:11Z</time>
      </trkpt>
      <trkpt lat="45.87139" lon="3.01964">
        <ele>536</ele>
        <time>2014-08-24T12:11:13Z</time>
      </trkpt>
      <trkpt lat="45.87152" lon="3.01973">
        <ele>535</ele>
        <time>2014-08-24T12:11:16Z</time>
      </trkpt>
      <trkpt lat="45.87163" lon="3.01975">
        <ele>534</ele>
        <time>2014-08-24T12:11:18Z</time>
      </trkpt>
      <trkpt lat="45.87178" lon="3.01988">
        <ele>533</ele>
        <time>2014-08-24T12:11:21Z</time>
      </trkpt>
      <trkpt lat="45.87183" lon="3.02003">
        <ele>532</ele>
        <time>2014-08-24T12:11:23Z</time>
      </trkpt>
      <trkpt lat="45.87187" lon="3.02019">
        <ele>531</ele>
        <time>2014-08-24T12:11:25Z</time>
      </trkpt>
      <trkpt lat="45.87196" lon="3.02044">
        <ele>531</ele>
        <time>2014-08-24T12:11:28Z</time>
      </trkpt>
      <trkpt lat="45.87199" lon="3.02063">
        <ele>530</ele>
        <time>2014-08-24T12:11:30Z</time>
      </trkpt>
      <trkpt lat="45.87206" lon="3.02097">
        <ele>530</ele>
        <time>2014-08-24T12:11:33Z</time>
      </trkpt>
      <trkpt lat="45.87215" lon="3.02132">
        <ele>530</ele>
        <time>2014-08-24T12:11:36Z</time>
      </trkpt>
      <trkpt lat="45.87221" lon="3.02155">
        <ele>530</ele>
        <time>2014-08-24T12:11:38Z</time>
      </trkpt>
      <trkpt lat="45.87231" lon="3.02187">
        <ele>530</ele>
        <time>2014-08-24T12:11:41Z</time>
      </trkpt>
      <trkpt lat="45.87239" lon="3.02208">
        <ele>529</ele>
        <time>2014-08-24T12:11:43Z</time>
      </trkpt>
      <trkpt lat="45.87244" lon="3.02228">
        <ele>529</ele>
        <time>2014-08-24T12:11:45Z</time>
      </trkpt>
      <trkpt lat="45.87248" lon="3.02255">
        <ele>529</ele>
        <time>2014-08-24T12:11:48Z</time>
      </trkpt>
      <trkpt lat="45.87249" lon="3.02271">
        <ele>528</ele>
        <time>2014-08-24T12:11:50Z</time>
      </trkpt>
      <trkpt lat="45.8725" lon="3.02285">
        <ele>528</ele>
        <time>2014-08-24T12:11:52Z</time>
      </trkpt>
      <trkpt lat="45.87246" lon="3.02298">
        <ele>528</ele>
        <time>2014-08-24T12:11:54Z</time>
      </trkpt>
      <trkpt lat="45.87238" lon="3.02318">
        <ele>527</ele>
        <time>2014-08-24T12:11:57Z</time>
      </trkpt>
      <trkpt lat="45.87229" lon="3.02338">
        <ele>526</ele>
        <time>2014-08-24T12:12:00Z</time>
      </trkpt>
      <trkpt lat="45.87221" lon="3.02352">
        <ele>526</ele>
        <time>2014-08-24T12:12:02Z</time>
      </trkpt>
      <trkpt lat="45.87212" lon="3.02367">
        <ele>525</ele>
        <time>2014-08-24T12:12:04Z</time>
      </trkpt>
      <trkpt lat="45.87198" lon="3.02387">
        <ele>524</ele>
        <time>2014-08-24T12:12:07Z</time>
      </trkpt>
      <trkpt lat="45.87189" lon="3.02397">
        <ele>524</ele>
        <time>2014-08-24T12:12:09Z</time>
      </trkpt>
      <trkpt lat="45.87178" lon="3.02405">
        <ele>523</ele>
        <time>2014-08-24T12:12:11Z</time>
      </trkpt>
      <trkpt lat="45.87167" lon="3.02415">
        <ele>520</ele>
        <time>2014-08-24T12:12:14Z</time>
      </trkpt>
      <trkpt lat="45.87162" lon="3.0244">
        <ele>518</ele>
        <time>2014-08-24T12:12:17Z</time>
      </trkpt>
      <trkpt lat="45.87159" lon="3.02468">
        <ele>515</ele>
        <time>2014-08-24T12:12:20Z</time>
      </trkpt>
      <trkpt lat="45.87157" lon="3.02486">
        <ele>514</ele>
        <time>2014-08-24T12:12:22Z</time>
      </trkpt>
      <trkpt lat="45.87155" lon="3.02505">
        <ele>513</ele>
        <time>2014-08-24T12:12:25Z</time>
      </trkpt>
      <trkpt lat="45.87155" lon="3.0252">
        <ele>512</ele>
        <time>2014-08-24T12:12:27Z</time>
      </trkpt>
      <trkpt lat="45.87158" lon="3.02539">
        <ele>510</ele>
        <time>2014-08-24T12:12:30Z</time>
      </trkpt>
      <trkpt lat="45.87159" lon="3.02552">
        <ele>508</ele>
        <time>2014-08-24T12:12:32Z</time>
      </trkpt>
      <trkpt lat="45.87159" lon="3.02574">
        <ele>507</ele>
        <time>2014-08-24T12:12:35Z</time>
      </trkpt>
      <trkpt lat="45.87157" lon="3.02592">
        <ele>506</ele>
        <time>2014-08-24T12:12:37Z</time>
      </trkpt>
      <trkpt lat="45.87155" lon="3.02616">
        <ele>505</ele>
        <time>2014-08-24T12:12:40Z</time>
      </trkpt>
      <trkpt lat="45.87152" lon="3.02638">
        <ele>503</ele>
        <time>2014-08-24T12:12:43Z</time>
      </trkpt>
      <trkpt lat="45.87146" lon="3.02654">
        <ele>502</ele>
        <time>2014-08-24T12:12:45Z</time>
      </trkpt>
      <trkpt lat="45.87141" lon="3.02677">
        <ele>500</ele>
        <time>2014-08-24T12:12:48Z</time>
      </trkpt>
      <trkpt lat="45.87139" lon="3.02698">
        <ele>498</ele>
        <time>2014-08-24T12:12:51Z</time>
      </trkpt>
      <trkpt lat="45.87137" lon="3.02714">
        <ele>495</ele>
        <time>2014-08-24T12:12:54Z</time>
      </trkpt>
      <trkpt lat="45.87134" lon="3.02725">
        <ele>494</ele>
        <time>2014-08-24T12:12:56Z</time>
      </trkpt>
      <trkpt lat="45.87127" lon="3.02743">
        <ele>493</ele>
        <time>2014-08-24T12:12:59Z</time>
      </trkpt>
      <trkpt lat="45.87122" lon="3.02759">
        <ele>492</ele>
        <time>2014-08-24T12:13:02Z</time>
      </trkpt>
      <trkpt lat="45.8712" lon="3.02767">
        <ele>491</ele>
        <time>2014-08-24T12:13:04Z</time>
      </trkpt>
      <trkpt lat="45.87118" lon="3.02783">
        <ele>491</ele>
        <time>2014-08-24T12:13:07Z</time>
      </trkpt>
      <trkpt lat="45.87114" lon="3.02795">
        <ele>490</ele>
        <time>2014-08-24T12:13:09Z</time>
      </trkpt>
      <trkpt lat="45.87109" lon="3.02808">
        <ele>489</ele>
        <time>2014-08-24T12:13:12Z</time>
      </trkpt>
      <trkpt lat="45.87106" lon="3.02817">
        <ele>489</ele>
        <time>2014-08-24T12:13:14Z</time>
      </trkpt>
      <trkpt lat="45.87103" lon="3.02825">
        <ele>489</ele>
        <time>2014-08-24T12:13:16Z</time>
      </trkpt>
      <trkpt lat="45.87101" lon="3.02835">
        <ele>488</ele>
        <time>2014-08-24T12:13:19Z</time>
      </trkpt>
      <trkpt lat="45.87098" lon="3.02843">
        <ele>488</ele>
        <time>2014-08-24T12:13:21Z</time>
      </trkpt>
      <trkpt lat="45.87094" lon="3.02859">
        <ele>488</ele>
        <time>2014-08-24T12:13:24Z</time>
      </trkpt>
      <trkpt lat="45.87091" lon="3.02871">
        <ele>488</ele>
        <time>2014-08-24T12:13:26Z</time>
      </trkpt>
      <trkpt lat="45.87086" lon="3.02892">
        <ele>487</ele>
        <time>2014-08-24T12:13:29Z</time>
      </trkpt>
      <trkpt lat="45.87082" lon="3.02907">
        <ele>487</ele>
        <time>2014-08-24T12:13:31Z</time>
      </trkpt>
      <trkpt lat="45.87077" lon="3.02922">
        <ele>487</ele>
        <time>2014-08-24T12:13:33Z</time>
      </trkpt>
      <trkpt lat="45.87069" lon="3.02945">
        <ele>486</ele>
        <time>2014-08-24T12:13:36Z</time>
      </trkpt>
      <trkpt lat="45.87064" lon="3.02962">
        <ele>485</ele>
        <time>2014-08-24T12:13:38Z</time>
      </trkpt>
      <trkpt lat="45.8706" lon="3.02976">
        <ele>484</ele>
        <time>2014-08-24T12:13:40Z</time>
      </trkpt>
      <trkpt lat="45.87053" lon="3.02998">
        <ele>484</ele>
        <time>2014-08-24T12:13:43Z</time>
      </trkpt>
      <trkpt lat="45.87048" lon="3.03014">
        <ele>483</ele>
        <time>2014-08-24T12:13:45Z</time>
      </trkpt>
      <trkpt lat="45.87043" lon="3.0303">
        <ele>483</ele>
        <time>2014-08-24T12:13:47Z</time>
      </trkpt>
      <trkpt lat="45.87035" lon="3.03056">
        <ele>481</ele>
        <time>2014-08-24T12:13:50Z</time>
      </trkpt>
      <trkpt lat="45.87027" lon="3.0308">
        <ele>480</ele>
        <time>2014-08-24T12:13:53Z</time>
      </trkpt>
      <trkpt lat="45.87023" lon="3.03105">
        <ele>478</ele>
        <time>2014-08-24T12:13:56Z</time>
      </trkpt>
      <trkpt lat="45.87021" lon="3.03121">
        <ele>478</ele>
        <time>2014-08-24T12:13:58Z</time>
      </trkpt>
      <trkpt lat="45.87019" lon="3.03138">
        <ele>478</ele>
        <time>2014-08-24T12:14:00Z</time>
      </trkpt>
      <trkpt lat="45.87018" lon="3.03162">
        <ele>478</ele>
        <time>2014-08-24T12:14:03Z</time>
      </trkpt>
      <trkpt lat="45.87017" lon="3.03184">
        <ele>477</ele>
        <time>2014-08-24T12:14:06Z</time>
      </trkpt>
      <trkpt lat="45.87016" lon="3.03193">
        <ele>475</ele>
        <time>2014-08-24T12:14:08Z</time>
      </trkpt>
      <trkpt lat="45.87011" lon="3.03203">
        <ele>474</ele>
        <time>2014-08-24T12:14:11Z</time>
      </trkpt>
      <trkpt lat="45.87008" lon="3.03211">
        <ele>473</ele>
        <time>2014-08-24T12:14:13Z</time>
      </trkpt>
      <trkpt lat="45.87012" lon="3.03222">
        <ele>472</ele>
        <time>2014-08-24T12:14:15Z</time>
      </trkpt>
      <trkpt lat="45.87023" lon="3.03239">
        <ele>471</ele>
        <time>2014-08-24T12:14:18Z</time>
      </trkpt>
      <trkpt lat="45.87029" lon="3.03253">
        <ele>470</ele>
        <time>2014-08-24T12:14:20Z</time>
      </trkpt>
      <trkpt lat="45.87035" lon="3.0328">
        <ele>470</ele>
        <time>2014-08-24T12:14:23Z</time>
      </trkpt>
      <trkpt lat="45.87033" lon="3.033">
        <ele>469</ele>
        <time>2014-08-24T12:14:25Z</time>
      </trkpt>
      <trkpt lat="45.87023" lon="3.0333">
        <ele>469</ele>
        <time>2014-08-24T12:14:28Z</time>
      </trkpt>
      <trkpt lat="45.8701" lon="3.0336">
        <ele>467</ele>
        <time>2014-08-24T12:14:31Z</time>
      </trkpt>
      <trkpt lat="45.86992" lon="3.03386">
        <ele>466</ele>
        <time>2014-08-24T12:14:34Z</time>
      </trkpt>
      <trkpt lat="45.86967" lon="3.03396">
        <ele>465</ele>
        <time>2014-08-24T12:14:37Z</time>
      </trkpt>
      <trkpt lat="45.86951" lon="3.03391">
        <ele>464</ele>
        <time>2014-08-24T12:14:39Z</time>
      </trkpt>
      <trkpt lat="45.86934" lon="3.03379">
        <ele>462</ele>
        <time>2014-08-24T12:14:42Z</time>
      </trkpt>
      <trkpt lat="45.8692" lon="3.0337">
        <ele>461</ele>
        <time>2014-08-24T12:14:44Z</time>
      </trkpt>
      <trkpt lat="45.86897" lon="3.03358">
        <ele>460</ele>
        <time>2014-08-24T12:14:47Z</time>
      </trkpt>
      <trkpt lat="45.86881" lon="3.03354">
        <ele>460</ele>
        <time>2014-08-24T12:14:49Z</time>
      </trkpt>
      <trkpt lat="45.86855" lon="3.0336">
        <ele>458</ele>
        <time>2014-08-24T12:14:52Z</time>
      </trkpt>
      <trkpt lat="45.86832" lon="3.03381">
        <ele>457</ele>
        <time>2014-08-24T12:14:55Z</time>
      </trkpt>
      <trkpt lat="45.86813" lon="3.0341">
        <ele>455</ele>
        <time>2014-08-24T12:14:58Z</time>
      </trkpt>
      <trkpt lat="45.868" lon="3.03433">
        <ele>455</ele>
        <time>2014-08-24T12:15:00Z</time>
      </trkpt>
      <trkpt lat="45.86786" lon="3.03472">
        <ele>454</ele>
        <time>2014-08-24T12:15:03Z</time>
      </trkpt>
      <trkpt lat="45.86783" lon="3.035">
        <ele>453</ele>
        <time>2014-08-24T12:15:05Z</time>
      </trkpt>
      <trkpt lat="45.86787" lon="3.03542">
        <ele>451</ele>
        <time>2014-08-24T12:15:08Z</time>
      </trkpt>
      <trkpt lat="45.86797" lon="3.03566">
        <ele>449</ele>
        <time>2014-08-24T12:15:10Z</time>
      </trkpt>
      <trkpt lat="45.86817" lon="3.03592">
        <ele>447</ele>
        <time>2014-08-24T12:15:13Z</time>
      </trkpt>
      <trkpt lat="45.8684" lon="3.03608">
        <ele>445</ele>
        <time>2014-08-24T12:15:16Z</time>
      </trkpt>
      <trkpt lat="45.86866" lon="3.03612">
        <ele>444</ele>
        <time>2014-08-24T12:15:19Z</time>
      </trkpt>
      <trkpt lat="45.86891" lon="3.03612">
        <ele>442</ele>
        <time>2014-08-24T12:15:22Z</time>
      </trkpt>
      <trkpt lat="45.86916" lon="3.03625">
        <ele>441</ele>
        <time>2014-08-24T12:15:25Z</time>
      </trkpt>
      <trkpt lat="45.86933" lon="3.03654">
        <ele>439</ele>
        <time>2014-08-24T12:15:28Z</time>
      </trkpt>
      <trkpt lat="45.86941" lon="3.03673">
        <ele>438</ele>
        <time>2014-08-24T12:15:30Z</time>
      </trkpt>
      <trkpt lat="45.86947" lon="3.03701">
        <ele>437</ele>
        <time>2014-08-24T12:15:33Z</time>
      </trkpt>
      <trkpt lat="45.86959" lon="3.03726">
        <ele>436</ele>
        <time>2014-08-24T12:15:36Z</time>
      </trkpt>
      <trkpt lat="45.86974" lon="3.03733">
        <ele>434</ele>
        <time>2014-08-24T12:15:39Z</time>
      </trkpt>
      <trkpt lat="45.86981" lon="3.03727">
        <ele>434</ele>
        <time>2014-08-24T12:15:41Z</time>
      </trkpt>
      <trkpt lat="45.86986" lon="3.03721">
        <ele>433</ele>
        <time>2014-08-24T12:15:43Z</time>
      </trkpt>
      <trkpt lat="45.86993" lon="3.03718">
        <ele>432</ele>
        <time>2014-08-24T12:15:46Z</time>
      </trkpt>
      <trkpt lat="45.86991" lon="3.03732">
        <ele>432</ele>
        <time>2014-08-24T12:15:49Z</time>
      </trkpt>
      <trkpt lat="45.86986" lon="3.03745">
        <ele>431</ele>
        <time>2014-08-24T12:15:51Z</time>
      </trkpt>
      <trkpt lat="45.86981" lon="3.03759">
        <ele>431</ele>
        <time>2014-08-24T12:15:53Z</time>
      </trkpt>
      <trkpt lat="45.8697" lon="3.03775">
        <ele>429</ele>
        <time>2014-08-24T12:15:56Z</time>
      </trkpt>
      <trkpt lat="45.8695" lon="3.03769">
        <ele>428</ele>
        <time>2014-08-24T12:15:59Z</time>
      </trkpt>
      <trkpt lat="45.86934" lon="3.03762">
        <ele>427</ele>
        <time>2014-08-24T12:16:01Z</time>
      </trkpt>
      <trkpt lat="45.86918" lon="3.03755">
        <ele>425</ele>
        <time>2014-08-24T12:16:03Z</time>
      </trkpt>
      <trkpt lat="45.86894" lon="3.03761">
        <ele>424</ele>
        <time>2014-08-24T12:16:06Z</time>
      </trkpt>
      <trkpt lat="45.86881" lon="3.03772">
        <ele>422</ele>
        <time>2014-08-24T12:16:08Z</time>
      </trkpt>
      <trkpt lat="45.86869" lon="3.03784">
        <ele>421</ele>
        <time>2014-08-24T12:16:10Z</time>
      </trkpt>
      <trkpt lat="45.8685" lon="3.03804">
        <ele>420</ele>
        <time>2014-08-24T12:16:13Z</time>
      </trkpt>
      <trkpt lat="45.86833" lon="3.03828">
        <ele>418</ele>
        <time>2014-08-24T12:16:16Z</time>
      </trkpt>
      <trkpt lat="45.86813" lon="3.03847">
        <ele>417</ele>
        <time>2014-08-24T12:16:19Z</time>
      </trkpt>
      <trkpt lat="45.86797" lon="3.03857">
        <ele>415</ele>
        <time>2014-08-24T12:16:21Z</time>
      </trkpt>
      <trkpt lat="45.86772" lon="3.03873">
        <ele>414</ele>
        <time>2014-08-24T12:16:24Z</time>
      </trkpt>
      <trkpt lat="45.86747" lon="3.0389">
        <ele>413</ele>
        <time>2014-08-24T12:16:27Z</time>
      </trkpt>
      <trkpt lat="45.86722" lon="3.03906">
        <ele>411</ele>
        <time>2014-08-24T12:16:30Z</time>
      </trkpt>
      <trkpt lat="45.86706" lon="3.03915">
        <ele>411</ele>
        <time>2014-08-24T12:16:32Z</time>
      </trkpt>
      <trkpt lat="45.86684" lon="3.03928">
        <ele>409</ele>
        <time>2014-08-24T12:16:35Z</time>
      </trkpt>
      <trkpt lat="45.86669" lon="3.03935">
        <ele>409</ele>
        <time>2014-08-24T12:16:37Z</time>
      </trkpt>
      <trkpt lat="45.86648" lon="3.03947">
        <ele>408</ele>
        <time>2014-08-24T12:16:40Z</time>
      </trkpt>
      <trkpt lat="45.86628" lon="3.03957">
        <ele>408</ele>
        <time>2014-08-24T12:16:43Z</time>
      </trkpt>
      <trkpt lat="45.86616" lon="3.03963">
        <ele>408</ele>
        <time>2014-08-24T12:16:45Z</time>
      </trkpt>
      <trkpt lat="45.86597" lon="3.03972">
        <ele>408</ele>
        <time>2014-08-24T12:16:48Z</time>
      </trkpt>
      <trkpt lat="45.86578" lon="3.03981">
        <ele>408</ele>
        <time>2014-08-24T12:16:51Z</time>
      </trkpt>
      <trkpt lat="45.8656" lon="3.03989">
        <ele>407</ele>
        <time>2014-08-24T12:16:54Z</time>
      </trkpt>
      <trkpt lat="45.86543" lon="3.03995">
        <ele>406</ele>
        <time>2014-08-24T12:16:57Z</time>
      </trkpt>
      <trkpt lat="45.86531" lon="3.03997">
        <ele>406</ele>
        <time>2014-08-24T12:16:59Z</time>
      </trkpt>
      <trkpt lat="45.8652" lon="3.03999">
        <ele>405</ele>
        <time>2014-08-24T12:17:01Z</time>
      </trkpt>
      <trkpt lat="45.86504" lon="3.04">
        <ele>404</ele>
        <time>2014-08-24T12:17:04Z</time>
      </trkpt>
      <trkpt lat="45.86494" lon="3.04">
        <ele>404</ele>
        <time>2014-08-24T12:17:06Z</time>
      </trkpt>
      <trkpt lat="45.86478" lon="3.0401">
        <ele>405</ele>
        <time>2014-08-24T12:17:09Z</time>
      </trkpt>
      <trkpt lat="45.8646" lon="3.04019">
        <ele>404</ele>
        <time>2014-08-24T12:17:12Z</time>
      </trkpt>
      <trkpt lat="45.86422" lon="3.04033">
        <ele>403</ele>
        <time>2014-08-24T12:17:18Z</time>
      </trkpt>
      <trkpt lat="45.8641" lon="3.04037">
        <ele>403</ele>
        <time>2014-08-24T12:17:20Z</time>
      </trkpt>
      <trkpt lat="45.86393" lon="3.04047">
        <ele>402</ele>
        <time>2014-08-24T12:17:23Z</time>
      </trkpt>
      <trkpt lat="45.86378" lon="3.04061">
        <ele>401</ele>
        <time>2014-08-24T12:17:26Z</time>
      </trkpt>
      <trkpt lat="45.86362" lon="3.04073">
        <ele>400</ele>
        <time>2014-08-24T12:17:29Z</time>
      </trkpt>
      <trkpt lat="45.86353" lon="3.04082">
        <ele>400</ele>
        <time>2014-08-24T12:17:31Z</time>
      </trkpt>
      <trkpt lat="45.86347" lon="3.04105">
        <ele>400</ele>
        <time>2014-08-24T12:17:34Z</time>
      </trkpt>
      <trkpt lat="45.86348" lon="3.04123">
        <ele>400</ele>
        <time>2014-08-24T12:17:36Z</time>
      </trkpt>
      <trkpt lat="45.86348" lon="3.04141">
        <ele>399</ele>
        <time>2014-08-24T12:17:38Z</time>
      </trkpt>
      <trkpt lat="45.86355" lon="3.04162">
        <ele>398</ele>
        <time>2014-08-24T12:17:41Z</time>
      </trkpt>
      <trkpt lat="45.86359" lon="3.0417">
        <ele>398</ele>
        <time>2014-08-24T12:17:43Z</time>
      </trkpt>
      <trkpt lat="45.86367" lon="3.04175">
        <ele>396</ele>
        <time>2014-08-24T12:17:47Z</time>
      </trkpt>
      <trkpt lat="45.86368" lon="3.04183">
        <ele>396</ele>
        <time>2014-08-24T12:17:50Z</time>
      </trkpt>
      <trkpt lat="45.86361" lon="3.04202">
        <ele>396</ele>
        <time>2014-08-24T12:17:53Z</time>
      </trkpt>
      <trkpt lat="45.8635" lon="3.04223">
        <ele>395</ele>
        <time>2014-08-24T12:17:56Z</time>
      </trkpt>
      <trkpt lat="45.86342" lon="3.04237">
        <ele>394</ele>
        <time>2014-08-24T12:17:58Z</time>
      </trkpt>
      <trkpt lat="45.86329" lon="3.04257">
        <ele>394</ele>
        <time>2014-08-24T12:18:01Z</time>
      </trkpt>
      <trkpt lat="45.86314" lon="3.04274">
        <ele>393</ele>
        <time>2014-08-24T12:18:04Z</time>
      </trkpt>
      <trkpt lat="45.86297" lon="3.04289">
        <ele>393</ele>
        <time>2014-08-24T12:18:07Z</time>
      </trkpt>
      <trkpt lat="45.86286" lon="3.04299">
        <ele>392</ele>
        <time>2014-08-24T12:18:09Z</time>
      </trkpt>
      <trkpt lat="45.8627" lon="3.04316">
        <ele>392</ele>
        <time>2014-08-24T12:18:12Z</time>
      </trkpt>
      <trkpt lat="45.8626" lon="3.04326">
        <ele>391</ele>
        <time>2014-08-24T12:18:14Z</time>
      </trkpt>
      <trkpt lat="45.86244" lon="3.0434">
        <ele>390</ele>
        <time>2014-08-24T12:18:17Z</time>
      </trkpt>
      <trkpt lat="45.86228" lon="3.04353">
        <ele>389</ele>
        <time>2014-08-24T12:18:20Z</time>
      </trkpt>
      <trkpt lat="45.86217" lon="3.04362">
        <ele>389</ele>
        <time>2014-08-24T12:18:22Z</time>
      </trkpt>
      <trkpt lat="45.86207" lon="3.0437">
        <ele>389</ele>
        <time>2014-08-24T12:18:24Z</time>
      </trkpt>
      <trkpt lat="45.86187" lon="3.04379">
        <ele>389</ele>
        <time>2014-08-24T12:18:27Z</time>
      </trkpt>
      <trkpt lat="45.86174" lon="3.04383">
        <ele>388</ele>
        <time>2014-08-24T12:18:29Z</time>
      </trkpt>
      <trkpt lat="45.86161" lon="3.0439">
        <ele>387</ele>
        <time>2014-08-24T12:18:31Z</time>
      </trkpt>
      <trkpt lat="45.86147" lon="3.04399">
        <ele>386</ele>
        <time>2014-08-24T12:18:33Z</time>
      </trkpt>
      <trkpt lat="45.86134" lon="3.04409">
        <ele>385</ele>
        <time>2014-08-24T12:18:35Z</time>
      </trkpt>
      <trkpt lat="45.86122" lon="3.04419">
        <ele>385</ele>
        <time>2014-08-24T12:18:37Z</time>
      </trkpt>
      <trkpt lat="45.86105" lon="3.04437">
        <ele>384</ele>
        <time>2014-08-24T12:18:40Z</time>
      </trkpt>
      <trkpt lat="45.86096" lon="3.04451">
        <ele>383</ele>
        <time>2014-08-24T12:18:42Z</time>
      </trkpt>
      <trkpt lat="45.86089" lon="3.04467">
        <ele>382</ele>
        <time>2014-08-24T12:18:44Z</time>
      </trkpt>
      <trkpt lat="45.86078" lon="3.04492">
        <ele>382</ele>
        <time>2014-08-24T12:18:47Z</time>
      </trkpt>
      <trkpt lat="45.8607" lon="3.04511">
        <ele>381</ele>
        <time>2014-08-24T12:18:49Z</time>
      </trkpt>
      <trkpt lat="45.86057" lon="3.04538">
        <ele>381</ele>
        <time>2014-08-24T12:18:52Z</time>
      </trkpt>
      <trkpt lat="45.8605" lon="3.04556">
        <ele>381</ele>
        <time>2014-08-24T12:18:54Z</time>
      </trkpt>
      <trkpt lat="45.86042" lon="3.04574">
        <ele>381</ele>
        <time>2014-08-24T12:18:56Z</time>
      </trkpt>
      <trkpt lat="45.86035" lon="3.04591">
        <ele>381</ele>
        <time>2014-08-24T12:18:58Z</time>
      </trkpt>
      <trkpt lat="45.86028" lon="3.04607">
        <ele>380</ele>
        <time>2014-08-24T12:19:00Z</time>
      </trkpt>
      <trkpt lat="45.86019" lon="3.04631">
        <ele>380</ele>
        <time>2014-08-24T12:19:03Z</time>
      </trkpt>
      <trkpt lat="45.86015" lon="3.04647">
        <ele>380</ele>
        <time>2014-08-24T12:19:05Z</time>
      </trkpt>
      <trkpt lat="45.86008" lon="3.0467">
        <ele>380</ele>
        <time>2014-08-24T12:19:08Z</time>
      </trkpt>
      <trkpt lat="45.86003" lon="3.04692">
        <ele>379</ele>
        <time>2014-08-24T12:19:11Z</time>
      </trkpt>
      <trkpt lat="45.86" lon="3.04706">
        <ele>379</ele>
        <time>2014-08-24T12:19:13Z</time>
      </trkpt>
      <trkpt lat="45.85997" lon="3.0472">
        <ele>378</ele>
        <time>2014-08-24T12:19:15Z</time>
      </trkpt>
      <trkpt lat="45.85994" lon="3.04742">
        <ele>378</ele>
        <time>2014-08-24T12:19:18Z</time>
      </trkpt>
      <trkpt lat="45.85993" lon="3.04763">
        <ele>378</ele>
        <time>2014-08-24T12:19:21Z</time>
      </trkpt>
      <trkpt lat="45.85994" lon="3.04778">
        <ele>377</ele>
        <time>2014-08-24T12:19:23Z</time>
      </trkpt>
      <trkpt lat="45.86" lon="3.04798">
        <ele>377</ele>
        <time>2014-08-24T12:19:26Z</time>
      </trkpt>
      <trkpt lat="45.8601" lon="3.04818">
        <ele>376</ele>
        <time>2014-08-24T12:19:29Z</time>
      </trkpt>
      <trkpt lat="45.86021" lon="3.04841">
        <ele>375</ele>
        <time>2014-08-24T12:19:32Z</time>
      </trkpt>
      <trkpt lat="45.86033" lon="3.0486">
        <ele>375</ele>
        <time>2014-08-24T12:19:34Z</time>
      </trkpt>
      <trkpt lat="45.86053" lon="3.04891">
        <ele>375</ele>
        <time>2014-08-24T12:19:37Z</time>
      </trkpt>
      <trkpt lat="45.86066" lon="3.04911">
        <ele>375</ele>
        <time>2014-08-24T12:19:39Z</time>
      </trkpt>
      <trkpt lat="45.86079" lon="3.0493">
        <ele>375</ele>
        <time>2014-08-24T12:19:41Z</time>
      </trkpt>
      <trkpt lat="45.86097" lon="3.04957">
        <ele>374</ele>
        <time>2014-08-24T12:19:44Z</time>
      </trkpt>
      <trkpt lat="45.86114" lon="3.04983">
        <ele>373</ele>
        <time>2014-08-24T12:19:47Z</time>
      </trkpt>
      <trkpt lat="45.86125" lon="3.04999">
        <ele>372</ele>
        <time>2014-08-24T12:19:49Z</time>
      </trkpt>
      <trkpt lat="45.86141" lon="3.05023">
        <ele>371</ele>
        <time>2014-08-24T12:19:52Z</time>
      </trkpt>
      <trkpt lat="45.8615" lon="3.05039">
        <ele>370</ele>
        <time>2014-08-24T12:19:54Z</time>
      </trkpt>
      <trkpt lat="45.86163" lon="3.05061">
        <ele>370</ele>
        <time>2014-08-24T12:19:57Z</time>
      </trkpt>
      <trkpt lat="45.86171" lon="3.05073">
        <ele>369</ele>
        <time>2014-08-24T12:19:59Z</time>
      </trkpt>
      <trkpt lat="45.8618" lon="3.05083">
        <ele>369</ele>
        <time>2014-08-24T12:20:01Z</time>
      </trkpt>
      <trkpt lat="45.8619" lon="3.05092">
        <ele>369</ele>
        <time>2014-08-24T12:20:03Z</time>
      </trkpt>
      <trkpt lat="45.86201" lon="3.05097">
        <ele>369</ele>
        <time>2014-08-24T12:20:05Z</time>
      </trkpt>
      <trkpt lat="45.86217" lon="3.05101">
        <ele>368</ele>
        <time>2014-08-24T12:20:08Z</time>
      </trkpt>
      <trkpt lat="45.86233" lon="3.05103">
        <ele>368</ele>
        <time>2014-08-24T12:20:11Z</time>
      </trkpt>
      <trkpt lat="45.86241" lon="3.05105">
        <ele>368</ele>
        <time>2014-08-24T12:20:13Z</time>
      </trkpt>
      <trkpt lat="45.86259" lon="3.05108">
        <ele>368</ele>
        <time>2014-08-24T12:20:16Z</time>
      </trkpt>
      <trkpt lat="45.8627" lon="3.0511">
        <ele>368</ele>
        <time>2014-08-24T12:20:18Z</time>
      </trkpt>
      <trkpt lat="45.86282" lon="3.05113">
        <ele>367</ele>
        <time>2014-08-24T12:20:20Z</time>
      </trkpt>
      <trkpt lat="45.86297" lon="3.05118">
        <ele>367</ele>
        <time>2014-08-24T12:20:23Z</time>
      </trkpt>
      <trkpt lat="45.86309" lon="3.05128">
        <ele>367</ele>
        <time>2014-08-24T12:20:26Z</time>
      </trkpt>
      <trkpt lat="45.86314" lon="3.05135">
        <ele>368</ele>
        <time>2014-08-24T12:20:28Z</time>
      </trkpt>
      <trkpt lat="45.86324" lon="3.05147">
        <ele>367</ele>
        <time>2014-08-24T12:20:31Z</time>
      </trkpt>
      <trkpt lat="45.86338" lon="3.05153">
        <ele>367</ele>
        <time>2014-08-24T12:20:34Z</time>
      </trkpt>
      <trkpt lat="45.86355" lon="3.05162">
        <ele>366</ele>
        <time>2014-08-24T12:20:37Z</time>
      </trkpt>
      <trkpt lat="45.86368" lon="3.05171">
        <ele>367</ele>
        <time>2014-08-24T12:20:39Z</time>
      </trkpt>
      <trkpt lat="45.86388" lon="3.0519">
        <ele>367</ele>
        <time>2014-08-24T12:20:42Z</time>
      </trkpt>
      <trkpt lat="45.86402" lon="3.05205">
        <ele>367</ele>
        <time>2014-08-24T12:20:44Z</time>
      </trkpt>
      <trkpt lat="45.86423" lon="3.05223">
        <ele>367</ele>
        <time>2014-08-24T12:20:47Z</time>
      </trkpt>
      <trkpt lat="45.86436" lon="3.05234">
        <ele>366</ele>
        <time>2014-08-24T12:20:49Z</time>
      </trkpt>
      <trkpt lat="45.86448" lon="3.05245">
        <ele>366</ele>
        <time>2014-08-24T12:20:51Z</time>
      </trkpt>
      <trkpt lat="45.86467" lon="3.0526">
        <ele>365</ele>
        <time>2014-08-24T12:20:54Z</time>
      </trkpt>
      <trkpt lat="45.86477" lon="3.05271">
        <ele>365</ele>
        <time>2014-08-24T12:20:56Z</time>
      </trkpt>
      <trkpt lat="45.86489" lon="3.05285">
        <ele>364</ele>
        <time>2014-08-24T12:20:59Z</time>
      </trkpt>
      <trkpt lat="45.86493" lon="3.05293">
        <ele>363</ele>
        <time>2014-08-24T12:21:01Z</time>
      </trkpt>
      <trkpt lat="45.86502" lon="3.05303">
        <ele>362</ele>
        <time>2014-08-24T12:21:04Z</time>
      </trkpt>
      <trkpt lat="45.86509" lon="3.05311">
        <ele>362</ele>
        <time>2014-08-24T12:21:06Z</time>
      </trkpt>
      <trkpt lat="45.86517" lon="3.0532">
        <ele>361</ele>
        <time>2014-08-24T12:21:08Z</time>
      </trkpt>
      <trkpt lat="45.86531" lon="3.05333">
        <ele>360</ele>
        <time>2014-08-24T12:21:11Z</time>
      </trkpt>
      <trkpt lat="45.86542" lon="3.05343">
        <ele>359</ele>
        <time>2014-08-24T12:21:14Z</time>
      </trkpt>
      <trkpt lat="45.86552" lon="3.05351">
        <ele>359</ele>
        <time>2014-08-24T12:21:17Z</time>
      </trkpt>
      <trkpt lat="45.86557" lon="3.05355">
        <ele>358</ele>
        <time>2014-08-24T12:21:20Z</time>
      </trkpt>
      <trkpt lat="45.86593" lon="3.05407">
        <ele>357</ele>
        <time>2014-08-24T12:21:22Z</time>
      </trkpt>
      <trkpt lat="45.86598" lon="3.05416">
        <ele>357</ele>
        <time>2014-08-24T12:21:24Z</time>
      </trkpt>
      <trkpt lat="45.86607" lon="3.0543">
        <ele>357</ele>
        <time>2014-08-24T12:21:27Z</time>
      </trkpt>
      <trkpt lat="45.86614" lon="3.0544">
        <ele>356</ele>
        <time>2014-08-24T12:21:29Z</time>
      </trkpt>
      <trkpt lat="45.86624" lon="3.05454">
        <ele>356</ele>
        <time>2014-08-24T12:21:32Z</time>
      </trkpt>
      <trkpt lat="45.86633" lon="3.05469">
        <ele>356</ele>
        <time>2014-08-24T12:21:35Z</time>
      </trkpt>
      <trkpt lat="45.86639" lon="3.05479">
        <ele>356</ele>
        <time>2014-08-24T12:21:37Z</time>
      </trkpt>
      <trkpt lat="45.86646" lon="3.05487">
        <ele>356</ele>
        <time>2014-08-24T12:21:39Z</time>
      </trkpt>
      <trkpt lat="45.86654" lon="3.05495">
        <ele>355</ele>
        <time>2014-08-24T12:21:41Z</time>
      </trkpt>
      <trkpt lat="45.86664" lon="3.05508">
        <ele>355</ele>
        <time>2014-08-24T12:21:44Z</time>
      </trkpt>
      <trkpt lat="45.86672" lon="3.05517">
        <ele>355</ele>
        <time>2014-08-24T12:21:46Z</time>
      </trkpt>
      <trkpt lat="45.86679" lon="3.05528">
        <ele>354</ele>
        <time>2014-08-24T12:21:48Z</time>
      </trkpt>
      <trkpt lat="45.86682" lon="3.0554">
        <ele>354</ele>
        <time>2014-08-24T12:21:50Z</time>
      </trkpt>
      <trkpt lat="45.86687" lon="3.05561">
        <ele>354</ele>
        <time>2014-08-24T12:21:53Z</time>
      </trkpt>
      <trkpt lat="45.86695" lon="3.05572">
        <ele>353</ele>
        <time>2014-08-24T12:21:55Z</time>
      </trkpt>
      <trkpt lat="45.86704" lon="3.05579">
        <ele>353</ele>
        <time>2014-08-24T12:21:57Z</time>
      </trkpt>
      <trkpt lat="45.8672" lon="3.05586">
        <ele>353</ele>
        <time>2014-08-24T12:22:00Z</time>
      </trkpt>
      <trkpt lat="45.86731" lon="3.05589">
        <ele>353</ele>
        <time>2014-08-24T12:22:02Z</time>
      </trkpt>
      <trkpt lat="45.86746" lon="3.05594">
        <ele>352</ele>
        <time>2014-08-24T12:22:05Z</time>
      </trkpt>
      <trkpt lat="45.86761" lon="3.05596">
        <ele>352</ele>
        <time>2014-08-24T12:22:08Z</time>
      </trkpt>
      <trkpt lat="45.86769" lon="3.05598">
        <ele>351</ele>
        <time>2014-08-24T12:22:10Z</time>
      </trkpt>
      <trkpt lat="45.86779" lon="3.05599">
        <ele>351</ele>
        <time>2014-08-24T12:22:13Z</time>
      </trkpt>
      <trkpt lat="45.86787" lon="3.056">
        <ele>350</ele>
        <time>2014-08-24T12:22:15Z</time>
      </trkpt>
      <trkpt lat="45.86797" lon="3.05603">
        <ele>350</ele>
        <time>2014-08-24T12:22:17Z</time>
      </trkpt>
      <trkpt lat="45.86809" lon="3.05608">
        <ele>350</ele>
        <time>2014-08-24T12:22:19Z</time>
      </trkpt>
      <trkpt lat="45.86826" lon="3.05615">
        <ele>350</ele>
        <time>2014-08-24T12:22:22Z</time>
      </trkpt>
      <trkpt lat="45.86837" lon="3.05618">
        <ele>350</ele>
        <time>2014-08-24T12:22:24Z</time>
      </trkpt>
      <trkpt lat="45.86855" lon="3.05622">
        <ele>349</ele>
        <time>2014-08-24T12:22:27Z</time>
      </trkpt>
      <trkpt lat="45.86876" lon="3.05628">
        <ele>348</ele>
        <time>2014-08-24T12:22:30Z</time>
      </trkpt>
      <trkpt lat="45.86888" lon="3.05633">
        <ele>348</ele>
        <time>2014-08-24T12:22:32Z</time>
      </trkpt>
      <trkpt lat="45.86903" lon="3.05645">
        <ele>348</ele>
        <time>2014-08-24T12:22:35Z</time>
      </trkpt>
      <trkpt lat="45.86919" lon="3.05662">
        <ele>347</ele>
        <time>2014-08-24T12:22:38Z</time>
      </trkpt>
      <trkpt lat="45.8693" lon="3.05682">
        <ele>347</ele>
        <time>2014-08-24T12:22:41Z</time>
      </trkpt>
      <trkpt lat="45.86938" lon="3.05699">
        <ele>346</ele>
        <time>2014-08-24T12:22:44Z</time>
      </trkpt>
      <trkpt lat="45.86944" lon="3.05709">
        <ele>346</ele>
        <time>2014-08-24T12:22:46Z</time>
      </trkpt>
      <trkpt lat="45.8695" lon="3.05718">
        <ele>344</ele>
        <time>2014-08-24T12:22:48Z</time>
      </trkpt>
      <trkpt lat="45.86958" lon="3.05736">
        <ele>344</ele>
        <time>2014-08-24T12:22:51Z</time>
      </trkpt>
      <trkpt lat="45.86961" lon="3.05755">
        <ele>342</ele>
        <time>2014-08-24T12:22:53Z</time>
      </trkpt>
      <trkpt lat="45.86966" lon="3.05777">
        <ele>341</ele>
        <time>2014-08-24T12:22:55Z</time>
      </trkpt>
      <trkpt lat="45.86971" lon="3.05796">
        <ele>339</ele>
        <time>2014-08-24T12:22:57Z</time>
      </trkpt>
      <trkpt lat="45.86977" lon="3.05812">
        <ele>337</ele>
        <time>2014-08-24T12:22:59Z</time>
      </trkpt>
      <trkpt lat="45.8698" lon="3.0583">
        <ele>335</ele>
        <time>2014-08-24T12:23:01Z</time>
      </trkpt>
      <trkpt lat="45.86985" lon="3.05848">
        <ele>334</ele>
        <time>2014-08-24T12:23:03Z</time>
      </trkpt>
      <trkpt lat="45.86996" lon="3.05874">
        <ele>334</ele>
        <time>2014-08-24T12:23:06Z</time>
      </trkpt>
      <trkpt lat="45.87011" lon="3.05896">
        <ele>333</ele>
        <time>2014-08-24T12:23:09Z</time>
      </trkpt>
      <trkpt lat="45.87017" lon="3.05913">
        <ele>332</ele>
        <time>2014-08-24T12:23:11Z</time>
      </trkpt>
      <trkpt lat="45.87021" lon="3.05941">
        <ele>331</ele>
        <time>2014-08-24T12:23:14Z</time>
      </trkpt>
      <trkpt lat="45.87024" lon="3.05958">
        <ele>331</ele>
        <time>2014-08-24T12:23:16Z</time>
      </trkpt>
      <trkpt lat="45.87028" lon="3.05974">
        <ele>331</ele>
        <time>2014-08-24T12:23:18Z</time>
      </trkpt>
      <trkpt lat="45.87036" lon="3.06002">
        <ele>332</ele>
        <time>2014-08-24T12:23:21Z</time>
      </trkpt>
      <trkpt lat="45.8704" lon="3.06022">
        <ele>332</ele>
        <time>2014-08-24T12:23:23Z</time>
      </trkpt>
      <trkpt lat="45.87045" lon="3.06042">
        <ele>333</ele>
        <time>2014-08-24T12:23:25Z</time>
      </trkpt>
      <trkpt lat="45.87051" lon="3.06062">
        <ele>333</ele>
        <time>2014-08-24T12:23:27Z</time>
      </trkpt>
      <trkpt lat="45.87059" lon="3.06083">
        <ele>334</ele>
        <time>2014-08-24T12:23:29Z</time>
      </trkpt>
      <trkpt lat="45.87073" lon="3.06112">
        <ele>335</ele>
        <time>2014-08-24T12:23:32Z</time>
      </trkpt>
      <trkpt lat="45.87085" lon="3.06132">
        <ele>335</ele>
        <time>2014-08-24T12:23:34Z</time>
      </trkpt>
      <trkpt lat="45.87095" lon="3.06153">
        <ele>336</ele>
        <time>2014-08-24T12:23:36Z</time>
      </trkpt>
      <trkpt lat="45.87106" lon="3.06186">
        <ele>336</ele>
        <time>2014-08-24T12:23:39Z</time>
      </trkpt>
      <trkpt lat="45.87112" lon="3.06203">
        <ele>337</ele>
        <time>2014-08-24T12:23:41Z</time>
      </trkpt>
      <trkpt lat="45.87115" lon="3.06219">
        <ele>336</ele>
        <time>2014-08-24T12:23:43Z</time>
      </trkpt>
      <trkpt lat="45.87118" lon="3.06244">
        <ele>335</ele>
        <time>2014-08-24T12:23:46Z</time>
      </trkpt>
      <trkpt lat="45.87121" lon="3.06265">
        <ele>335</ele>
        <time>2014-08-24T12:23:49Z</time>
      </trkpt>
      <trkpt lat="45.87124" lon="3.06281">
        <ele>334</ele>
        <time>2014-08-24T12:23:52Z</time>
      </trkpt>
      <trkpt lat="45.87125" lon="3.06293">
        <ele>334</ele>
        <time>2014-08-24T12:23:54Z</time>
      </trkpt>
      <trkpt lat="45.87128" lon="3.0631">
        <ele>334</ele>
        <time>2014-08-24T12:23:57Z</time>
      </trkpt>
      <trkpt lat="45.87128" lon="3.06328">
        <ele>334</ele>
        <time>2014-08-24T12:24:00Z</time>
      </trkpt>
      <trkpt lat="45.87128" lon="3.0635">
        <ele>333</ele>
        <time>2014-08-24T12:24:03Z</time>
      </trkpt>
      <trkpt lat="45.87129" lon="3.06376">
        <ele>332</ele>
        <time>2014-08-24T12:24:06Z</time>
      </trkpt>
      <trkpt lat="45.8713" lon="3.06404">
        <ele>331</ele>
        <time>2014-08-24T12:24:09Z</time>
      </trkpt>
      <trkpt lat="45.87131" lon="3.06424">
        <ele>330</ele>
        <time>2014-08-24T12:24:11Z</time>
      </trkpt>
      <trkpt lat="45.8713" lon="3.06444">
        <ele>330</ele>
        <time>2014-08-24T12:24:13Z</time>
      </trkpt>
      <trkpt lat="45.87126" lon="3.06473">
        <ele>329</ele>
        <time>2014-08-24T12:24:16Z</time>
      </trkpt>
      <trkpt lat="45.87124" lon="3.06502">
        <ele>329</ele>
        <time>2014-08-24T12:24:19Z</time>
      </trkpt>
      <trkpt lat="45.87127" lon="3.06529">
        <ele>328</ele>
        <time>2014-08-24T12:24:22Z</time>
      </trkpt>
      <trkpt lat="45.87134" lon="3.06553">
        <ele>328</ele>
        <time>2014-08-24T12:24:25Z</time>
      </trkpt>
      <trkpt lat="45.87138" lon="3.06568">
        <ele>327</ele>
        <time>2014-08-24T12:24:27Z</time>
      </trkpt>
      <trkpt lat="45.87143" lon="3.06581">
        <ele>327</ele>
        <time>2014-08-24T12:24:29Z</time>
      </trkpt>
      <trkpt lat="45.87149" lon="3.06602">
        <ele>326</ele>
        <time>2014-08-24T12:24:32Z</time>
      </trkpt>
      <trkpt lat="45.87154" lon="3.06623">
        <ele>326</ele>
        <time>2014-08-24T12:24:35Z</time>
      </trkpt>
      <trkpt lat="45.87158" lon="3.06635">
        <ele>326</ele>
        <time>2014-08-24T12:24:37Z</time>
      </trkpt>
      <trkpt lat="45.87162" lon="3.06647">
        <ele>325</ele>
        <time>2014-08-24T12:24:39Z</time>
      </trkpt>
      <trkpt lat="45.87164" lon="3.06658">
        <ele>325</ele>
        <time>2014-08-24T12:24:42Z</time>
      </trkpt>
      <trkpt lat="45.87167" lon="3.06668">
        <ele>325</ele>
        <time>2014-08-24T12:24:45Z</time>
      </trkpt>
      <trkpt lat="45.87169" lon="3.06676">
        <ele>325</ele>
        <time>2014-08-24T12:24:47Z</time>
      </trkpt>
      <trkpt lat="45.87172" lon="3.06696">
        <ele>325</ele>
        <time>2014-08-24T12:24:50Z</time>
      </trkpt>
      <trkpt lat="45.87179" lon="3.06721">
        <ele>324</ele>
        <time>2014-08-24T12:24:53Z</time>
      </trkpt>
      <trkpt lat="45.87184" lon="3.06739">
        <ele>324</ele>
        <time>2014-08-24T12:24:55Z</time>
      </trkpt>
      <trkpt lat="45.87189" lon="3.06759">
        <ele>323</ele>
        <time>2014-08-24T12:24:57Z</time>
      </trkpt>
      <trkpt lat="45.87198" lon="3.06787">
        <ele>322</ele>
        <time>2014-08-24T12:25:00Z</time>
      </trkpt>
      <trkpt lat="45.87209" lon="3.06813">
        <ele>321</ele>
        <time>2014-08-24T12:25:03Z</time>
      </trkpt>
      <trkpt lat="45.87217" lon="3.06841">
        <ele>320</ele>
        <time>2014-08-24T12:25:06Z</time>
      </trkpt>
      <trkpt lat="45.87222" lon="3.06861">
        <ele>320</ele>
        <time>2014-08-24T12:25:08Z</time>
      </trkpt>
      <trkpt lat="45.87229" lon="3.06881">
        <ele>320</ele>
        <time>2014-08-24T12:25:10Z</time>
      </trkpt>
      <trkpt lat="45.87234" lon="3.069">
        <ele>319</ele>
        <time>2014-08-24T12:25:12Z</time>
      </trkpt>
      <trkpt lat="45.8724" lon="3.0692">
        <ele>319</ele>
        <time>2014-08-24T12:25:14Z</time>
      </trkpt>
      <trkpt lat="45.87246" lon="3.06939">
        <ele>319</ele>
        <time>2014-08-24T12:25:16Z</time>
      </trkpt>
      <trkpt lat="45.87258" lon="3.06965">
        <ele>319</ele>
        <time>2014-08-24T12:25:19Z</time>
      </trkpt>
      <trkpt lat="45.87266" lon="3.0698">
        <ele>319</ele>
        <time>2014-08-24T12:25:21Z</time>
      </trkpt>
      <trkpt lat="45.87279" lon="3.07002">
        <ele>318</ele>
        <time>2014-08-24T12:25:24Z</time>
      </trkpt>
      <trkpt lat="45.87288" lon="3.07017">
        <ele>318</ele>
        <time>2014-08-24T12:25:26Z</time>
      </trkpt>
      <trkpt lat="45.87297" lon="3.07044">
        <ele>317</ele>
        <time>2014-08-24T12:25:29Z</time>
      </trkpt>
      <trkpt lat="45.87301" lon="3.07064">
        <ele>318</ele>
        <time>2014-08-24T12:25:31Z</time>
      </trkpt>
      <trkpt lat="45.87306" lon="3.07093">
        <ele>317</ele>
        <time>2014-08-24T12:25:34Z</time>
      </trkpt>
      <trkpt lat="45.8731" lon="3.07113">
        <ele>317</ele>
        <time>2014-08-24T12:25:36Z</time>
      </trkpt>
      <trkpt lat="45.87316" lon="3.07143">
        <ele>317</ele>
        <time>2014-08-24T12:25:39Z</time>
      </trkpt>
      <trkpt lat="45.87322" lon="3.0716">
        <ele>317</ele>
        <time>2014-08-24T12:25:41Z</time>
      </trkpt>
      <trkpt lat="45.87329" lon="3.07175">
        <ele>317</ele>
        <time>2014-08-24T12:25:43Z</time>
      </trkpt>
      <trkpt lat="45.8734" lon="3.07197">
        <ele>318</ele>
        <time>2014-08-24T12:25:46Z</time>
      </trkpt>
      <trkpt lat="45.87347" lon="3.07211">
        <ele>318</ele>
        <time>2014-08-24T12:25:48Z</time>
      </trkpt>
      <trkpt lat="45.87353" lon="3.07226">
        <ele>317</ele>
        <time>2014-08-24T12:25:50Z</time>
      </trkpt>
      <trkpt lat="45.8736" lon="3.07243">
        <ele>317</ele>
        <time>2014-08-24T12:25:52Z</time>
      </trkpt>
      <trkpt lat="45.87365" lon="3.0726">
        <ele>316</ele>
        <time>2014-08-24T12:25:54Z</time>
      </trkpt>
      <trkpt lat="45.87377" lon="3.07282">
        <ele>316</ele>
        <time>2014-08-24T12:25:57Z</time>
      </trkpt>
      <trkpt lat="45.87392" lon="3.07293">
        <ele>316</ele>
        <time>2014-08-24T12:26:00Z</time>
      </trkpt>
      <trkpt lat="45.87402" lon="3.07297">
        <ele>317</ele>
        <time>2014-08-24T12:26:02Z</time>
      </trkpt>
      <trkpt lat="45.87408" lon="3.07304">
        <ele>317</ele>
        <time>2014-08-24T12:26:04Z</time>
      </trkpt>
      <trkpt lat="45.87413" lon="3.07317">
        <ele>317</ele>
        <time>2014-08-24T12:26:06Z</time>
      </trkpt>
      <trkpt lat="45.87414" lon="3.07334">
        <ele>316</ele>
        <time>2014-08-24T12:26:08Z</time>
      </trkpt>
      <trkpt lat="45.87417" lon="3.07362">
        <ele>315</ele>
        <time>2014-08-24T12:26:11Z</time>
      </trkpt>
      <trkpt lat="45.87421" lon="3.07378">
        <ele>315</ele>
        <time>2014-08-24T12:26:13Z</time>
      </trkpt>
      <trkpt lat="45.87425" lon="3.07395">
        <ele>314</ele>
        <time>2014-08-24T12:26:15Z</time>
      </trkpt>
      <trkpt lat="45.8743" lon="3.07411">
        <ele>315</ele>
        <time>2014-08-24T12:26:17Z</time>
      </trkpt>
      <trkpt lat="45.87436" lon="3.07427">
        <ele>314</ele>
        <time>2014-08-24T12:26:19Z</time>
      </trkpt>
      <trkpt lat="45.87442" lon="3.07442">
        <ele>314</ele>
        <time>2014-08-24T12:26:21Z</time>
      </trkpt>
      <trkpt lat="45.87452" lon="3.07466">
        <ele>315</ele>
        <time>2014-08-24T12:26:24Z</time>
      </trkpt>
      <trkpt lat="45.87457" lon="3.07483">
        <ele>314</ele>
        <time>2014-08-24T12:26:26Z</time>
      </trkpt>
      <trkpt lat="45.87463" lon="3.07499">
        <ele>314</ele>
        <time>2014-08-24T12:26:28Z</time>
      </trkpt>
      <trkpt lat="45.87468" lon="3.07517">
        <ele>314</ele>
        <time>2014-08-24T12:26:30Z</time>
      </trkpt>
      <trkpt lat="45.87473" lon="3.07534">
        <ele>314</ele>
        <time>2014-08-24T12:26:32Z</time>
      </trkpt>
      <trkpt lat="45.87479" lon="3.07552">
        <ele>314</ele>
        <time>2014-08-24T12:26:34Z</time>
      </trkpt>
      <trkpt lat="45.87484" lon="3.07569">
        <ele>314</ele>
        <time>2014-08-24T12:26:36Z</time>
      </trkpt>
      <trkpt lat="45.8749" lon="3.07595">
        <ele>314</ele>
        <time>2014-08-24T12:26:39Z</time>
      </trkpt>
      <trkpt lat="45.87494" lon="3.07611">
        <ele>314</ele>
        <time>2014-08-24T12:26:41Z</time>
      </trkpt>
      <trkpt lat="45.87499" lon="3.07628">
        <ele>314</ele>
        <time>2014-08-24T12:26:43Z</time>
      </trkpt>
      <trkpt lat="45.87502" lon="3.07646">
        <ele>314</ele>
        <time>2014-08-24T12:26:45Z</time>
      </trkpt>
      <trkpt lat="45.87506" lon="3.07663">
        <ele>314</ele>
        <time>2014-08-24T12:26:47Z</time>
      </trkpt>
      <trkpt lat="45.87513" lon="3.07681">
        <ele>314</ele>
        <time>2014-08-24T12:26:49Z</time>
      </trkpt>
      <trkpt lat="45.87527" lon="3.07702">
        <ele>313</ele>
        <time>2014-08-24T12:26:52Z</time>
      </trkpt>
      <trkpt lat="45.8754" lon="3.07725">
        <ele>312</ele>
        <time>2014-08-24T12:26:55Z</time>
      </trkpt>
      <trkpt lat="45.87548" lon="3.07741">
        <ele>311</ele>
        <time>2014-08-24T12:26:57Z</time>
      </trkpt>
      <trkpt lat="45.87556" lon="3.07757">
        <ele>311</ele>
        <time>2014-08-24T12:26:59Z</time>
      </trkpt>
      <trkpt lat="45.87566" lon="3.07782">
        <ele>311</ele>
        <time>2014-08-24T12:27:02Z</time>
      </trkpt>
      <trkpt lat="45.87574" lon="3.07798">
        <ele>311</ele>
        <time>2014-08-24T12:27:04Z</time>
      </trkpt>
      <trkpt lat="45.8758" lon="3.07814">
        <ele>311</ele>
        <time>2014-08-24T12:27:06Z</time>
      </trkpt>
      <trkpt lat="45.87591" lon="3.07839">
        <ele>310</ele>
        <time>2014-08-24T12:27:09Z</time>
      </trkpt>
      <trkpt lat="45.87597" lon="3.07857">
        <ele>310</ele>
        <time>2014-08-24T12:27:11Z</time>
      </trkpt>
      <trkpt lat="45.87602" lon="3.07874">
        <ele>310</ele>
        <time>2014-08-24T12:27:13Z</time>
      </trkpt>
      <trkpt lat="45.87607" lon="3.07891">
        <ele>310</ele>
        <time>2014-08-24T12:27:15Z</time>
      </trkpt>
      <trkpt lat="45.87611" lon="3.07907">
        <ele>309</ele>
        <time>2014-08-24T12:27:17Z</time>
      </trkpt>
      <trkpt lat="45.87615" lon="3.07923">
        <ele>309</ele>
        <time>2014-08-24T12:27:19Z</time>
      </trkpt>
      <trkpt lat="45.87621" lon="3.07948">
        <ele>309</ele>
        <time>2014-08-24T12:27:22Z</time>
      </trkpt>
      <trkpt lat="45.87625" lon="3.07965">
        <ele>309</ele>
        <time>2014-08-24T12:27:24Z</time>
      </trkpt>
      <trkpt lat="45.87628" lon="3.07981">
        <ele>309</ele>
        <time>2014-08-24T12:27:26Z</time>
      </trkpt>
      <trkpt lat="45.87633" lon="3.07995">
        <ele>309</ele>
        <time>2014-08-24T12:27:28Z</time>
      </trkpt>
      <trkpt lat="45.87638" lon="3.08009">
        <ele>309</ele>
        <time>2014-08-24T12:27:30Z</time>
      </trkpt>
      <trkpt lat="45.87642" lon="3.0802">
        <ele>309</ele>
        <time>2014-08-24T12:27:32Z</time>
      </trkpt>
      <trkpt lat="45.87646" lon="3.08031">
        <ele>309</ele>
        <time>2014-08-24T12:27:34Z</time>
      </trkpt>
      <trkpt lat="45.87653" lon="3.08048">
        <ele>308</ele>
        <time>2014-08-24T12:27:37Z</time>
      </trkpt>
      <trkpt lat="45.87656" lon="3.08058">
        <ele>308</ele>
        <time>2014-08-24T12:27:39Z</time>
      </trkpt>
      <trkpt lat="45.87661" lon="3.08074">
        <ele>308</ele>
        <time>2014-08-24T12:27:42Z</time>
      </trkpt>
      <trkpt lat="45.87666" lon="3.08084">
        <ele>307</ele>
        <time>2014-08-24T12:27:44Z</time>
      </trkpt>
      <trkpt lat="45.8767" lon="3.08095">
        <ele>307</ele>
        <time>2014-08-24T12:27:46Z</time>
      </trkpt>
      <trkpt lat="45.87678" lon="3.08111">
        <ele>307</ele>
        <time>2014-08-24T12:27:49Z</time>
      </trkpt>
      <trkpt lat="45.87683" lon="3.08122">
        <ele>306</ele>
        <time>2014-08-24T12:27:51Z</time>
      </trkpt>
      <trkpt lat="45.8769" lon="3.0814">
        <ele>306</ele>
        <time>2014-08-24T12:27:54Z</time>
      </trkpt>
      <trkpt lat="45.87696" lon="3.08152">
        <ele>307</ele>
        <time>2014-08-24T12:27:56Z</time>
      </trkpt>
      <trkpt lat="45.87701" lon="3.08164">
        <ele>306</ele>
        <time>2014-08-24T12:27:58Z</time>
      </trkpt>
      <trkpt lat="45.8771" lon="3.08177">
        <ele>306</ele>
        <time>2014-08-24T12:28:01Z</time>
      </trkpt>
      <trkpt lat="45.8772" lon="3.08189">
        <ele>306</ele>
        <time>2014-08-24T12:28:03Z</time>
      </trkpt>
      <trkpt lat="45.87722" lon="3.08191">
        <ele>305</ele>
        <time>2014-08-24T12:28:05Z</time>
      </trkpt>
      <trkpt lat="45.87725" lon="3.08196">
        <ele>305</ele>
        <time>2014-08-24T12:28:07Z</time>
      </trkpt>
      <trkpt lat="45.87728" lon="3.08209">
        <ele>305</ele>
        <time>2014-08-24T12:28:10Z</time>
      </trkpt>
      <trkpt lat="45.87728" lon="3.08222">
        <ele>305</ele>
        <time>2014-08-24T12:28:12Z</time>
      </trkpt>
      <trkpt lat="45.87732" lon="3.08239">
        <ele>304</ele>
        <time>2014-08-24T12:28:15Z</time>
      </trkpt>
      <trkpt lat="45.87736" lon="3.08247">
        <ele>304</ele>
        <time>2014-08-24T12:28:18Z</time>
      </trkpt>
      <trkpt lat="45.87734" lon="3.08242">
        <ele>304</ele>
        <time>2014-08-24T12:28:20Z</time>
      </trkpt>
      <trkpt lat="45.87732" lon="3.08236">
        <ele>304</ele>
        <time>2014-08-24T12:28:22Z</time>
      </trkpt>
      <trkpt lat="45.87727" lon="3.08227">
        <ele>304</ele>
        <time>2014-08-24T12:28:24Z</time>
      </trkpt>
      <trkpt lat="45.87719" lon="3.0822">
        <ele>304</ele>
        <time>2014-08-24T12:28:27Z</time>
      </trkpt>
      <trkpt lat="45.87711" lon="3.08226">
        <ele>304</ele>
        <time>2014-08-24T12:28:29Z</time>
      </trkpt>
      <trkpt lat="45.87703" lon="3.08236">
        <ele>303</ele>
        <time>2014-08-24T12:28:31Z</time>
      </trkpt>
      <trkpt lat="45.87693" lon="3.08253">
        <ele>302</ele>
        <time>2014-08-24T12:28:34Z</time>
      </trkpt>
      <trkpt lat="45.87681" lon="3.08265">
        <ele>302</ele>
        <time>2014-08-24T12:28:37Z</time>
      </trkpt>
      <trkpt lat="45.87672" lon="3.08266">
        <ele>302</ele>
        <time>2014-08-24T12:28:39Z</time>
      </trkpt>
      <trkpt lat="45.87658" lon="3.0827">
        <ele>301</ele>
        <time>2014-08-24T12:28:42Z</time>
      </trkpt>
      <trkpt lat="45.87648" lon="3.08273">
        <ele>301</ele>
        <time>2014-08-24T12:28:44Z</time>
      </trkpt>
      <trkpt lat="45.87632" lon="3.0828">
        <ele>301</ele>
        <time>2014-08-24T12:28:47Z</time>
      </trkpt>
      <trkpt lat="45.87622" lon="3.08298">
        <ele>300</ele>
        <time>2014-08-24T12:28:50Z</time>
      </trkpt>
      <trkpt lat="45.87619" lon="3.08324">
        <ele>299</ele>
        <time>2014-08-24T12:28:53Z</time>
      </trkpt>
      <trkpt lat="45.87615" lon="3.08342">
        <ele>298</ele>
        <time>2014-08-24T12:28:55Z</time>
      </trkpt>
      <trkpt lat="45.87613" lon="3.08367">
        <ele>297</ele>
        <time>2014-08-24T12:28:58Z</time>
      </trkpt>
      <trkpt lat="45.87615" lon="3.08388">
        <ele>295</ele>
        <time>2014-08-24T12:29:01Z</time>
      </trkpt>
      <trkpt lat="45.87616" lon="3.08405">
        <ele>294</ele>
        <time>2014-08-24T12:29:04Z</time>
      </trkpt>
      <trkpt lat="45.87621" lon="3.08425">
        <ele>293</ele>
        <time>2014-08-24T12:29:07Z</time>
      </trkpt>
      <trkpt lat="45.87631" lon="3.08442">
        <ele>293</ele>
        <time>2014-08-24T12:29:10Z</time>
      </trkpt>
      <trkpt lat="45.87641" lon="3.0846">
        <ele>292</ele>
        <time>2014-08-24T12:29:13Z</time>
      </trkpt>
      <trkpt lat="45.87642" lon="3.08484">
        <ele>291</ele>
        <time>2014-08-24T12:29:16Z</time>
      </trkpt>
      <trkpt lat="45.87628" lon="3.08503">
        <ele>291</ele>
        <time>2014-08-24T12:29:19Z</time>
      </trkpt>
      <trkpt lat="45.87614" lon="3.0853">
        <ele>289</ele>
        <time>2014-08-24T12:29:22Z</time>
      </trkpt>
      <trkpt lat="45.87605" lon="3.0855">
        <ele>288</ele>
        <time>2014-08-24T12:29:24Z</time>
      </trkpt>
      <trkpt lat="45.87591" lon="3.08581">
        <ele>287</ele>
        <time>2014-08-24T12:29:27Z</time>
      </trkpt>
      <trkpt lat="45.87585" lon="3.08617">
        <ele>285</ele>
        <time>2014-08-24T12:29:30Z</time>
      </trkpt>
      <trkpt lat="45.87584" lon="3.08641">
        <ele>285</ele>
        <time>2014-08-24T12:29:32Z</time>
      </trkpt>
      <trkpt lat="45.87586" lon="3.08676">
        <ele>283</ele>
        <time>2014-08-24T12:29:35Z</time>
      </trkpt>
      <trkpt lat="45.87585" lon="3.08698">
        <ele>283</ele>
        <time>2014-08-24T12:29:37Z</time>
      </trkpt>
      <trkpt lat="45.87579" lon="3.08718">
        <ele>282</ele>
        <time>2014-08-24T12:29:39Z</time>
      </trkpt>
      <trkpt lat="45.8757" lon="3.08734">
        <ele>282</ele>
        <time>2014-08-24T12:29:41Z</time>
      </trkpt>
      <trkpt lat="45.87556" lon="3.08758">
        <ele>280</ele>
        <time>2014-08-24T12:29:44Z</time>
      </trkpt>
      <trkpt lat="45.87549" lon="3.08775">
        <ele>280</ele>
        <time>2014-08-24T12:29:46Z</time>
      </trkpt>
      <trkpt lat="45.8755" lon="3.08806">
        <ele>280</ele>
        <time>2014-08-24T12:29:49Z</time>
      </trkpt>
      <trkpt lat="45.87556" lon="3.08826">
        <ele>280</ele>
        <time>2014-08-24T12:29:51Z</time>
      </trkpt>
      <trkpt lat="45.87563" lon="3.08846">
        <ele>280</ele>
        <time>2014-08-24T12:29:53Z</time>
      </trkpt>
      <trkpt lat="45.87569" lon="3.08879">
        <ele>281</ele>
        <time>2014-08-24T12:29:56Z</time>
      </trkpt>
      <trkpt lat="45.87571" lon="3.08902">
        <ele>281</ele>
        <time>2014-08-24T12:29:58Z</time>
      </trkpt>
      <trkpt lat="45.87574" lon="3.08923">
        <ele>282</ele>
        <time>2014-08-24T12:30:00Z</time>
      </trkpt>
      <trkpt lat="45.87575" lon="3.08943">
        <ele>282</ele>
        <time>2014-08-24T12:30:02Z</time>
      </trkpt>
      <trkpt lat="45.87577" lon="3.08972">
        <ele>282</ele>
        <time>2014-08-24T12:30:05Z</time>
      </trkpt>
      <trkpt lat="45.87577" lon="3.08998">
        <ele>282</ele>
        <time>2014-08-24T12:30:08Z</time>
      </trkpt>
      <trkpt lat="45.87578" lon="3.09014">
        <ele>282</ele>
        <time>2014-08-24T12:30:10Z</time>
      </trkpt>
      <trkpt lat="45.87578" lon="3.09036">
        <ele>282</ele>
        <time>2014-08-24T12:30:13Z</time>
      </trkpt>
      <trkpt lat="45.87578" lon="3.09054">
        <ele>282</ele>
        <time>2014-08-24T12:30:16Z</time>
      </trkpt>
      <trkpt lat="45.87578" lon="3.09066">
        <ele>282</ele>
        <time>2014-08-24T12:30:18Z</time>
      </trkpt>
      <trkpt lat="45.87578" lon="3.09081">
        <ele>282</ele>
        <time>2014-08-24T12:30:21Z</time>
      </trkpt>
      <trkpt lat="45.87581" lon="3.09081">
        <ele>281</ele>
        <time>2014-08-24T12:30:23Z</time>
      </trkpt>
      <trkpt lat="45.87581" lon="3.09073">
        <ele>281</ele>
        <time>2014-08-24T12:30:25Z</time>
      </trkpt>
      <trkpt lat="45.8758" lon="3.09059">
        <ele>281</ele>
        <time>2014-08-24T12:30:28Z</time>
      </trkpt>
      <trkpt lat="45.87585" lon="3.09055">
        <ele>282</ele>
        <time>2014-08-24T12:30:31Z</time>
      </trkpt>
      <trkpt lat="45.87587" lon="3.09065">
        <ele>282</ele>
        <time>2014-08-24T12:30:34Z</time>
      </trkpt>
      <trkpt lat="45.8759" lon="3.09079">
        <ele>283</ele>
        <time>2014-08-24T12:30:37Z</time>
      </trkpt>
      <trkpt lat="45.87591" lon="3.09088">
        <ele>283</ele>
        <time>2014-08-24T12:30:39Z</time>
      </trkpt>
      <trkpt lat="45.87592" lon="3.091">
        <ele>284</ele>
        <time>2014-08-24T12:30:41Z</time>
      </trkpt>
      <trkpt lat="45.87595" lon="3.09117">
        <ele>285</ele>
        <time>2014-08-24T12:30:44Z</time>
      </trkpt>
      <trkpt lat="45.87595" lon="3.0913">
        <ele>285</ele>
        <time>2014-08-24T12:30:46Z</time>
      </trkpt>
      <trkpt lat="45.87599" lon="3.09149">
        <ele>285</ele>
        <time>2014-08-24T12:30:49Z</time>
      </trkpt>
      <trkpt lat="45.87603" lon="3.09161">
        <ele>285</ele>
        <time>2014-08-24T12:30:51Z</time>
      </trkpt>
      <trkpt lat="45.87607" lon="3.09174">
        <ele>285</ele>
        <time>2014-08-24T12:30:53Z</time>
      </trkpt>
      <trkpt lat="45.8761" lon="3.09187">
        <ele>284</ele>
        <time>2014-08-24T12:30:55Z</time>
      </trkpt>
      <trkpt lat="45.87613" lon="3.09202">
        <ele>284</ele>
        <time>2014-08-24T12:30:58Z</time>
      </trkpt>
      <trkpt lat="45.87616" lon="3.09217">
        <ele>284</ele>
        <time>2014-08-24T12:31:01Z</time>
      </trkpt>
      <trkpt lat="45.8762" lon="3.09228">
        <ele>284</ele>
        <time>2014-08-24T12:31:03Z</time>
      </trkpt>
      <trkpt lat="45.87624" lon="3.09247">
        <ele>284</ele>
        <time>2014-08-24T12:31:06Z</time>
      </trkpt>
      <trkpt lat="45.8763" lon="3.09268">
        <ele>284</ele>
        <time>2014-08-24T12:31:09Z</time>
      </trkpt>
      <trkpt lat="45.87635" lon="3.09283">
        <ele>284</ele>
        <time>2014-08-24T12:31:11Z</time>
      </trkpt>
      <trkpt lat="45.87642" lon="3.09307">
        <ele>283</ele>
        <time>2014-08-24T12:31:14Z</time>
      </trkpt>
      <trkpt lat="45.87646" lon="3.09323">
        <ele>283</ele>
        <time>2014-08-24T12:31:16Z</time>
      </trkpt>
      <trkpt lat="45.8765" lon="3.09338">
        <ele>283</ele>
        <time>2014-08-24T12:31:18Z</time>
      </trkpt>
      <trkpt lat="45.87654" lon="3.09359">
        <ele>283</ele>
        <time>2014-08-24T12:31:21Z</time>
      </trkpt>
      <trkpt lat="45.87656" lon="3.09379">
        <ele>282</ele>
        <time>2014-08-24T12:31:24Z</time>
      </trkpt>
      <trkpt lat="45.87658" lon="3.09393">
        <ele>282</ele>
        <time>2014-08-24T12:31:26Z</time>
      </trkpt>
      <trkpt lat="45.8766" lon="3.09406">
        <ele>281</ele>
        <time>2014-08-24T12:31:28Z</time>
      </trkpt>
      <trkpt lat="45.87661" lon="3.09425">
        <ele>281</ele>
        <time>2014-08-24T12:31:31Z</time>
      </trkpt>
      <trkpt lat="45.87661" lon="3.09438">
        <ele>281</ele>
        <time>2014-08-24T12:31:33Z</time>
      </trkpt>
      <trkpt lat="45.87662" lon="3.09451">
        <ele>281</ele>
        <time>2014-08-24T12:31:35Z</time>
      </trkpt>
      <trkpt lat="45.87663" lon="3.09464">
        <ele>281</ele>
        <time>2014-08-24T12:31:37Z</time>
      </trkpt>
      <trkpt lat="45.87665" lon="3.09476">
        <ele>281</ele>
        <time>2014-08-24T12:31:39Z</time>
      </trkpt>
      <trkpt lat="45.87666" lon="3.09493">
        <ele>281</ele>
        <time>2014-08-24T12:31:42Z</time>
      </trkpt>
      <trkpt lat="45.87667" lon="3.09505">
        <ele>281</ele>
        <time>2014-08-24T12:31:44Z</time>
      </trkpt>
      <trkpt lat="45.87668" lon="3.0952">
        <ele>280</ele>
        <time>2014-08-24T12:31:46Z</time>
      </trkpt>
      <trkpt lat="45.8767" lon="3.09541">
        <ele>281</ele>
        <time>2014-08-24T12:31:49Z</time>
      </trkpt>
      <trkpt lat="45.87672" lon="3.09564">
        <ele>281</ele>
        <time>2014-08-24T12:31:52Z</time>
      </trkpt>
      <trkpt lat="45.87674" lon="3.09591">
        <ele>281</ele>
        <time>2014-08-24T12:31:55Z</time>
      </trkpt>
      <trkpt lat="45.87674" lon="3.09608">
        <ele>281</ele>
        <time>2014-08-24T12:31:57Z</time>
      </trkpt>
      <trkpt lat="45.87676" lon="3.09633">
        <ele>281</ele>
        <time>2014-08-24T12:32:00Z</time>
      </trkpt>
      <trkpt lat="45.87677" lon="3.09648">
        <ele>281</ele>
        <time>2014-08-24T12:32:02Z</time>
      </trkpt>
      <trkpt lat="45.87679" lon="3.09663">
        <ele>280</ele>
        <time>2014-08-24T12:32:04Z</time>
      </trkpt>
      <trkpt lat="45.87682" lon="3.09683">
        <ele>280</ele>
        <time>2014-08-24T12:32:07Z</time>
      </trkpt>
      <trkpt lat="45.87684" lon="3.09696">
        <ele>280</ele>
        <time>2014-08-24T12:32:09Z</time>
      </trkpt>
      <trkpt lat="45.87687" lon="3.09715">
        <ele>279</ele>
        <time>2014-08-24T12:32:12Z</time>
      </trkpt>
      <trkpt lat="45.87689" lon="3.09728">
        <ele>280</ele>
        <time>2014-08-24T12:32:14Z</time>
      </trkpt>
      <trkpt lat="45.87691" lon="3.09741">
        <ele>280</ele>
        <time>2014-08-24T12:32:16Z</time>
      </trkpt>
      <trkpt lat="45.87693" lon="3.09763">
        <ele>280</ele>
        <time>2014-08-24T12:32:19Z</time>
      </trkpt>
      <trkpt lat="45.87695" lon="3.09779">
        <ele>279</ele>
        <time>2014-08-24T12:32:21Z</time>
      </trkpt>
      <trkpt lat="45.877" lon="3.09802">
        <ele>278</ele>
        <time>2014-08-24T12:32:24Z</time>
      </trkpt>
      <trkpt lat="45.87706" lon="3.09816">
        <ele>278</ele>
        <time>2014-08-24T12:32:26Z</time>
      </trkpt>
      <trkpt lat="45.87715" lon="3.09823">
        <ele>278</ele>
        <time>2014-08-24T12:32:28Z</time>
      </trkpt>
      <trkpt lat="45.87725" lon="3.09823">
        <ele>278</ele>
        <time>2014-08-24T12:32:30Z</time>
      </trkpt>
      <trkpt lat="45.87734" lon="3.09821">
        <ele>278</ele>
        <time>2014-08-24T12:32:32Z</time>
      </trkpt>
      <trkpt lat="45.87742" lon="3.0982">
        <ele>279</ele>
        <time>2014-08-24T12:32:34Z</time>
      </trkpt>
      <trkpt lat="45.87754" lon="3.09816">
        <ele>279</ele>
        <time>2014-08-24T12:32:37Z</time>
      </trkpt>
      <trkpt lat="45.87765" lon="3.09812">
        <ele>280</ele>
        <time>2014-08-24T12:32:40Z</time>
      </trkpt>
      <trkpt lat="45.87778" lon="3.09807">
        <ele>280</ele>
        <time>2014-08-24T12:32:43Z</time>
      </trkpt>
      <trkpt lat="45.8779" lon="3.09805">
        <ele>280</ele>
        <time>2014-08-24T12:32:45Z</time>
      </trkpt>
      <trkpt lat="45.87807" lon="3.098">
        <ele>280</ele>
        <time>2014-08-24T12:32:48Z</time>
      </trkpt>
      <trkpt lat="45.87825" lon="3.09792">
        <ele>278</ele>
        <time>2014-08-24T12:32:51Z</time>
      </trkpt>
      <trkpt lat="45.87843" lon="3.09784">
        <ele>276</ele>
        <time>2014-08-24T12:32:54Z</time>
      </trkpt>
      <trkpt lat="45.87853" lon="3.0978">
        <ele>275</ele>
        <time>2014-08-24T12:32:56Z</time>
      </trkpt>
      <trkpt lat="45.87865" lon="3.0978">
        <ele>274</ele>
        <time>2014-08-24T12:32:58Z</time>
      </trkpt>
      <trkpt lat="45.87884" lon="3.09775">
        <ele>273</ele>
        <time>2014-08-24T12:33:01Z</time>
      </trkpt>
      <trkpt lat="45.87897" lon="3.09772">
        <ele>273</ele>
        <time>2014-08-24T12:33:03Z</time>
      </trkpt>
      <trkpt lat="45.87909" lon="3.0977">
        <ele>273</ele>
        <time>2014-08-24T12:33:05Z</time>
      </trkpt>
      <trkpt lat="45.87926" lon="3.09766">
        <ele>272</ele>
        <time>2014-08-24T12:33:08Z</time>
      </trkpt>
      <trkpt lat="45.87935" lon="3.09762">
        <ele>271</ele>
        <time>2014-08-24T12:33:10Z</time>
      </trkpt>
      <trkpt lat="45.87944" lon="3.09757">
        <ele>272</ele>
        <time>2014-08-24T12:33:13Z</time>
      </trkpt>
      <trkpt lat="45.87949" lon="3.09753">
        <ele>272</ele>
        <time>2014-08-24T12:33:15Z</time>
      </trkpt>
      <trkpt lat="45.87961" lon="3.09745">
        <ele>272</ele>
        <time>2014-08-24T12:33:18Z</time>
      </trkpt>
      <trkpt lat="45.87973" lon="3.09739">
        <ele>272</ele>
        <time>2014-08-24T12:33:21Z</time>
      </trkpt>
      <trkpt lat="45.87983" lon="3.09736">
        <ele>272</ele>
        <time>2014-08-24T12:33:23Z</time>
      </trkpt>
      <trkpt lat="45.87997" lon="3.09731">
        <ele>272</ele>
        <time>2014-08-24T12:33:26Z</time>
      </trkpt>
      <trkpt lat="45.88012" lon="3.09726">
        <ele>272</ele>
        <time>2014-08-24T12:33:29Z</time>
      </trkpt>
      <trkpt lat="45.88026" lon="3.09722">
        <ele>272</ele>
        <time>2014-08-24T12:33:32Z</time>
      </trkpt>
      <trkpt lat="45.88036" lon="3.09719">
        <ele>273</ele>
        <time>2014-08-24T12:33:34Z</time>
      </trkpt>
      <trkpt lat="45.88049" lon="3.09714">
        <ele>272</ele>
        <time>2014-08-24T12:33:37Z</time>
      </trkpt>
      <trkpt lat="45.88058" lon="3.0971">
        <ele>272</ele>
        <time>2014-08-24T12:33:39Z</time>
      </trkpt>
      <trkpt lat="45.88072" lon="3.09703">
        <ele>273</ele>
        <time>2014-08-24T12:33:42Z</time>
      </trkpt>
      <trkpt lat="45.8808" lon="3.09698">
        <ele>273</ele>
        <time>2014-08-24T12:33:44Z</time>
      </trkpt>
      <trkpt lat="45.88088" lon="3.09692">
        <ele>273</ele>
        <time>2014-08-24T12:33:46Z</time>
      </trkpt>
      <trkpt lat="45.88099" lon="3.09684">
        <ele>274</ele>
        <time>2014-08-24T12:33:49Z</time>
      </trkpt>
      <trkpt lat="45.88105" lon="3.0968">
        <ele>274</ele>
        <time>2014-08-24T12:33:51Z</time>
      </trkpt>
      <trkpt lat="45.8811" lon="3.09676">
        <ele>274</ele>
        <time>2014-08-24T12:33:53Z</time>
      </trkpt>
      <trkpt lat="45.88115" lon="3.09671">
        <ele>274</ele>
        <time>2014-08-24T12:33:55Z</time>
      </trkpt>
      <trkpt lat="45.8812" lon="3.09666">
        <ele>274</ele>
        <time>2014-08-24T12:33:57Z</time>
      </trkpt>
      <trkpt lat="45.88124" lon="3.09662">
        <ele>275</ele>
        <time>2014-08-24T12:33:59Z</time>
      </trkpt>
      <trkpt lat="45.88126" lon="3.09664">
        <ele>276</ele>
        <time>2014-08-24T12:34:01Z</time>
      </trkpt>
      <trkpt lat="45.88128" lon="3.09666">
        <ele>276</ele>
        <time>2014-08-24T12:34:03Z</time>
      </trkpt>
      <trkpt lat="45.88128" lon="3.09666">
        <ele>276</ele>
        <time>2014-08-24T12:34:05Z</time>
      </trkpt>
      <trkpt lat="45.88128" lon="3.09666">
        <ele>276</ele>
        <time>2014-08-24T12:34:08Z</time>
      </trkpt>
      <trkpt lat="45.88121" lon="3.0968">
        <ele>277</ele>
        <time>2014-08-24T12:34:10Z</time>
      </trkpt>
      <trkpt lat="45.88111" lon="3.09691">
        <ele>277</ele>
        <time>2014-08-24T12:34:13Z</time>
      </trkpt>
      <trkpt lat="45.88102" lon="3.09699">
        <ele>276</ele>
        <time>2014-08-24T12:34:15Z</time>
      </trkpt>
      <trkpt lat="45.88092" lon="3.09707">
        <ele>276</ele>
        <time>2014-08-24T12:34:17Z</time>
      </trkpt>
      <trkpt lat="45.88081" lon="3.09716">
        <ele>276</ele>
        <time>2014-08-24T12:34:19Z</time>
      </trkpt>
      <trkpt lat="45.88069" lon="3.09724">
        <ele>276</ele>
        <time>2014-08-24T12:34:21Z</time>
      </trkpt>
      <trkpt lat="45.88049" lon="3.09738">
        <ele>276</ele>
        <time>2014-08-24T12:34:24Z</time>
      </trkpt>
      <trkpt lat="45.88034" lon="3.09747">
        <ele>276</ele>
        <time>2014-08-24T12:34:26Z</time>
      </trkpt>
      <trkpt lat="45.88011" lon="3.09759">
        <ele>276</ele>
        <time>2014-08-24T12:34:29Z</time>
      </trkpt>
      <trkpt lat="45.87997" lon="3.09767">
        <ele>276</ele>
        <time>2014-08-24T12:34:31Z</time>
      </trkpt>
      <trkpt lat="45.87984" lon="3.09777">
        <ele>276</ele>
        <time>2014-08-24T12:34:33Z</time>
      </trkpt>
      <trkpt lat="45.87966" lon="3.09792">
        <ele>275</ele>
        <time>2014-08-24T12:34:36Z</time>
      </trkpt>
      <trkpt lat="45.87951" lon="3.09803">
        <ele>275</ele>
        <time>2014-08-24T12:34:39Z</time>
      </trkpt>
      <trkpt lat="45.87949" lon="3.09823">
        <ele>274</ele>
        <time>2014-08-24T12:34:42Z</time>
      </trkpt>
      <trkpt lat="45.87951" lon="3.09842">
        <ele>273</ele>
        <time>2014-08-24T12:34:44Z</time>
      </trkpt>
      <trkpt lat="45.8795" lon="3.09872">
        <ele>272</ele>
        <time>2014-08-24T12:34:47Z</time>
      </trkpt>
      <trkpt lat="45.87946" lon="3.09889">
        <ele>271</ele>
        <time>2014-08-24T12:34:49Z</time>
      </trkpt>
      <trkpt lat="45.8794" lon="3.09904">
        <ele>270</ele>
        <time>2014-08-24T12:34:51Z</time>
      </trkpt>
      <trkpt lat="45.87932" lon="3.09924">
        <ele>270</ele>
        <time>2014-08-24T12:34:54Z</time>
      </trkpt>
      <trkpt lat="45.87927" lon="3.09945">
        <ele>270</ele>
        <time>2014-08-24T12:34:57Z</time>
      </trkpt>
      <trkpt lat="45.87922" lon="3.09965">
        <ele>270</ele>
        <time>2014-08-24T12:35:00Z</time>
      </trkpt>
      <trkpt lat="45.87919" lon="3.09987">
        <ele>270</ele>
        <time>2014-08-24T12:35:03Z</time>
      </trkpt>
      <trkpt lat="45.87916" lon="3.10008">
        <ele>270</ele>
        <time>2014-08-24T12:35:06Z</time>
      </trkpt>
      <trkpt lat="45.87915" lon="3.10022">
        <ele>269</ele>
        <time>2014-08-24T12:35:08Z</time>
      </trkpt>
      <trkpt lat="45.87914" lon="3.10045">
        <ele>269</ele>
        <time>2014-08-24T12:35:11Z</time>
      </trkpt>
      <trkpt lat="45.87912" lon="3.10059">
        <ele>269</ele>
        <time>2014-08-24T12:35:13Z</time>
      </trkpt>
      <trkpt lat="45.87912" lon="3.10071">
        <ele>269</ele>
        <time>2014-08-24T12:35:15Z</time>
      </trkpt>
      <trkpt lat="45.87912" lon="3.10084">
        <ele>268</ele>
        <time>2014-08-24T12:35:18Z</time>
      </trkpt>
      <trkpt lat="45.87912" lon="3.1009">
        <ele>268</ele>
        <time>2014-08-24T12:35:20Z</time>
      </trkpt>
      <trkpt lat="45.87912" lon="3.10097">
        <ele>268</ele>
        <time>2014-08-24T12:35:23Z</time>
      </trkpt>
      <trkpt lat="45.87912" lon="3.101">
        <ele>268</ele>
        <time>2014-08-24T12:35:25Z</time>
      </trkpt>
      <trkpt lat="45.87908" lon="3.10101">
        <ele>268</ele>
        <time>2014-08-24T12:35:27Z</time>
      </trkpt>
      <trkpt lat="45.87897" lon="3.10104">
        <ele>268</ele>
        <time>2014-08-24T12:35:30Z</time>
      </trkpt>
      <trkpt lat="45.87888" lon="3.10106">
        <ele>268</ele>
        <time>2014-08-24T12:35:32Z</time>
      </trkpt>
      <trkpt lat="45.87878" lon="3.10107">
        <ele>268</ele>
        <time>2014-08-24T12:35:34Z</time>
      </trkpt>
      <trkpt lat="45.87865" lon="3.10109">
        <ele>268</ele>
        <time>2014-08-24T12:35:37Z</time>
      </trkpt>
      <trkpt lat="45.87858" lon="3.1011">
        <ele>268</ele>
        <time>2014-08-24T12:35:39Z</time>
      </trkpt>
      <trkpt lat="45.87851" lon="3.10112">
        <ele>268</ele>
        <time>2014-08-24T12:35:42Z</time>
      </trkpt>
      <trkpt lat="45.87847" lon="3.10116">
        <ele>268</ele>
        <time>2014-08-24T12:35:45Z</time>
      </trkpt>
      <trkpt lat="45.87848" lon="3.10125">
        <ele>268</ele>
        <time>2014-08-24T12:35:48Z</time>
      </trkpt>
      <trkpt lat="45.87848" lon="3.10129">
        <ele>268</ele>
        <time>2014-08-24T12:35:50Z</time>
      </trkpt>
      <trkpt lat="45.87846" lon="3.10132">
        <ele>268</ele>
        <time>2014-08-24T12:35:53Z</time>
      </trkpt>
      <trkpt lat="45.87844" lon="3.10133">
        <ele>268</ele>
        <time>2014-08-24T12:35:55Z</time>
      </trkpt>
      <trkpt lat="45.87838" lon="3.10132">
        <ele>268</ele>
        <time>2014-08-24T12:35:58Z</time>
      </trkpt>
      <trkpt lat="45.87831" lon="3.10133">
        <ele>268</ele>
        <time>2014-08-24T12:36:01Z</time>
      </trkpt>
      <trkpt lat="45.87825" lon="3.10134">
        <ele>268</ele>
        <time>2014-08-24T12:36:03Z</time>
      </trkpt>
      <trkpt lat="45.87815" lon="3.10136">
        <ele>268</ele>
        <time>2014-08-24T12:36:06Z</time>
      </trkpt>
      <trkpt lat="45.87809" lon="3.10137">
        <ele>268</ele>
        <time>2014-08-24T12:36:08Z</time>
      </trkpt>
      <trkpt lat="45.87799" lon="3.10138">
        <ele>268</ele>
        <time>2014-08-24T12:36:11Z</time>
      </trkpt>
      <trkpt lat="45.87792" lon="3.10139">
        <ele>269</ele>
        <time>2014-08-24T12:36:13Z</time>
      </trkpt>
      <trkpt lat="45.87786" lon="3.10139">
        <ele>268</ele>
        <time>2014-08-24T12:36:15Z</time>
      </trkpt>
      <trkpt lat="45.87782" lon="3.10144">
        <ele>268</ele>
        <time>2014-08-24T12:36:18Z</time>
      </trkpt>
      <trkpt lat="45.8778" lon="3.10152">
        <ele>269</ele>
        <time>2014-08-24T12:36:21Z</time>
      </trkpt>
      <trkpt lat="45.87776" lon="3.10158">
        <ele>269</ele>
        <time>2014-08-24T12:36:24Z</time>
      </trkpt>
      <trkpt lat="45.87771" lon="3.10159">
        <ele>269</ele>
        <time>2014-08-24T12:36:26Z</time>
      </trkpt>
      <trkpt lat="45.87764" lon="3.10161">
        <ele>269</ele>
        <time>2014-08-24T12:36:28Z</time>
      </trkpt>
      <trkpt lat="45.87756" lon="3.10163">
        <ele>269</ele>
        <time>2014-08-24T12:36:30Z</time>
      </trkpt>
      <trkpt lat="45.87746" lon="3.10166">
        <ele>269</ele>
        <time>2014-08-24T12:36:33Z</time>
      </trkpt>
      <trkpt lat="45.87734" lon="3.10168">
        <ele>269</ele>
        <time>2014-08-24T12:36:36Z</time>
      </trkpt>
      <trkpt lat="45.87729" lon="3.10171">
        <ele>269</ele>
        <time>2014-08-24T12:36:38Z</time>
      </trkpt>
      <trkpt lat="45.87724" lon="3.10172">
        <ele>269</ele>
        <time>2014-08-24T12:36:40Z</time>
      </trkpt>
      <trkpt lat="45.87715" lon="3.10174">
        <ele>269</ele>
        <time>2014-08-24T12:36:43Z</time>
      </trkpt>
      <trkpt lat="45.87709" lon="3.10176">
        <ele>268</ele>
        <time>2014-08-24T12:36:45Z</time>
      </trkpt>
      <trkpt lat="45.87701" lon="3.10178">
        <ele>268</ele>
        <time>2014-08-24T12:36:48Z</time>
      </trkpt>
      <trkpt lat="45.87695" lon="3.10179">
        <ele>269</ele>
        <time>2014-08-24T12:36:50Z</time>
      </trkpt>
      <trkpt lat="45.87687" lon="3.1018">
        <ele>269</ele>
        <time>2014-08-24T12:36:52Z</time>
      </trkpt>
      <trkpt lat="45.87677" lon="3.10184">
        <ele>269</ele>
        <time>2014-08-24T12:36:55Z</time>
      </trkpt>
      <trkpt lat="45.87669" lon="3.10181">
        <ele>269</ele>
        <time>2014-08-24T12:36:58Z</time>
      </trkpt>
      <trkpt lat="45.87667" lon="3.10183">
        <ele>269</ele>
        <time>2014-08-24T12:37:00Z</time>
      </trkpt>
      <trkpt lat="45.8767" lon="3.10186">
        <ele>269</ele>
        <time>2014-08-24T12:37:03Z</time>
      </trkpt>
      <trkpt lat="45.87675" lon="3.10193">
        <ele>269</ele>
        <time>2014-08-24T12:37:05Z</time>
      </trkpt>
      <trkpt lat="45.87681" lon="3.10201">
        <ele>269</ele>
        <time>2014-08-24T12:37:07Z</time>
      </trkpt>
      <trkpt lat="45.87687" lon="3.1021">
        <ele>269</ele>
        <time>2014-08-24T12:37:09Z</time>
      </trkpt>
      <trkpt lat="45.87698" lon="3.10224">
        <ele>269</ele>
        <time>2014-08-24T12:37:12Z</time>
      </trkpt>
      <trkpt lat="45.87703" lon="3.10234">
        <ele>269</ele>
        <time>2014-08-24T12:37:14Z</time>
      </trkpt>
      <trkpt lat="45.8771" lon="3.10249">
        <ele>268</ele>
        <time>2014-08-24T12:37:17Z</time>
      </trkpt>
      <trkpt lat="45.87715" lon="3.10258">
        <ele>268</ele>
        <time>2014-08-24T12:37:19Z</time>
      </trkpt>
      <trkpt lat="45.87726" lon="3.10274">
        <ele>268</ele>
        <time>2014-08-24T12:37:22Z</time>
      </trkpt>
      <trkpt lat="45.87734" lon="3.10283">
        <ele>268</ele>
        <time>2014-08-24T12:37:24Z</time>
      </trkpt>
      <trkpt lat="45.87747" lon="3.10298">
        <ele>268</ele>
        <time>2014-08-24T12:37:27Z</time>
      </trkpt>
      <trkpt lat="45.87756" lon="3.10306">
        <ele>268</ele>
        <time>2014-08-24T12:37:29Z</time>
      </trkpt>
      <trkpt lat="45.87769" lon="3.10318">
        <ele>268</ele>
        <time>2014-08-24T12:37:32Z</time>
      </trkpt>
      <trkpt lat="45.87783" lon="3.10329">
        <ele>268</ele>
        <time>2014-08-24T12:37:35Z</time>
      </trkpt>
      <trkpt lat="45.87793" lon="3.10335">
        <ele>268</ele>
        <time>2014-08-24T12:37:37Z</time>
      </trkpt>
      <trkpt lat="45.87803" lon="3.10342">
        <ele>268</ele>
        <time>2014-08-24T12:37:39Z</time>
      </trkpt>
      <trkpt lat="45.87813" lon="3.1035">
        <ele>268</ele>
        <time>2014-08-24T12:37:41Z</time>
      </trkpt>
      <trkpt lat="45.87827" lon="3.10365">
        <ele>268</ele>
        <time>2014-08-24T12:37:44Z</time>
      </trkpt>
      <trkpt lat="45.87835" lon="3.10376">
        <ele>267</ele>
        <time>2014-08-24T12:37:46Z</time>
      </trkpt>
      <trkpt lat="45.87844" lon="3.10395">
        <ele>267</ele>
        <time>2014-08-24T12:37:49Z</time>
      </trkpt>
      <trkpt lat="45.87849" lon="3.1041">
        <ele>267</ele>
        <time>2014-08-24T12:37:51Z</time>
      </trkpt>
      <trkpt lat="45.87856" lon="3.10431">
        <ele>267</ele>
        <time>2014-08-24T12:37:54Z</time>
      </trkpt>
      <trkpt lat="45.87859" lon="3.10445">
        <ele>267</ele>
        <time>2014-08-24T12:37:56Z</time>
      </trkpt>
      <trkpt lat="45.87864" lon="3.10457">
        <ele>267</ele>
        <time>2014-08-24T12:37:58Z</time>
      </trkpt>
      <trkpt lat="45.8787" lon="3.10471">
        <ele>267</ele>
        <time>2014-08-24T12:38:01Z</time>
      </trkpt>
      <trkpt lat="45.87872" lon="3.10473">
        <ele>266</ele>
        <time>2014-08-24T12:38:03Z</time>
      </trkpt>
      <trkpt lat="45.87879" lon="3.10476">
        <ele>267</ele>
        <time>2014-08-24T12:38:06Z</time>
      </trkpt>
      <trkpt lat="45.87886" lon="3.10481">
        <ele>266</ele>
        <time>2014-08-24T12:38:08Z</time>
      </trkpt>
      <trkpt lat="45.87899" lon="3.10493">
        <ele>267</ele>
        <time>2014-08-24T12:38:11Z</time>
      </trkpt>
      <trkpt lat="45.8791" lon="3.10499">
        <ele>267</ele>
        <time>2014-08-24T12:38:13Z</time>
      </trkpt>
      <trkpt lat="45.8792" lon="3.10505">
        <ele>266</ele>
        <time>2014-08-24T12:38:15Z</time>
      </trkpt>
      <trkpt lat="45.87935" lon="3.10515">
        <ele>266</ele>
        <time>2014-08-24T12:38:18Z</time>
      </trkpt>
      <trkpt lat="45.87945" lon="3.10524">
        <ele>266</ele>
        <time>2014-08-24T12:38:20Z</time>
      </trkpt>
      <trkpt lat="45.87958" lon="3.10539">
        <ele>266</ele>
        <time>2014-08-24T12:38:23Z</time>
      </trkpt>
      <trkpt lat="45.87967" lon="3.10549">
        <ele>266</ele>
        <time>2014-08-24T12:38:25Z</time>
      </trkpt>
      <trkpt lat="45.87976" lon="3.10558">
        <ele>266</ele>
        <time>2014-08-24T12:38:27Z</time>
      </trkpt>
      <trkpt lat="45.87986" lon="3.10565">
        <ele>266</ele>
        <time>2014-08-24T12:38:29Z</time>
      </trkpt>
      <trkpt lat="45.88" lon="3.10577">
        <ele>265</ele>
        <time>2014-08-24T12:38:32Z</time>
      </trkpt>
      <trkpt lat="45.88009" lon="3.10586">
        <ele>265</ele>
        <time>2014-08-24T12:38:34Z</time>
      </trkpt>
      <trkpt lat="45.88017" lon="3.10596">
        <ele>265</ele>
        <time>2014-08-24T12:38:36Z</time>
      </trkpt>
      <trkpt lat="45.88029" lon="3.10613">
        <ele>266</ele>
        <time>2014-08-24T12:38:39Z</time>
      </trkpt>
      <trkpt lat="45.88038" lon="3.10631">
        <ele>265</ele>
        <time>2014-08-24T12:38:42Z</time>
      </trkpt>
      <trkpt lat="45.88044" lon="3.10644">
        <ele>266</ele>
        <time>2014-08-24T12:38:44Z</time>
      </trkpt>
      <trkpt lat="45.88049" lon="3.10658">
        <ele>265</ele>
        <time>2014-08-24T12:38:46Z</time>
      </trkpt>
      <trkpt lat="45.88059" lon="3.10679">
        <ele>265</ele>
        <time>2014-08-24T12:38:49Z</time>
      </trkpt>
      <trkpt lat="45.88067" lon="3.10691">
        <ele>265</ele>
        <time>2014-08-24T12:38:51Z</time>
      </trkpt>
      <trkpt lat="45.88079" lon="3.1071">
        <ele>265</ele>
        <time>2014-08-24T12:38:54Z</time>
      </trkpt>
      <trkpt lat="45.88087" lon="3.1072">
        <ele>265</ele>
        <time>2014-08-24T12:38:56Z</time>
      </trkpt>
      <trkpt lat="45.88098" lon="3.10734">
        <ele>265</ele>
        <time>2014-08-24T12:38:59Z</time>
      </trkpt>
      <trkpt lat="45.88104" lon="3.10745">
        <ele>265</ele>
        <time>2014-08-24T12:39:01Z</time>
      </trkpt>
      <trkpt lat="45.88108" lon="3.10755">
        <ele>265</ele>
        <time>2014-08-24T12:39:03Z</time>
      </trkpt>
      <trkpt lat="45.88117" lon="3.10764">
        <ele>264</ele>
        <time>2014-08-24T12:39:06Z</time>
      </trkpt>
      <trkpt lat="45.88124" lon="3.1076">
        <ele>264</ele>
        <time>2014-08-24T12:39:08Z</time>
      </trkpt>
      <trkpt lat="45.88134" lon="3.10748">
        <ele>264</ele>
        <time>2014-08-24T12:39:11Z</time>
      </trkpt>
      <trkpt lat="45.8814" lon="3.10736">
        <ele>265</ele>
        <time>2014-08-24T12:39:13Z</time>
      </trkpt>
      <trkpt lat="45.88144" lon="3.10724">
        <ele>265</ele>
        <time>2014-08-24T12:39:15Z</time>
      </trkpt>
      <trkpt lat="45.88151" lon="3.10706">
        <ele>265</ele>
        <time>2014-08-24T12:39:18Z</time>
      </trkpt>
      <trkpt lat="45.88152" lon="3.10697">
        <ele>265</ele>
        <time>2014-08-24T12:39:20Z</time>
      </trkpt>
      <trkpt lat="45.88157" lon="3.1068">
        <ele>265</ele>
        <time>2014-08-24T12:39:23Z</time>
      </trkpt>
      <trkpt lat="45.88162" lon="3.10669">
        <ele>265</ele>
        <time>2014-08-24T12:39:25Z</time>
      </trkpt>
      <trkpt lat="45.88168" lon="3.10658">
        <ele>266</ele>
        <time>2014-08-24T12:39:27Z</time>
      </trkpt>
      <trkpt lat="45.88174" lon="3.10647">
        <ele>266</ele>
        <time>2014-08-24T12:39:29Z</time>
      </trkpt>
      <trkpt lat="45.88183" lon="3.10645">
        <ele>266</ele>
        <time>2014-08-24T12:39:31Z</time>
      </trkpt>
      <trkpt lat="45.8819" lon="3.10654">
        <ele>266</ele>
        <time>2014-08-24T12:39:33Z</time>
      </trkpt>
      <trkpt lat="45.88199" lon="3.10663">
        <ele>266</ele>
        <time>2014-08-24T12:39:35Z</time>
      </trkpt>
      <trkpt lat="45.88213" lon="3.10673">
        <ele>265</ele>
        <time>2014-08-24T12:39:38Z</time>
      </trkpt>
      <trkpt lat="45.88224" lon="3.10683">
        <ele>265</ele>
        <time>2014-08-24T12:39:41Z</time>
      </trkpt>
      <trkpt lat="45.88229" lon="3.10689">
        <ele>265</ele>
        <time>2014-08-24T12:39:43Z</time>
      </trkpt>
      <trkpt lat="45.88233" lon="3.10704">
        <ele>265</ele>
        <time>2014-08-24T12:39:46Z</time>
      </trkpt>
      <trkpt lat="45.88236" lon="3.10718">
        <ele>265</ele>
        <time>2014-08-24T12:39:48Z</time>
      </trkpt>
      <trkpt lat="45.88239" lon="3.10732">
        <ele>265</ele>
        <time>2014-08-24T12:39:50Z</time>
      </trkpt>
      <trkpt lat="45.88241" lon="3.10756">
        <ele>265</ele>
        <time>2014-08-24T12:39:53Z</time>
      </trkpt>
      <trkpt lat="45.88243" lon="3.10781">
        <ele>265</ele>
        <time>2014-08-24T12:39:56Z</time>
      </trkpt>
      <trkpt lat="45.88243" lon="3.10798">
        <ele>265</ele>
        <time>2014-08-24T12:39:58Z</time>
      </trkpt>
      <trkpt lat="45.88242" lon="3.10822">
        <ele>265</ele>
        <time>2014-08-24T12:40:01Z</time>
      </trkpt>
      <trkpt lat="45.88241" lon="3.10839">
        <ele>264</ele>
        <time>2014-08-24T12:40:03Z</time>
      </trkpt>
      <trkpt lat="45.8824" lon="3.10855">
        <ele>264</ele>
        <time>2014-08-24T12:40:05Z</time>
      </trkpt>
      <trkpt lat="45.88238" lon="3.10878">
        <ele>263</ele>
        <time>2014-08-24T12:40:08Z</time>
      </trkpt>
      <trkpt lat="45.88236" lon="3.10901">
        <ele>263</ele>
        <time>2014-08-24T12:40:11Z</time>
      </trkpt>
      <trkpt lat="45.88237" lon="3.10918">
        <ele>263</ele>
        <time>2014-08-24T12:40:13Z</time>
      </trkpt>
      <trkpt lat="45.88244" lon="3.10933">
        <ele>263</ele>
        <time>2014-08-24T12:40:15Z</time>
      </trkpt>
      <trkpt lat="45.88254" lon="3.10944">
        <ele>263</ele>
        <time>2014-08-24T12:40:17Z</time>
      </trkpt>
      <trkpt lat="45.88266" lon="3.10948">
        <ele>264</ele>
        <time>2014-08-24T12:40:19Z</time>
      </trkpt>
      <trkpt lat="45.88279" lon="3.1095">
        <ele>264</ele>
        <time>2014-08-24T12:40:21Z</time>
      </trkpt>
      <trkpt lat="45.88292" lon="3.1095">
        <ele>264</ele>
        <time>2014-08-24T12:40:23Z</time>
      </trkpt>
      <trkpt lat="45.88311" lon="3.1095">
        <ele>264</ele>
        <time>2014-08-24T12:40:26Z</time>
      </trkpt>
      <trkpt lat="45.88323" lon="3.10948">
        <ele>263</ele>
        <time>2014-08-24T12:40:28Z</time>
      </trkpt>
      <trkpt lat="45.88341" lon="3.10946">
        <ele>263</ele>
        <time>2014-08-24T12:40:31Z</time>
      </trkpt>
      <trkpt lat="45.88353" lon="3.10944">
        <ele>264</ele>
        <time>2014-08-24T12:40:33Z</time>
      </trkpt>
      <trkpt lat="45.88372" lon="3.1094">
        <ele>264</ele>
        <time>2014-08-24T12:40:36Z</time>
      </trkpt>
      <trkpt lat="45.88384" lon="3.10936">
        <ele>264</ele>
        <time>2014-08-24T12:40:38Z</time>
      </trkpt>
      <trkpt lat="45.88395" lon="3.10931">
        <ele>264</ele>
        <time>2014-08-24T12:40:40Z</time>
      </trkpt>
      <trkpt lat="45.88414" lon="3.10923">
        <ele>264</ele>
        <time>2014-08-24T12:40:43Z</time>
      </trkpt>
      <trkpt lat="45.88426" lon="3.10917">
        <ele>264</ele>
        <time>2014-08-24T12:40:45Z</time>
      </trkpt>
      <trkpt lat="45.88438" lon="3.10915">
        <ele>263</ele>
        <time>2014-08-24T12:40:47Z</time>
      </trkpt>
      <trkpt lat="45.88457" lon="3.10914">
        <ele>264</ele>
        <time>2014-08-24T12:40:50Z</time>
      </trkpt>
      <trkpt lat="45.8847" lon="3.10916">
        <ele>264</ele>
        <time>2014-08-24T12:40:52Z</time>
      </trkpt>
      <trkpt lat="45.88481" lon="3.10919">
        <ele>264</ele>
        <time>2014-08-24T12:40:54Z</time>
      </trkpt>
      <trkpt lat="45.88496" lon="3.10925">
        <ele>264</ele>
        <time>2014-08-24T12:40:57Z</time>
      </trkpt>
      <trkpt lat="45.88505" lon="3.10929">
        <ele>264</ele>
        <time>2014-08-24T12:40:59Z</time>
      </trkpt>
      <trkpt lat="45.88515" lon="3.10935">
        <ele>265</ele>
        <time>2014-08-24T12:41:02Z</time>
      </trkpt>
      <trkpt lat="45.88517" lon="3.10949">
        <ele>265</ele>
        <time>2014-08-24T12:41:05Z</time>
      </trkpt>
      <trkpt lat="45.88517" lon="3.10961">
        <ele>264</ele>
        <time>2014-08-24T12:41:07Z</time>
      </trkpt>
      <trkpt lat="45.88516" lon="3.10973">
        <ele>264</ele>
        <time>2014-08-24T12:41:09Z</time>
      </trkpt>
      <trkpt lat="45.88514" lon="3.10989">
        <ele>264</ele>
        <time>2014-08-24T12:41:12Z</time>
      </trkpt>
      <trkpt lat="45.8851" lon="3.10994">
        <ele>264</ele>
        <time>2014-08-24T12:41:14Z</time>
      </trkpt>
      <trkpt lat="45.88507" lon="3.10995">
        <ele>263</ele>
        <time>2014-08-24T12:41:17Z</time>
      </trkpt>
      <trkpt lat="45.88506" lon="3.10995">
        <ele>263</ele>
        <time>2014-08-24T12:41:19Z</time>
      </trkpt>
      <trkpt lat="45.88506" lon="3.10995">
        <ele>263</ele>
        <time>2014-08-24T12:41:20Z</time>
      </trkpt>
    </trkseg>
  </trk>
</gpx>